<?xml version="1.0" encoding="UTF-8" standalone="no" ?>
<gpx xmlns="http://www.topografix.com/GPX/1/1" creator="MapSource 6.16.3" version="1.1" xmlns:xsi="http://www.w3.org/2001/XMLSchema-instance" xsi:schemaLocation="http://www.topografix.com/GPX/1/1 http://www.topografix.com/GPX/1/1/gpx.xsd">

  <metadata>
    <link href="http://www.garmin.com">
      <text>Garmin International</text>
    </link>
    <time>2016-09-17T08:13:27Z</time>
    <bounds maxlat="46.505924994125962" maxlon="9.360218038782477" minlat="46.408020006492734" minlon="9.324156995862722"/>
  </metadata>

  <trk>
    <name>Campodolcino-Andossi-Spluga</name>
    <trkseg>
      <trkpt lat="46.408020006492734" lon="9.351123003289104">
        <ele>1073</ele>
        <time>2007-06-09T07:13:18Z</time>
      </trkpt>
      <trkpt lat="46.408036015927792" lon="9.351144041866064">
        <ele>998.89999999999998</ele>
        <time>2007-06-09T07:13:20Z</time>
      </trkpt>
      <trkpt lat="46.408058982342482" lon="9.351163990795612">
        <ele>1073</ele>
        <time>2007-06-09T07:13:22Z</time>
      </trkpt>
      <trkpt lat="46.408071974292397" lon="9.351163990795612">
        <ele>1073</ele>
        <time>2007-06-09T07:13:23Z</time>
      </trkpt>
      <trkpt lat="46.408138023689389" lon="9.351155022159219">
        <ele>1073.4000000000001</ele>
        <time>2007-06-09T07:13:28Z</time>
      </trkpt>
      <trkpt lat="46.408200971782207" lon="9.351167008280754">
        <ele>1073.4000000000001</ele>
        <time>2007-06-09T07:13:34Z</time>
      </trkpt>
      <trkpt lat="46.40829099342227" lon="9.351158961653709">
        <ele>1073.4000000000001</ele>
        <time>2007-06-09T07:13:42Z</time>
      </trkpt>
      <trkpt lat="46.408402975648642" lon="9.351143036037684">
        <ele>1073.9000000000001</ele>
        <time>2007-06-09T07:13:48Z</time>
      </trkpt>
      <trkpt lat="46.408555023372173" lon="9.351115962490439">
        <ele>1074.9000000000001</ele>
        <time>2007-06-09T07:13:55Z</time>
      </trkpt>
      <trkpt lat="46.408746968954802" lon="9.35111403465271">
        <ele>1075.9000000000001</ele>
        <time>2007-06-09T07:14:03Z</time>
      </trkpt>
      <trkpt lat="46.408873032778502" lon="9.351070029661059">
        <ele>1075.4000000000001</ele>
        <time>2007-06-09T07:14:10Z</time>
      </trkpt>
      <trkpt lat="46.409078976139426" lon="9.351031975820661">
        <ele>1076.8</ele>
        <time>2007-06-09T07:14:19Z</time>
      </trkpt>
      <trkpt lat="46.409206967800856" lon="9.350903984159231">
        <ele>1077.3</ele>
        <time>2007-06-09T07:14:26Z</time>
      </trkpt>
      <trkpt lat="46.409228006377816" lon="9.350652024149895">
        <ele>1076.3</ele>
        <time>2007-06-09T07:14:34Z</time>
      </trkpt>
      <trkpt lat="46.409229012206197" lon="9.350463012233377">
        <ele>1075.4000000000001</ele>
        <time>2007-06-09T07:14:39Z</time>
      </trkpt>
      <trkpt lat="46.409222977235913" lon="9.35027601197362">
        <ele>1075.4000000000001</ele>
        <time>2007-06-09T07:14:43Z</time>
      </trkpt>
      <trkpt lat="46.409211996942759" lon="9.349999995902181">
        <ele>1073</ele>
        <time>2007-06-09T07:14:48Z</time>
      </trkpt>
      <trkpt lat="46.409119041636586" lon="9.349682992324233">
        <ele>1072</ele>
        <time>2007-06-09T07:14:55Z</time>
      </trkpt>
      <trkpt lat="46.409030025824904" lon="9.349467996507883">
        <ele>1070.5999999999999</ele>
        <time>2007-06-09T07:14:59Z</time>
      </trkpt>
      <trkpt lat="46.408997001126409" lon="9.349114028736949">
        <ele>1068.5999999999999</ele>
        <time>2007-06-09T07:15:03Z</time>
      </trkpt>
      <trkpt lat="46.40906497836113" lon="9.348974972963333">
        <ele>1068.2</ele>
        <time>2007-06-09T07:15:05Z</time>
      </trkpt>
      <trkpt lat="46.409265976399183" lon="9.348743967711926">
        <ele>1068.2</ele>
        <time>2007-06-09T07:15:12Z</time>
      </trkpt>
      <trkpt lat="46.409424981102347" lon="9.348554033786058">
        <ele>1068.2</ele>
        <time>2007-06-09T07:15:19Z</time>
      </trkpt>
      <trkpt lat="46.409592032432556" lon="9.348359992727637">
        <ele>1068.5999999999999</ele>
        <time>2007-06-09T07:15:26Z</time>
      </trkpt>
      <trkpt lat="46.409784983843565" lon="9.34812999330461">
        <ele>1068.5999999999999</ele>
        <time>2007-06-09T07:15:34Z</time>
      </trkpt>
      <trkpt lat="46.409865031018853" lon="9.348041983321309">
        <ele>1069.0999999999999</ele>
        <time>2007-06-09T07:15:41Z</time>
      </trkpt>
      <trkpt lat="46.409865031018853" lon="9.348025973886251">
        <ele>1069.0999999999999</ele>
        <time>2007-06-09T07:15:42Z</time>
      </trkpt>
      <trkpt lat="46.40992596745491" lon="9.347965959459543">
        <ele>1069.0999999999999</ele>
        <time>2007-06-09T07:15:47Z</time>
      </trkpt>
      <trkpt lat="46.409959997981787" lon="9.347936036065221">
        <ele>1069.0999999999999</ele>
        <time>2007-06-09T07:15:49Z</time>
      </trkpt>
      <trkpt lat="46.410014983266592" lon="9.347846014425159">
        <ele>1069.5999999999999</ele>
        <time>2007-06-09T07:15:57Z</time>
      </trkpt>
      <trkpt lat="46.410077009350061" lon="9.347790023311973">
        <ele>1069.5999999999999</ele>
        <time>2007-06-09T07:16:04Z</time>
      </trkpt>
      <trkpt lat="46.410127971321344" lon="9.347716011106968">
        <ele>1069.0999999999999</ele>
        <time>2007-06-09T07:16:11Z</time>
      </trkpt>
      <trkpt lat="46.410217992961407" lon="9.34761299751699">
        <ele>1069.5999999999999</ele>
        <time>2007-06-09T07:16:17Z</time>
      </trkpt>
      <trkpt lat="46.410341039299965" lon="9.347438989207149">
        <ele>1070.0999999999999</ele>
        <time>2007-06-09T07:16:25Z</time>
      </trkpt>
      <trkpt lat="46.410496020689607" lon="9.347220975905657">
        <ele>1070.5999999999999</ele>
        <time>2007-06-09T07:16:34Z</time>
      </trkpt>
      <trkpt lat="46.410626024007797" lon="9.347019977867603">
        <ele>1072</ele>
        <time>2007-06-09T07:16:42Z</time>
      </trkpt>
      <trkpt lat="46.410730965435505" lon="9.346845969557762">
        <ele>1072.5</ele>
        <time>2007-06-09T07:16:49Z</time>
      </trkpt>
      <trkpt lat="46.410838002339005" lon="9.34664698317647">
        <ele>1073</ele>
        <time>2007-06-09T07:16:57Z</time>
      </trkpt>
      <trkpt lat="46.410975968465209" lon="9.346417989581823">
        <ele>1073.9000000000001</ele>
        <time>2007-06-09T07:17:05Z</time>
      </trkpt>
      <trkpt lat="46.411144025623798" lon="9.346158988773823">
        <ele>1075.9000000000001</ele>
        <time>2007-06-09T07:17:14Z</time>
      </trkpt>
      <trkpt lat="46.411281991750002" lon="9.345942987129092">
        <ele>1075.9000000000001</ele>
        <time>2007-06-09T07:17:21Z</time>
      </trkpt>
      <trkpt lat="46.411466980352998" lon="9.345770990476012">
        <ele>1075.4000000000001</ele>
        <time>2007-06-09T07:17:27Z</time>
      </trkpt>
      <trkpt lat="46.41175095923245" lon="9.345650961622596">
        <ele>1074.9000000000001</ele>
        <time>2007-06-09T07:17:34Z</time>
      </trkpt>
      <trkpt lat="46.412006020545959" lon="9.34555197134614">
        <ele>1074.4000000000001</ele>
        <time>2007-06-09T07:17:40Z</time>
      </trkpt>
      <trkpt lat="46.412292011082172" lon="9.345375029370189">
        <ele>1074.4000000000001</ele>
        <time>2007-06-09T07:17:48Z</time>
      </trkpt>
      <trkpt lat="46.412562998011708" lon="9.345179982483387">
        <ele>1074.9000000000001</ele>
        <time>2007-06-09T07:17:57Z</time>
      </trkpt>
      <trkpt lat="46.412768019363284" lon="9.344973033294082">
        <ele>1074.9000000000001</ele>
        <time>2007-06-09T07:18:05Z</time>
      </trkpt>
      <trkpt lat="46.412968011572957" lon="9.344773963093758">
        <ele>1075.4000000000001</ele>
        <time>2007-06-09T07:18:13Z</time>
      </trkpt>
      <trkpt lat="46.413203962147236" lon="9.344544969499111">
        <ele>1075.9000000000001</ele>
        <time>2007-06-09T07:18:21Z</time>
      </trkpt>
      <trkpt lat="46.413472015410662" lon="9.344242969527841">
        <ele>1076.3</ele>
        <time>2007-06-09T07:18:30Z</time>
      </trkpt>
      <trkpt lat="46.413682987913489" lon="9.343993021175265">
        <ele>1076.8</ele>
        <time>2007-06-09T07:18:37Z</time>
      </trkpt>
      <trkpt lat="46.413865964859724" lon="9.343740977346897">
        <ele>1076.8</ele>
        <time>2007-06-09T07:18:43Z</time>
      </trkpt>
      <trkpt lat="46.414125971496105" lon="9.343502009287477">
        <ele>1077.3</ele>
        <time>2007-06-09T07:18:51Z</time>
      </trkpt>
      <trkpt lat="46.414343984797597" lon="9.343234961852431">
        <ele>1078.3</ele>
        <time>2007-06-09T07:18:58Z</time>
      </trkpt>
      <trkpt lat="46.414654031395912" lon="9.342961963266134">
        <ele>1078.3</ele>
        <time>2007-06-09T07:19:07Z</time>
      </trkpt>
      <trkpt lat="46.414905991405249" lon="9.342801030725241">
        <ele>1078.7</ele>
        <time>2007-06-09T07:19:14Z</time>
      </trkpt>
      <trkpt lat="46.415268005803227" lon="9.342568013817072">
        <ele>1080.2</ele>
        <time>2007-06-09T07:19:24Z</time>
      </trkpt>
      <trkpt lat="46.41555299051106" lon="9.34245896525681">
        <ele>1080.7</ele>
        <time>2007-06-09T07:19:32Z</time>
      </trkpt>
      <trkpt lat="46.415864964947104" lon="9.34241303242743">
        <ele>1082.0999999999999</ele>
        <time>2007-06-09T07:19:40Z</time>
      </trkpt>
      <trkpt lat="46.415907964110374" lon="9.342408003285527">
        <ele>1082.0999999999999</ele>
        <time>2007-06-09T07:19:41Z</time>
      </trkpt>
      <trkpt lat="46.416195966303349" lon="9.34236902743578">
        <ele>1082.0999999999999</ele>
        <time>2007-06-09T07:19:48Z</time>
      </trkpt>
      <trkpt lat="46.416386989876628" lon="9.342337008565664">
        <ele>1083.0999999999999</ele>
        <time>2007-06-09T07:19:53Z</time>
      </trkpt>
      <trkpt lat="46.416616989299655" lon="9.34224002994597">
        <ele>1084.5</ele>
        <time>2007-06-09T07:20:00Z</time>
      </trkpt>
      <trkpt lat="46.416865009814501" lon="9.342074990272522">
        <ele>1085.5</ele>
        <time>2007-06-09T07:20:08Z</time>
      </trkpt>
      <trkpt lat="46.417160974815488" lon="9.341923026368022">
        <ele>1087.4000000000001</ele>
        <time>2007-06-09T07:20:17Z</time>
      </trkpt>
      <trkpt lat="46.417427016422153" lon="9.341839039698243">
        <ele>1088.3</ele>
        <time>2007-06-09T07:20:25Z</time>
      </trkpt>
      <trkpt lat="46.417724993079901" lon="9.341781036928296">
        <ele>1089.3</ele>
        <time>2007-06-09T07:20:33Z</time>
      </trkpt>
      <trkpt lat="46.418034033849835" lon="9.341755975037813">
        <ele>1088.3</ele>
        <time>2007-06-09T07:20:40Z</time>
      </trkpt>
      <trkpt lat="46.418221034109592" lon="9.341690009459853">
        <ele>1088.3</ele>
        <time>2007-06-09T07:20:45Z</time>
      </trkpt>
      <trkpt lat="46.418640967458487" lon="9.341631000861526">
        <ele>1086.4000000000001</ele>
        <time>2007-06-09T07:20:53Z</time>
      </trkpt>
      <trkpt lat="46.418910026550293" lon="9.341545002534986">
        <ele>1087.4000000000001</ele>
        <time>2007-06-09T07:20:59Z</time>
      </trkpt>
      <trkpt lat="46.419194005429745" lon="9.341420028358698">
        <ele>1088.8</ele>
        <time>2007-06-09T07:21:07Z</time>
      </trkpt>
      <trkpt lat="46.419439008459449" lon="9.34129698202014">
        <ele>1089.8</ele>
        <time>2007-06-09T07:21:14Z</time>
      </trkpt>
      <trkpt lat="46.419747965410352" lon="9.341128002852202">
        <ele>1090.8</ele>
        <time>2007-06-09T07:21:23Z</time>
      </trkpt>
      <trkpt lat="46.420068992301822" lon="9.340976038947702">
        <ele>1092.2</ele>
        <time>2007-06-09T07:21:31Z</time>
      </trkpt>
      <trkpt lat="46.420437041670084" lon="9.340865984559059">
        <ele>1093.5999999999999</ele>
        <time>2007-06-09T07:21:40Z</time>
      </trkpt>
      <trkpt lat="46.420719008892775" lon="9.340817034244537">
        <ele>1095.0999999999999</ele>
        <time>2007-06-09T07:21:48Z</time>
      </trkpt>
      <trkpt lat="46.421049004420638" lon="9.340814016759396">
        <ele>1096.5</ele>
        <time>2007-06-09T07:21:58Z</time>
      </trkpt>
      <trkpt lat="46.421361984685063" lon="9.340809993445873">
        <ele>1097.5</ele>
        <time>2007-06-09T07:22:07Z</time>
      </trkpt>
      <trkpt lat="46.421694997698069" lon="9.34080102480948">
        <ele>1098.9000000000001</ele>
        <time>2007-06-09T07:22:17Z</time>
      </trkpt>
      <trkpt lat="46.421985011547804" lon="9.340837989002466">
        <ele>1099.4000000000001</ele>
        <time>2007-06-09T07:22:26Z</time>
      </trkpt>
      <trkpt lat="46.422205036506057" lon="9.340882999822497">
        <ele>1100.4000000000001</ele>
        <time>2007-06-09T07:22:32Z</time>
      </trkpt>
      <trkpt lat="46.422511981800199" lon="9.340933039784432">
        <ele>1101.3</ele>
        <time>2007-06-09T07:22:40Z</time>
      </trkpt>
      <trkpt lat="46.422796966508031" lon="9.340946031734347">
        <ele>1101.8</ele>
        <time>2007-06-09T07:22:48Z</time>
      </trkpt>
      <trkpt lat="46.423021014779806" lon="9.340949971228838">
        <ele>1102.8</ele>
        <time>2007-06-09T07:22:55Z</time>
      </trkpt>
      <trkpt lat="46.423236010596156" lon="9.340929016470909">
        <ele>1103.7</ele>
        <time>2007-06-09T07:23:02Z</time>
      </trkpt>
      <trkpt lat="46.423454023897648" lon="9.340890040621162">
        <ele>1106.5999999999999</ele>
        <time>2007-06-09T07:23:10Z</time>
      </trkpt>
      <trkpt lat="46.423643035814166" lon="9.340786021202803">
        <ele>1108.0999999999999</ele>
        <time>2007-06-09T07:23:17Z</time>
      </trkpt>
      <trkpt lat="46.423918968066573" lon="9.340620981529355">
        <ele>1111.4000000000001</ele>
        <time>2007-06-09T07:23:27Z</time>
      </trkpt>
      <trkpt lat="46.423946963623166" lon="9.340602960437536">
        <ele>1110.9000000000001</ele>
        <time>2007-06-09T07:23:28Z</time>
      </trkpt>
      <trkpt lat="46.424182998016477" lon="9.340384025126696">
        <ele>1112.4000000000001</ele>
        <time>2007-06-09T07:23:37Z</time>
      </trkpt>
      <trkpt lat="46.42440402880311" lon="9.340160982683301">
        <ele>1113.8</ele>
        <time>2007-06-09T07:23:45Z</time>
      </trkpt>
      <trkpt lat="46.424611983820796" lon="9.339956967160106">
        <ele>1115.3</ele>
        <time>2007-06-09T07:23:54Z</time>
      </trkpt>
      <trkpt lat="46.424795966595411" lon="9.339783964678645">
        <ele>1117.2</ele>
        <time>2007-06-09T07:24:02Z</time>
      </trkpt>
      <trkpt lat="46.424968969076872" lon="9.339647004380822">
        <ele>1117.2</ele>
        <time>2007-06-09T07:24:09Z</time>
      </trkpt>
      <trkpt lat="46.425086986273527" lon="9.339596964418888">
        <ele>1118.5999999999999</ele>
        <time>2007-06-09T07:24:14Z</time>
      </trkpt>
      <trkpt lat="46.425053039565682" lon="9.339829981327057">
        <ele>1119.0999999999999</ele>
        <time>2007-06-09T07:24:18Z</time>
      </trkpt>
      <trkpt lat="46.425052033737302" lon="9.339865017682314">
        <ele>1118.5999999999999</ele>
        <time>2007-06-09T07:24:19Z</time>
      </trkpt>
      <trkpt lat="46.424870984628797" lon="9.341451041400433">
        <ele>1121.5</ele>
        <time>2007-06-09T07:24:34Z</time>
      </trkpt>
      <trkpt lat="46.425446989014745" lon="9.341264041140676">
        <ele>1123.4000000000001</ele>
        <time>2007-06-09T07:24:46Z</time>
      </trkpt>
      <trkpt lat="46.426091976463795" lon="9.340107003226876">
        <ele>1124.9000000000001</ele>
        <time>2007-06-09T07:24:50Z</time>
      </trkpt>
      <trkpt lat="46.426421971991658" lon="9.339650021865964">
        <ele>1125.8</ele>
        <time>2007-06-09T07:24:57Z</time>
      </trkpt>
      <trkpt lat="46.426586005836725" lon="9.339696960523725">
        <ele>1126.8</ele>
        <time>2007-06-09T07:25:04Z</time>
      </trkpt>
      <trkpt lat="46.426761019974947" lon="9.339697966352105">
        <ele>1127.8</ele>
        <time>2007-06-09T07:25:10Z</time>
      </trkpt>
      <trkpt lat="46.426951037719846" lon="9.339711964130402">
        <ele>1128.7</ele>
        <time>2007-06-09T07:25:17Z</time>
      </trkpt>
      <trkpt lat="46.427126973867416" lon="9.339796034619212">
        <ele>1129.7</ele>
        <time>2007-06-09T07:25:23Z</time>
      </trkpt>
      <trkpt lat="46.427158992737532" lon="9.339768961071968">
        <ele>1129.7</ele>
        <time>2007-06-09T07:25:25Z</time>
      </trkpt>
      <trkpt lat="46.427300982177258" lon="9.339730991050601">
        <ele>1130.5999999999999</ele>
        <time>2007-06-09T07:25:30Z</time>
      </trkpt>
      <trkpt lat="46.427554031834006" lon="9.339710036292672">
        <ele>1132.0999999999999</ele>
        <time>2007-06-09T07:25:38Z</time>
      </trkpt>
      <trkpt lat="46.427720999345183" lon="9.339682040736079">
        <ele>1133.0999999999999</ele>
        <time>2007-06-09T07:25:44Z</time>
      </trkpt>
      <trkpt lat="46.427944963797927" lon="9.339636024087668">
        <ele>1135</ele>
        <time>2007-06-09T07:25:52Z</time>
      </trkpt>
      <trkpt lat="46.42820798791945" lon="9.339552037417889">
        <ele>1137.4000000000001</ele>
        <time>2007-06-09T07:26:01Z</time>
      </trkpt>
      <trkpt lat="46.428445028141141" lon="9.339489005506039">
        <ele>1139.3</ele>
        <time>2007-06-09T07:26:09Z</time>
      </trkpt>
      <trkpt lat="46.428671004250646" lon="9.339436031877995">
        <ele>1140.7</ele>
        <time>2007-06-09T07:26:17Z</time>
      </trkpt>
      <trkpt lat="46.42887300811708" lon="9.339404013007879">
        <ele>1143.5999999999999</ele>
        <time>2007-06-09T07:26:24Z</time>
      </trkpt>
      <trkpt lat="46.428898992016912" lon="9.339399989694357">
        <ele>1143.5999999999999</ele>
        <time>2007-06-09T07:26:25Z</time>
      </trkpt>
      <trkpt lat="46.429019020870328" lon="9.339322960004211">
        <ele>1145.0999999999999</ele>
        <time>2007-06-09T07:26:31Z</time>
      </trkpt>
      <trkpt lat="46.429158998653293" lon="9.339217012748122">
        <ele>1147</ele>
        <time>2007-06-09T07:26:39Z</time>
      </trkpt>
      <trkpt lat="46.429363014176488" lon="9.339007968083024">
        <ele>1149.9000000000001</ele>
        <time>2007-06-09T07:26:51Z</time>
      </trkpt>
      <trkpt lat="46.429784959182143" lon="9.338531959801912">
        <ele>1152.8</ele>
        <time>2007-06-09T07:27:09Z</time>
      </trkpt>
      <trkpt lat="46.430005989968777" lon="9.338666992262006">
        <ele>1154.7</ele>
        <time>2007-06-09T07:27:17Z</time>
      </trkpt>
      <trkpt lat="46.430118978023529" lon="9.338636985048652">
        <ele>1157.0999999999999</ele>
        <time>2007-06-09T07:27:24Z</time>
      </trkpt>
      <trkpt lat="46.430207993835211" lon="9.338576970621944">
        <ele>1158</ele>
        <time>2007-06-09T07:27:30Z</time>
      </trkpt>
      <trkpt lat="46.430331962183118" lon="9.338540006428957">
        <ele>1159</ele>
        <time>2007-06-09T07:27:37Z</time>
      </trkpt>
      <trkpt lat="46.430538995191455" lon="9.338491978123784">
        <ele>1161.4000000000001</ele>
        <time>2007-06-09T07:27:47Z</time>
      </trkpt>
      <trkpt lat="46.430751979351044" lon="9.338431041687727">
        <ele>1162.9000000000001</ele>
        <time>2007-06-09T07:27:57Z</time>
      </trkpt>
      <trkpt lat="46.430959012359381" lon="9.338424000889063">
        <ele>1164.3</ele>
        <time>2007-06-09T07:28:06Z</time>
      </trkpt>
      <trkpt lat="46.431074012070894" lon="9.338415032252669">
        <ele>1165.7</ele>
        <time>2007-06-09T07:28:11Z</time>
      </trkpt>
      <trkpt lat="46.431190017610788" lon="9.338350994512439">
        <ele>1167.2</ele>
        <time>2007-06-09T07:28:18Z</time>
      </trkpt>
      <trkpt lat="46.43136402592063" lon="9.338254015892744">
        <ele>1168.5999999999999</ele>
        <time>2007-06-09T07:28:28Z</time>
      </trkpt>
      <trkpt lat="46.431405013427138" lon="9.338249992579222">
        <ele>1168.5999999999999</ele>
        <time>2007-06-09T07:28:30Z</time>
      </trkpt>
      <trkpt lat="46.431518001481891" lon="9.338199030607939">
        <ele>1170.5</ele>
        <time>2007-06-09T07:28:37Z</time>
      </trkpt>
      <trkpt lat="46.431577010080218" lon="9.338152008131146">
        <ele>1172</ele>
        <time>2007-06-09T07:28:41Z</time>
      </trkpt>
      <trkpt lat="46.431734003126621" lon="9.338085036724806">
        <ele>1173.9000000000001</ele>
        <time>2007-06-09T07:28:50Z</time>
      </trkpt>
      <trkpt lat="46.431850008666515" lon="9.338156031444669">
        <ele>1174.9000000000001</ele>
        <time>2007-06-09T07:28:56Z</time>
      </trkpt>
      <trkpt lat="46.431912034749985" lon="9.338166005909443">
        <ele>1176.8</ele>
        <time>2007-06-09T07:29:00Z</time>
      </trkpt>
      <trkpt lat="46.432100962847471" lon="9.338017981499434">
        <ele>1178.2</ele>
        <time>2007-06-09T07:29:09Z</time>
      </trkpt>
      <trkpt lat="46.432141028344631" lon="9.337999960407615">
        <ele>1179.2</ele>
        <time>2007-06-09T07:29:11Z</time>
      </trkpt>
      <trkpt lat="46.4322479814291" lon="9.337931983172894">
        <ele>1180.2</ele>
        <time>2007-06-09T07:29:17Z</time>
      </trkpt>
      <trkpt lat="46.432406986132264" lon="9.33788001537323">
        <ele>1181.5999999999999</ele>
        <time>2007-06-09T07:29:25Z</time>
      </trkpt>
      <trkpt lat="46.432560039684176" lon="9.337814971804619">
        <ele>1182.0999999999999</ele>
        <time>2007-06-09T07:29:33Z</time>
      </trkpt>
      <trkpt lat="46.432678978890181" lon="9.337734002619982">
        <ele>1183.5</ele>
        <time>2007-06-09T07:29:41Z</time>
      </trkpt>
      <trkpt lat="46.432813005521894" lon="9.337674994021654">
        <ele>1184</ele>
        <time>2007-06-09T07:29:48Z</time>
      </trkpt>
      <trkpt lat="46.432936973869801" lon="9.337611040100455">
        <ele>1186.4000000000001</ele>
        <time>2007-06-09T07:29:55Z</time>
      </trkpt>
      <trkpt lat="46.433100001886487" lon="9.337526969611645">
        <ele>1189.3</ele>
        <time>2007-06-09T07:30:05Z</time>
      </trkpt>
      <trkpt lat="46.433225981891155" lon="9.337498974055052">
        <ele>1191.7</ele>
        <time>2007-06-09T07:30:13Z</time>
      </trkpt>
      <trkpt lat="46.433278033509851" lon="9.337479025125504">
        <ele>1192.2</ele>
        <time>2007-06-09T07:30:18Z</time>
      </trkpt>
      <trkpt lat="46.433368977159262" lon="9.337502997368574">
        <ele>1192.7</ele>
        <time>2007-06-09T07:30:23Z</time>
      </trkpt>
      <trkpt lat="46.433472996577621" lon="9.337531998753548">
        <ele>1195.0999999999999</ele>
        <time>2007-06-09T07:30:29Z</time>
      </trkpt>
      <trkpt lat="46.43349202349782" lon="9.337535016238689">
        <ele>1195.5</ele>
        <time>2007-06-09T07:30:30Z</time>
      </trkpt>
      <trkpt lat="46.433628983795643" lon="9.337559994310141">
        <ele>1197</ele>
        <time>2007-06-09T07:30:38Z</time>
      </trkpt>
      <trkpt lat="46.433768961578608" lon="9.337599975988269">
        <ele>1198.9000000000001</ele>
        <time>2007-06-09T07:30:46Z</time>
      </trkpt>
      <trkpt lat="46.4339230209589" lon="9.337634006515145">
        <ele>1200.8</ele>
        <time>2007-06-09T07:30:55Z</time>
      </trkpt>
      <trkpt lat="46.433972977101803" lon="9.337583966553211">
        <ele>1202.3</ele>
        <time>2007-06-09T07:30:59Z</time>
      </trkpt>
      <trkpt lat="46.434092000126839" lon="9.337504003196955">
        <ele>1203.7</ele>
        <time>2007-06-09T07:31:07Z</time>
      </trkpt>
      <trkpt lat="46.434177998453379" lon="9.337398977950215">
        <ele>1204.7</ele>
        <time>2007-06-09T07:31:14Z</time>
      </trkpt>
      <trkpt lat="46.434261985123158" lon="9.33725799433887">
        <ele>1206.5999999999999</ele>
        <time>2007-06-09T07:31:22Z</time>
      </trkpt>
      <trkpt lat="46.434367010369897" lon="9.337151041254401">
        <ele>1207.5999999999999</ele>
        <time>2007-06-09T07:31:31Z</time>
      </trkpt>
      <trkpt lat="46.434486033394933" lon="9.337107036262751">
        <ele>1209.5</ele>
        <time>2007-06-09T07:31:39Z</time>
      </trkpt>
      <trkpt lat="46.434622993692756" lon="9.33710603043437">
        <ele>1210.9000000000001</ele>
        <time>2007-06-09T07:31:48Z</time>
      </trkpt>
      <trkpt lat="46.434712009504437" lon="9.337047021836042">
        <ele>1211.4000000000001</ele>
        <time>2007-06-09T07:31:54Z</time>
      </trkpt>
      <trkpt lat="46.434757020324469" lon="9.336951971054077">
        <ele>1211.9000000000001</ele>
        <time>2007-06-09T07:32:00Z</time>
      </trkpt>
      <trkpt lat="46.43474000506103" lon="9.336906038224697">
        <ele>1211.4000000000001</ele>
        <time>2007-06-09T07:32:05Z</time>
      </trkpt>
      <trkpt lat="46.434713015332818" lon="9.336901009082794">
        <ele>1212.4000000000001</ele>
        <time>2007-06-09T07:32:13Z</time>
      </trkpt>
      <trkpt lat="46.434657024219632" lon="9.336965968832374">
        <ele>1213.8</ele>
        <time>2007-06-09T07:32:21Z</time>
      </trkpt>
      <trkpt lat="46.434648977592587" lon="9.337005028501153">
        <ele>1214.3</ele>
        <time>2007-06-09T07:32:24Z</time>
      </trkpt>
      <trkpt lat="46.434620982035995" lon="9.337059007957578">
        <ele>1215.2</ele>
        <time>2007-06-09T07:32:28Z</time>
      </trkpt>
      <trkpt lat="46.434570020064712" lon="9.337009973824024">
        <ele>1214.8</ele>
        <time>2007-06-09T07:32:33Z</time>
      </trkpt>
      <trkpt lat="46.434497013688087" lon="9.336982984095812">
        <ele>1215.7</ele>
        <time>2007-06-09T07:32:39Z</time>
      </trkpt>
      <trkpt lat="46.43441503867507" lon="9.336921963840723">
        <ele>1216.2</ele>
        <time>2007-06-09T07:32:51Z</time>
      </trkpt>
      <trkpt lat="46.434404980391264" lon="9.336929004639387">
        <ele>1216.2</ele>
        <time>2007-06-09T07:32:55Z</time>
      </trkpt>
      <trkpt lat="46.434362987056375" lon="9.336906038224697">
        <ele>1218.0999999999999</ele>
        <time>2007-06-09T07:33:07Z</time>
      </trkpt>
      <trkpt lat="46.434356030076742" lon="9.3369369674474">
        <ele>1217.5999999999999</ele>
        <time>2007-06-09T07:33:10Z</time>
      </trkpt>
      <trkpt lat="46.434314958751202" lon="9.336919030174613">
        <ele>1218.5999999999999</ele>
        <time>2007-06-09T07:33:15Z</time>
      </trkpt>
      <trkpt lat="46.434257039800286" lon="9.336906038224697">
        <ele>1218.5999999999999</ele>
        <time>2007-06-09T07:33:21Z</time>
      </trkpt>
      <trkpt lat="46.434140028432012" lon="9.336888017132878">
        <ele>1220.5</ele>
        <time>2007-06-09T07:33:29Z</time>
      </trkpt>
      <trkpt lat="46.434110021218657" lon="9.336888017132878">
        <ele>1222</ele>
        <time>2007-06-09T07:33:32Z</time>
      </trkpt>
      <trkpt lat="46.434084959328175" lon="9.336906960234046">
        <ele>1221.5</ele>
        <time>2007-06-09T07:33:36Z</time>
      </trkpt>
      <trkpt lat="46.434047995135188" lon="9.336875025182962">
        <ele>1222.5</ele>
        <time>2007-06-09T07:33:42Z</time>
      </trkpt>
      <trkpt lat="46.434019999578595" lon="9.336883993819356">
        <ele>1223.4000000000001</ele>
        <time>2007-06-09T07:33:46Z</time>
      </trkpt>
      <trkpt lat="46.433978006243706" lon="9.336849041283131">
        <ele>1223.4000000000001</ele>
        <time>2007-06-09T07:33:50Z</time>
      </trkpt>
      <trkpt lat="46.433940036222339" lon="9.336889022961259">
        <ele>1223.4000000000001</ele>
        <time>2007-06-09T07:33:55Z</time>
      </trkpt>
      <trkpt lat="46.433903994038701" lon="9.33684702962637">
        <ele>1224.4000000000001</ele>
        <time>2007-06-09T07:33:59Z</time>
      </trkpt>
      <trkpt lat="46.433840040117502" lon="9.336902014911175">
        <ele>1224.9000000000001</ele>
        <time>2007-06-09T07:34:04Z</time>
      </trkpt>
      <trkpt lat="46.433737026527524" lon="9.336921963840723">
        <ele>1225.8</ele>
        <time>2007-06-09T07:34:10Z</time>
      </trkpt>
      <trkpt lat="46.433721017092466" lon="9.336916012689471">
        <ele>1225.8</ele>
        <time>2007-06-09T07:34:14Z</time>
      </trkpt>
      <trkpt lat="46.433669971302152" lon="9.336793972179294">
        <ele>1226.8</ele>
        <time>2007-06-09T07:34:44Z</time>
      </trkpt>
      <trkpt lat="46.43360098823905" lon="9.336769999936223">
        <ele>1228.2</ele>
        <time>2007-06-09T07:34:49Z</time>
      </trkpt>
      <trkpt lat="46.433544997125864" lon="9.336773017421365">
        <ele>1228.7</ele>
        <time>2007-06-09T07:34:53Z</time>
      </trkpt>
      <trkpt lat="46.433451035991311" lon="9.33676203712821">
        <ele>1229.2</ele>
        <time>2007-06-09T07:35:00Z</time>
      </trkpt>
      <trkpt lat="46.43332296051085" lon="9.336836971342564">
        <ele>1231.0999999999999</ele>
        <time>2007-06-09T07:35:06Z</time>
      </trkpt>
      <trkpt lat="46.433262024074793" lon="9.3368040304631">
        <ele>1231.0999999999999</ele>
        <time>2007-06-09T07:35:09Z</time>
      </trkpt>
      <trkpt lat="46.433158004656434" lon="9.336822973564267">
        <ele>1232.5</ele>
        <time>2007-06-09T07:35:16Z</time>
      </trkpt>
      <trkpt lat="46.433135038241744" lon="9.336790032684803">
        <ele>1233.5</ele>
        <time>2007-06-09T07:35:19Z</time>
      </trkpt>
      <trkpt lat="46.433136966079473" lon="9.336750973016024">
        <ele>1234.5</ele>
        <time>2007-06-09T07:35:21Z</time>
      </trkpt>
      <trkpt lat="46.433182982727885" lon="9.336702022701502">
        <ele>1235.4000000000001</ele>
        <time>2007-06-09T07:35:25Z</time>
      </trkpt>
      <trkpt lat="46.433308040723205" lon="9.336633961647749">
        <ele>1237.4000000000001</ele>
        <time>2007-06-09T07:35:34Z</time>
      </trkpt>
      <trkpt lat="46.433353973552585" lon="9.336607977747917">
        <ele>1237.8</ele>
        <time>2007-06-09T07:35:38Z</time>
      </trkpt>
      <trkpt lat="46.433466961607337" lon="9.336566990241408">
        <ele>1239.3</ele>
        <time>2007-06-09T07:35:44Z</time>
      </trkpt>
      <trkpt lat="46.433504009619355" lon="9.336572019383311">
        <ele>1240.7</ele>
        <time>2007-06-09T07:35:46Z</time>
      </trkpt>
      <trkpt lat="46.433583972975612" lon="9.336513010784984">
        <ele>1241.7</ele>
        <time>2007-06-09T07:35:52Z</time>
      </trkpt>
      <trkpt lat="46.433678017929196" lon="9.336486021056771">
        <ele>1242.5999999999999</ele>
        <time>2007-06-09T07:35:58Z</time>
      </trkpt>
      <trkpt lat="46.433762004598975" lon="9.336449978873134">
        <ele>1243.5999999999999</ele>
        <time>2007-06-09T07:36:04Z</time>
      </trkpt>
      <trkpt lat="46.433866024017334" lon="9.33641997165978">
        <ele>1244.5999999999999</ele>
        <time>2007-06-09T07:36:11Z</time>
      </trkpt>
      <trkpt lat="46.434006001800299" lon="9.336434975266457">
        <ele>1246.5</ele>
        <time>2007-06-09T07:36:20Z</time>
      </trkpt>
      <trkpt lat="46.434143967926502" lon="9.336430029943585">
        <ele>1247.9000000000001</ele>
        <time>2007-06-09T07:36:29Z</time>
      </trkpt>
      <trkpt lat="46.434227032586932" lon="9.336373033002019">
        <ele>1248.9000000000001</ele>
        <time>2007-06-09T07:36:35Z</time>
      </trkpt>
      <trkpt lat="46.434348989278078" lon="9.336330033838749">
        <ele>1250.8</ele>
        <time>2007-06-09T07:36:43Z</time>
      </trkpt>
      <trkpt lat="46.434409003704786" lon="9.336288962513208">
        <ele>1251.3</ele>
        <time>2007-06-09T07:36:47Z</time>
      </trkpt>
      <trkpt lat="46.43452500924468" lon="9.336231965571642">
        <ele>1252.7</ele>
        <time>2007-06-09T07:36:54Z</time>
      </trkpt>
      <trkpt lat="46.434708992019296" lon="9.336160970851779">
        <ele>1254.7</ele>
        <time>2007-06-09T07:37:04Z</time>
      </trkpt>
      <trkpt lat="46.434864979237318" lon="9.336130041629076">
        <ele>1256.5999999999999</ele>
        <time>2007-06-09T07:37:13Z</time>
      </trkpt>
      <trkpt lat="46.434864979237318" lon="9.336130041629076">
        <ele>1257.5</ele>
        <time>2007-06-09T07:37:22Z</time>
      </trkpt>
      <trkpt lat="46.435165973380208" lon="9.336136998608708">
        <ele>1259</ele>
        <time>2007-06-09T07:37:29Z</time>
      </trkpt>
      <trkpt lat="46.435183994472027" lon="9.336236994713545">
        <ele>1259.9000000000001</ele>
        <time>2007-06-09T07:37:33Z</time>
      </trkpt>
      <trkpt lat="46.43529798835516" lon="9.336378984153271">
        <ele>1261.4000000000001</ele>
        <time>2007-06-09T07:37:42Z</time>
      </trkpt>
      <trkpt lat="46.435349034145474" lon="9.336406979709864">
        <ele>1263.3</ele>
        <time>2007-06-09T07:37:48Z</time>
      </trkpt>
      <trkpt lat="46.435376023873687" lon="9.336464982479811">
        <ele>1263.8</ele>
        <time>2007-06-09T07:37:51Z</time>
      </trkpt>
      <trkpt lat="46.435452969744802" lon="9.336573025211692">
        <ele>1263.8</ele>
        <time>2007-06-09T07:37:53Z</time>
      </trkpt>
      <trkpt lat="46.435523964464664" lon="9.336605966091156">
        <ele>1263.8</ele>
        <time>2007-06-09T07:37:57Z</time>
      </trkpt>
      <trkpt lat="46.435625972226262" lon="9.336614012718201">
        <ele>1265.7</ele>
        <time>2007-06-09T07:38:04Z</time>
      </trkpt>
      <trkpt lat="46.435714988037944" lon="9.336693976074457">
        <ele>1266.2</ele>
        <time>2007-06-09T07:38:10Z</time>
      </trkpt>
      <trkpt lat="46.435815989971161" lon="9.336795983836055">
        <ele>1267.5999999999999</ele>
        <time>2007-06-09T07:38:18Z</time>
      </trkpt>
      <trkpt lat="46.435939036309719" lon="9.33693403378129">
        <ele>1268.5999999999999</ele>
        <time>2007-06-09T07:38:27Z</time>
      </trkpt>
      <trkpt lat="46.436069961637259" lon="9.337006034329534">
        <ele>1270</ele>
        <time>2007-06-09T07:38:35Z</time>
      </trkpt>
      <trkpt lat="46.436123019084334" lon="9.337026989087462">
        <ele>1270.5</ele>
        <time>2007-06-09T07:38:39Z</time>
      </trkpt>
      <trkpt lat="46.43622100353241" lon="9.336964040994644">
        <ele>1271.5</ele>
        <time>2007-06-09T07:38:46Z</time>
      </trkpt>
      <trkpt lat="46.436333991587162" lon="9.336881982162595">
        <ele>1270.5</ele>
        <time>2007-06-09T07:38:53Z</time>
      </trkpt>
      <trkpt lat="46.43647899851203" lon="9.336825991049409">
        <ele>1270.5</ele>
        <time>2007-06-09T07:39:00Z</time>
      </trkpt>
      <trkpt lat="46.436591986566782" lon="9.336875025182962">
        <ele>1271.5</ele>
        <time>2007-06-09T07:39:06Z</time>
      </trkpt>
      <trkpt lat="46.436678990721703" lon="9.33689296245575">
        <ele>1271</ele>
        <time>2007-06-09T07:39:11Z</time>
      </trkpt>
      <trkpt lat="46.436730958521366" lon="9.33684702962637">
        <ele>1271</ele>
        <time>2007-06-09T07:39:15Z</time>
      </trkpt>
      <trkpt lat="46.436856016516685" lon="9.336773017421365">
        <ele>1271.5</ele>
        <time>2007-06-09T07:39:23Z</time>
      </trkpt>
      <trkpt lat="46.437042010948062" lon="9.336690958589315">
        <ele>1272</ele>
        <time>2007-06-09T07:39:29Z</time>
      </trkpt>
      <trkpt lat="46.437220964580774" lon="9.336633961647749">
        <ele>1271.5</ele>
        <time>2007-06-09T07:39:34Z</time>
      </trkpt>
      <trkpt lat="46.437410982325673" lon="9.336618036031723">
        <ele>1269.5999999999999</ele>
        <time>2007-06-09T07:39:38Z</time>
      </trkpt>
      <trkpt lat="46.437611980363727" lon="9.336627004668117">
        <ele>1268.5999999999999</ele>
        <time>2007-06-09T07:39:41Z</time>
      </trkpt>
      <trkpt lat="46.437938036397099" lon="9.336491972208023">
        <ele>1266.7</ele>
        <time>2007-06-09T07:39:45Z</time>
      </trkpt>
      <trkpt lat="46.438297033309937" lon="9.336084024980664">
        <ele>1260.9000000000001</ele>
        <time>2007-06-09T07:39:49Z</time>
      </trkpt>
      <trkpt lat="46.43860699608922" lon="9.33560298755765">
        <ele>1257.5</ele>
        <time>2007-06-09T07:39:53Z</time>
      </trkpt>
      <trkpt lat="46.438769018277526" lon="9.335356978699565">
        <ele>1256.5999999999999</ele>
        <time>2007-06-09T07:39:55Z</time>
      </trkpt>
      <trkpt lat="46.439157016575336" lon="9.334911983460188">
        <ele>1253.2</ele>
        <time>2007-06-09T07:39:59Z</time>
      </trkpt>
      <trkpt lat="46.439468991011381" lon="9.334663040935993">
        <ele>1252.3</ele>
        <time>2007-06-09T07:40:02Z</time>
      </trkpt>
      <trkpt lat="46.439721034839749" lon="9.334346037358046">
        <ele>1251.3</ele>
        <time>2007-06-09T07:40:05Z</time>
      </trkpt>
      <trkpt lat="46.439797980710864" lon="9.334242017939687">
        <ele>1251.3</ele>
        <time>2007-06-09T07:40:06Z</time>
      </trkpt>
      <trkpt lat="46.440019011497498" lon="9.333971031010151">
        <ele>1251.3</ele>
        <time>2007-06-09T07:40:09Z</time>
      </trkpt>
      <trkpt lat="46.440503988415003" lon="9.333403995260596">
        <ele>1252.7</ele>
        <time>2007-06-09T07:40:18Z</time>
      </trkpt>
      <trkpt lat="46.440663998946548" lon="9.333239961415529">
        <ele>1253.2</ele>
        <time>2007-06-09T07:40:22Z</time>
      </trkpt>
      <trkpt lat="46.44094998948276" lon="9.333065031096339">
        <ele>1253.2</ele>
        <time>2007-06-09T07:40:29Z</time>
      </trkpt>
      <trkpt lat="46.440990976989269" lon="9.333043992519379">
        <ele>1253.2</ele>
        <time>2007-06-09T07:40:30Z</time>
      </trkpt>
      <trkpt lat="46.441173031926155" lon="9.332891022786498">
        <ele>1252.7</ele>
        <time>2007-06-09T07:40:35Z</time>
      </trkpt>
      <trkpt lat="46.441467991098762" lon="9.332816004753113">
        <ele>1252.3</ele>
        <time>2007-06-09T07:40:41Z</time>
      </trkpt>
      <trkpt lat="46.441893959417939" lon="9.332947013899684">
        <ele>1251.3</ele>
        <time>2007-06-09T07:40:49Z</time>
      </trkpt>
      <trkpt lat="46.441952968016267" lon="9.332972997799516">
        <ele>1250.8</ele>
        <time>2007-06-09T07:40:50Z</time>
      </trkpt>
      <trkpt lat="46.442203000187874" lon="9.333247002214193">
        <ele>1250.3</ele>
        <time>2007-06-09T07:40:55Z</time>
      </trkpt>
      <trkpt lat="46.442541964352131" lon="9.333830969408155">
        <ele>1249.4000000000001</ele>
        <time>2007-06-09T07:41:03Z</time>
      </trkpt>
      <trkpt lat="46.44264698959887" lon="9.334321981295943">
        <ele>1248.9000000000001</ele>
        <time>2007-06-09T07:41:09Z</time>
      </trkpt>
      <trkpt lat="46.44273298792541" lon="9.334714002907276">
        <ele>1248.9000000000001</ele>
        <time>2007-06-09T07:41:15Z</time>
      </trkpt>
      <trkpt lat="46.442876989021897" lon="9.335051039233804">
        <ele>1249.9000000000001</ele>
        <time>2007-06-09T07:41:22Z</time>
      </trkpt>
      <trkpt lat="46.442999029532075" lon="9.335376005619764">
        <ele>1249.4000000000001</ele>
        <time>2007-06-09T07:41:29Z</time>
      </trkpt>
      <trkpt lat="46.443034987896681" lon="9.335766015574336">
        <ele>1249.4000000000001</ele>
        <time>2007-06-09T07:41:37Z</time>
      </trkpt>
      <trkpt lat="46.442985031753778" lon="9.336076984182">
        <ele>1250.3</ele>
        <time>2007-06-09T07:41:43Z</time>
      </trkpt>
      <trkpt lat="46.442851005122066" lon="9.336230959743261">
        <ele>1252.3</ele>
        <time>2007-06-09T07:41:49Z</time>
      </trkpt>
      <trkpt lat="46.442636009305716" lon="9.336444027721882">
        <ele>1252.7</ele>
        <time>2007-06-09T07:41:59Z</time>
      </trkpt>
      <trkpt lat="46.442462000995874" lon="9.336663968861103">
        <ele>1254.2</ele>
        <time>2007-06-09T07:42:08Z</time>
      </trkpt>
      <trkpt lat="46.442479016259313" lon="9.336825991049409">
        <ele>1255.0999999999999</ele>
        <time>2007-06-09T07:42:13Z</time>
      </trkpt>
      <trkpt lat="46.44251799210906" lon="9.336863039061427">
        <ele>1255.5999999999999</ele>
        <time>2007-06-09T07:42:15Z</time>
      </trkpt>
      <trkpt lat="46.442601978778839" lon="9.336810987442732">
        <ele>1256.0999999999999</ele>
        <time>2007-06-09T07:42:19Z</time>
      </trkpt>
      <trkpt lat="46.442809011787176" lon="9.336642008274794">
        <ele>1257.0999999999999</ele>
        <time>2007-06-09T07:42:29Z</time>
      </trkpt>
      <trkpt lat="46.442983020097017" lon="9.336563972756267">
        <ele>1258</ele>
        <time>2007-06-09T07:42:38Z</time>
      </trkpt>
      <trkpt lat="46.443171026185155" lon="9.336504964157939">
        <ele>1259.9000000000001</ele>
        <time>2007-06-09T07:42:48Z</time>
      </trkpt>
      <trkpt lat="46.44337504170835" lon="9.336382001638413">
        <ele>1262.3</ele>
        <time>2007-06-09T07:43:00Z</time>
      </trkpt>
      <trkpt lat="46.443491969257593" lon="9.336286028847098">
        <ele>1264.8</ele>
        <time>2007-06-09T07:43:08Z</time>
      </trkpt>
      <trkpt lat="46.443509990349412" lon="9.336279993876815">
        <ele>1264.3</ele>
        <time>2007-06-09T07:43:09Z</time>
      </trkpt>
      <trkpt lat="46.443544020876288" lon="9.33637697249651">
        <ele>1265.7</ele>
        <time>2007-06-09T07:43:15Z</time>
      </trkpt>
      <trkpt lat="46.443463973701" lon="9.336430029943585">
        <ele>1266.7</ele>
        <time>2007-06-09T07:43:20Z</time>
      </trkpt>
      <trkpt lat="46.443272028118372" lon="9.336559027433395">
        <ele>1268.5999999999999</ele>
        <time>2007-06-09T07:43:32Z</time>
      </trkpt>
      <trkpt lat="46.443186029791832" lon="9.336627004668117">
        <ele>1269.5999999999999</ele>
        <time>2007-06-09T07:43:38Z</time>
      </trkpt>
      <trkpt lat="46.443098019808531" lon="9.336734041571617">
        <ele>1271</ele>
        <time>2007-06-09T07:43:45Z</time>
      </trkpt>
      <trkpt lat="46.442994000390172" lon="9.336904026567936">
        <ele>1272</ele>
        <time>2007-06-09T07:43:54Z</time>
      </trkpt>
      <trkpt lat="46.442897021770477" lon="9.337061019614339">
        <ele>1273.9000000000001</ele>
        <time>2007-06-09T07:44:02Z</time>
      </trkpt>
      <trkpt lat="46.44281798042357" lon="9.337166966870427">
        <ele>1275.3</ele>
        <time>2007-06-09T07:44:08Z</time>
      </trkpt>
      <trkpt lat="46.442658975720406" lon="9.337347010150552">
        <ele>1276.3</ele>
        <time>2007-06-09T07:44:20Z</time>
      </trkpt>
      <trkpt lat="46.442552022635937" lon="9.337476007640362">
        <ele>1277.7</ele>
        <time>2007-06-09T07:44:28Z</time>
      </trkpt>
      <trkpt lat="46.442443979904056" lon="9.337590001523495">
        <ele>1279.7</ele>
        <time>2007-06-09T07:44:36Z</time>
      </trkpt>
      <trkpt lat="46.442335015162826" lon="9.337657978758216">
        <ele>1280.5999999999999</ele>
        <time>2007-06-09T07:44:43Z</time>
      </trkpt>
      <trkpt lat="46.442208029329777" lon="9.337749006226659">
        <ele>1282.0999999999999</ele>
        <time>2007-06-09T07:44:51Z</time>
      </trkpt>
      <trkpt lat="46.442028991878033" lon="9.337933994829655">
        <ele>1284.9000000000001</ele>
        <time>2007-06-09T07:45:03Z</time>
      </trkpt>
      <trkpt lat="46.441922960802913" lon="9.338074978441">
        <ele>1286.9000000000001</ele>
        <time>2007-06-09T07:45:11Z</time>
      </trkpt>
      <trkpt lat="46.44180703908205" lon="9.33822400867939">
        <ele>1287.8</ele>
        <time>2007-06-09T07:45:20Z</time>
      </trkpt>
      <trkpt lat="46.441667983308434" lon="9.338399022817612">
        <ele>1290.2</ele>
        <time>2007-06-09T07:45:31Z</time>
      </trkpt>
      <trkpt lat="46.441576033830643" lon="9.338517040014267">
        <ele>1292.0999999999999</ele>
        <time>2007-06-09T07:45:38Z</time>
      </trkpt>
      <trkpt lat="46.44144301302731" lon="9.338626004755497">
        <ele>1293.5999999999999</ele>
        <time>2007-06-09T07:45:47Z</time>
      </trkpt>
      <trkpt lat="46.441306974738836" lon="9.338666992262006">
        <ele>1296</ele>
        <time>2007-06-09T07:45:55Z</time>
      </trkpt>
      <trkpt lat="46.441190969198942" lon="9.338712003082037">
        <ele>1297</ele>
        <time>2007-06-09T07:46:02Z</time>
      </trkpt>
      <trkpt lat="46.441087033599615" lon="9.338732035830617">
        <ele>1297.4000000000001</ele>
        <time>2007-06-09T07:46:08Z</time>
      </trkpt>
      <trkpt lat="46.440956024453044" lon="9.338751984760165">
        <ele>1299.4000000000001</ele>
        <time>2007-06-09T07:46:15Z</time>
      </trkpt>
      <trkpt lat="46.440857034176588" lon="9.338741004467011">
        <ele>1300.8</ele>
        <time>2007-06-09T07:46:22Z</time>
      </trkpt>
      <trkpt lat="46.440743040293455" lon="9.338763970881701">
        <ele>1301.8</ele>
        <time>2007-06-09T07:46:30Z</time>
      </trkpt>
      <trkpt lat="46.440594010055065" lon="9.33884602971375">
        <ele>1303.2</ele>
        <time>2007-06-09T07:46:40Z</time>
      </trkpt>
      <trkpt lat="46.440546987578273" lon="9.338908977806568">
        <ele>1303.7</ele>
        <time>2007-06-09T07:46:46Z</time>
      </trkpt>
      <trkpt lat="46.440484039485455" lon="9.338949965313077">
        <ele>1305.5999999999999</ele>
        <time>2007-06-09T07:46:53Z</time>
      </trkpt>
      <trkpt lat="46.440426958724856" lon="9.338992964476347">
        <ele>1306.0999999999999</ele>
        <time>2007-06-09T07:46:57Z</time>
      </trkpt>
      <trkpt lat="46.440345989540219" lon="9.339151969179511">
        <ele>1307.5</ele>
        <time>2007-06-09T07:47:04Z</time>
      </trkpt>
      <trkpt lat="46.44032503478229" lon="9.339187005534768">
        <ele>1307.5</ele>
        <time>2007-06-09T07:47:06Z</time>
      </trkpt>
      <trkpt lat="46.440251022577286" lon="9.339321032166481">
        <ele>1309.5</ele>
        <time>2007-06-09T07:47:14Z</time>
      </trkpt>
      <trkpt lat="46.440182961523533" lon="9.339499985799193">
        <ele>1310.4000000000001</ele>
        <time>2007-06-09T07:47:22Z</time>
      </trkpt>
      <trkpt lat="46.440104003995657" lon="9.339639963582158">
        <ele>1312.8</ele>
        <time>2007-06-09T07:47:31Z</time>
      </trkpt>
      <trkpt lat="46.440070979297161" lon="9.339629989117384">
        <ele>1313.3</ele>
        <time>2007-06-09T07:47:33Z</time>
      </trkpt>
      <trkpt lat="46.439999984577298" lon="9.339562011882663">
        <ele>1313.8</ele>
        <time>2007-06-09T07:47:36Z</time>
      </trkpt>
      <trkpt lat="46.439845003187656" lon="9.339548014104366">
        <ele>1315.2</ele>
        <time>2007-06-09T07:47:42Z</time>
      </trkpt>
      <trkpt lat="46.439738972112536" lon="9.339484982192516">
        <ele>1315.7</ele>
        <time>2007-06-09T07:47:46Z</time>
      </trkpt>
      <trkpt lat="46.439710976555943" lon="9.33949202299118">
        <ele>1316.2</ele>
        <time>2007-06-09T07:47:49Z</time>
      </trkpt>
      <trkpt lat="46.439710976555943" lon="9.33957802131772">
        <ele>1316.7</ele>
        <time>2007-06-09T07:47:52Z</time>
      </trkpt>
      <trkpt lat="46.439673006534576" lon="9.33968698605895">
        <ele>1317.0999999999999</ele>
        <time>2007-06-09T07:47:58Z</time>
      </trkpt>
      <trkpt lat="46.439651967957616" lon="9.339726967737079">
        <ele>1317.5999999999999</ele>
        <time>2007-06-09T07:48:00Z</time>
      </trkpt>
      <trkpt lat="46.439548032358289" lon="9.339647004380822">
        <ele>1318.5999999999999</ele>
        <time>2007-06-09T07:48:04Z</time>
      </trkpt>
      <trkpt lat="46.439457004889846" lon="9.339676005765796">
        <ele>1319.5</ele>
        <time>2007-06-09T07:48:09Z</time>
      </trkpt>
      <trkpt lat="46.439433032646775" lon="9.339656978845596">
        <ele>1320</ele>
        <time>2007-06-09T07:48:12Z</time>
      </trkpt>
      <trkpt lat="46.439404031261802" lon="9.339912962168455">
        <ele>1321.5</ele>
        <time>2007-06-09T07:48:17Z</time>
      </trkpt>
      <trkpt lat="46.439394978806376" lon="9.339967025443912">
        <ele>1321.5</ele>
        <time>2007-06-09T07:48:19Z</time>
      </trkpt>
      <trkpt lat="46.439338987693191" lon="9.340015975758433">
        <ele>1322.4000000000001</ele>
        <time>2007-06-09T07:48:23Z</time>
      </trkpt>
      <trkpt lat="46.439173026010394" lon="9.34005000628531">
        <ele>1323.9000000000001</ele>
        <time>2007-06-09T07:48:32Z</time>
      </trkpt>
      <trkpt lat="46.439119968563318" lon="9.34005101211369">
        <ele>1324.4000000000001</ele>
        <time>2007-06-09T07:48:35Z</time>
      </trkpt>
      <trkpt lat="46.439097002148628" lon="9.340065009891987">
        <ele>1325.3</ele>
        <time>2007-06-09T07:48:37Z</time>
      </trkpt>
      <trkpt lat="46.439005974680185" lon="9.340056041255593">
        <ele>1325.3</ele>
        <time>2007-06-09T07:48:43Z</time>
      </trkpt>
      <trkpt lat="46.438912013545632" lon="9.340027961879969">
        <ele>1327.2</ele>
        <time>2007-06-09T07:48:49Z</time>
      </trkpt>
      <trkpt lat="46.438847975805402" lon="9.340053023770452">
        <ele>1327.2</ele>
        <time>2007-06-09T07:48:55Z</time>
      </trkpt>
      <trkpt lat="46.438766000792384" lon="9.340089987963438">
        <ele>1328.2</ele>
        <time>2007-06-09T07:49:01Z</time>
      </trkpt>
      <trkpt lat="46.438701963052154" lon="9.340091999620199">
        <ele>1328.7</ele>
        <time>2007-06-09T07:49:05Z</time>
      </trkpt>
      <trkpt lat="46.438594004139304" lon="9.340155031532049">
        <ele>1330.5999999999999</ele>
        <time>2007-06-09T07:49:13Z</time>
      </trkpt>
      <trkpt lat="46.438555028289557" lon="9.340189984068275">
        <ele>1331.0999999999999</ele>
        <time>2007-06-09T07:49:17Z</time>
      </trkpt>
      <trkpt lat="46.43841496668756" lon="9.340246981009841">
        <ele>1333</ele>
        <time>2007-06-09T07:49:26Z</time>
      </trkpt>
      <trkpt lat="46.438332991674542" lon="9.340270031243563">
        <ele>1334</ele>
        <time>2007-06-09T07:49:33Z</time>
      </trkpt>
      <trkpt lat="46.438295021653175" lon="9.340300960466266">
        <ele>1334</ele>
        <time>2007-06-09T07:49:38Z</time>
      </trkpt>
      <trkpt lat="46.438217991963029" lon="9.340347982943058">
        <ele>1335.4000000000001</ele>
        <time>2007-06-09T07:49:45Z</time>
      </trkpt>
      <trkpt lat="46.438128976151347" lon="9.34037396684289">
        <ele>1336.4000000000001</ele>
        <time>2007-06-09T07:49:52Z</time>
      </trkpt>
      <trkpt lat="46.438125958666205" lon="9.340390982106328">
        <ele>1336.9000000000001</ele>
        <time>2007-06-09T07:49:53Z</time>
      </trkpt>
      <trkpt lat="46.438083965331316" lon="9.340453008189797">
        <ele>1337.8</ele>
        <time>2007-06-09T07:49:58Z</time>
      </trkpt>
      <trkpt lat="46.438059993088245" lon="9.340564990416169">
        <ele>1338.3</ele>
        <time>2007-06-09T07:50:05Z</time>
      </trkpt>
      <trkpt lat="46.437945999205112" lon="9.340605977922678">
        <ele>1339.7</ele>
        <time>2007-06-09T07:50:12Z</time>
      </trkpt>
      <trkpt lat="46.437807027250528" lon="9.340622993186116">
        <ele>1340.7</ele>
        <time>2007-06-09T07:50:20Z</time>
      </trkpt>
      <trkpt lat="46.437757993116975" lon="9.340613018721342">
        <ele>1342.0999999999999</ele>
        <time>2007-06-09T07:50:23Z</time>
      </trkpt>
      <trkpt lat="46.43770401366055" lon="9.340574964880943">
        <ele>1342.5999999999999</ele>
        <time>2007-06-09T07:50:26Z</time>
      </trkpt>
      <trkpt lat="46.437633018940687" lon="9.340701028704643">
        <ele>1343.5999999999999</ele>
        <time>2007-06-09T07:50:30Z</time>
      </trkpt>
      <trkpt lat="46.437544003129005" lon="9.340790966525674">
        <ele>1346</ele>
        <time>2007-06-09T07:50:37Z</time>
      </trkpt>
      <trkpt lat="46.437491029500961" lon="9.340879982337356">
        <ele>1346.5</ele>
        <time>2007-06-09T07:50:43Z</time>
      </trkpt>
      <trkpt lat="46.437440989539027" lon="9.340920969843864">
        <ele>1346.9000000000001</ele>
        <time>2007-06-09T07:50:49Z</time>
      </trkpt>
      <trkpt lat="46.437291959300637" lon="9.340863972902298">
        <ele>1347.9000000000001</ele>
        <time>2007-06-09T07:50:55Z</time>
      </trkpt>
      <trkpt lat="46.437223982065916" lon="9.34078199788928">
        <ele>1348.9000000000001</ele>
        <time>2007-06-09T07:50:57Z</time>
      </trkpt>
      <trkpt lat="46.437091967090964" lon="9.340439010411501">
        <ele>1349.8</ele>
        <time>2007-06-09T07:51:04Z</time>
      </trkpt>
      <trkpt lat="46.436935979872942" lon="9.340478992089629">
        <ele>1350.8</ele>
        <time>2007-06-09T07:51:10Z</time>
      </trkpt>
      <trkpt lat="46.436912007629871" lon="9.34050397016108">
        <ele>1351.3</ele>
        <time>2007-06-09T07:51:12Z</time>
      </trkpt>
      <trkpt lat="46.437047962099314" lon="9.340889034792781">
        <ele>1351.3</ele>
        <time>2007-06-09T07:51:20Z</time>
      </trkpt>
      <trkpt lat="46.437047040089965" lon="9.340886017307639">
        <ele>1352.2</ele>
        <time>2007-06-09T07:51:25Z</time>
      </trkpt>
      <trkpt lat="46.436946960166097" lon="9.340783003717661">
        <ele>1353.7</ele>
        <time>2007-06-09T07:53:12Z</time>
      </trkpt>
      <trkpt lat="46.436870014294982" lon="9.340725000947714">
        <ele>1354.2</ele>
        <time>2007-06-09T07:53:18Z</time>
      </trkpt>
      <trkpt lat="46.436773035675287" lon="9.340658029541373">
        <ele>1355.5999999999999</ele>
        <time>2007-06-09T07:53:24Z</time>
      </trkpt>
      <trkpt lat="46.436685025691986" lon="9.340602038428187">
        <ele>1356.0999999999999</ele>
        <time>2007-06-09T07:53:32Z</time>
      </trkpt>
      <trkpt lat="46.43656600266695" lon="9.340528026223183">
        <ele>1357.5</ele>
        <time>2007-06-09T07:53:40Z</time>
      </trkpt>
      <trkpt lat="46.43645603209734" lon="9.340380001813173">
        <ele>1359</ele>
        <time>2007-06-09T07:53:48Z</time>
      </trkpt>
      <trkpt lat="46.436355030164123" lon="9.340263996273279">
        <ele>1359.9000000000001</ele>
        <time>2007-06-09T07:53:55Z</time>
      </trkpt>
      <trkpt lat="46.436247993260622" lon="9.340171962976456">
        <ele>1361.8</ele>
        <time>2007-06-09T07:54:03Z</time>
      </trkpt>
      <trkpt lat="46.436184039339423" lon="9.340113960206509">
        <ele>1363.3</ele>
        <time>2007-06-09T07:54:08Z</time>
      </trkpt>
      <trkpt lat="46.436145985499024" lon="9.340125024318695">
        <ele>1363.3</ele>
        <time>2007-06-09T07:54:14Z</time>
      </trkpt>
      <trkpt lat="46.436117989942431" lon="9.340111026540399">
        <ele>1363.8</ele>
        <time>2007-06-09T07:54:18Z</time>
      </trkpt>
      <trkpt lat="46.436045989394188" lon="9.340062998235226">
        <ele>1364.7</ele>
        <time>2007-06-09T07:54:25Z</time>
      </trkpt>
      <trkpt lat="46.435955967754126" lon="9.340036008507013">
        <ele>1365.7</ele>
        <time>2007-06-09T07:54:32Z</time>
      </trkpt>
      <trkpt lat="46.435901988297701" lon="9.340024022385478">
        <ele>1366.7</ele>
        <time>2007-06-09T07:54:36Z</time>
      </trkpt>
      <trkpt lat="46.435842979699373" lon="9.34000801295042">
        <ele>1367.5999999999999</ele>
        <time>2007-06-09T07:54:40Z</time>
      </trkpt>
      <trkpt lat="46.435796041041613" lon="9.340023016557097">
        <ele>1367.5999999999999</ele>
        <time>2007-06-09T07:54:43Z</time>
      </trkpt>
      <trkpt lat="46.43570601940155" lon="9.339989991858602">
        <ele>1368.5999999999999</ele>
        <time>2007-06-09T07:54:47Z</time>
      </trkpt>
      <trkpt lat="46.435609962791204" lon="9.33998798020184">
        <ele>1370</ele>
        <time>2007-06-09T07:54:54Z</time>
      </trkpt>
      <trkpt lat="46.435498986393213" lon="9.339967025443912">
        <ele>1370.5</ele>
        <time>2007-06-09T07:55:00Z</time>
      </trkpt>
      <trkpt lat="46.435485994443297" lon="9.339973982423544">
        <ele>1370.5</ele>
        <time>2007-06-09T07:55:01Z</time>
      </trkpt>
      <trkpt lat="46.435356996953487" lon="9.33998404070735">
        <ele>1371.9000000000001</ele>
        <time>2007-06-09T07:55:09Z</time>
      </trkpt>
      <trkpt lat="46.435222970321774" lon="9.340017987415195">
        <ele>1374.3</ele>
        <time>2007-06-09T07:55:18Z</time>
      </trkpt>
      <trkpt lat="46.435144012793899" lon="9.340031985193491">
        <ele>1374.8</ele>
        <time>2007-06-09T07:55:24Z</time>
      </trkpt>
      <trkpt lat="46.435117023065686" lon="9.34000801295042">
        <ele>1375.3</ele>
        <time>2007-06-09T07:55:26Z</time>
      </trkpt>
      <trkpt lat="46.435025995597243" lon="9.339973982423544">
        <ele>1376.7</ele>
        <time>2007-06-09T07:55:33Z</time>
      </trkpt>
      <trkpt lat="46.43497402779758" lon="9.33998404070735">
        <ele>1378.2</ele>
        <time>2007-06-09T07:55:39Z</time>
      </trkpt>
      <trkpt lat="46.434939997270703" lon="9.339960990473628">
        <ele>1378.7</ele>
        <time>2007-06-09T07:55:42Z</time>
      </trkpt>
      <trkpt lat="46.434861961752176" lon="9.339935006573796">
        <ele>1379.0999999999999</ele>
        <time>2007-06-09T07:55:47Z</time>
      </trkpt>
      <trkpt lat="46.434737993404269" lon="9.339908016845584">
        <ele>1380.5999999999999</ele>
        <time>2007-06-09T07:55:55Z</time>
      </trkpt>
      <trkpt lat="46.43463296815753" lon="9.33994498103857">
        <ele>1382</ele>
        <time>2007-06-09T07:56:02Z</time>
      </trkpt>
      <trkpt lat="46.434500031173229" lon="9.339916985481978">
        <ele>1383.5</ele>
        <time>2007-06-09T07:56:10Z</time>
      </trkpt>
      <trkpt lat="46.434473041445017" lon="9.339915979653597">
        <ele>1384</ele>
        <time>2007-06-09T07:56:12Z</time>
      </trkpt>
      <trkpt lat="46.434360975399613" lon="9.339903993532062">
        <ele>1384.9000000000001</ele>
        <time>2007-06-09T07:56:20Z</time>
      </trkpt>
      <trkpt lat="46.434299033135176" lon="9.339869963005185">
        <ele>1386.4000000000001</ele>
        <time>2007-06-09T07:56:26Z</time>
      </trkpt>
      <trkpt lat="46.434186967089772" lon="9.33985797688365">
        <ele>1387.3</ele>
        <time>2007-06-09T07:56:34Z</time>
      </trkpt>
      <trkpt lat="46.434076996520162" lon="9.339823024347425">
        <ele>1388.3</ele>
        <time>2007-06-09T07:56:41Z</time>
      </trkpt>
      <trkpt lat="46.433972977101803" lon="9.339826041832566">
        <ele>1388.3</ele>
        <time>2007-06-09T07:56:48Z</time>
      </trkpt>
      <trkpt lat="46.433874992653728" lon="9.339854037389159">
        <ele>1389.2</ele>
        <time>2007-06-09T07:56:55Z</time>
      </trkpt>
      <trkpt lat="46.433845991268754" lon="9.339869040995836">
        <ele>1390.2</ele>
        <time>2007-06-09T07:56:57Z</time>
      </trkpt>
      <trkpt lat="46.433786982670426" lon="9.339868035167456">
        <ele>1390.7</ele>
        <time>2007-06-09T07:57:01Z</time>
      </trkpt>
      <trkpt lat="46.433759992942214" lon="9.339883960783482">
        <ele>1391.5999999999999</ele>
        <time>2007-06-09T07:57:03Z</time>
      </trkpt>
      <trkpt lat="46.433616997674108" lon="9.339999966323376">
        <ele>1393.5999999999999</ele>
        <time>2007-06-09T07:57:13Z</time>
      </trkpt>
      <trkpt lat="46.433495962992311" lon="9.340107003226876">
        <ele>1394.5</ele>
        <time>2007-06-09T07:57:23Z</time>
      </trkpt>
      <trkpt lat="46.433386998251081" lon="9.340197024866939">
        <ele>1395.5</ele>
        <time>2007-06-09T07:57:31Z</time>
      </trkpt>
      <trkpt lat="46.433285996317863" lon="9.340267013758421">
        <ele>1396.9000000000001</ele>
        <time>2007-06-09T07:57:38Z</time>
      </trkpt>
      <trkpt lat="46.433197986334562" lon="9.340390982106328">
        <ele>1398.4000000000001</ele>
        <time>2007-06-09T07:57:46Z</time>
      </trkpt>
      <trkpt lat="46.433118022978306" lon="9.340452002361417">
        <ele>1399.3</ele>
        <time>2007-06-09T07:57:52Z</time>
      </trkpt>
      <trkpt lat="46.433054991066456" lon="9.340496007353067">
        <ele>1399.8</ele>
        <time>2007-06-09T07:57:57Z</time>
      </trkpt>
      <trkpt lat="46.433038981631398" lon="9.34050003066659">
        <ele>1400.3</ele>
        <time>2007-06-09T07:57:58Z</time>
      </trkpt>
      <trkpt lat="46.432907972484827" lon="9.340528026223183">
        <ele>1402.2</ele>
        <time>2007-06-09T07:58:06Z</time>
      </trkpt>
      <trkpt lat="46.432781992480159" lon="9.340501958504319">
        <ele>1404.0999999999999</ele>
        <time>2007-06-09T07:58:14Z</time>
      </trkpt>
      <trkpt lat="46.432649977505207" lon="9.340484021231532">
        <ele>1404.5999999999999</ele>
        <time>2007-06-09T07:58:22Z</time>
      </trkpt>
      <trkpt lat="46.432600021362305" lon="9.340627016499639">
        <ele>1405.0999999999999</ele>
        <time>2007-06-09T07:58:29Z</time>
      </trkpt>
      <trkpt lat="46.432652994990349" lon="9.340648977085948">
        <ele>1405.0999999999999</ele>
        <time>2007-06-09T07:58:36Z</time>
      </trkpt>
      <trkpt lat="46.432729018852115" lon="9.340637996792793">
        <ele>1406.0999999999999</ele>
        <time>2007-06-09T07:58:40Z</time>
      </trkpt>
      <trkpt lat="46.432939991354942" lon="9.340726006776094">
        <ele>1408</ele>
        <time>2007-06-09T07:58:49Z</time>
      </trkpt>
      <trkpt lat="46.433066977187991" lon="9.340736987069249">
        <ele>1408.9000000000001</ele>
        <time>2007-06-09T07:58:56Z</time>
      </trkpt>
      <trkpt lat="46.433150041848421" lon="9.340697005391121">
        <ele>1410.4000000000001</ele>
        <time>2007-06-09T07:59:02Z</time>
      </trkpt>
      <trkpt lat="46.433248026296496" lon="9.340634979307652">
        <ele>1411.8</ele>
        <time>2007-06-09T07:59:09Z</time>
      </trkpt>
      <trkpt lat="46.433350034058094" lon="9.340574964880943">
        <ele>1413.3</ele>
        <time>2007-06-09T07:59:16Z</time>
      </trkpt>
      <trkpt lat="46.433452041819692" lon="9.340484021231532">
        <ele>1414.2</ele>
        <time>2007-06-09T07:59:24Z</time>
      </trkpt>
      <trkpt lat="46.43351498991251" lon="9.340434987097979">
        <ele>1415.7</ele>
        <time>2007-06-09T07:59:29Z</time>
      </trkpt>
      <trkpt lat="46.433546002954245" lon="9.340516040101647">
        <ele>1416.2</ele>
        <time>2007-06-09T07:59:35Z</time>
      </trkpt>
      <trkpt lat="46.433482971042395" lon="9.340577982366085">
        <ele>1417.5999999999999</ele>
        <time>2007-06-09T07:59:40Z</time>
      </trkpt>
      <trkpt lat="46.43336595967412" lon="9.340688036754727">
        <ele>1418.0999999999999</ele>
        <time>2007-06-09T07:59:49Z</time>
      </trkpt>
      <trkpt lat="46.433263029903173" lon="9.340830026194453">
        <ele>1420</ele>
        <time>2007-06-09T07:59:58Z</time>
      </trkpt>
      <trkpt lat="46.433251965790987" lon="9.34084402397275">
        <ele>1420</ele>
        <time>2007-06-09T07:59:59Z</time>
      </trkpt>
      <trkpt lat="46.433201003819704" lon="9.340958017855883">
        <ele>1420.5</ele>
        <time>2007-06-09T08:00:05Z</time>
      </trkpt>
      <trkpt lat="46.433132020756602" lon="9.341152980923653">
        <ele>1421.9000000000001</ele>
        <time>2007-06-09T08:00:14Z</time>
      </trkpt>
      <trkpt lat="46.433094972744584" lon="9.341305028647184">
        <ele>1422.9000000000001</ele>
        <time>2007-06-09T08:00:22Z</time>
      </trkpt>
      <trkpt lat="46.433038981631398" lon="9.341449029743671">
        <ele>1424.8</ele>
        <time>2007-06-09T08:00:29Z</time>
      </trkpt>
      <trkpt lat="46.432997994124889" lon="9.341610968112946">
        <ele>1425.3</ele>
        <time>2007-06-09T08:00:36Z</time>
      </trkpt>
      <trkpt lat="46.432905038818717" lon="9.341627983376384">
        <ele>1425.3</ele>
        <time>2007-06-09T08:00:42Z</time>
      </trkpt>
      <trkpt lat="46.432810993865132" lon="9.341652039438486">
        <ele>1426.7</ele>
        <time>2007-06-09T08:00:48Z</time>
      </trkpt>
      <trkpt lat="46.432762965559959" lon="9.341689003631473">
        <ele>1427.7</ele>
        <time>2007-06-09T08:00:52Z</time>
      </trkpt>
      <trkpt lat="46.432613013312221" lon="9.341771984472871">
        <ele>1430.5999999999999</ele>
        <time>2007-06-09T08:01:02Z</time>
      </trkpt>
      <trkpt lat="46.432468006387353" lon="9.341836022213101">
        <ele>1430.5999999999999</ele>
        <time>2007-06-09T08:01:11Z</time>
      </trkpt>
      <trkpt lat="46.432301038876176" lon="9.34194297529757">
        <ele>1433.5</ele>
        <time>2007-06-09T08:01:22Z</time>
      </trkpt>
      <trkpt lat="46.432232977822423" lon="9.341964013874531">
        <ele>1434.9000000000001</ele>
        <time>2007-06-09T08:01:26Z</time>
      </trkpt>
      <trkpt lat="46.432106997817755" lon="9.342070966959">
        <ele>1435.9000000000001</ele>
        <time>2007-06-09T08:01:35Z</time>
      </trkpt>
      <trkpt lat="46.431995015591383" lon="9.34219803661108">
        <ele>1437.3</ele>
        <time>2007-06-09T08:01:44Z</time>
      </trkpt>
      <trkpt lat="46.431867023929954" lon="9.342296021059156">
        <ele>1437.8</ele>
        <time>2007-06-09T08:01:53Z</time>
      </trkpt>
      <trkpt lat="46.431771973147988" lon="9.342448990792036">
        <ele>1438.3</ele>
        <time>2007-06-09T08:02:01Z</time>
      </trkpt>
      <trkpt lat="46.431718999519944" lon="9.342617969959974">
        <ele>1439.7</ele>
        <time>2007-06-09T08:02:08Z</time>
      </trkpt>
      <trkpt lat="46.431639036163688" lon="9.342758031561971">
        <ele>1441.2</ele>
        <time>2007-06-09T08:02:16Z</time>
      </trkpt>
      <trkpt lat="46.431535016745329" lon="9.342903960496187">
        <ele>1442.0999999999999</ele>
        <time>2007-06-09T08:02:26Z</time>
      </trkpt>
      <trkpt lat="46.43145396374166" lon="9.343061959370971">
        <ele>1443.0999999999999</ele>
        <time>2007-06-09T08:02:34Z</time>
      </trkpt>
      <trkpt lat="46.431412976235151" lon="9.343219036236405">
        <ele>1444</ele>
        <time>2007-06-09T08:02:40Z</time>
      </trkpt>
      <trkpt lat="46.4313879981637" lon="9.34333797544241">
        <ele>1444.5</ele>
        <time>2007-06-09T08:02:45Z</time>
      </trkpt>
      <trkpt lat="46.431356985121965" lon="9.343512989580631">
        <ele>1446</ele>
        <time>2007-06-09T08:02:52Z</time>
      </trkpt>
      <trkpt lat="46.431328989565372" lon="9.343688003718853">
        <ele>1447.4000000000001</ele>
        <time>2007-06-09T08:03:00Z</time>
      </trkpt>
      <trkpt lat="46.43132496625185" lon="9.343922026455402">
        <ele>1449.8</ele>
        <time>2007-06-09T08:03:10Z</time>
      </trkpt>
      <trkpt lat="46.43132203258574" lon="9.343947004526854">
        <ele>1449.8</ele>
        <time>2007-06-09T08:03:11Z</time>
      </trkpt>
      <trkpt lat="46.431317003443837" lon="9.344146996736527">
        <ele>1451.7</ele>
        <time>2007-06-09T08:03:19Z</time>
      </trkpt>
      <trkpt lat="46.431283978745341" lon="9.344365010038018">
        <ele>1452.2</ele>
        <time>2007-06-09T08:03:27Z</time>
      </trkpt>
      <trkpt lat="46.431222036480904" lon="9.344509011134505">
        <ele>1454.0999999999999</ele>
        <time>2007-06-09T08:03:34Z</time>
      </trkpt>
      <trkpt lat="46.431138971820474" lon="9.344655023887754">
        <ele>1456.5</ele>
        <time>2007-06-09T08:03:42Z</time>
      </trkpt>
      <trkpt lat="46.431033024564385" lon="9.34482098557055">
        <ele>1457</ele>
        <time>2007-06-09T08:03:51Z</time>
      </trkpt>
      <trkpt lat="46.430970998480916" lon="9.345023995265365">
        <ele>1458.5</ele>
        <time>2007-06-09T08:04:00Z</time>
      </trkpt>
      <trkpt lat="46.430938979610801" lon="9.345130026340485">
        <ele>1458.9000000000001</ele>
        <time>2007-06-09T08:04:07Z</time>
      </trkpt>
      <trkpt lat="46.430898997932673" lon="9.345092978328466">
        <ele>1459.4000000000001</ele>
        <time>2007-06-09T08:04:22Z</time>
      </trkpt>
      <trkpt lat="46.430881982669234" lon="9.345046039670706">
        <ele>1459.4000000000001</ele>
        <time>2007-06-09T08:04:33Z</time>
      </trkpt>
      <trkpt lat="46.430935962125659" lon="9.345102030783892">
        <ele>1459.9000000000001</ele>
        <time>2007-06-09T08:05:06Z</time>
      </trkpt>
      <trkpt lat="46.43091400153935" lon="9.345044028013945">
        <ele>1458.9000000000001</ele>
        <time>2007-06-09T08:05:20Z</time>
      </trkpt>
      <trkpt lat="46.430948032066226" lon="9.345108987763524">
        <ele>1460.4000000000001</ele>
        <time>2007-06-09T08:05:33Z</time>
      </trkpt>
      <trkpt lat="46.430988013744354" lon="9.345182999968529">
        <ele>1460.9000000000001</ele>
        <time>2007-06-09T08:05:46Z</time>
      </trkpt>
      <trkpt lat="46.430906960740685" lon="9.345044028013945">
        <ele>1459.9000000000001</ele>
        <time>2007-06-09T08:06:06Z</time>
      </trkpt>
      <trkpt lat="46.430904027074575" lon="9.345037993043661">
        <ele>1459.9000000000001</ele>
        <time>2007-06-09T08:06:21Z</time>
      </trkpt>
      <trkpt lat="46.430935962125659" lon="9.345092978328466">
        <ele>1458.9000000000001</ele>
        <time>2007-06-09T08:06:30Z</time>
      </trkpt>
      <trkpt lat="46.430948032066226" lon="9.345110999420285">
        <ele>1459.9000000000001</ele>
        <time>2007-06-09T08:06:42Z</time>
      </trkpt>
      <trkpt lat="46.430947026237845" lon="9.345106976106763">
        <ele>1458.9000000000001</ele>
        <time>2007-06-09T08:06:51Z</time>
      </trkpt>
      <trkpt lat="46.430964963510633" lon="9.345123991370201">
        <ele>1459.9000000000001</ele>
        <time>2007-06-09T08:07:22Z</time>
      </trkpt>
      <trkpt lat="46.430975021794438" lon="9.345137989148498">
        <ele>1460.4000000000001</ele>
        <time>2007-06-09T08:07:33Z</time>
      </trkpt>
      <trkpt lat="46.430920958518982" lon="9.345070011913776">
        <ele>1460.9000000000001</ele>
        <time>2007-06-09T08:08:04Z</time>
      </trkpt>
      <trkpt lat="46.430931016802788" lon="9.345097001641989">
        <ele>1463.3</ele>
        <time>2007-06-09T08:08:43Z</time>
      </trkpt>
      <trkpt lat="46.430947026237845" lon="9.345115022733808">
        <ele>1461.8</ele>
        <time>2007-06-09T08:09:05Z</time>
      </trkpt>
      <trkpt lat="46.430969992652535" lon="9.345152992755175">
        <ele>1460.9000000000001</ele>
        <time>2007-06-09T08:09:14Z</time>
      </trkpt>
      <trkpt lat="46.4309770334512" lon="9.345159027725458">
        <ele>1461.3</ele>
        <time>2007-06-09T08:09:24Z</time>
      </trkpt>
      <trkpt lat="46.43093797378242" lon="9.345106976106763">
        <ele>1460.4000000000001</ele>
        <time>2007-06-09T08:09:56Z</time>
      </trkpt>
      <trkpt lat="46.430949959903955" lon="9.345192974433303">
        <ele>1461.8</ele>
        <time>2007-06-09T08:10:15Z</time>
      </trkpt>
      <trkpt lat="46.430940991267562" lon="9.345321971923113">
        <ele>1462.8</ele>
        <time>2007-06-09T08:10:21Z</time>
      </trkpt>
      <trkpt lat="46.430920036509633" lon="9.34546303935349">
        <ele>1462.3</ele>
        <time>2007-06-09T08:10:27Z</time>
      </trkpt>
      <trkpt lat="46.430926993489265" lon="9.345480976626277">
        <ele>1462.8</ele>
        <time>2007-06-09T08:10:32Z</time>
      </trkpt>
      <trkpt lat="46.43102103844285" lon="9.345445018261671">
        <ele>1464.2</ele>
        <time>2007-06-09T08:10:37Z</time>
      </trkpt>
      <trkpt lat="46.431111982092261" lon="9.345498997718096">
        <ele>1465.2</ele>
        <time>2007-06-09T08:10:43Z</time>
      </trkpt>
      <trkpt lat="46.431099995970726" lon="9.345477959141135">
        <ele>1465.2</ele>
        <time>2007-06-09T08:10:44Z</time>
      </trkpt>
      <trkpt lat="46.431060014292598" lon="9.345360025763512">
        <ele>1465.7</ele>
        <time>2007-06-09T08:10:48Z</time>
      </trkpt>
      <trkpt lat="46.430954989045858" lon="9.345124997198582">
        <ele>1466.0999999999999</ele>
        <time>2007-06-09T08:10:53Z</time>
      </trkpt>
      <trkpt lat="46.430748961865902" lon="9.344902960583568">
        <ele>1466.5999999999999</ele>
        <time>2007-06-09T08:10:57Z</time>
      </trkpt>
      <trkpt lat="46.430671010166407" lon="9.344842024147511">
        <ele>1466.5999999999999</ele>
        <time>2007-06-09T08:11:00Z</time>
      </trkpt>
      <trkpt lat="46.430671010166407" lon="9.344842024147511">
        <ele>1470</ele>
        <time>2007-06-09T08:11:13Z</time>
      </trkpt>
      <trkpt lat="46.430595992133021" lon="9.345371006056666">
        <ele>1472.4000000000001</ele>
        <time>2007-06-09T08:11:29Z</time>
      </trkpt>
      <trkpt lat="46.430520974099636" lon="9.345899987965822">
        <ele>1475.3</ele>
        <time>2007-06-09T08:11:45Z</time>
      </trkpt>
      <trkpt lat="46.430446039885283" lon="9.346427964046598">
        <ele>1478.5999999999999</ele>
        <time>2007-06-09T08:12:03Z</time>
      </trkpt>
      <trkpt lat="46.430371021851897" lon="9.346957029774785">
        <ele>1481.5</ele>
        <time>2007-06-09T08:12:20Z</time>
      </trkpt>
      <trkpt lat="46.430296003818512" lon="9.34748500585556">
        <ele>1484.9000000000001</ele>
        <time>2007-06-09T08:12:37Z</time>
      </trkpt>
      <trkpt lat="46.430220985785127" lon="9.348013987764716">
        <ele>1484.9000000000001</ele>
        <time>2007-06-09T08:12:41Z</time>
      </trkpt>
      <trkpt lat="46.430145967751741" lon="9.348542969673872">
        <ele>1488.7</ele>
        <time>2007-06-09T08:12:59Z</time>
      </trkpt>
      <trkpt lat="46.430071033537388" lon="9.349071029573679">
        <ele>1492.5999999999999</ele>
        <time>2007-06-09T08:13:26Z</time>
      </trkpt>
      <trkpt lat="46.429996015504003" lon="9.349600011482835">
        <ele>1493.0999999999999</ele>
        <time>2007-06-09T08:13:34Z</time>
      </trkpt>
      <trkpt lat="46.429919991642237" lon="9.35012798756361">
        <ele>1496.4000000000001</ele>
        <time>2007-06-09T08:13:49Z</time>
      </trkpt>
      <trkpt lat="46.429844973608851" lon="9.350656969472766">
        <ele>1499.3</ele>
        <time>2007-06-09T08:14:11Z</time>
      </trkpt>
      <trkpt lat="46.429770039394498" lon="9.351186035200954">
        <ele>1502.7</ele>
        <time>2007-06-09T08:14:29Z</time>
      </trkpt>
      <trkpt lat="46.429695021361113" lon="9.351714011281729">
        <ele>1504.5999999999999</ele>
        <time>2007-06-09T08:14:43Z</time>
      </trkpt>
      <trkpt lat="46.429659985005856" lon="9.351861029863358">
        <ele>1505.5999999999999</ele>
        <time>2007-06-09T08:14:46Z</time>
      </trkpt>
      <trkpt lat="46.429655961692333" lon="9.352515991777182">
        <ele>1505.5999999999999</ele>
        <time>2007-06-09T08:14:53Z</time>
      </trkpt>
      <trkpt lat="46.42971396446228" lon="9.352732999250293">
        <ele>1507</ele>
        <time>2007-06-09T08:15:00Z</time>
      </trkpt>
      <trkpt lat="46.429794011637568" lon="9.352970039471984">
        <ele>1508</ele>
        <time>2007-06-09T08:15:09Z</time>
      </trkpt>
      <trkpt lat="46.429871041327715" lon="9.353160979226232">
        <ele>1508.9000000000001</ele>
        <time>2007-06-09T08:15:17Z</time>
      </trkpt>
      <trkpt lat="46.42990599386394" lon="9.353247983381152">
        <ele>1508.9000000000001</ele>
        <time>2007-06-09T08:15:21Z</time>
      </trkpt>
      <trkpt lat="46.429953016340733" lon="9.353310009464622">
        <ele>1509.9000000000001</ele>
        <time>2007-06-09T08:15:25Z</time>
      </trkpt>
      <trkpt lat="46.430001966655254" lon="9.353517964482307">
        <ele>1510.8</ele>
        <time>2007-06-09T08:15:33Z</time>
      </trkpt>
      <trkpt lat="46.430074973031878" lon="9.353764979168773">
        <ele>1513.7</ele>
        <time>2007-06-09T08:15:42Z</time>
      </trkpt>
      <trkpt lat="46.430082013830543" lon="9.353785011917353">
        <ele>1513.7</ele>
        <time>2007-06-09T08:15:43Z</time>
      </trkpt>
      <trkpt lat="46.430172035470605" lon="9.353959020227194">
        <ele>1514.7</ele>
        <time>2007-06-09T08:15:52Z</time>
      </trkpt>
      <trkpt lat="46.430246969684958" lon="9.354074019938707">
        <ele>1516.5999999999999</ele>
        <time>2007-06-09T08:15:58Z</time>
      </trkpt>
      <trkpt lat="46.430361969396472" lon="9.354190025478602">
        <ele>1517.5999999999999</ele>
        <time>2007-06-09T08:16:06Z</time>
      </trkpt>
      <trkpt lat="46.430466994643211" lon="9.354246016591787">
        <ele>1518.5</ele>
        <time>2007-06-09T08:16:12Z</time>
      </trkpt>
      <trkpt lat="46.430596997961402" lon="9.354291027411819">
        <ele>1520</ele>
        <time>2007-06-09T08:16:19Z</time>
      </trkpt>
      <trkpt lat="46.430748961865902" lon="9.354371996596456">
        <ele>1521.4000000000001</ele>
        <time>2007-06-09T08:16:26Z</time>
      </trkpt>
      <trkpt lat="46.430900003761053" lon="9.354481967166066">
        <ele>1523.8</ele>
        <time>2007-06-09T08:16:33Z</time>
      </trkpt>
      <trkpt lat="46.431003017351031" lon="9.354558996856213">
        <ele>1524.8</ele>
        <time>2007-06-09T08:16:39Z</time>
      </trkpt>
      <trkpt lat="46.431133020669222" lon="9.354628985747695">
        <ele>1525.3</ele>
        <time>2007-06-09T08:16:46Z</time>
      </trkpt>
      <trkpt lat="46.431234022602439" lon="9.354667961597443">
        <ele>1524.8</ele>
        <time>2007-06-09T08:16:52Z</time>
      </trkpt>
      <trkpt lat="46.431407025083899" lon="9.354743985459209">
        <ele>1524.3</ele>
        <time>2007-06-09T08:16:59Z</time>
      </trkpt>
      <trkpt lat="46.431540967896581" lon="9.354825038462877">
        <ele>1524.8</ele>
        <time>2007-06-09T08:17:06Z</time>
      </trkpt>
      <trkpt lat="46.431715982034802" lon="9.354915982112289">
        <ele>1524.8</ele>
        <time>2007-06-09T08:17:12Z</time>
      </trkpt>
      <trkpt lat="46.431884039193392" lon="9.355012038722634">
        <ele>1525.3</ele>
        <time>2007-06-09T08:17:19Z</time>
      </trkpt>
      <trkpt lat="46.432054024189711" lon="9.355127038434148">
        <ele>1525.3</ele>
        <time>2007-06-09T08:17:26Z</time>
      </trkpt>
      <trkpt lat="46.432189978659153" lon="9.355230974033475">
        <ele>1524.8</ele>
        <time>2007-06-09T08:17:32Z</time>
      </trkpt>
      <trkpt lat="46.432353006675839" lon="9.355361983180046">
        <ele>1524.8</ele>
        <time>2007-06-09T08:17:40Z</time>
      </trkpt>
      <trkpt lat="46.432444034144282" lon="9.355420991778374">
        <ele>1524.8</ele>
        <time>2007-06-09T08:17:46Z</time>
      </trkpt>
      <trkpt lat="46.432534977793694" lon="9.355524005368352">
        <ele>1525.3</ele>
        <time>2007-06-09T08:17:53Z</time>
      </trkpt>
      <trkpt lat="46.432630028575659" lon="9.355560969561338">
        <ele>1525.3</ele>
        <time>2007-06-09T08:17:59Z</time>
      </trkpt>
      <trkpt lat="46.43276397138834" lon="9.355510007590056">
        <ele>1525.3</ele>
        <time>2007-06-09T08:18:05Z</time>
      </trkpt>
      <trkpt lat="46.432788027450442" lon="9.355511013418436">
        <ele>1524.8</ele>
        <time>2007-06-09T08:18:09Z</time>
      </trkpt>
      <trkpt lat="46.432792972773314" lon="9.355548983439803">
        <ele>1525.7</ele>
        <time>2007-06-09T08:18:55Z</time>
      </trkpt>
      <trkpt lat="46.432793978601694" lon="9.355536997318268">
        <ele>1524.8</ele>
        <time>2007-06-09T08:19:18Z</time>
      </trkpt>
      <trkpt lat="46.432820968329906" lon="9.355502966791391">
        <ele>1525.3</ele>
        <time>2007-06-09T08:23:34Z</time>
      </trkpt>
      <trkpt lat="46.432808982208371" lon="9.355503972619772">
        <ele>1526.2</ele>
        <time>2007-06-09T08:23:43Z</time>
      </trkpt>
      <trkpt lat="46.43280697055161" lon="9.355495003983378">
        <ele>1525.7</ele>
        <time>2007-06-09T08:24:01Z</time>
      </trkpt>
      <trkpt lat="46.432796996086836" lon="9.355499027296901">
        <ele>1526.2</ele>
        <time>2007-06-09T08:25:30Z</time>
      </trkpt>
      <trkpt lat="46.432785009965301" lon="9.355559963732958">
        <ele>1525.7</ele>
        <time>2007-06-09T08:25:42Z</time>
      </trkpt>
      <trkpt lat="46.432786015793681" lon="9.355534985661507">
        <ele>1526.7</ele>
        <time>2007-06-09T08:27:44Z</time>
      </trkpt>
      <trkpt lat="46.432809988036752" lon="9.355558035895228">
        <ele>1526.7</ele>
        <time>2007-06-09T08:28:10Z</time>
      </trkpt>
      <trkpt lat="46.432811999693513" lon="9.355565998703241">
        <ele>1526.7</ele>
        <time>2007-06-09T08:28:12Z</time>
      </trkpt>
      <trkpt lat="46.432804958894849" lon="9.355676975101233">
        <ele>1526.7</ele>
        <time>2007-06-09T08:28:18Z</time>
      </trkpt>
      <trkpt lat="46.432862039655447" lon="9.35575601644814">
        <ele>1527.2</ele>
        <time>2007-06-09T08:28:23Z</time>
      </trkpt>
      <trkpt lat="46.432961029931903" lon="9.355874033644795">
        <ele>1526.7</ele>
        <time>2007-06-09T08:28:29Z</time>
      </trkpt>
      <trkpt lat="46.433023978024721" lon="9.356007976457477">
        <ele>1527.2</ele>
        <time>2007-06-09T08:28:34Z</time>
      </trkpt>
      <trkpt lat="46.433158004656434" lon="9.356212997809053">
        <ele>1528.2</ele>
        <time>2007-06-09T08:28:42Z</time>
      </trkpt>
      <trkpt lat="46.433260012418032" lon="9.356351969763637">
        <ele>1528.5999999999999</ele>
        <time>2007-06-09T08:28:48Z</time>
      </trkpt>
      <trkpt lat="46.433408036828041" lon="9.356518015265465">
        <ele>1529.0999999999999</ele>
        <time>2007-06-09T08:28:55Z</time>
      </trkpt>
      <trkpt lat="46.433496968820691" lon="9.356631003320217">
        <ele>1530.5999999999999</ele>
        <time>2007-06-09T08:29:00Z</time>
      </trkpt>
      <trkpt lat="46.433611968532205" lon="9.35676402412355">
        <ele>1532</ele>
        <time>2007-06-09T08:29:06Z</time>
      </trkpt>
      <trkpt lat="46.433736020699143" lon="9.356798976659775">
        <ele>1532.5</ele>
        <time>2007-06-09T08:29:11Z</time>
      </trkpt>
      <trkpt lat="46.433841967955232" lon="9.356770981103182">
        <ele>1532.5</ele>
        <time>2007-06-09T08:29:15Z</time>
      </trkpt>
      <trkpt lat="46.433958979323506" lon="9.356683976948261">
        <ele>1532.5</ele>
        <time>2007-06-09T08:29:19Z</time>
      </trkpt>
      <trkpt lat="46.434258967638016" lon="9.356556991115212">
        <ele>1531.5</ele>
        <time>2007-06-09T08:29:26Z</time>
      </trkpt>
      <trkpt lat="46.434661969542503" lon="9.35635699890554">
        <ele>1531.5</ele>
        <time>2007-06-09T08:29:36Z</time>
      </trkpt>
      <trkpt lat="46.434962041676044" lon="9.356223978102207">
        <ele>1531.5</ele>
        <time>2007-06-09T08:29:44Z</time>
      </trkpt>
      <trkpt lat="46.435140995308757" lon="9.356258008629084">
        <ele>1531.5</ele>
        <time>2007-06-09T08:29:49Z</time>
      </trkpt>
      <trkpt lat="46.435376023873687" lon="9.356382982805371">
        <ele>1532</ele>
        <time>2007-06-09T08:29:56Z</time>
      </trkpt>
      <trkpt lat="46.435709036886692" lon="9.3565490283072">
        <ele>1531.5</ele>
        <time>2007-06-09T08:30:05Z</time>
      </trkpt>
      <trkpt lat="46.436110027134418" lon="9.356815991923213">
        <ele>1532.5</ele>
        <time>2007-06-09T08:30:16Z</time>
      </trkpt>
      <trkpt lat="46.436175992712379" lon="9.356997963041067">
        <ele>1532.5</ele>
        <time>2007-06-09T08:30:20Z</time>
      </trkpt>
      <trkpt lat="46.436266014352441" lon="9.357402976602316">
        <ele>1533.4000000000001</ele>
        <time>2007-06-09T08:30:28Z</time>
      </trkpt>
      <trkpt lat="46.436326028779149" lon="9.357656026259065">
        <ele>1533.9000000000001</ele>
        <time>2007-06-09T08:30:33Z</time>
      </trkpt>
      <trkpt lat="46.436447985470295" lon="9.3578199762851">
        <ele>1534.4000000000001</ele>
        <time>2007-06-09T08:30:38Z</time>
      </trkpt>
      <trkpt lat="46.43658603541553" lon="9.357947967946529">
        <ele>1534.9000000000001</ele>
        <time>2007-06-09T08:30:43Z</time>
      </trkpt>
      <trkpt lat="46.436858028173447" lon="9.358150977641344">
        <ele>1535.8</ele>
        <time>2007-06-09T08:30:52Z</time>
      </trkpt>
      <trkpt lat="46.437045028433204" lon="9.358373014256358">
        <ele>1536.3</ele>
        <time>2007-06-09T08:30:59Z</time>
      </trkpt>
      <trkpt lat="46.437306040897965" lon="9.358494970947504">
        <ele>1537.3</ele>
        <time>2007-06-09T08:31:07Z</time>
      </trkpt>
      <trkpt lat="46.4376600086689" lon="9.358576023951173">
        <ele>1538.2</ele>
        <time>2007-06-09T08:31:17Z</time>
      </trkpt>
      <trkpt lat="46.437971983104944" lon="9.358652969822288">
        <ele>1539.7</ele>
        <time>2007-06-09T08:31:26Z</time>
      </trkpt>
      <trkpt lat="46.438290998339653" lon="9.358727987855673">
        <ele>1540.5999999999999</ele>
        <time>2007-06-09T08:31:35Z</time>
      </trkpt>
      <trkpt lat="46.438485039398074" lon="9.358767969533801">
        <ele>1541.0999999999999</ele>
        <time>2007-06-09T08:31:41Z</time>
      </trkpt>
      <trkpt lat="46.438631974160671" lon="9.358776016160846">
        <ele>1541.0999999999999</ele>
        <time>2007-06-09T08:31:47Z</time>
      </trkpt>
      <trkpt lat="46.438647983595729" lon="9.358682977035642">
        <ele>1541.5999999999999</ele>
        <time>2007-06-09T08:31:52Z</time>
      </trkpt>
      <trkpt lat="46.438628034666181" lon="9.35865699313581">
        <ele>1541.0999999999999</ele>
        <time>2007-06-09T08:31:58Z</time>
      </trkpt>
      <trkpt lat="46.438591992482543" lon="9.358621034771204">
        <ele>1541.0999999999999</ele>
        <time>2007-06-09T08:32:04Z</time>
      </trkpt>
      <trkpt lat="46.438557039946318" lon="9.358475022017956">
        <ele>1541.0999999999999</ele>
        <time>2007-06-09T08:32:09Z</time>
      </trkpt>
      <trkpt lat="46.438462994992733" lon="9.358230018988252">
        <ele>1541.0999999999999</ele>
        <time>2007-06-09T08:32:16Z</time>
      </trkpt>
      <trkpt lat="46.438456960022449" lon="9.358202023431659">
        <ele>1541.0999999999999</ele>
        <time>2007-06-09T08:32:17Z</time>
      </trkpt>
      <trkpt lat="46.438503982499242" lon="9.358142009004951">
        <ele>1543.0999999999999</ele>
        <time>2007-06-09T08:32:22Z</time>
      </trkpt>
      <trkpt lat="46.438534995540977" lon="9.358145026490092">
        <ele>1545</ele>
        <time>2007-06-09T08:32:25Z</time>
      </trkpt>
      <trkpt lat="46.438631974160671" lon="9.358144020661712">
        <ele>1547.9000000000001</ele>
        <time>2007-06-09T08:32:32Z</time>
      </trkpt>
      <trkpt lat="46.43864999525249" lon="9.358136979863048">
        <ele>1547.9000000000001</ele>
        <time>2007-06-09T08:32:33Z</time>
      </trkpt>
      <trkpt lat="46.438734987750649" lon="9.358128011226654">
        <ele>1548.3</ele>
        <time>2007-06-09T08:32:39Z</time>
      </trkpt>
      <trkpt lat="46.438819980248809" lon="9.358086017891765">
        <ele>1549.8</ele>
        <time>2007-06-09T08:32:46Z</time>
      </trkpt>
      <trkpt lat="46.438860967755318" lon="9.358075959607959">
        <ele>1550.3</ele>
        <time>2007-06-09T08:32:51Z</time>
      </trkpt>
      <trkpt lat="46.438847975805402" lon="9.35807797126472">
        <ele>1550.3</ele>
        <time>2007-06-09T08:32:56Z</time>
      </trkpt>
      <trkpt lat="46.438849987462163" lon="9.35807503759861">
        <ele>1551.2</ele>
        <time>2007-06-09T08:33:38Z</time>
      </trkpt>
      <trkpt lat="46.438779998570681" lon="9.358090041205287">
        <ele>1550.3</ele>
        <time>2007-06-09T08:33:43Z</time>
      </trkpt>
      <trkpt lat="46.438604984432459" lon="9.358102027326822">
        <ele>1546.4000000000001</ele>
        <time>2007-06-09T08:33:48Z</time>
      </trkpt>
      <trkpt lat="46.438518986105919" lon="9.358100015670061">
        <ele>1543.5</ele>
        <time>2007-06-09T08:33:50Z</time>
      </trkpt>
      <trkpt lat="46.438470035791397" lon="9.358137985691428">
        <ele>1542.5999999999999</ele>
        <time>2007-06-09T08:33:52Z</time>
      </trkpt>
      <trkpt lat="46.438496019691229" lon="9.358192970976234">
        <ele>1541.0999999999999</ele>
        <time>2007-06-09T08:33:54Z</time>
      </trkpt>
      <trkpt lat="46.438570031896234" lon="9.358424982056022">
        <ele>1542.0999999999999</ele>
        <time>2007-06-09T08:34:00Z</time>
      </trkpt>
      <trkpt lat="46.438611019402742" lon="9.358527995646">
        <ele>1542.0999999999999</ele>
        <time>2007-06-09T08:34:06Z</time>
      </trkpt>
      <trkpt lat="46.438631974160671" lon="9.358573006466031">
        <ele>1542.5999999999999</ele>
        <time>2007-06-09T08:34:12Z</time>
      </trkpt>
      <trkpt lat="46.438612025231123" lon="9.358604019507766">
        <ele>1542.5999999999999</ele>
        <time>2007-06-09T08:34:22Z</time>
      </trkpt>
      <trkpt lat="46.438592998310924" lon="9.358622962608933">
        <ele>1542.5999999999999</ele>
        <time>2007-06-09T08:34:32Z</time>
      </trkpt>
      <trkpt lat="46.438614958897233" lon="9.358717007562518">
        <ele>1542.5999999999999</ele>
        <time>2007-06-09T08:34:36Z</time>
      </trkpt>
      <trkpt lat="46.438707998022437" lon="9.358755983412266">
        <ele>1543.5</ele>
        <time>2007-06-09T08:34:40Z</time>
      </trkpt>
      <trkpt lat="46.438841018825769" lon="9.35876302421093">
        <ele>1544</ele>
        <time>2007-06-09T08:34:46Z</time>
      </trkpt>
      <trkpt lat="46.438979990780354" lon="9.358789008110762">
        <ele>1544.5</ele>
        <time>2007-06-09T08:34:51Z</time>
      </trkpt>
      <trkpt lat="46.439190963283181" lon="9.358841981738806">
        <ele>1545</ele>
        <time>2007-06-09T08:34:58Z</time>
      </trkpt>
      <trkpt lat="46.439452981576324" lon="9.358876012265682">
        <ele>1545.9000000000001</ele>
        <time>2007-06-09T08:35:07Z</time>
      </trkpt>
      <trkpt lat="46.43968197517097" lon="9.358912976458669">
        <ele>1546.4000000000001</ele>
        <time>2007-06-09T08:35:15Z</time>
      </trkpt>
      <trkpt lat="46.439913986250758" lon="9.358986988663673">
        <ele>1547.4000000000001</ele>
        <time>2007-06-09T08:35:23Z</time>
      </trkpt>
      <trkpt lat="46.440166030079126" lon="9.359077010303736">
        <ele>1547.4000000000001</ele>
        <time>2007-06-09T08:35:32Z</time>
      </trkpt>
      <trkpt lat="46.440310031175613" lon="9.359125960618258">
        <ele>1550.3</ele>
        <time>2007-06-09T08:35:38Z</time>
      </trkpt>
      <trkpt lat="46.44049602560699" lon="9.359226962551475">
        <ele>1550.7</ele>
        <time>2007-06-09T08:35:46Z</time>
      </trkpt>
      <trkpt lat="46.440656036138535" lon="9.359359983354807">
        <ele>1550.3</ele>
        <time>2007-06-09T08:35:52Z</time>
      </trkpt>
      <trkpt lat="46.440695011988282" lon="9.359413040801883">
        <ele>1550.7</ele>
        <time>2007-06-09T08:35:54Z</time>
      </trkpt>
      <trkpt lat="46.440872037783265" lon="9.359643962234259">
        <ele>1553.0999999999999</ele>
        <time>2007-06-09T08:36:03Z</time>
      </trkpt>
      <trkpt lat="46.441005980595946" lon="9.359815958887339">
        <ele>1554.0999999999999</ele>
        <time>2007-06-09T08:36:11Z</time>
      </trkpt>
      <trkpt lat="46.441058032214642" lon="9.359889971092343">
        <ele>1554.5999999999999</ele>
        <time>2007-06-09T08:36:15Z</time>
      </trkpt>
      <trkpt lat="46.441097008064389" lon="9.3599250074476">
        <ele>1554.5999999999999</ele>
        <time>2007-06-09T08:36:23Z</time>
      </trkpt>
      <trkpt lat="46.441088039427996" lon="9.359950991347432">
        <ele>1554.5999999999999</ele>
        <time>2007-06-09T08:36:39Z</time>
      </trkpt>
      <trkpt lat="46.441151993349195" lon="9.359917966648936">
        <ele>1556</ele>
        <time>2007-06-09T08:36:45Z</time>
      </trkpt>
      <trkpt lat="46.441318038851023" lon="9.359961971640587">
        <ele>1558.4000000000001</ele>
        <time>2007-06-09T08:36:51Z</time>
      </trkpt>
      <trkpt lat="46.441424991935492" lon="9.35998996719718">
        <ele>1559.4000000000001</ele>
        <time>2007-06-09T08:36:55Z</time>
      </trkpt>
      <trkpt lat="46.441472014412284" lon="9.359891982749105">
        <ele>1559.9000000000001</ele>
        <time>2007-06-09T08:36:59Z</time>
      </trkpt>
      <trkpt lat="46.441408982500434" lon="9.35979500412941">
        <ele>1561.3</ele>
        <time>2007-06-09T08:37:03Z</time>
      </trkpt>
      <trkpt lat="46.441361038014293" lon="9.359734989702702">
        <ele>1561.8</ele>
        <time>2007-06-09T08:37:06Z</time>
      </trkpt>
      <trkpt lat="46.441302029415965" lon="9.359643962234259">
        <ele>1561.8</ele>
        <time>2007-06-09T08:37:10Z</time>
      </trkpt>
      <trkpt lat="46.441318038851023" lon="9.359611021354795">
        <ele>1562.3</ele>
        <time>2007-06-09T08:37:12Z</time>
      </trkpt>
      <trkpt lat="46.441427003592253" lon="9.359634993597865">
        <ele>1563.7</ele>
        <time>2007-06-09T08:37:19Z</time>
      </trkpt>
      <trkpt lat="46.441535968333483" lon="9.359720991924405">
        <ele>1564.7</ele>
        <time>2007-06-09T08:37:26Z</time>
      </trkpt>
      <trkpt lat="46.441611992195249" lon="9.359696013852954">
        <ele>1565.2</ele>
        <time>2007-06-09T08:37:30Z</time>
      </trkpt>
      <trkpt lat="46.441624984145164" lon="9.359582019969821">
        <ele>1565.5999999999999</ele>
        <time>2007-06-09T08:37:35Z</time>
      </trkpt>
      <trkpt lat="46.441612998023629" lon="9.359563998878002">
        <ele>1566.0999999999999</ele>
        <time>2007-06-09T08:37:36Z</time>
      </trkpt>
      <trkpt lat="46.441490035504103" lon="9.359386973083019">
        <ele>1568.5</ele>
        <time>2007-06-09T08:37:46Z</time>
      </trkpt>
      <trkpt lat="46.44144301302731" lon="9.359321007505059">
        <ele>1570.5</ele>
        <time>2007-06-09T08:37:50Z</time>
      </trkpt>
      <trkpt lat="46.441423986107111" lon="9.359274990856648">
        <ele>1570.5</ele>
        <time>2007-06-09T08:37:52Z</time>
      </trkpt>
      <trkpt lat="46.441481988877058" lon="9.359202990308404">
        <ele>1570.9000000000001</ele>
        <time>2007-06-09T08:37:57Z</time>
      </trkpt>
      <trkpt lat="46.441521970555186" lon="9.359238026663661">
        <ele>1571.4000000000001</ele>
        <time>2007-06-09T08:38:00Z</time>
      </trkpt>
      <trkpt lat="46.441661026328802" lon="9.359375992789865">
        <ele>1573.3</ele>
        <time>2007-06-09T08:38:09Z</time>
      </trkpt>
      <trkpt lat="46.441807961091399" lon="9.359548995271325">
        <ele>1574.3</ele>
        <time>2007-06-09T08:38:19Z</time>
      </trkpt>
      <trkpt lat="46.441908963024616" lon="9.359690984711051">
        <ele>1575.7</ele>
        <time>2007-06-09T08:38:27Z</time>
      </trkpt>
      <trkpt lat="46.442013988271356" lon="9.359780000522733">
        <ele>1576.7</ele>
        <time>2007-06-09T08:38:35Z</time>
      </trkpt>
      <trkpt lat="46.442134017124772" lon="9.359826017171145">
        <ele>1578.0999999999999</ele>
        <time>2007-06-09T08:38:43Z</time>
      </trkpt>
      <trkpt lat="46.442224960774183" lon="9.35985803604126">
        <ele>1579.0999999999999</ele>
        <time>2007-06-09T08:38:48Z</time>
      </trkpt>
      <trkpt lat="46.442327974364161" lon="9.359864993020892">
        <ele>1581</ele>
        <time>2007-06-09T08:38:55Z</time>
      </trkpt>
      <trkpt lat="46.442465018481016" lon="9.359853006899357">
        <ele>1582.5</ele>
        <time>2007-06-09T08:39:03Z</time>
      </trkpt>
      <trkpt lat="46.442577000707388" lon="9.359857030212879">
        <ele>1583.4000000000001</ele>
        <time>2007-06-09T08:39:11Z</time>
      </trkpt>
      <trkpt lat="46.442701974883676" lon="9.359921989962459">
        <ele>1584.9000000000001</ele>
        <time>2007-06-09T08:39:21Z</time>
      </trkpt>
      <trkpt lat="46.442704992368817" lon="9.359937999397516">
        <ele>1584.9000000000001</ele>
        <time>2007-06-09T08:39:22Z</time>
      </trkpt>
      <trkpt lat="46.442765006795526" lon="9.360043024644256">
        <ele>1586.8</ele>
        <time>2007-06-09T08:39:30Z</time>
      </trkpt>
      <trkpt lat="46.44283901900053" lon="9.360167998820543">
        <ele>1588.7</ele>
        <time>2007-06-09T08:39:39Z</time>
      </trkpt>
      <trkpt lat="46.442886963486671" lon="9.360218038782477">
        <ele>1590.5999999999999</ele>
        <time>2007-06-09T08:39:44Z</time>
      </trkpt>
      <trkpt lat="46.442986959591508" lon="9.36020496301353">
        <ele>1592.0999999999999</ele>
        <time>2007-06-09T08:39:53Z</time>
      </trkpt>
      <trkpt lat="46.443038005381823" lon="9.360175961628556">
        <ele>1592.5999999999999</ele>
        <time>2007-06-09T08:40:00Z</time>
      </trkpt>
      <trkpt lat="46.443100031465292" lon="9.360111001878977">
        <ele>1593.5</ele>
        <time>2007-06-09T08:40:07Z</time>
      </trkpt>
      <trkpt lat="46.44316197372973" lon="9.360059034079313">
        <ele>1594.5</ele>
        <time>2007-06-09T08:40:14Z</time>
      </trkpt>
      <trkpt lat="46.443197010084987" lon="9.360051993280649">
        <ele>1594.5</ele>
        <time>2007-06-09T08:40:22Z</time>
      </trkpt>
      <trkpt lat="46.44322601146996" lon="9.360003964975476">
        <ele>1595.4000000000001</ele>
        <time>2007-06-09T08:41:10Z</time>
      </trkpt>
      <trkpt lat="46.443242020905018" lon="9.359996002167463">
        <ele>1596.4000000000001</ele>
        <time>2007-06-09T08:41:17Z</time>
      </trkpt>
      <trkpt lat="46.443279990926385" lon="9.3599440343678">
        <ele>1598.3</ele>
        <time>2007-06-09T08:41:32Z</time>
      </trkpt>
      <trkpt lat="46.443276973441243" lon="9.359889971092343">
        <ele>1599.3</ele>
        <time>2007-06-09T08:41:39Z</time>
      </trkpt>
      <trkpt lat="46.443275967612863" lon="9.359842026606202">
        <ele>1599.8</ele>
        <time>2007-06-09T08:41:44Z</time>
      </trkpt>
      <trkpt lat="46.443282002583146" lon="9.359749993309379">
        <ele>1602.2</ele>
        <time>2007-06-09T08:41:52Z</time>
      </trkpt>
      <trkpt lat="46.44329097121954" lon="9.359700959175825">
        <ele>1603.0999999999999</ele>
        <time>2007-06-09T08:41:59Z</time>
      </trkpt>
      <trkpt lat="46.443320978432894" lon="9.359630970284343">
        <ele>1605.0999999999999</ele>
        <time>2007-06-09T08:42:06Z</time>
      </trkpt>
      <trkpt lat="46.443350985646248" lon="9.359619989991188">
        <ele>1605.0999999999999</ele>
        <time>2007-06-09T08:42:13Z</time>
      </trkpt>
      <trkpt lat="46.443386022001505" lon="9.359683021903038">
        <ele>1607</ele>
        <time>2007-06-09T08:42:20Z</time>
      </trkpt>
      <trkpt lat="46.443399013951421" lon="9.359661983326078">
        <ele>1607.5</ele>
        <time>2007-06-09T08:42:25Z</time>
      </trkpt>
      <trkpt lat="46.443446958437562" lon="9.359634993597865">
        <ele>1608.4000000000001</ele>
        <time>2007-06-09T08:42:34Z</time>
      </trkpt>
      <trkpt lat="46.443472020328045" lon="9.359628958627582">
        <ele>1608.9000000000001</ele>
        <time>2007-06-09T08:42:42Z</time>
      </trkpt>
      <trkpt lat="46.443492975085974" lon="9.359613033011556">
        <ele>1609.4000000000001</ele>
        <time>2007-06-09T08:43:04Z</time>
      </trkpt>
      <trkpt lat="46.443518958985806" lon="9.359590988606215">
        <ele>1609.4000000000001</ele>
        <time>2007-06-09T08:43:29Z</time>
      </trkpt>
      <trkpt lat="46.443571010604501" lon="9.359573973342776">
        <ele>1609.9000000000001</ele>
        <time>2007-06-09T08:43:36Z</time>
      </trkpt>
      <trkpt lat="46.443625995889306" lon="9.359557963907719">
        <ele>1610.8</ele>
        <time>2007-06-09T08:43:42Z</time>
      </trkpt>
      <trkpt lat="46.443650973960757" lon="9.35953801497817">
        <ele>1611.8</ele>
        <time>2007-06-09T08:43:45Z</time>
      </trkpt>
      <trkpt lat="46.443687016144395" lon="9.359513958916068">
        <ele>1612.7</ele>
        <time>2007-06-09T08:43:49Z</time>
      </trkpt>
      <trkpt lat="46.443701013922691" lon="9.359501972794533">
        <ele>1612.7</ele>
        <time>2007-06-09T08:43:51Z</time>
      </trkpt>
      <trkpt lat="46.443777959793806" lon="9.359481018036604">
        <ele>1614.2</ele>
        <time>2007-06-09T08:43:59Z</time>
      </trkpt>
      <trkpt lat="46.443801010027528" lon="9.359457967802882">
        <ele>1614.2</ele>
        <time>2007-06-09T08:44:02Z</time>
      </trkpt>
      <trkpt lat="46.443875022232533" lon="9.359461991116405">
        <ele>1615.2</ele>
        <time>2007-06-09T08:44:11Z</time>
      </trkpt>
      <trkpt lat="46.443886002525687" lon="9.359485963359475">
        <ele>1614.7</ele>
        <time>2007-06-09T08:44:18Z</time>
      </trkpt>
      <trkpt lat="46.4439129922539" lon="9.359508007764816">
        <ele>1615.2</ele>
        <time>2007-06-09T08:44:26Z</time>
      </trkpt>
      <trkpt lat="46.443950040265918" lon="9.359534997493029">
        <ele>1615.5999999999999</ele>
        <time>2007-06-09T08:44:35Z</time>
      </trkpt>
      <trkpt lat="46.443981975317001" lon="9.359566010534763">
        <ele>1616.0999999999999</ele>
        <time>2007-06-09T08:44:41Z</time>
      </trkpt>
      <trkpt lat="46.444031009450555" lon="9.35958000831306">
        <ele>1617.0999999999999</ele>
        <time>2007-06-09T08:44:48Z</time>
      </trkpt>
      <trkpt lat="46.444055987522006" lon="9.359595011919737">
        <ele>1617.5999999999999</ele>
        <time>2007-06-09T08:44:51Z</time>
      </trkpt>
      <trkpt lat="46.444111978635192" lon="9.359563998878002">
        <ele>1618.5</ele>
        <time>2007-06-09T08:44:58Z</time>
      </trkpt>
      <trkpt lat="46.444126982241869" lon="9.359550001099706">
        <ele>1619</ele>
        <time>2007-06-09T08:45:05Z</time>
      </trkpt>
      <trkpt lat="46.444178028032184" lon="9.359534997493029">
        <ele>1620</ele>
        <time>2007-06-09T08:45:14Z</time>
      </trkpt>
      <trkpt lat="46.444252962246537" lon="9.359522005543113">
        <ele>1622.4000000000001</ele>
        <time>2007-06-09T08:45:20Z</time>
      </trkpt>
      <trkpt lat="46.444353964179754" lon="9.359484035521746">
        <ele>1623.8</ele>
        <time>2007-06-09T08:45:27Z</time>
      </trkpt>
      <trkpt lat="46.444431999698281" lon="9.35943198390305">
        <ele>1626.7</ele>
        <time>2007-06-09T08:45:35Z</time>
      </trkpt>
      <trkpt lat="46.444462006911635" lon="9.359411029145122">
        <ele>1626.2</ele>
        <time>2007-06-09T08:46:10Z</time>
      </trkpt>
      <trkpt lat="46.444552028551698" lon="9.3593879789114">
        <ele>1625.7</ele>
        <time>2007-06-09T08:46:18Z</time>
      </trkpt>
      <trkpt lat="46.444583041593432" lon="9.3593879789114">
        <ele>1626.7</ele>
        <time>2007-06-09T08:46:21Z</time>
      </trkpt>
      <trkpt lat="46.444655964151025" lon="9.35938898473978">
        <ele>1629.0999999999999</ele>
        <time>2007-06-09T08:46:28Z</time>
      </trkpt>
      <trkpt lat="46.444725031033158" lon="9.35940901748836">
        <ele>1630.5</ele>
        <time>2007-06-09T08:46:35Z</time>
      </trkpt>
      <trkpt lat="46.444807006046176" lon="9.359415974467993">
        <ele>1631</ele>
        <time>2007-06-09T08:46:43Z</time>
      </trkpt>
      <trkpt lat="46.444898033514619" lon="9.359422009438276">
        <ele>1632</ele>
        <time>2007-06-09T08:46:51Z</time>
      </trkpt>
      <trkpt lat="46.444987971335649" lon="9.359450004994869">
        <ele>1633.9000000000001</ele>
        <time>2007-06-09T08:47:00Z</time>
      </trkpt>
      <trkpt lat="46.445057960227132" lon="9.359462996944785">
        <ele>1634.4000000000001</ele>
        <time>2007-06-09T08:47:07Z</time>
      </trkpt>
      <trkpt lat="46.445089979097247" lon="9.359482023864985">
        <ele>1636.3</ele>
        <time>2007-06-09T08:47:11Z</time>
      </trkpt>
      <trkpt lat="46.445141024887562" lon="9.359472971409559">
        <ele>1636.8</ele>
        <time>2007-06-09T08:47:17Z</time>
      </trkpt>
      <trkpt lat="46.445145970210433" lon="9.359484035521746">
        <ele>1636.3</ele>
        <time>2007-06-09T08:47:18Z</time>
      </trkpt>
      <trkpt lat="46.445187041535974" lon="9.359491998329759">
        <ele>1637.3</ele>
        <time>2007-06-09T08:47:23Z</time>
      </trkpt>
      <trkpt lat="46.445256024599075" lon="9.359478000551462">
        <ele>1637.7</ele>
        <time>2007-06-09T08:47:31Z</time>
      </trkpt>
      <trkpt lat="46.44528703764081" lon="9.359487975016236">
        <ele>1638.2</ele>
        <time>2007-06-09T08:47:38Z</time>
      </trkpt>
      <trkpt lat="46.445299023762345" lon="9.359464002773166">
        <ele>1639.2</ele>
        <time>2007-06-09T08:48:01Z</time>
      </trkpt>
      <trkpt lat="46.445348979905248" lon="9.359429972246289">
        <ele>1640.5999999999999</ele>
        <time>2007-06-09T08:48:09Z</time>
      </trkpt>
      <trkpt lat="46.445404971018434" lon="9.359381021931768">
        <ele>1641.5999999999999</ele>
        <time>2007-06-09T08:48:18Z</time>
      </trkpt>
      <trkpt lat="46.445468002930284" lon="9.359337016940117">
        <ele>1642.5</ele>
        <time>2007-06-09T08:48:27Z</time>
      </trkpt>
      <trkpt lat="46.445541009306908" lon="9.359298041090369">
        <ele>1644.5</ele>
        <time>2007-06-09T08:48:37Z</time>
      </trkpt>
      <trkpt lat="46.445603035390377" lon="9.359253030270338">
        <ele>1646.4000000000001</ele>
        <time>2007-06-09T08:48:47Z</time>
      </trkpt>
      <trkpt lat="46.445606974884868" lon="9.359252024441958">
        <ele>1646.9000000000001</ele>
        <time>2007-06-09T08:49:04Z</time>
      </trkpt>
      <trkpt lat="46.445623990148306" lon="9.359228974208236">
        <ele>1647.8</ele>
        <time>2007-06-09T08:49:17Z</time>
      </trkpt>
      <trkpt lat="46.445648968219757" lon="9.359188992530108">
        <ele>1648.3</ele>
        <time>2007-06-09T08:49:24Z</time>
      </trkpt>
      <trkpt lat="46.445693979039788" lon="9.359153034165502">
        <ele>1649.3</ele>
        <time>2007-06-09T08:49:31Z</time>
      </trkpt>
      <trkpt lat="46.445746030658484" lon="9.359093019738793">
        <ele>1649.8</ele>
        <time>2007-06-09T08:49:39Z</time>
      </trkpt>
      <trkpt lat="46.445778971537948" lon="9.359053038060665">
        <ele>1652.2</ele>
        <time>2007-06-09T08:49:45Z</time>
      </trkpt>
      <trkpt lat="46.445838985964656" lon="9.358984977006912">
        <ele>1653.5999999999999</ele>
        <time>2007-06-09T08:49:54Z</time>
      </trkpt>
      <trkpt lat="46.445893971249461" lon="9.358944995328784">
        <ele>1655</ele>
        <time>2007-06-09T08:50:02Z</time>
      </trkpt>
      <trkpt lat="46.445960020646453" lon="9.358938038349152">
        <ele>1656.5</ele>
        <time>2007-06-09T08:50:10Z</time>
      </trkpt>
      <trkpt lat="46.445969995111227" lon="9.358946001157165">
        <ele>1657</ele>
        <time>2007-06-09T08:50:16Z</time>
      </trkpt>
      <trkpt lat="46.445992961525917" lon="9.358958993107081">
        <ele>1657</ele>
        <time>2007-06-09T08:50:48Z</time>
      </trkpt>
      <trkpt lat="46.446051970124245" lon="9.359001992270351">
        <ele>1659.4000000000001</ele>
        <time>2007-06-09T08:50:56Z</time>
      </trkpt>
      <trkpt lat="46.446078959852457" lon="9.359038034453988">
        <ele>1659.4000000000001</ele>
        <time>2007-06-09T08:51:04Z</time>
      </trkpt>
      <trkpt lat="46.446103015914559" lon="9.359084973111749">
        <ele>1660.3</ele>
        <time>2007-06-09T08:51:11Z</time>
      </trkpt>
      <trkpt lat="46.446160012856126" lon="9.359160996973515">
        <ele>1661.8</ele>
        <time>2007-06-09T08:51:19Z</time>
      </trkpt>
      <trkpt lat="46.446193037554622" lon="9.359183041378856">
        <ele>1662.3</ele>
        <time>2007-06-09T08:51:23Z</time>
      </trkpt>
      <trkpt lat="46.446237964555621" lon="9.359152028337121">
        <ele>1663.2</ele>
        <time>2007-06-09T08:51:28Z</time>
      </trkpt>
      <trkpt lat="46.446288004517555" lon="9.359148005023599">
        <ele>1663.7</ele>
        <time>2007-06-09T08:51:35Z</time>
      </trkpt>
      <trkpt lat="46.446308037266135" lon="9.359105005860329">
        <ele>1664.7</ele>
        <time>2007-06-09T08:51:40Z</time>
      </trkpt>
      <trkpt lat="46.446338966488838" lon="9.359068963676691">
        <ele>1666.0999999999999</ele>
        <time>2007-06-09T08:51:47Z</time>
      </trkpt>
      <trkpt lat="46.446337960660458" lon="9.359067035838962">
        <ele>1665.5999999999999</ele>
        <time>2007-06-09T08:51:59Z</time>
      </trkpt>
      <trkpt lat="46.446366040036082" lon="9.359038034453988">
        <ele>1667.0999999999999</ele>
        <time>2007-06-09T08:52:10Z</time>
      </trkpt>
      <trkpt lat="46.446417002007365" lon="9.358967961743474">
        <ele>1668.5</ele>
        <time>2007-06-09T08:52:19Z</time>
      </trkpt>
      <trkpt lat="46.446435023099184" lon="9.358947006985545">
        <ele>1669</ele>
        <time>2007-06-09T08:52:25Z</time>
      </trkpt>
      <trkpt lat="46.446475004777312" lon="9.358901996165514">
        <ele>1670.4000000000001</ele>
        <time>2007-06-09T08:52:33Z</time>
      </trkpt>
      <trkpt lat="46.446521021425724" lon="9.358841981738806">
        <ele>1672.4000000000001</ele>
        <time>2007-06-09T08:52:41Z</time>
      </trkpt>
      <trkpt lat="46.446563014760613" lon="9.358798982575536">
        <ele>1672.8</ele>
        <time>2007-06-09T08:52:48Z</time>
      </trkpt>
      <trkpt lat="46.446618000045419" lon="9.358725976198912">
        <ele>1675.2</ele>
        <time>2007-06-09T08:52:56Z</time>
      </trkpt>
      <trkpt lat="46.446605008095503" lon="9.358675014227629">
        <ele>1675.2</ele>
        <time>2007-06-09T08:53:02Z</time>
      </trkpt>
      <trkpt lat="46.446594027802348" lon="9.358635032549501">
        <ele>1675.2</ele>
        <time>2007-06-09T08:53:10Z</time>
      </trkpt>
      <trkpt lat="46.446622023358941" lon="9.35869999229908">
        <ele>1675.2</ele>
        <time>2007-06-09T08:53:17Z</time>
      </trkpt>
      <trkpt lat="46.44666301086545" lon="9.358709966763854">
        <ele>1675.7</ele>
        <time>2007-06-09T08:53:23Z</time>
      </trkpt>
      <trkpt lat="46.446727970615029" lon="9.358705021440983">
        <ele>1677.2</ele>
        <time>2007-06-09T08:53:32Z</time>
      </trkpt>
      <trkpt lat="46.446782033890486" lon="9.3586799595505">
        <ele>1677.5999999999999</ele>
        <time>2007-06-09T08:53:39Z</time>
      </trkpt>
      <trkpt lat="46.446837019175291" lon="9.358625980094075">
        <ele>1679.5999999999999</ele>
        <time>2007-06-09T08:53:48Z</time>
      </trkpt>
      <trkpt lat="46.44685504026711" lon="9.358550040051341">
        <ele>1681</ele>
        <time>2007-06-09T08:53:55Z</time>
      </trkpt>
      <trkpt lat="46.446884963661432" lon="9.358467981219292">
        <ele>1682.4000000000001</ele>
        <time>2007-06-09T08:54:03Z</time>
      </trkpt>
      <trkpt lat="46.446866020560265" lon="9.35844199731946">
        <ele>1682</ele>
        <time>2007-06-09T08:54:09Z</time>
      </trkpt>
      <trkpt lat="46.446860991418362" lon="9.358450965955854">
        <ele>1682</ele>
        <time>2007-06-09T08:54:33Z</time>
      </trkpt>
      <trkpt lat="46.446850011125207" lon="9.358449960127473">
        <ele>1682</ele>
        <time>2007-06-09T08:55:15Z</time>
      </trkpt>
      <trkpt lat="46.446839030832052" lon="9.358431017026305">
        <ele>1682.4000000000001</ele>
        <time>2007-06-09T08:55:18Z</time>
      </trkpt>
      <trkpt lat="46.446807011961937" lon="9.358390029519796">
        <ele>1682</ele>
        <time>2007-06-09T08:55:22Z</time>
      </trkpt>
      <trkpt lat="46.446745991706848" lon="9.358330015093088">
        <ele>1682.9000000000001</ele>
        <time>2007-06-09T08:55:29Z</time>
      </trkpt>
      <trkpt lat="46.446716990321875" lon="9.358319034799933">
        <ele>1682.4000000000001</ele>
        <time>2007-06-09T08:55:34Z</time>
      </trkpt>
      <trkpt lat="46.446722019463778" lon="9.358316017314792">
        <ele>1682.4000000000001</ele>
        <time>2007-06-09T08:55:39Z</time>
      </trkpt>
      <trkpt lat="46.446756972000003" lon="9.358334038406611">
        <ele>1682.4000000000001</ele>
        <time>2007-06-09T08:55:47Z</time>
      </trkpt>
      <trkpt lat="46.446785973384976" lon="9.358350969851017">
        <ele>1682</ele>
        <time>2007-06-09T08:55:52Z</time>
      </trkpt>
      <trkpt lat="46.446847999468446" lon="9.358434034511447">
        <ele>1682</ele>
        <time>2007-06-09T08:56:01Z</time>
      </trkpt>
      <trkpt lat="46.44685504026711" lon="9.358437974005938">
        <ele>1682</ele>
        <time>2007-06-09T08:56:06Z</time>
      </trkpt>
      <trkpt lat="46.446855962276459" lon="9.358427999541163">
        <ele>1682.4000000000001</ele>
        <time>2007-06-09T08:56:25Z</time>
      </trkpt>
      <trkpt lat="46.446869960054755" lon="9.358410984277725">
        <ele>1682.4000000000001</ele>
        <time>2007-06-09T08:56:32Z</time>
      </trkpt>
      <trkpt lat="46.44689803943038" lon="9.358375025913119">
        <ele>1682.9000000000001</ele>
        <time>2007-06-09T08:56:44Z</time>
      </trkpt>
      <trkpt lat="46.446938021108508" lon="9.358302019536495">
        <ele>1684.4000000000001</ele>
        <time>2007-06-09T08:56:52Z</time>
      </trkpt>
      <trkpt lat="46.44696400500834" lon="9.358253991231322">
        <ele>1685.3</ele>
        <time>2007-06-09T08:56:56Z</time>
      </trkpt>
      <trkpt lat="46.447005998343229" lon="9.358196994289756">
        <ele>1686.3</ele>
        <time>2007-06-09T08:57:04Z</time>
      </trkpt>
      <trkpt lat="46.447036005556583" lon="9.358166987076402">
        <ele>1687.3</ele>
        <time>2007-06-09T08:57:13Z</time>
      </trkpt>
      <trkpt lat="46.447056038305163" lon="9.358106972649694">
        <ele>1689.7</ele>
        <time>2007-06-09T08:57:20Z</time>
      </trkpt>
      <trkpt lat="46.447084033861756" lon="9.358056010678411">
        <ele>1691.5999999999999</ele>
        <time>2007-06-09T08:57:27Z</time>
      </trkpt>
      <trkpt lat="46.447120998054743" lon="9.357999013736844">
        <ele>1692.0999999999999</ele>
        <time>2007-06-09T08:57:34Z</time>
      </trkpt>
      <trkpt lat="46.44713600166142" lon="9.357987027615309">
        <ele>1693.5</ele>
        <time>2007-06-09T08:57:38Z</time>
      </trkpt>
      <trkpt lat="46.44717900082469" lon="9.35796900652349">
        <ele>1694.9000000000001</ele>
        <time>2007-06-09T08:57:45Z</time>
      </trkpt>
      <trkpt lat="46.447225017473102" lon="9.357947967946529">
        <ele>1696.4000000000001</ele>
        <time>2007-06-09T08:57:53Z</time>
      </trkpt>
      <trkpt lat="46.44724303856492" lon="9.357933970168233">
        <ele>1698.3</ele>
        <time>2007-06-09T08:58:11Z</time>
      </trkpt>
      <trkpt lat="46.4472889713943" lon="9.357879990711808">
        <ele>1698.8</ele>
        <time>2007-06-09T08:58:18Z</time>
      </trkpt>
      <trkpt lat="46.447315961122513" lon="9.357779994606972">
        <ele>1700.7</ele>
        <time>2007-06-09T08:58:28Z</time>
      </trkpt>
      <trkpt lat="46.447319984436035" lon="9.357760967686772">
        <ele>1701.7</ele>
        <time>2007-06-09T08:58:30Z</time>
      </trkpt>
      <trkpt lat="46.447325013577938" lon="9.357728026807308">
        <ele>1702.5999999999999</ele>
        <time>2007-06-09T08:58:35Z</time>
      </trkpt>
      <trkpt lat="46.44733197055757" lon="9.357707994058728">
        <ele>1703.5999999999999</ele>
        <time>2007-06-09T08:58:40Z</time>
      </trkpt>
      <trkpt lat="46.447361977770925" lon="9.357621995732188">
        <ele>1705.5</ele>
        <time>2007-06-09T08:58:49Z</time>
      </trkpt>
      <trkpt lat="46.44737396389246" lon="9.35760498046875">
        <ele>1706</ele>
        <time>2007-06-09T08:58:57Z</time>
      </trkpt>
      <trkpt lat="46.447401037439704" lon="9.357543960213661">
        <ele>1707.9000000000001</ele>
        <time>2007-06-09T08:59:05Z</time>
      </trkpt>
      <trkpt lat="46.447413023561239" lon="9.357521999627352">
        <ele>1707.9000000000001</ele>
        <time>2007-06-09T08:59:12Z</time>
      </trkpt>
      <trkpt lat="46.447430038824677" lon="9.357490986585617">
        <ele>1708.4000000000001</ele>
        <time>2007-06-09T08:59:19Z</time>
      </trkpt>
      <trkpt lat="46.447451999410987" lon="9.357437007129192">
        <ele>1709.4000000000001</ele>
        <time>2007-06-09T08:59:25Z</time>
      </trkpt>
      <trkpt lat="46.447461973875761" lon="9.357387972995639">
        <ele>1710.3</ele>
        <time>2007-06-09T08:59:33Z</time>
      </trkpt>
      <trkpt lat="46.447502039372921" lon="9.357362994924188">
        <ele>1711.8</ele>
        <time>2007-06-09T08:59:40Z</time>
      </trkpt>
      <trkpt lat="46.44754302687943" lon="9.357330976054072">
        <ele>1711.8</ele>
        <time>2007-06-09T08:59:46Z</time>
      </trkpt>
      <trkpt lat="46.447590971365571" lon="9.357283031567931">
        <ele>1713.2</ele>
        <time>2007-06-09T08:59:53Z</time>
      </trkpt>
      <trkpt lat="46.447602035477757" lon="9.357243971899152">
        <ele>1713.2</ele>
        <time>2007-06-09T08:59:58Z</time>
      </trkpt>
      <trkpt lat="46.447662971913815" lon="9.357156967744231">
        <ele>1714.2</ele>
        <time>2007-06-09T09:00:07Z</time>
      </trkpt>
      <trkpt lat="46.447703037410975" lon="9.357108017429709">
        <ele>1714.2</ele>
        <time>2007-06-09T09:00:15Z</time>
      </trkpt>
      <trkpt lat="46.447713011875749" lon="9.357100976631045">
        <ele>1713.7</ele>
        <time>2007-06-09T09:00:25Z</time>
      </trkpt>
      <trkpt lat="46.447719968855381" lon="9.357097959145904">
        <ele>1715.0999999999999</ele>
        <time>2007-06-09T09:00:31Z</time>
      </trkpt>
      <trkpt lat="46.447724997997284" lon="9.357095025479794">
        <ele>1715.0999999999999</ele>
        <time>2007-06-09T09:00:49Z</time>
      </trkpt>
      <trkpt lat="46.447741007432342" lon="9.357083961367607">
        <ele>1714.5999999999999</ele>
        <time>2007-06-09T09:01:18Z</time>
      </trkpt>
      <trkpt lat="46.447775959968567" lon="9.357059989124537">
        <ele>1717.0999999999999</ele>
        <time>2007-06-09T09:01:25Z</time>
      </trkpt>
      <trkpt lat="46.447814013808966" lon="9.357019001618028">
        <ele>1719</ele>
        <time>2007-06-09T09:01:33Z</time>
      </trkpt>
      <trkpt lat="46.447837986052036" lon="9.356997963041067">
        <ele>1718.5</ele>
        <time>2007-06-09T09:01:41Z</time>
      </trkpt>
      <trkpt lat="46.447841003537178" lon="9.357006009668112">
        <ele>1719.5</ele>
        <time>2007-06-09T09:01:47Z</time>
      </trkpt>
      <trkpt lat="46.447868999093771" lon="9.356997041031718">
        <ele>1719.9000000000001</ele>
        <time>2007-06-09T09:01:53Z</time>
      </trkpt>
      <trkpt lat="46.447886014357209" lon="9.356997041031718">
        <ele>1719.9000000000001</ele>
        <time>2007-06-09T09:01:59Z</time>
      </trkpt>
      <trkpt lat="46.447899006307125" lon="9.357008021324873">
        <ele>1720.4000000000001</ele>
        <time>2007-06-09T09:02:03Z</time>
      </trkpt>
      <trkpt lat="46.447961032390594" lon="9.357014978304505">
        <ele>1720.4000000000001</ele>
        <time>2007-06-09T09:02:10Z</time>
      </trkpt>
      <trkpt lat="46.447987016290426" lon="9.357010032981634">
        <ele>1721.4000000000001</ele>
        <time>2007-06-09T09:02:17Z</time>
      </trkpt>
      <trkpt lat="46.448022974655032" lon="9.35700299218297">
        <ele>1723.3</ele>
        <time>2007-06-09T09:02:24Z</time>
      </trkpt>
      <trkpt lat="46.448047030717134" lon="9.356986982747912">
        <ele>1723.8</ele>
        <time>2007-06-09T09:02:27Z</time>
      </trkpt>
      <trkpt lat="46.44808198325336" lon="9.356913976371288">
        <ele>1725.7</ele>
        <time>2007-06-09T09:02:34Z</time>
      </trkpt>
      <trkpt lat="46.448083994910121" lon="9.356815991923213">
        <ele>1727.0999999999999</ele>
        <time>2007-06-09T09:02:43Z</time>
      </trkpt>
      <trkpt lat="46.448093969374895" lon="9.356791013851762">
        <ele>1727.5999999999999</ele>
        <time>2007-06-09T09:02:49Z</time>
      </trkpt>
      <trkpt lat="46.44812598824501" lon="9.356728987768292">
        <ele>1728.0999999999999</ele>
        <time>2007-06-09T09:03:00Z</time>
      </trkpt>
      <trkpt lat="46.448150966316462" lon="9.356677019968629">
        <ele>1729.0999999999999</ele>
        <time>2007-06-09T09:03:07Z</time>
      </trkpt>
      <trkpt lat="46.44818801432848" lon="9.356600996106863">
        <ele>1730.5</ele>
        <time>2007-06-09T09:03:16Z</time>
      </trkpt>
      <trkpt lat="46.448220033198595" lon="9.356532013043761">
        <ele>1731</ele>
        <time>2007-06-09T09:03:24Z</time>
      </trkpt>
      <trkpt lat="46.448234030976892" lon="9.35648700222373">
        <ele>1731.5</ele>
        <time>2007-06-09T09:03:30Z</time>
      </trkpt>
      <trkpt lat="46.448250962421298" lon="9.3564229644835">
        <ele>1732.9000000000001</ele>
        <time>2007-06-09T09:03:38Z</time>
      </trkpt>
      <trkpt lat="46.448284992948174" lon="9.356345012784004">
        <ele>1735.3</ele>
        <time>2007-06-09T09:03:47Z</time>
      </trkpt>
      <trkpt lat="46.448294967412949" lon="9.356331015005708">
        <ele>1735.3</ele>
        <time>2007-06-09T09:03:55Z</time>
      </trkpt>
      <trkpt lat="46.44831701181829" lon="9.356284998357296">
        <ele>1737.2</ele>
        <time>2007-06-09T09:04:08Z</time>
      </trkpt>
      <trkpt lat="46.448363028466702" lon="9.356216015294194">
        <ele>1738.7</ele>
        <time>2007-06-09T09:04:17Z</time>
      </trkpt>
      <trkpt lat="46.44840301014483" lon="9.356147032231093">
        <ele>1739.5999999999999</ele>
        <time>2007-06-09T09:04:24Z</time>
      </trkpt>
      <trkpt lat="46.448428994044662" lon="9.356084000319243">
        <ele>1741.5999999999999</ele>
        <time>2007-06-09T09:04:32Z</time>
      </trkpt>
      <trkpt lat="46.448451960459352" lon="9.356034966185689">
        <ele>1741.5999999999999</ele>
        <time>2007-06-09T09:04:38Z</time>
      </trkpt>
      <trkpt lat="46.448491020128131" lon="9.35597000643611">
        <ele>1742.5</ele>
        <time>2007-06-09T09:04:46Z</time>
      </trkpt>
      <trkpt lat="46.448528990149498" lon="9.355891970917583">
        <ele>1742.5</ele>
        <time>2007-06-09T09:04:55Z</time>
      </trkpt>
      <trkpt lat="46.448535025119781" lon="9.355826005339623">
        <ele>1743</ele>
        <time>2007-06-09T09:05:04Z</time>
      </trkpt>
      <trkpt lat="46.448537036776543" lon="9.355809995904565">
        <ele>1743.5</ele>
        <time>2007-06-09T09:05:13Z</time>
      </trkpt>
      <trkpt lat="46.448538964614272" lon="9.355787029489875">
        <ele>1745.4000000000001</ele>
        <time>2007-06-09T09:05:21Z</time>
      </trkpt>
      <trkpt lat="46.448544999584556" lon="9.355748975649476">
        <ele>1745.4000000000001</ele>
        <time>2007-06-09T09:05:26Z</time>
      </trkpt>
      <trkpt lat="46.448556985706091" lon="9.355660965666175">
        <ele>1746.9000000000001</ele>
        <time>2007-06-09T09:05:34Z</time>
      </trkpt>
      <trkpt lat="46.448569977656007" lon="9.3555629812181">
        <ele>1748.3</ele>
        <time>2007-06-09T09:05:43Z</time>
      </trkpt>
      <trkpt lat="46.448578024283051" lon="9.355487963184714">
        <ele>1749.7</ele>
        <time>2007-06-09T09:05:50Z</time>
      </trkpt>
      <trkpt lat="46.448581041768193" lon="9.355417974293232">
        <ele>1751.2</ele>
        <time>2007-06-09T09:05:59Z</time>
      </trkpt>
      <trkpt lat="46.448603002354503" lon="9.355344967916608">
        <ele>1752.0999999999999</ele>
        <time>2007-06-09T09:06:07Z</time>
      </trkpt>
      <trkpt lat="46.448632003739476" lon="9.355279002338648">
        <ele>1753.5999999999999</ele>
        <time>2007-06-09T09:06:15Z</time>
      </trkpt>
      <trkpt lat="46.448653964325786" lon="9.355263998731971">
        <ele>1753.0999999999999</ele>
        <time>2007-06-09T09:06:23Z</time>
      </trkpt>
      <trkpt lat="46.448671985417604" lon="9.35526198707521">
        <ele>1753.0999999999999</ele>
        <time>2007-06-09T09:06:34Z</time>
      </trkpt>
      <trkpt lat="46.448685983195901" lon="9.35519996099174">
        <ele>1754.0999999999999</ele>
        <time>2007-06-09T09:07:54Z</time>
      </trkpt>
      <trkpt lat="46.448700986802578" lon="9.355125026777387">
        <ele>1755</ele>
        <time>2007-06-09T09:08:02Z</time>
      </trkpt>
      <trkpt lat="46.448677014559507" lon="9.355113040655851">
        <ele>1755</ele>
        <time>2007-06-09T09:08:06Z</time>
      </trkpt>
      <trkpt lat="46.448668967932463" lon="9.355100970715284">
        <ele>1756</ele>
        <time>2007-06-09T09:08:07Z</time>
      </trkpt>
      <trkpt lat="46.44861800596118" lon="9.355045985430479">
        <ele>1756.5</ele>
        <time>2007-06-09T09:08:15Z</time>
      </trkpt>
      <trkpt lat="46.448587998747826" lon="9.355017989873886">
        <ele>1756.9000000000001</ele>
        <time>2007-06-09T09:08:20Z</time>
      </trkpt>
      <trkpt lat="46.448569977656007" lon="9.354937020689249">
        <ele>1756.9000000000001</ele>
        <time>2007-06-09T09:08:26Z</time>
      </trkpt>
      <trkpt lat="46.448570983484387" lon="9.354922017082572">
        <ele>1756.9000000000001</ele>
        <time>2007-06-09T09:08:27Z</time>
      </trkpt>
      <trkpt lat="46.448537036776543" lon="9.354794025421143">
        <ele>1757.4000000000001</ele>
        <time>2007-06-09T09:08:37Z</time>
      </trkpt>
      <trkpt lat="46.448527984321117" lon="9.354759994894266">
        <ele>1757.9000000000001</ele>
        <time>2007-06-09T09:08:43Z</time>
      </trkpt>
      <trkpt lat="46.448523038998246" lon="9.354762006551027">
        <ele>1757.9000000000001</ele>
        <time>2007-06-09T09:08:50Z</time>
      </trkpt>
      <trkpt lat="46.448520021513104" lon="9.354735016822815">
        <ele>1757.9000000000001</ele>
        <time>2007-06-09T09:08:57Z</time>
      </trkpt>
      <trkpt lat="46.448474004864693" lon="9.354655975475907">
        <ele>1758.4000000000001</ele>
        <time>2007-06-09T09:09:04Z</time>
      </trkpt>
      <trkpt lat="46.448463024571538" lon="9.354622028768063">
        <ele>1757.9000000000001</ele>
        <time>2007-06-09T09:09:06Z</time>
      </trkpt>
      <trkpt lat="46.448503006249666" lon="9.354448020458221">
        <ele>1758.9000000000001</ele>
        <time>2007-06-09T09:09:15Z</time>
      </trkpt>
      <trkpt lat="46.448505017906427" lon="9.35429597273469">
        <ele>1760.3</ele>
        <time>2007-06-09T09:09:22Z</time>
      </trkpt>
      <trkpt lat="46.44849001429975" lon="9.354155994951725">
        <ele>1759.8</ele>
        <time>2007-06-09T09:09:28Z</time>
      </trkpt>
      <trkpt lat="46.448423964902759" lon="9.353991961106658">
        <ele>1759.4000000000001</ele>
        <time>2007-06-09T09:09:36Z</time>
      </trkpt>
      <trkpt lat="46.448319023475051" lon="9.353914009407163">
        <ele>1760.8</ele>
        <time>2007-06-09T09:09:43Z</time>
      </trkpt>
      <trkpt lat="46.448201006278396" lon="9.353847038000822">
        <ele>1762.2</ele>
        <time>2007-06-09T09:09:51Z</time>
      </trkpt>
      <trkpt lat="46.44810302183032" lon="9.353775037452579">
        <ele>1763.7</ele>
        <time>2007-06-09T09:09:58Z</time>
      </trkpt>
      <trkpt lat="46.447989027947187" lon="9.353638999164105">
        <ele>1765.0999999999999</ele>
        <time>2007-06-09T09:10:07Z</time>
      </trkpt>
      <trkpt lat="46.447873022407293" lon="9.353496003895998">
        <ele>1767</ele>
        <time>2007-06-09T09:10:16Z</time>
      </trkpt>
      <trkpt lat="46.447805967181921" lon="9.353366000577807">
        <ele>1768.5</ele>
        <time>2007-06-09T09:10:23Z</time>
      </trkpt>
      <trkpt lat="46.447856007143855" lon="9.353189980611205">
        <ele>1768.5</ele>
        <time>2007-06-09T09:10:31Z</time>
      </trkpt>
      <trkpt lat="46.447880985215306" lon="9.353045979514718">
        <ele>1769.4000000000001</ele>
        <time>2007-06-09T09:10:37Z</time>
      </trkpt>
      <trkpt lat="46.44782398827374" lon="9.352828972041607">
        <ele>1769.9000000000001</ele>
        <time>2007-06-09T09:10:46Z</time>
      </trkpt>
      <trkpt lat="46.44769499078393" lon="9.352521020919085">
        <ele>1770.4000000000001</ele>
        <time>2007-06-09T09:10:57Z</time>
      </trkpt>
      <trkpt lat="46.447574961930513" lon="9.35236101038754">
        <ele>1770.9000000000001</ele>
        <time>2007-06-09T09:11:04Z</time>
      </trkpt>
      <trkpt lat="46.44739399664104" lon="9.352308958768845">
        <ele>1771.8</ele>
        <time>2007-06-09T09:11:11Z</time>
      </trkpt>
      <trkpt lat="46.447173971682787" lon="9.352269982919097">
        <ele>1771.8</ele>
        <time>2007-06-09T09:11:19Z</time>
      </trkpt>
      <trkpt lat="46.447052014991641" lon="9.352207034826279">
        <ele>1773.8</ele>
        <time>2007-06-09T09:11:26Z</time>
      </trkpt>
      <trkpt lat="46.446999041363597" lon="9.352077031508088">
        <ele>1775.2</ele>
        <time>2007-06-09T09:11:32Z</time>
      </trkpt>
      <trkpt lat="46.447027958929539" lon="9.351872010156512">
        <ele>1777.0999999999999</ele>
        <time>2007-06-09T09:11:40Z</time>
      </trkpt>
      <trkpt lat="46.447090990841389" lon="9.351678974926472">
        <ele>1778.5999999999999</ele>
        <time>2007-06-09T09:11:48Z</time>
      </trkpt>
      <trkpt lat="46.447171960026026" lon="9.351505972445011">
        <ele>1780</ele>
        <time>2007-06-09T09:11:56Z</time>
      </trkpt>
      <trkpt lat="46.447241026908159" lon="9.351311009377241">
        <ele>1781</ele>
        <time>2007-06-09T09:12:05Z</time>
      </trkpt>
      <trkpt lat="46.44724597223103" lon="9.351293994113803">
        <ele>1781.5</ele>
        <time>2007-06-09T09:12:06Z</time>
      </trkpt>
      <trkpt lat="46.447280002757907" lon="9.351201038807631">
        <ele>1781.5</ele>
        <time>2007-06-09T09:12:12Z</time>
      </trkpt>
      <trkpt lat="46.447345968335867" lon="9.351139012724161">
        <ele>1781.9000000000001</ele>
        <time>2007-06-09T09:12:17Z</time>
      </trkpt>
      <trkpt lat="46.447385028004646" lon="9.350994005799294">
        <ele>1781.5</ele>
        <time>2007-06-09T09:12:24Z</time>
      </trkpt>
      <trkpt lat="46.447418974712491" lon="9.35092200525105">
        <ele>1781.5</ele>
        <time>2007-06-09T09:12:28Z</time>
      </trkpt>
      <trkpt lat="46.447432972490788" lon="9.350857967510819">
        <ele>1781.9000000000001</ele>
        <time>2007-06-09T09:12:31Z</time>
      </trkpt>
      <trkpt lat="46.447491981089115" lon="9.350763000547886">
        <ele>1782.9000000000001</ele>
        <time>2007-06-09T09:12:37Z</time>
      </trkpt>
      <trkpt lat="46.44754403270781" lon="9.350655963644385">
        <ele>1783.9000000000001</ele>
        <time>2007-06-09T09:12:43Z</time>
      </trkpt>
      <trkpt lat="46.447611004114151" lon="9.350478015840054">
        <ele>1785.3</ele>
        <time>2007-06-09T09:12:51Z</time>
      </trkpt>
      <trkpt lat="46.447691973298788" lon="9.35038598254323">
        <ele>1786.3</ele>
        <time>2007-06-09T09:12:57Z</time>
      </trkpt>
      <trkpt lat="46.447717035189271" lon="9.350291015580297">
        <ele>1787.7</ele>
        <time>2007-06-09T09:13:01Z</time>
      </trkpt>
      <trkpt lat="46.447779983282089" lon="9.350199988111854">
        <ele>1788.2</ele>
        <time>2007-06-09T09:13:06Z</time>
      </trkpt>
      <trkpt lat="46.447789035737514" lon="9.350033020600677">
        <ele>1789.2</ele>
        <time>2007-06-09T09:13:13Z</time>
      </trkpt>
      <trkpt lat="46.447729021310806" lon="9.349950039759278">
        <ele>1790.0999999999999</ele>
        <time>2007-06-09T09:13:18Z</time>
      </trkpt>
      <trkpt lat="46.447670012712479" lon="9.34989295899868">
        <ele>1791.0999999999999</ele>
        <time>2007-06-09T09:13:22Z</time>
      </trkpt>
      <trkpt lat="46.447588037699461" lon="9.349864963442087">
        <ele>1791.5999999999999</ele>
        <time>2007-06-09T09:13:27Z</time>
      </trkpt>
      <trkpt lat="46.447572028264403" lon="9.349853983148933">
        <ele>1791.0999999999999</ele>
        <time>2007-06-09T09:13:28Z</time>
      </trkpt>
      <trkpt lat="46.447506984695792" lon="9.34982598759234">
        <ele>1792.5</ele>
        <time>2007-06-09T09:13:32Z</time>
      </trkpt>
      <trkpt lat="46.44739500246942" lon="9.349704030901194">
        <ele>1793.5</ele>
        <time>2007-06-09T09:13:40Z</time>
      </trkpt>
      <trkpt lat="46.447313027456403" lon="9.349543014541268">
        <ele>1794.4000000000001</ele>
        <time>2007-06-09T09:13:48Z</time>
      </trkpt>
      <trkpt lat="46.447267010807991" lon="9.349329024553299">
        <ele>1795.4000000000001</ele>
        <time>2007-06-09T09:13:57Z</time>
      </trkpt>
      <trkpt lat="46.447286959737539" lon="9.34913800098002">
        <ele>1796.4000000000001</ele>
        <time>2007-06-09T09:14:05Z</time>
      </trkpt>
      <trkpt lat="46.447332976385951" lon="9.348957035690546">
        <ele>1796.8</ele>
        <time>2007-06-09T09:14:13Z</time>
      </trkpt>
      <trkpt lat="46.447358038276434" lon="9.348855027928948">
        <ele>1797.3</ele>
        <time>2007-06-09T09:14:19Z</time>
      </trkpt>
      <trkpt lat="46.447361977770925" lon="9.348839018493891">
        <ele>1798.3</ele>
        <time>2007-06-09T09:14:20Z</time>
      </trkpt>
      <trkpt lat="46.447375975549221" lon="9.348818985745311">
        <ele>1796.8</ele>
        <time>2007-06-09T09:14:22Z</time>
      </trkpt>
      <trkpt lat="46.447362983599305" lon="9.348753020167351">
        <ele>1797.8</ele>
        <time>2007-06-09T09:14:28Z</time>
      </trkpt>
      <trkpt lat="46.447343034669757" lon="9.34875201433897">
        <ele>1797.8</ele>
        <time>2007-06-09T09:14:31Z</time>
      </trkpt>
      <trkpt lat="46.44737103022635" lon="9.348760982975364">
        <ele>1798.8</ele>
        <time>2007-06-09T09:14:36Z</time>
      </trkpt>
      <trkpt lat="46.447387961670756" lon="9.348734999075532">
        <ele>1798.3</ele>
        <time>2007-06-09T09:14:38Z</time>
      </trkpt>
      <trkpt lat="46.447412017732859" lon="9.348633997142315">
        <ele>1797.8</ele>
        <time>2007-06-09T09:14:44Z</time>
      </trkpt>
      <trkpt lat="46.447421992197633" lon="9.348528971895576">
        <ele>1797.8</ele>
        <time>2007-06-09T09:14:51Z</time>
      </trkpt>
      <trkpt lat="46.447379998862743" lon="9.348578006029129">
        <ele>1798.3</ele>
        <time>2007-06-09T09:14:56Z</time>
      </trkpt>
      <trkpt lat="46.447384022176266" lon="9.348604995757341">
        <ele>1798.8</ele>
        <time>2007-06-09T09:14:58Z</time>
      </trkpt>
      <trkpt lat="46.447448981925845" lon="9.34862301684916">
        <ele>1797.8</ele>
        <time>2007-06-09T09:15:05Z</time>
      </trkpt>
      <trkpt lat="46.447465997189283" lon="9.348587980493903">
        <ele>1798.3</ele>
        <time>2007-06-09T09:15:10Z</time>
      </trkpt>
      <trkpt lat="46.447469014674425" lon="9.348572976887226">
        <ele>1798.3</ele>
        <time>2007-06-09T09:15:12Z</time>
      </trkpt>
      <trkpt lat="46.447401037439704" lon="9.348507011309266">
        <ele>1799.2</ele>
        <time>2007-06-09T09:15:19Z</time>
      </trkpt>
      <trkpt lat="46.447390979155898" lon="9.348487984389067">
        <ele>1798.8</ele>
        <time>2007-06-09T09:15:20Z</time>
      </trkpt>
      <trkpt lat="46.44741402938962" lon="9.348263014107943">
        <ele>1797.3</ele>
        <time>2007-06-09T09:15:28Z</time>
      </trkpt>
      <trkpt lat="46.447444036602974" lon="9.348121024668217">
        <ele>1796.8</ele>
        <time>2007-06-09T09:15:35Z</time>
      </trkpt>
      <trkpt lat="46.447443030774593" lon="9.348117001354694">
        <ele>1796.8</ele>
        <time>2007-06-09T09:15:46Z</time>
      </trkpt>
      <trkpt lat="46.447444036602974" lon="9.348119013011456">
        <ele>1796.8</ele>
        <time>2007-06-09T09:16:21Z</time>
      </trkpt>
      <trkpt lat="46.447444036602974" lon="9.348120018839836">
        <ele>1797.8</ele>
        <time>2007-06-09T09:16:58Z</time>
      </trkpt>
      <trkpt lat="46.44745803438127" lon="9.348138961941004">
        <ele>1796.4000000000001</ele>
        <time>2007-06-09T09:17:19Z</time>
      </trkpt>
      <trkpt lat="46.447455016896129" lon="9.348110966384411">
        <ele>1795.9000000000001</ele>
        <time>2007-06-09T09:18:06Z</time>
      </trkpt>
      <trkpt lat="46.447459040209651" lon="9.348080959171057">
        <ele>1795.9000000000001</ele>
        <time>2007-06-09T09:18:11Z</time>
      </trkpt>
      <trkpt lat="46.447454011067748" lon="9.34806302189827">
        <ele>1796.8</ele>
        <time>2007-06-09T09:18:27Z</time>
      </trkpt>
      <trkpt lat="46.447467003017664" lon="9.348034020513296">
        <ele>1796.8</ele>
        <time>2007-06-09T09:18:45Z</time>
      </trkpt>
      <trkpt lat="46.447464991360903" lon="9.348024968057871">
        <ele>1797.3</ele>
        <time>2007-06-09T09:18:58Z</time>
      </trkpt>
      <trkpt lat="46.447487035766244" lon="9.347973000258207">
        <ele>1797.3</ele>
        <time>2007-06-09T09:19:07Z</time>
      </trkpt>
      <trkpt lat="46.447556018829346" lon="9.347971994429827">
        <ele>1796.8</ele>
        <time>2007-06-09T09:19:14Z</time>
      </trkpt>
      <trkpt lat="46.447618966922164" lon="9.348006024956703">
        <ele>1797.3</ele>
        <time>2007-06-09T09:19:20Z</time>
      </trkpt>
      <trkpt lat="46.447735978290439" lon="9.348017005249858">
        <ele>1800.7</ele>
        <time>2007-06-09T09:19:29Z</time>
      </trkpt>
      <trkpt lat="46.447748970240355" lon="9.348013987764716">
        <ele>1800.7</ele>
        <time>2007-06-09T09:19:30Z</time>
      </trkpt>
      <trkpt lat="46.447833040729165" lon="9.347973000258207">
        <ele>1801.2</ele>
        <time>2007-06-09T09:19:36Z</time>
      </trkpt>
      <trkpt lat="46.447911998257041" lon="9.348005019128323">
        <ele>1801.5999999999999</ele>
        <time>2007-06-09T09:19:43Z</time>
      </trkpt>
      <trkpt lat="46.447927001863718" lon="9.348036032170057">
        <ele>1802.0999999999999</ele>
        <time>2007-06-09T09:19:49Z</time>
      </trkpt>
      <trkpt lat="46.447956003248692" lon="9.348069978877902">
        <ele>1802.5999999999999</ele>
        <time>2007-06-09T09:19:54Z</time>
      </trkpt>
      <trkpt lat="46.447962960228324" lon="9.348077019676566">
        <ele>1802.5999999999999</ele>
        <time>2007-06-09T09:20:02Z</time>
      </trkpt>
      <trkpt lat="46.447979975491762" lon="9.348095962777734">
        <ele>1802.5999999999999</ele>
        <time>2007-06-09T09:20:08Z</time>
      </trkpt>
      <trkpt lat="46.447985004633665" lon="9.348117001354694">
        <ele>1802.5999999999999</ele>
        <time>2007-06-09T09:20:10Z</time>
      </trkpt>
      <trkpt lat="46.44808298908174" lon="9.348224038258195">
        <ele>1804.0999999999999</ele>
        <time>2007-06-09T09:20:19Z</time>
      </trkpt>
      <trkpt lat="46.448180973529816" lon="9.348245998844504">
        <ele>1803.5999999999999</ele>
        <time>2007-06-09T09:20:26Z</time>
      </trkpt>
      <trkpt lat="46.448291027918458" lon="9.348194031044841">
        <ele>1804.5</ele>
        <time>2007-06-09T09:20:34Z</time>
      </trkpt>
      <trkpt lat="46.448421031236649" lon="9.348092023283243">
        <ele>1805</ele>
        <time>2007-06-09T09:20:43Z</time>
      </trkpt>
      <trkpt lat="46.448542987927794" lon="9.347961014136672">
        <ele>1805.5</ele>
        <time>2007-06-09T09:20:52Z</time>
      </trkpt>
      <trkpt lat="46.448686989024282" lon="9.347854983061552">
        <ele>1805.5</ele>
        <time>2007-06-09T09:21:00Z</time>
      </trkpt>
      <trkpt lat="46.448827972635627" lon="9.34785196557641">
        <ele>1805.5</ele>
        <time>2007-06-09T09:21:07Z</time>
      </trkpt>
      <trkpt lat="46.448981026187539" lon="9.347906028851867">
        <ele>1806</ele>
        <time>2007-06-09T09:21:15Z</time>
      </trkpt>
      <trkpt lat="46.449151011183858" lon="9.347925977781415">
        <ele>1807.9000000000001</ele>
        <time>2007-06-09T09:21:25Z</time>
      </trkpt>
      <trkpt lat="46.449299035593867" lon="9.347908040508628">
        <ele>1809.3</ele>
        <time>2007-06-09T09:21:34Z</time>
      </trkpt>
      <trkpt lat="46.44936902448535" lon="9.347890019416809">
        <ele>1810.3</ele>
        <time>2007-06-09T09:21:38Z</time>
      </trkpt>
      <trkpt lat="46.44945896230638" lon="9.347877027466893">
        <ele>1812.7</ele>
        <time>2007-06-09T09:21:44Z</time>
      </trkpt>
      <trkpt lat="46.449575973674655" lon="9.347876021638513">
        <ele>1812.7</ele>
        <time>2007-06-09T09:21:52Z</time>
      </trkpt>
      <trkpt lat="46.449710000306368" lon="9.347926983609796">
        <ele>1813.7</ele>
        <time>2007-06-09T09:22:00Z</time>
      </trkpt>
      <trkpt lat="46.449743025004864" lon="9.348056986927986">
        <ele>1813.7</ele>
        <time>2007-06-09T09:22:05Z</time>
      </trkpt>
      <trkpt lat="46.449730033054948" lon="9.348299978300929">
        <ele>1813.7</ele>
        <time>2007-06-09T09:22:13Z</time>
      </trkpt>
      <trkpt lat="46.449694996699691" lon="9.348484966903925">
        <ele>1814.5999999999999</ele>
        <time>2007-06-09T09:22:19Z</time>
      </trkpt>
      <trkpt lat="46.449614027515054" lon="9.348726030439138">
        <ele>1814.5999999999999</ele>
        <time>2007-06-09T09:22:29Z</time>
      </trkpt>
      <trkpt lat="46.449599023908377" lon="9.348879000172019">
        <ele>1815.0999999999999</ele>
        <time>2007-06-09T09:22:35Z</time>
      </trkpt>
      <trkpt lat="46.44960799254477" lon="9.34909600764513">
        <ele>1815.5999999999999</ele>
        <time>2007-06-09T09:22:43Z</time>
      </trkpt>
      <trkpt lat="46.449595000594854" lon="9.349317038431764">
        <ele>1816.5</ele>
        <time>2007-06-09T09:22:51Z</time>
      </trkpt>
      <trkpt lat="46.44956398755312" lon="9.349582996219397">
        <ele>1817</ele>
        <time>2007-06-09T09:23:01Z</time>
      </trkpt>
      <trkpt lat="46.449555018916726" lon="9.349880972877145">
        <ele>1816.5</ele>
        <time>2007-06-09T09:23:11Z</time>
      </trkpt>
      <trkpt lat="46.449565999209881" lon="9.350122958421707">
        <ele>1818.5</ele>
        <time>2007-06-09T09:23:20Z</time>
      </trkpt>
      <trkpt lat="46.44963095895946" lon="9.350254973396659">
        <ele>1818.5</ele>
        <time>2007-06-09T09:23:27Z</time>
      </trkpt>
      <trkpt lat="46.449717041105032" lon="9.350343989208341">
        <ele>1820.4000000000001</ele>
        <time>2007-06-09T09:23:34Z</time>
      </trkpt>
      <trkpt lat="46.449832040816545" lon="9.350447002798319">
        <ele>1823.3</ele>
        <time>2007-06-09T09:23:44Z</time>
      </trkpt>
      <trkpt lat="46.449875961989164" lon="9.350481033325195">
        <ele>1825.2</ele>
        <time>2007-06-09T09:23:48Z</time>
      </trkpt>
      <trkpt lat="46.449974030256271" lon="9.350523026660085">
        <ele>1828.0999999999999</ele>
        <time>2007-06-09T09:23:56Z</time>
      </trkpt>
      <trkpt lat="46.450060028582811" lon="9.35053501278162">
        <ele>1829.5</ele>
        <time>2007-06-09T09:24:03Z</time>
      </trkpt>
      <trkpt lat="46.450162036344409" lon="9.350530989468098">
        <ele>1830.5</ele>
        <time>2007-06-09T09:24:12Z</time>
      </trkpt>
      <trkpt lat="46.450225990265608" lon="9.350512968376279">
        <ele>1830.5</ele>
        <time>2007-06-09T09:24:18Z</time>
      </trkpt>
      <trkpt lat="46.450322968885303" lon="9.350500982254744">
        <ele>1831</ele>
        <time>2007-06-09T09:24:26Z</time>
      </trkpt>
      <trkpt lat="46.450406033545732" lon="9.35051397420466">
        <ele>1831.9000000000001</ele>
        <time>2007-06-09T09:24:33Z</time>
      </trkpt>
      <trkpt lat="46.450505023822188" lon="9.350544987246394">
        <ele>1832.9000000000001</ele>
        <time>2007-06-09T09:24:42Z</time>
      </trkpt>
      <trkpt lat="46.450525978580117" lon="9.350545993074775">
        <ele>1833.4000000000001</ele>
        <time>2007-06-09T09:24:44Z</time>
      </trkpt>
      <trkpt lat="46.450628992170095" lon="9.350564014166594">
        <ele>1834.8</ele>
        <time>2007-06-09T09:24:54Z</time>
      </trkpt>
      <trkpt lat="46.450736029073596" lon="9.350553033873439">
        <ele>1837.2</ele>
        <time>2007-06-09T09:25:04Z</time>
      </trkpt>
      <trkpt lat="46.45080802962184" lon="9.350531995296478">
        <ele>1838.2</ele>
        <time>2007-06-09T09:25:11Z</time>
      </trkpt>
      <trkpt lat="46.450909031555057" lon="9.350501988083124">
        <ele>1839.0999999999999</ele>
        <time>2007-06-09T09:25:20Z</time>
      </trkpt>
      <trkpt lat="46.450990000739694" lon="9.350481033325195">
        <ele>1839.5999999999999</ele>
        <time>2007-06-09T09:25:27Z</time>
      </trkpt>
      <trkpt lat="46.451056972146034" lon="9.350468041375279">
        <ele>1841.0999999999999</ele>
        <time>2007-06-09T09:25:34Z</time>
      </trkpt>
      <trkpt lat="46.45106602460146" lon="9.350459994748235">
        <ele>1841.5</ele>
        <time>2007-06-09T09:25:38Z</time>
      </trkpt>
      <trkpt lat="46.451064012944698" lon="9.350465023890138">
        <ele>1842</ele>
        <time>2007-06-09T09:25:52Z</time>
      </trkpt>
      <trkpt lat="46.451106006279588" lon="9.350473992526531">
        <ele>1842</ele>
        <time>2007-06-09T09:26:14Z</time>
      </trkpt>
      <trkpt lat="46.451206002384424" lon="9.350439961999655">
        <ele>1843</ele>
        <time>2007-06-09T09:26:23Z</time>
      </trkpt>
      <trkpt lat="46.451318990439177" lon="9.350409032776952">
        <ele>1843.5</ele>
        <time>2007-06-09T09:26:31Z</time>
      </trkpt>
      <trkpt lat="46.451457962393761" lon="9.350357986986637">
        <ele>1844.4000000000001</ele>
        <time>2007-06-09T09:26:41Z</time>
      </trkpt>
      <trkpt lat="46.451561981812119" lon="9.350318005308509">
        <ele>1845.9000000000001</ele>
        <time>2007-06-09T09:26:49Z</time>
      </trkpt>
      <trkpt lat="46.451652003452182" lon="9.350280035287142">
        <ele>1846.8</ele>
        <time>2007-06-09T09:26:56Z</time>
      </trkpt>
      <trkpt lat="46.451756022870541" lon="9.350222032517195">
        <ele>1848.8</ele>
        <time>2007-06-09T09:27:05Z</time>
      </trkpt>
      <trkpt lat="46.451845960691571" lon="9.350145002827048">
        <ele>1850.2</ele>
        <time>2007-06-09T09:27:14Z</time>
      </trkpt>
      <trkpt lat="46.451929025352001" lon="9.350073002278805">
        <ele>1852.0999999999999</ele>
        <time>2007-06-09T09:27:23Z</time>
      </trkpt>
      <trkpt lat="46.451946962624788" lon="9.350066967308521">
        <ele>1852.5999999999999</ele>
        <time>2007-06-09T09:27:25Z</time>
      </trkpt>
      <trkpt lat="46.451965989544988" lon="9.350052969530225">
        <ele>1852.0999999999999</ele>
        <time>2007-06-09T09:27:27Z</time>
      </trkpt>
      <trkpt lat="46.452005971223116" lon="9.350037965923548">
        <ele>1854</ele>
        <time>2007-06-09T09:27:31Z</time>
      </trkpt>
      <trkpt lat="46.452075038105249" lon="9.350014999508858">
        <ele>1856</ele>
        <time>2007-06-09T09:27:38Z</time>
      </trkpt>
      <trkpt lat="46.452147038653493" lon="9.349996978417039">
        <ele>1857.4000000000001</ele>
        <time>2007-06-09T09:27:45Z</time>
      </trkpt>
      <trkpt lat="46.452208980917931" lon="9.349980968981981">
        <ele>1857.4000000000001</ele>
        <time>2007-06-09T09:27:51Z</time>
      </trkpt>
      <trkpt lat="46.452273018658161" lon="9.349961020052433">
        <ele>1857.9000000000001</ele>
        <time>2007-06-09T09:27:57Z</time>
      </trkpt>
      <trkpt lat="46.452294979244471" lon="9.349952973425388">
        <ele>1858.8</ele>
        <time>2007-06-09T09:27:59Z</time>
      </trkpt>
      <trkpt lat="46.452389024198055" lon="9.349944004788995">
        <ele>1860.3</ele>
        <time>2007-06-09T09:28:08Z</time>
      </trkpt>
      <trkpt lat="46.452419031411409" lon="9.349940987303853">
        <ele>1861.2</ele>
        <time>2007-06-09T09:28:11Z</time>
      </trkpt>
      <trkpt lat="46.452466975897551" lon="9.349972000345588">
        <ele>1862.2</ele>
        <time>2007-06-09T09:28:16Z</time>
      </trkpt>
      <trkpt lat="46.452550040557981" lon="9.350006030872464">
        <ele>1862.2</ele>
        <time>2007-06-09T09:28:24Z</time>
      </trkpt>
      <trkpt lat="46.452619023621082" lon="9.350050035864115">
        <ele>1863.7</ele>
        <time>2007-06-09T09:28:31Z</time>
      </trkpt>
      <trkpt lat="46.452665962278843" lon="9.350116001442075">
        <ele>1865.0999999999999</ele>
        <time>2007-06-09T09:28:37Z</time>
      </trkpt>
      <trkpt lat="46.452684989199042" lon="9.350123964250088">
        <ele>1866.5</ele>
        <time>2007-06-09T09:28:39Z</time>
      </trkpt>
      <trkpt lat="46.452722037211061" lon="9.350189007818699">
        <ele>1867.5</ele>
        <time>2007-06-09T09:28:44Z</time>
      </trkpt>
      <trkpt lat="46.452769981697202" lon="9.35021298006177">
        <ele>1868.5</ele>
        <time>2007-06-09T09:28:49Z</time>
      </trkpt>
      <trkpt lat="46.452837958931923" lon="9.350278023630381">
        <ele>1869.9000000000001</ele>
        <time>2007-06-09T09:28:57Z</time>
      </trkpt>
      <trkpt lat="46.452904008328915" lon="9.350354969501495">
        <ele>1871.8</ele>
        <time>2007-06-09T09:29:05Z</time>
      </trkpt>
      <trkpt lat="46.452930998057127" lon="9.350372990593314">
        <ele>1872.3</ele>
        <time>2007-06-09T09:29:08Z</time>
      </trkpt>
      <trkpt lat="46.452992018312216" lon="9.35042797587812">
        <ele>1873.7</ele>
        <time>2007-06-09T09:29:15Z</time>
      </trkpt>
      <trkpt lat="46.453024037182331" lon="9.350473992526531">
        <ele>1874.7</ele>
        <time>2007-06-09T09:29:19Z</time>
      </trkpt>
      <trkpt lat="46.453054966405034" lon="9.350482039153576">
        <ele>1875.2</ele>
        <time>2007-06-09T09:29:22Z</time>
      </trkpt>
      <trkpt lat="46.453102994710207" lon="9.350539036095142">
        <ele>1876.2</ele>
        <time>2007-06-09T09:29:28Z</time>
      </trkpt>
      <trkpt lat="46.453156974166632" lon="9.350608019158244">
        <ele>1876.5999999999999</ele>
        <time>2007-06-09T09:29:35Z</time>
      </trkpt>
      <trkpt lat="46.453172983601689" lon="9.350624028593302">
        <ele>1876.5999999999999</ele>
        <time>2007-06-09T09:29:37Z</time>
      </trkpt>
      <trkpt lat="46.453209025785327" lon="9.350687982514501">
        <ele>1879</ele>
        <time>2007-06-09T09:29:43Z</time>
      </trkpt>
      <trkpt lat="46.453212965279818" lon="9.350699968636036">
        <ele>1879</ele>
        <time>2007-06-09T09:29:44Z</time>
      </trkpt>
      <trkpt lat="46.453254036605358" lon="9.350756965577602">
        <ele>1880</ele>
        <time>2007-06-09T09:29:50Z</time>
      </trkpt>
      <trkpt lat="46.453284965828061" lon="9.350807005539537">
        <ele>1880.5</ele>
        <time>2007-06-09T09:29:55Z</time>
      </trkpt>
      <trkpt lat="46.453338023275137" lon="9.350814968347549">
        <ele>1881.9000000000001</ele>
        <time>2007-06-09T09:30:02Z</time>
      </trkpt>
      <trkpt lat="46.453386973589659" lon="9.350771969184279">
        <ele>1881.9000000000001</ele>
        <time>2007-06-09T09:30:08Z</time>
      </trkpt>
      <trkpt lat="46.453403988853097" lon="9.350757971405983">
        <ele>1882.4000000000001</ele>
        <time>2007-06-09T09:30:10Z</time>
      </trkpt>
      <trkpt lat="46.453444976359606" lon="9.350655963644385">
        <ele>1883.4000000000001</ele>
        <time>2007-06-09T09:30:18Z</time>
      </trkpt>
      <trkpt lat="46.453460985794663" lon="9.350508023053408">
        <ele>1883.8</ele>
        <time>2007-06-09T09:30:28Z</time>
      </trkpt>
      <trkpt lat="46.453460985794663" lon="9.350496036931872">
        <ele>1883.8</ele>
        <time>2007-06-09T09:30:29Z</time>
      </trkpt>
      <trkpt lat="46.453458974137902" lon="9.350420013070107">
        <ele>1884.3</ele>
        <time>2007-06-09T09:30:34Z</time>
      </trkpt>
      <trkpt lat="46.453473977744579" lon="9.350359998643398">
        <ele>1884.8</ele>
        <time>2007-06-09T09:30:38Z</time>
      </trkpt>
      <trkpt lat="46.453532986342907" lon="9.350278023630381">
        <ele>1886.7</ele>
        <time>2007-06-09T09:30:46Z</time>
      </trkpt>
      <trkpt lat="46.453559976071119" lon="9.350262014195323">
        <ele>1886.7</ele>
        <time>2007-06-09T09:30:49Z</time>
      </trkpt>
      <trkpt lat="46.45358101464808" lon="9.350268971174955">
        <ele>1887.2</ele>
        <time>2007-06-09T09:30:51Z</time>
      </trkpt>
      <trkpt lat="46.453617978841066" lon="9.350243993103504">
        <ele>1887.7</ele>
        <time>2007-06-09T09:30:55Z</time>
      </trkpt>
      <trkpt lat="46.453686039894819" lon="9.350242987275124">
        <ele>1890.0999999999999</ele>
        <time>2007-06-09T09:31:02Z</time>
      </trkpt>
      <trkpt lat="46.453720992431045" lon="9.350209962576628">
        <ele>1891.0999999999999</ele>
        <time>2007-06-09T09:31:06Z</time>
      </trkpt>
      <trkpt lat="46.453737001866102" lon="9.350195964798331">
        <ele>1890.5999999999999</ele>
        <time>2007-06-09T09:31:08Z</time>
      </trkpt>
      <trkpt lat="46.453823000192642" lon="9.350172998383641">
        <ele>1891.5</ele>
        <time>2007-06-09T09:31:17Z</time>
      </trkpt>
      <trkpt lat="46.453898018226027" lon="9.350123964250088">
        <ele>1892</ele>
        <time>2007-06-09T09:31:25Z</time>
      </trkpt>
      <trkpt lat="46.453928025439382" lon="9.350096974521875">
        <ele>1893.5</ele>
        <time>2007-06-09T09:31:28Z</time>
      </trkpt>
      <trkpt lat="46.4539909735322" lon="9.35006202198565">
        <ele>1894.4000000000001</ele>
        <time>2007-06-09T09:31:35Z</time>
      </trkpt>
      <trkpt lat="46.454014023765922" lon="9.350032014772296">
        <ele>1896.8</ele>
        <time>2007-06-09T09:31:38Z</time>
      </trkpt>
      <trkpt lat="46.454022992402315" lon="9.350024973973632">
        <ele>1896.3</ele>
        <time>2007-06-09T09:31:39Z</time>
      </trkpt>
      <trkpt lat="46.454072026535869" lon="9.35001902282238">
        <ele>1897.8</ele>
        <time>2007-06-09T09:31:44Z</time>
      </trkpt>
      <trkpt lat="46.454134974628687" lon="9.349994966760278">
        <ele>1899.2</ele>
        <time>2007-06-09T09:31:52Z</time>
      </trkpt>
      <trkpt lat="46.454133968800306" lon="9.349996978417039">
        <ele>1898.7</ele>
        <time>2007-06-09T09:32:01Z</time>
      </trkpt>
      <trkpt lat="46.454136986285448" lon="9.349996978417039">
        <ele>1899.7</ele>
        <time>2007-06-09T09:32:36Z</time>
      </trkpt>
      <trkpt lat="46.454212004318833" lon="9.349964037537575">
        <ele>1901.5999999999999</ele>
        <time>2007-06-09T09:32:43Z</time>
      </trkpt>
      <trkpt lat="46.454261038452387" lon="9.349948028102517">
        <ele>1902.0999999999999</ele>
        <time>2007-06-09T09:32:47Z</time>
      </trkpt>
      <trkpt lat="46.454362962394953" lon="9.349910980090499">
        <ele>1904</ele>
        <time>2007-06-09T09:32:54Z</time>
      </trkpt>
      <trkpt lat="46.45446103066206" lon="9.349893964827061">
        <ele>1905.5</ele>
        <time>2007-06-09T09:33:01Z</time>
      </trkpt>
      <trkpt lat="46.454577036201954" lon="9.349859012290835">
        <ele>1907.4000000000001</ele>
        <time>2007-06-09T09:33:10Z</time>
      </trkpt>
      <trkpt lat="46.454674014821649" lon="9.349838979542255">
        <ele>1908.4000000000001</ele>
        <time>2007-06-09T09:33:18Z</time>
      </trkpt>
      <trkpt lat="46.454799994826317" lon="9.349806038662791">
        <ele>1910.8</ele>
        <time>2007-06-09T09:33:28Z</time>
      </trkpt>
      <trkpt lat="46.454862020909786" lon="9.349790029227734">
        <ele>1911.2</ele>
        <time>2007-06-09T09:33:34Z</time>
      </trkpt>
      <trkpt lat="46.454942990094423" lon="9.349787011742592">
        <ele>1911.7</ele>
        <time>2007-06-09T09:33:43Z</time>
      </trkpt>
      <trkpt lat="46.454993030056357" lon="9.349794974550605">
        <ele>1912.2</ele>
        <time>2007-06-09T09:33:49Z</time>
      </trkpt>
      <trkpt lat="46.455049021169543" lon="9.349833028391004">
        <ele>1912.7</ele>
        <time>2007-06-09T09:33:56Z</time>
      </trkpt>
      <trkpt lat="46.455092020332813" lon="9.34984602034092">
        <ele>1912.2</ele>
        <time>2007-06-09T09:34:01Z</time>
      </trkpt>
      <trkpt lat="46.455124961212277" lon="9.349899999797344">
        <ele>1912.7</ele>
        <time>2007-06-09T09:34:07Z</time>
      </trkpt>
      <trkpt lat="46.45512999035418" lon="9.349913997575641">
        <ele>1913.2</ele>
        <time>2007-06-09T09:34:50Z</time>
      </trkpt>
      <trkpt lat="46.455152034759521" lon="9.349920032545924">
        <ele>1913.2</ele>
        <time>2007-06-09T09:35:44Z</time>
      </trkpt>
      <trkpt lat="46.455250019207597" lon="9.34995498508215">
        <ele>1912.7</ele>
        <time>2007-06-09T09:35:53Z</time>
      </trkpt>
      <trkpt lat="46.455380022525787" lon="9.350007958710194">
        <ele>1913.5999999999999</ele>
        <time>2007-06-09T09:36:02Z</time>
      </trkpt>
      <trkpt lat="46.455520000308752" lon="9.350047018378973">
        <ele>1913.5999999999999</ele>
        <time>2007-06-09T09:36:11Z</time>
      </trkpt>
      <trkpt lat="46.455640029162169" lon="9.350071996450424">
        <ele>1914.5999999999999</ele>
        <time>2007-06-09T09:36:19Z</time>
      </trkpt>
      <trkpt lat="46.455669030547142" lon="9.350079959258437">
        <ele>1914.5999999999999</ele>
        <time>2007-06-09T09:36:21Z</time>
      </trkpt>
      <trkpt lat="46.455761985853314" lon="9.350091023370624">
        <ele>1916.5</ele>
        <time>2007-06-09T09:36:28Z</time>
      </trkpt>
      <trkpt lat="46.455882014706731" lon="9.350111978128552">
        <ele>1916.5</ele>
        <time>2007-06-09T09:36:37Z</time>
      </trkpt>
      <trkpt lat="46.455984022468328" lon="9.350135028362274">
        <ele>1918.4000000000001</ele>
        <time>2007-06-09T09:36:45Z</time>
      </trkpt>
      <trkpt lat="46.456082006916404" lon="9.350163023918867">
        <ele>1919.9000000000001</ele>
        <time>2007-06-09T09:36:53Z</time>
      </trkpt>
      <trkpt lat="46.456168005242944" lon="9.350182972848415">
        <ele>1920.9000000000001</ele>
        <time>2007-06-09T09:37:00Z</time>
      </trkpt>
      <trkpt lat="46.456271018832922" lon="9.350211974233389">
        <ele>1922.3</ele>
        <time>2007-06-09T09:37:08Z</time>
      </trkpt>
      <trkpt lat="46.456284010782838" lon="9.350218009203672">
        <ele>1922.3</ele>
        <time>2007-06-09T09:37:09Z</time>
      </trkpt>
      <trkpt lat="46.456372020766139" lon="9.350244998931885">
        <ele>1922.8</ele>
        <time>2007-06-09T09:37:16Z</time>
      </trkpt>
      <trkpt lat="46.456456007435918" lon="9.350278023630381">
        <ele>1924.7</ele>
        <time>2007-06-09T09:37:23Z</time>
      </trkpt>
      <trkpt lat="46.456539994105697" lon="9.350337032228708">
        <ele>1925.7</ele>
        <time>2007-06-09T09:37:30Z</time>
      </trkpt>
      <trkpt lat="46.456576036289334" lon="9.350365027785301">
        <ele>1925.7</ele>
        <time>2007-06-09T09:37:33Z</time>
      </trkpt>
      <trkpt lat="46.456652982160449" lon="9.350441973656416">
        <ele>1926.0999999999999</ele>
        <time>2007-06-09T09:37:40Z</time>
      </trkpt>
      <trkpt lat="46.456741997972131" lon="9.35053501278162">
        <ele>1927.0999999999999</ele>
        <time>2007-06-09T09:37:48Z</time>
      </trkpt>
      <trkpt lat="46.456842999905348" lon="9.350649006664753">
        <ele>1928.5</ele>
        <time>2007-06-09T09:37:57Z</time>
      </trkpt>
      <trkpt lat="46.456940984353423" lon="9.350752020254731">
        <ele>1930</ele>
        <time>2007-06-09T09:38:06Z</time>
      </trkpt>
      <trkpt lat="46.457031005993485" lon="9.350827038288117">
        <ele>1930.9000000000001</ele>
        <time>2007-06-09T09:38:14Z</time>
      </trkpt>
      <trkpt lat="46.457155980169773" lon="9.350909013301134">
        <ele>1932.9000000000001</ele>
        <time>2007-06-09T09:38:24Z</time>
      </trkpt>
      <trkpt lat="46.457326970994473" lon="9.351026024669409">
        <ele>1934.8</ele>
        <time>2007-06-09T09:38:37Z</time>
      </trkpt>
      <trkpt lat="46.45733904093504" lon="9.351035999134183">
        <ele>1934.8</ele>
        <time>2007-06-09T09:38:38Z</time>
      </trkpt>
      <trkpt lat="46.457458985969424" lon="9.351128032431006">
        <ele>1934.8</ele>
        <time>2007-06-09T09:38:47Z</time>
      </trkpt>
      <trkpt lat="46.457598963752389" lon="9.351229034364224">
        <ele>1935.8</ele>
        <time>2007-06-09T09:38:57Z</time>
      </trkpt>
      <trkpt lat="46.457744976505637" lon="9.351325007155538">
        <ele>1935.3</ele>
        <time>2007-06-09T09:39:07Z</time>
      </trkpt>
      <trkpt lat="46.457870034500957" lon="9.351396001875401">
        <ele>1935.3</ele>
        <time>2007-06-09T09:39:13Z</time>
      </trkpt>
      <trkpt lat="46.458109002560377" lon="9.351537991315126">
        <ele>1933.3</ele>
        <time>2007-06-09T09:39:20Z</time>
      </trkpt>
      <trkpt lat="46.458376972004771" lon="9.351661959663034">
        <ele>1930.9000000000001</ele>
        <time>2007-06-09T09:39:25Z</time>
      </trkpt>
      <trkpt lat="46.458441009745002" lon="9.351691966876388">
        <ele>1930.5</ele>
        <time>2007-06-09T09:39:26Z</time>
      </trkpt>
      <trkpt lat="46.458649970591068" lon="9.351778971031308">
        <ele>1929.5</ele>
        <time>2007-06-09T09:39:29Z</time>
      </trkpt>
      <trkpt lat="46.458851974457502" lon="9.351950967684388">
        <ele>1927.5999999999999</ele>
        <time>2007-06-09T09:39:32Z</time>
      </trkpt>
      <trkpt lat="46.458935039117932" lon="9.352140985429287">
        <ele>1926.0999999999999</ele>
        <time>2007-06-09T09:39:34Z</time>
      </trkpt>
      <trkpt lat="46.459034029394388" lon="9.352329997345805">
        <ele>1924.7</ele>
        <time>2007-06-09T09:39:38Z</time>
      </trkpt>
      <trkpt lat="46.459110975265503" lon="9.352226983755827">
        <ele>1925.7</ele>
        <time>2007-06-09T09:39:43Z</time>
      </trkpt>
      <trkpt lat="46.459122039377689" lon="9.352205023169518">
        <ele>1926.0999999999999</ele>
        <time>2007-06-09T09:39:44Z</time>
      </trkpt>
      <trkpt lat="46.459216000512242" lon="9.352037971839309">
        <ele>1928.0999999999999</ele>
        <time>2007-06-09T09:39:53Z</time>
      </trkpt>
      <trkpt lat="46.459333011880517" lon="9.351914003491402">
        <ele>1928.0999999999999</ele>
        <time>2007-06-09T09:40:03Z</time>
      </trkpt>
      <trkpt lat="46.459442982450128" lon="9.351836973801255">
        <ele>1928.5</ele>
        <time>2007-06-09T09:40:11Z</time>
      </trkpt>
      <trkpt lat="46.459572985768318" lon="9.351747035980225">
        <ele>1928.5</ele>
        <time>2007-06-09T09:40:19Z</time>
      </trkpt>
      <trkpt lat="46.459737019613385" lon="9.351642010733485">
        <ele>1929.5</ele>
        <time>2007-06-09T09:40:29Z</time>
      </trkpt>
      <trkpt lat="46.459866017103195" lon="9.351508989930153">
        <ele>1929.5</ele>
        <time>2007-06-09T09:40:38Z</time>
      </trkpt>
      <trkpt lat="46.459985040128231" lon="9.351346967741847">
        <ele>1928.5</ele>
        <time>2007-06-09T09:40:46Z</time>
      </trkpt>
      <trkpt lat="46.460057040676475" lon="9.351255018264055">
        <ele>1928.0999999999999</ele>
        <time>2007-06-09T09:40:49Z</time>
      </trkpt>
      <trkpt lat="46.46030698902905" lon="9.350988976657391">
        <ele>1925.2</ele>
        <time>2007-06-09T09:40:55Z</time>
      </trkpt>
      <trkpt lat="46.460502035915852" lon="9.350800970569253">
        <ele>1920.9000000000001</ele>
        <time>2007-06-09T09:40:58Z</time>
      </trkpt>
      <trkpt lat="46.460676966235042" lon="9.350526966154575">
        <ele>1918</ele>
        <time>2007-06-09T09:41:01Z</time>
      </trkpt>
      <trkpt lat="46.460731029510498" lon="9.350418001413345">
        <ele>1918</ele>
        <time>2007-06-09T09:41:02Z</time>
      </trkpt>
      <trkpt lat="46.460862038657069" lon="9.350211974233389">
        <ele>1913.5999999999999</ele>
        <time>2007-06-09T09:41:04Z</time>
      </trkpt>
      <trkpt lat="46.460926998406649" lon="9.350131005048752">
        <ele>1912.7</ele>
        <time>2007-06-09T09:41:05Z</time>
      </trkpt>
      <trkpt lat="46.461083991453052" lon="9.349897988140583">
        <ele>1909.8</ele>
        <time>2007-06-09T09:41:09Z</time>
      </trkpt>
      <trkpt lat="46.461270991712809" lon="9.349874015897512">
        <ele>1907.4000000000001</ele>
        <time>2007-06-09T09:41:12Z</time>
      </trkpt>
      <trkpt lat="46.461496967822313" lon="9.349759016185999">
        <ele>1904.5</ele>
        <time>2007-06-09T09:41:15Z</time>
      </trkpt>
      <trkpt lat="46.461563017219305" lon="9.349663965404034">
        <ele>1902.5999999999999</ele>
        <time>2007-06-09T09:41:16Z</time>
      </trkpt>
      <trkpt lat="46.46174599416554" lon="9.349300023168325">
        <ele>1899.2</ele>
        <time>2007-06-09T09:41:19Z</time>
      </trkpt>
      <trkpt lat="46.46181003190577" lon="9.349061977118254">
        <ele>1903.0999999999999</ele>
        <time>2007-06-09T09:41:21Z</time>
      </trkpt>
      <trkpt lat="46.461836015805602" lon="9.34900900349021">
        <ele>1902.5999999999999</ele>
        <time>2007-06-09T09:41:22Z</time>
      </trkpt>
      <trkpt lat="46.4619380235672" lon="9.348971033468843">
        <ele>1902.0999999999999</ele>
        <time>2007-06-09T09:41:25Z</time>
      </trkpt>
      <trkpt lat="46.46215402521193" lon="9.349027024582028">
        <ele>1898.7</ele>
        <time>2007-06-09T09:41:29Z</time>
      </trkpt>
      <trkpt lat="46.462380001321435" lon="9.348947983235121">
        <ele>1897.3</ele>
        <time>2007-06-09T09:41:32Z</time>
      </trkpt>
      <trkpt lat="46.462432974949479" lon="9.348885035142303">
        <ele>1896.8</ele>
        <time>2007-06-09T09:41:33Z</time>
      </trkpt>
      <trkpt lat="46.462598014622927" lon="9.348679007962346">
        <ele>1898.7</ele>
        <time>2007-06-09T09:41:38Z</time>
      </trkpt>
      <trkpt lat="46.462695999071002" lon="9.348581023514271">
        <ele>1900.7</ele>
        <time>2007-06-09T09:41:45Z</time>
      </trkpt>
      <trkpt lat="46.462779985740781" lon="9.348520003259182">
        <ele>1901.5999999999999</ele>
        <time>2007-06-09T09:41:51Z</time>
      </trkpt>
      <trkpt lat="46.462930021807551" lon="9.348492007702589">
        <ele>1902.5999999999999</ele>
        <time>2007-06-09T09:41:59Z</time>
      </trkpt>
      <trkpt lat="46.463034963235259" lon="9.348491001874209">
        <ele>1902.0999999999999</ele>
        <time>2007-06-09T09:42:05Z</time>
      </trkpt>
      <trkpt lat="46.463139988481998" lon="9.348482033237815">
        <ele>1901.0999999999999</ele>
        <time>2007-06-09T09:42:12Z</time>
      </trkpt>
      <trkpt lat="46.46324803121388" lon="9.348496031016111">
        <ele>1901.0999999999999</ele>
        <time>2007-06-09T09:42:18Z</time>
      </trkpt>
      <trkpt lat="46.463453974574804" lon="9.348503993824124">
        <ele>1900.7</ele>
        <time>2007-06-09T09:42:25Z</time>
      </trkpt>
      <trkpt lat="46.46359495818615" lon="9.348504999652505">
        <ele>1901.5999999999999</ele>
        <time>2007-06-09T09:42:31Z</time>
      </trkpt>
      <trkpt lat="46.463754968717694" lon="9.348512040451169">
        <ele>1898.7</ele>
        <time>2007-06-09T09:42:36Z</time>
      </trkpt>
      <trkpt lat="46.463798973709345" lon="9.348512962460518">
        <ele>1898.7</ele>
        <time>2007-06-09T09:42:37Z</time>
      </trkpt>
      <trkpt lat="46.463969964534044" lon="9.348513968288899">
        <ele>1899.2</ele>
        <time>2007-06-09T09:42:42Z</time>
      </trkpt>
      <trkpt lat="46.464103991165757" lon="9.348541963845491">
        <ele>1899.2</ele>
        <time>2007-06-09T09:42:49Z</time>
      </trkpt>
      <trkpt lat="46.464284034445882" lon="9.348621005192399">
        <ele>1897.8</ele>
        <time>2007-06-09T09:42:55Z</time>
      </trkpt>
      <trkpt lat="46.464380007237196" lon="9.348705997690558">
        <ele>1896.8</ele>
        <time>2007-06-09T09:42:58Z</time>
      </trkpt>
      <trkpt lat="46.464584022760391" lon="9.348777998238802">
        <ele>1895.4000000000001</ele>
        <time>2007-06-09T09:43:03Z</time>
      </trkpt>
      <trkpt lat="46.464907983317971" lon="9.348926022648811">
        <ele>1893</ele>
        <time>2007-06-09T09:43:10Z</time>
      </trkpt>
      <trkpt lat="46.465006973594427" lon="9.348991988226771">
        <ele>1891.5</ele>
        <time>2007-06-09T09:43:12Z</time>
      </trkpt>
      <trkpt lat="46.465191040188074" lon="9.349179994314909">
        <ele>1892.5</ele>
        <time>2007-06-09T09:43:17Z</time>
      </trkpt>
      <trkpt lat="46.465339986607432" lon="9.349340004846454">
        <ele>1894.4000000000001</ele>
        <time>2007-06-09T09:43:24Z</time>
      </trkpt>
      <trkpt lat="46.465461021289229" lon="9.349435977637768">
        <ele>1895.4000000000001</ele>
        <time>2007-06-09T09:43:31Z</time>
      </trkpt>
      <trkpt lat="46.465612985193729" lon="9.349432038143277">
        <ele>1897.8</ele>
        <time>2007-06-09T09:43:39Z</time>
      </trkpt>
      <trkpt lat="46.465793028473854" lon="9.349402030929923">
        <ele>1898.3</ele>
        <time>2007-06-09T09:43:49Z</time>
      </trkpt>
      <trkpt lat="46.465948009863496" lon="9.349372023716569">
        <ele>1898.3</ele>
        <time>2007-06-09T09:43:57Z</time>
      </trkpt>
      <trkpt lat="46.466078013181686" lon="9.349315026775003">
        <ele>1897.8</ele>
        <time>2007-06-09T09:44:04Z</time>
      </trkpt>
      <trkpt lat="46.466179015114903" lon="9.349280996248126">
        <ele>1895.9000000000001</ele>
        <time>2007-06-09T09:44:07Z</time>
      </trkpt>
      <trkpt lat="46.466261995956302" lon="9.349270015954971">
        <ele>1894.4000000000001</ele>
        <time>2007-06-09T09:44:09Z</time>
      </trkpt>
      <trkpt lat="46.466309018433094" lon="9.34926800429821">
        <ele>1893.5</ele>
        <time>2007-06-09T09:44:10Z</time>
      </trkpt>
      <trkpt lat="46.466577993705869" lon="9.349426003172994">
        <ele>1892</ele>
        <time>2007-06-09T09:44:15Z</time>
      </trkpt>
      <trkpt lat="46.466676983982325" lon="9.34967502951622">
        <ele>1891.0999999999999</ele>
        <time>2007-06-09T09:44:18Z</time>
      </trkpt>
      <trkpt lat="46.4667749684304" lon="9.349801009520888">
        <ele>1890.0999999999999</ele>
        <time>2007-06-09T09:44:20Z</time>
      </trkpt>
      <trkpt lat="46.466919975355268" lon="9.349961020052433">
        <ele>1889.0999999999999</ele>
        <time>2007-06-09T09:44:24Z</time>
      </trkpt>
      <trkpt lat="46.466932967305183" lon="9.350011982023716">
        <ele>1889.5999999999999</ele>
        <time>2007-06-09T09:44:27Z</time>
      </trkpt>
      <trkpt lat="46.46696699783206" lon="9.350026985630393">
        <ele>1889.0999999999999</ele>
        <time>2007-06-09T09:44:30Z</time>
      </trkpt>
      <trkpt lat="46.467089960351586" lon="9.350119018927217">
        <ele>1887.2</ele>
        <time>2007-06-09T09:44:35Z</time>
      </trkpt>
      <trkpt lat="46.46722599864006" lon="9.350263020023704">
        <ele>1886.2</ele>
        <time>2007-06-09T09:44:41Z</time>
      </trkpt>
      <trkpt lat="46.467275032773614" lon="9.350322028622031">
        <ele>1886.2</ele>
        <time>2007-06-09T09:44:44Z</time>
      </trkpt>
      <trkpt lat="46.467372011393309" lon="9.350435016676784">
        <ele>1885.8</ele>
        <time>2007-06-09T09:44:52Z</time>
      </trkpt>
      <trkpt lat="46.46739799529314" lon="9.350459994748235">
        <ele>1886.2</ele>
        <time>2007-06-09T09:44:55Z</time>
      </trkpt>
      <trkpt lat="46.467520035803318" lon="9.350453959777951">
        <ele>1885.8</ele>
        <time>2007-06-09T09:45:02Z</time>
      </trkpt>
      <trkpt lat="46.467708963900805" lon="9.350340971723199">
        <ele>1883.8</ele>
        <time>2007-06-09T09:45:09Z</time>
      </trkpt>
      <trkpt lat="46.467942986637354" lon="9.350171992555261">
        <ele>1883.4000000000001</ele>
        <time>2007-06-09T09:45:15Z</time>
      </trkpt>
      <trkpt lat="46.46801901049912" lon="9.350268971174955">
        <ele>1883.4000000000001</ele>
        <time>2007-06-09T09:45:19Z</time>
      </trkpt>
      <trkpt lat="46.468064021319151" lon="9.350400986149907">
        <ele>1883.8</ele>
        <time>2007-06-09T09:45:25Z</time>
      </trkpt>
      <trkpt lat="46.468058992177248" lon="9.350410038605332">
        <ele>1883.8</ele>
        <time>2007-06-09T09:45:30Z</time>
      </trkpt>
      <trkpt lat="46.468088999390602" lon="9.350433005020022">
        <ele>1883.8</ele>
        <time>2007-06-09T09:45:55Z</time>
      </trkpt>
      <trkpt lat="46.468216991052032" lon="9.350491007789969">
        <ele>1884.3</ele>
        <time>2007-06-09T09:46:01Z</time>
      </trkpt>
      <trkpt lat="46.468356968834996" lon="9.350563008338213">
        <ele>1885.3</ele>
        <time>2007-06-09T09:46:05Z</time>
      </trkpt>
      <trkpt lat="46.46840700879693" lon="9.350587986409664">
        <ele>1886.2</ele>
        <time>2007-06-09T09:46:06Z</time>
      </trkpt>
      <trkpt lat="46.468685958534479" lon="9.350751014426351">
        <ele>1887.7</ele>
        <time>2007-06-09T09:46:13Z</time>
      </trkpt>
      <trkpt lat="46.468954011797905" lon="9.350900966674089">
        <ele>1889.0999999999999</ele>
        <time>2007-06-09T09:46:21Z</time>
      </trkpt>
      <trkpt lat="46.469080997630954" lon="9.350958969444037">
        <ele>1889.5999999999999</ele>
        <time>2007-06-09T09:46:27Z</time>
      </trkpt>
      <trkpt lat="46.46926699206233" lon="9.351063994690776">
        <ele>1889.5999999999999</ele>
        <time>2007-06-09T09:46:37Z</time>
      </trkpt>
      <trkpt lat="46.469376962631941" lon="9.351124009117484">
        <ele>1891.5</ele>
        <time>2007-06-09T09:46:43Z</time>
      </trkpt>
      <trkpt lat="46.469492968171835" lon="9.351187963038683">
        <ele>1892</ele>
        <time>2007-06-09T09:46:50Z</time>
      </trkpt>
      <trkpt lat="46.469686003401875" lon="9.351285025477409">
        <ele>1893.5</ele>
        <time>2007-06-09T09:47:00Z</time>
      </trkpt>
      <trkpt lat="46.469865962862968" lon="9.351383009925485">
        <ele>1894.4000000000001</ele>
        <time>2007-06-09T09:47:08Z</time>
      </trkpt>
      <trkpt lat="46.470052963122725" lon="9.351470014080405">
        <ele>1895.4000000000001</ele>
        <time>2007-06-09T09:47:17Z</time>
      </trkpt>
      <trkpt lat="46.470235018059611" lon="9.351465990766883">
        <ele>1896.3</ele>
        <time>2007-06-09T09:47:26Z</time>
      </trkpt>
      <trkpt lat="46.470387987792492" lon="9.351451992988586">
        <ele>1898.3</ele>
        <time>2007-06-09T09:47:33Z</time>
      </trkpt>
      <trkpt lat="46.470561996102333" lon="9.351470014080405">
        <ele>1899.2</ele>
        <time>2007-06-09T09:47:41Z</time>
      </trkpt>
      <trkpt lat="46.470731981098652" lon="9.351541008800268">
        <ele>1899.7</ele>
        <time>2007-06-09T09:47:49Z</time>
      </trkpt>
      <trkpt lat="46.470972038805485" lon="9.351614015176892">
        <ele>1901.0999999999999</ele>
        <time>2007-06-09T09:47:59Z</time>
      </trkpt>
      <trkpt lat="46.471159039065242" lon="9.351633964106441">
        <ele>1902.0999999999999</ele>
        <time>2007-06-09T09:48:06Z</time>
      </trkpt>
      <trkpt lat="46.471367999911308" lon="9.351631030440331">
        <ele>1901.0999999999999</ele>
        <time>2007-06-09T09:48:13Z</time>
      </trkpt>
      <trkpt lat="46.4715860132128" lon="9.351615021005273">
        <ele>1902.5999999999999</ele>
        <time>2007-06-09T09:48:20Z</time>
      </trkpt>
      <trkpt lat="46.471894970163703" lon="9.351585013791919">
        <ele>1901.5999999999999</ele>
        <time>2007-06-09T09:48:30Z</time>
      </trkpt>
      <trkpt lat="46.472084987908602" lon="9.351573027670384">
        <ele>1901.0999999999999</ele>
        <time>2007-06-09T09:48:36Z</time>
      </trkpt>
      <trkpt lat="46.472303001210093" lon="9.351548971608281">
        <ele>1900.7</ele>
        <time>2007-06-09T09:48:43Z</time>
      </trkpt>
      <trkpt lat="46.472622016444802" lon="9.351561963558197">
        <ele>1901.0999999999999</ele>
        <time>2007-06-09T09:48:53Z</time>
      </trkpt>
      <trkpt lat="46.472905995324254" lon="9.351596999913454">
        <ele>1901.0999999999999</ele>
        <time>2007-06-09T09:49:02Z</time>
      </trkpt>
      <trkpt lat="46.473172958940268" lon="9.351641004905105">
        <ele>1901.0999999999999</ele>
        <time>2007-06-09T09:49:11Z</time>
      </trkpt>
      <trkpt lat="46.473441012203693" lon="9.351696996018291">
        <ele>1901.5999999999999</ele>
        <time>2007-06-09T09:49:20Z</time>
      </trkpt>
      <trkpt lat="46.473711999133229" lon="9.351763967424631">
        <ele>1901.5999999999999</ele>
        <time>2007-06-09T09:49:29Z</time>
      </trkpt>
      <trkpt lat="46.473922971636057" lon="9.351796992123127">
        <ele>1901.5999999999999</ele>
        <time>2007-06-09T09:49:36Z</time>
      </trkpt>
      <trkpt lat="46.474180966615677" lon="9.351784000173211">
        <ele>1902.0999999999999</ele>
        <time>2007-06-09T09:49:44Z</time>
      </trkpt>
      <trkpt lat="46.474452037364244" lon="9.351705964654684">
        <ele>1902.0999999999999</ele>
        <time>2007-06-09T09:49:52Z</time>
      </trkpt>
      <trkpt lat="46.474725035950541" lon="9.351684004068375">
        <ele>1901.0999999999999</ele>
        <time>2007-06-09T09:50:00Z</time>
      </trkpt>
      <trkpt lat="46.475001974031329" lon="9.351704036816955">
        <ele>1901.5999999999999</ele>
        <time>2007-06-09T09:50:08Z</time>
      </trkpt>
      <trkpt lat="46.475301962345839" lon="9.351723985746503">
        <ele>1901.0999999999999</ele>
        <time>2007-06-09T09:50:17Z</time>
      </trkpt>
      <trkpt lat="46.475534979254007" lon="9.351751981303096">
        <ele>1901.5999999999999</ele>
        <time>2007-06-09T09:50:24Z</time>
      </trkpt>
      <trkpt lat="46.475759027525783" lon="9.351792968809605">
        <ele>1901.5999999999999</ele>
        <time>2007-06-09T09:50:31Z</time>
      </trkpt>
      <trkpt lat="46.475978968665004" lon="9.351836973801255">
        <ele>1901.0999999999999</ele>
        <time>2007-06-09T09:50:38Z</time>
      </trkpt>
      <trkpt lat="46.476213997229934" lon="9.351895982399583">
        <ele>1901.5999999999999</ele>
        <time>2007-06-09T09:50:46Z</time>
      </trkpt>
      <trkpt lat="46.47641901858151" lon="9.351982986554503">
        <ele>1900.7</ele>
        <time>2007-06-09T09:50:53Z</time>
      </trkpt>
      <trkpt lat="46.476600989699364" lon="9.352119024842978">
        <ele>1900.7</ele>
        <time>2007-06-09T09:51:00Z</time>
      </trkpt>
      <trkpt lat="46.476838029921055" lon="9.352219020947814">
        <ele>1901.0999999999999</ele>
        <time>2007-06-09T09:51:08Z</time>
      </trkpt>
      <trkpt lat="46.4769790135324" lon="9.352277023717761">
        <ele>1900.7</ele>
        <time>2007-06-09T09:51:13Z</time>
      </trkpt>
      <trkpt lat="46.477118991315365" lon="9.352313987910748">
        <ele>1901.0999999999999</ele>
        <time>2007-06-09T09:51:18Z</time>
      </trkpt>
      <trkpt lat="46.47732300683856" lon="9.352367967367172">
        <ele>1900.7</ele>
        <time>2007-06-09T09:51:25Z</time>
      </trkpt>
      <trkpt lat="46.477583013474941" lon="9.35244801454246">
        <ele>1901.5999999999999</ele>
        <time>2007-06-09T09:51:34Z</time>
      </trkpt>
      <trkpt lat="46.47781896404922" lon="9.352587992325425">
        <ele>1900.7</ele>
        <time>2007-06-09T09:51:42Z</time>
      </trkpt>
      <trkpt lat="46.478035971522331" lon="9.352840958163142">
        <ele>1900.7</ele>
        <time>2007-06-09T09:51:50Z</time>
      </trkpt>
      <trkpt lat="46.478143008425832" lon="9.352972973138094">
        <ele>1900.2</ele>
        <time>2007-06-09T09:51:54Z</time>
      </trkpt>
      <trkpt lat="46.478364961221814" lon="9.353204984217882">
        <ele>1900.7</ele>
        <time>2007-06-09T09:52:02Z</time>
      </trkpt>
      <trkpt lat="46.47859001532197" lon="9.353376980870962">
        <ele>1900.7</ele>
        <time>2007-06-09T09:52:10Z</time>
      </trkpt>
      <trkpt lat="46.478751031681895" lon="9.353477982804179">
        <ele>1901.5999999999999</ele>
        <time>2007-06-09T09:52:15Z</time>
      </trkpt>
      <trkpt lat="46.47899997420609" lon="9.353631036356092">
        <ele>1901.0999999999999</ele>
        <time>2007-06-09T09:52:23Z</time>
      </trkpt>
      <trkpt lat="46.479226034134626" lon="9.353761039674282">
        <ele>1901.0999999999999</ele>
        <time>2007-06-09T09:52:30Z</time>
      </trkpt>
      <trkpt lat="46.479467013850808" lon="9.353845026344061">
        <ele>1901.5999999999999</ele>
        <time>2007-06-09T09:52:37Z</time>
      </trkpt>
      <trkpt lat="46.479677986353636" lon="9.35388601385057">
        <ele>1901.5999999999999</ele>
        <time>2007-06-09T09:52:43Z</time>
      </trkpt>
      <trkpt lat="46.479895999655128" lon="9.353925995528698">
        <ele>1901.5999999999999</ele>
        <time>2007-06-09T09:52:49Z</time>
      </trkpt>
      <trkpt lat="46.480106972157955" lon="9.353982992470264">
        <ele>1902.0999999999999</ele>
        <time>2007-06-09T09:52:55Z</time>
      </trkpt>
      <trkpt lat="46.480342000722885" lon="9.354119030758739">
        <ele>1901.5999999999999</ele>
        <time>2007-06-09T09:53:02Z</time>
      </trkpt>
      <trkpt lat="46.480593038722873" lon="9.354351963847876">
        <ele>1902.0999999999999</ele>
        <time>2007-06-09T09:53:10Z</time>
      </trkpt>
      <trkpt lat="46.480745002627373" lon="9.354569977149367">
        <ele>1902.0999999999999</ele>
        <time>2007-06-09T09:53:16Z</time>
      </trkpt>
      <trkpt lat="46.48088900372386" lon="9.354877006262541">
        <ele>1902.0999999999999</ele>
        <time>2007-06-09T09:53:23Z</time>
      </trkpt>
      <trkpt lat="46.481071980670094" lon="9.355158973485231">
        <ele>1902.0999999999999</ele>
        <time>2007-06-09T09:53:30Z</time>
      </trkpt>
      <trkpt lat="46.481310026720166" lon="9.3554110173136">
        <ele>1902.0999999999999</ele>
        <time>2007-06-09T09:53:37Z</time>
      </trkpt>
      <trkpt lat="46.48157699033618" lon="9.355617966502905">
        <ele>1902.0999999999999</ele>
        <time>2007-06-09T09:53:44Z</time>
      </trkpt>
      <trkpt lat="46.48187798447907" lon="9.355728020891547">
        <ele>1902.5999999999999</ele>
        <time>2007-06-09T09:53:51Z</time>
      </trkpt>
      <trkpt lat="46.482109995558858" lon="9.355743024498224">
        <ele>1902.5999999999999</ele>
        <time>2007-06-09T09:53:56Z</time>
      </trkpt>
      <trkpt lat="46.48243797942996" lon="9.355602962896228">
        <ele>1902.5999999999999</ele>
        <time>2007-06-09T09:54:03Z</time>
      </trkpt>
      <trkpt lat="46.482719024643302" lon="9.355316972360015">
        <ele>1903.5</ele>
        <time>2007-06-09T09:54:10Z</time>
      </trkpt>
      <trkpt lat="46.483154967427254" lon="9.35480902902782">
        <ele>1902.0999999999999</ele>
        <time>2007-06-09T09:54:22Z</time>
      </trkpt>
      <trkpt lat="46.483485968783498" lon="9.354429999366403">
        <ele>1902.0999999999999</ele>
        <time>2007-06-09T09:54:31Z</time>
      </trkpt>
      <trkpt lat="46.48385301232338" lon="9.353991961106658">
        <ele>1903.0999999999999</ele>
        <time>2007-06-09T09:54:41Z</time>
      </trkpt>
      <trkpt lat="46.483963988721371" lon="9.353862041607499">
        <ele>1901.0999999999999</ele>
        <time>2007-06-09T09:54:44Z</time>
      </trkpt>
      <trkpt lat="46.484294990077615" lon="9.353474965319037">
        <ele>1901.5999999999999</ele>
        <time>2007-06-09T09:54:53Z</time>
      </trkpt>
      <trkpt lat="46.484597995877266" lon="9.353085039183497">
        <ele>1902.0999999999999</ele>
        <time>2007-06-09T09:55:02Z</time>
      </trkpt>
      <trkpt lat="46.484876023605466" lon="9.3527050036937">
        <ele>1902.0999999999999</ele>
        <time>2007-06-09T09:55:11Z</time>
      </trkpt>
      <trkpt lat="46.485281037166715" lon="9.352158000692725">
        <ele>1903.0999999999999</ele>
        <time>2007-06-09T09:55:24Z</time>
      </trkpt>
      <trkpt lat="46.485542971640825" lon="9.351792968809605">
        <ele>1901.5999999999999</ele>
        <time>2007-06-09T09:55:32Z</time>
      </trkpt>
      <trkpt lat="46.485862992703915" lon="9.351348979398608">
        <ele>1903.0999999999999</ele>
        <time>2007-06-09T09:55:42Z</time>
      </trkpt>
      <trkpt lat="46.48611101321876" lon="9.350999034941196">
        <ele>1903.5</ele>
        <time>2007-06-09T09:55:50Z</time>
      </trkpt>
      <trkpt lat="46.486403038725257" lon="9.350505005568266">
        <ele>1903.5</ele>
        <time>2007-06-09T09:56:00Z</time>
      </trkpt>
      <trkpt lat="46.486688023433089" lon="9.349942998960614">
        <ele>1903.5</ele>
        <time>2007-06-09T09:56:10Z</time>
      </trkpt>
      <trkpt lat="46.486974013969302" lon="9.349240008741617">
        <ele>1903.0999999999999</ele>
        <time>2007-06-09T09:56:21Z</time>
      </trkpt>
      <trkpt lat="46.487220022827387" lon="9.348599966615439">
        <ele>1903.0999999999999</ele>
        <time>2007-06-09T09:56:30Z</time>
      </trkpt>
      <trkpt lat="46.487520011141896" lon="9.347750963643193">
        <ele>1902.5999999999999</ele>
        <time>2007-06-09T09:56:41Z</time>
      </trkpt>
      <trkpt lat="46.487625958397985" lon="9.347260035574436">
        <ele>1902.0999999999999</ele>
        <time>2007-06-09T09:56:47Z</time>
      </trkpt>
      <trkpt lat="46.487640039995313" lon="9.34673298150301">
        <ele>1903.0999999999999</ele>
        <time>2007-06-09T09:56:53Z</time>
      </trkpt>
      <trkpt lat="46.487580025568604" lon="9.346212968230248">
        <ele>1903.0999999999999</ele>
        <time>2007-06-09T09:56:59Z</time>
      </trkpt>
      <trkpt lat="46.487413980066776" lon="9.345490029081702">
        <ele>1903.0999999999999</ele>
        <time>2007-06-09T09:57:08Z</time>
      </trkpt>
      <trkpt lat="46.487326975911856" lon="9.345036987215281">
        <ele>1902.5999999999999</ele>
        <time>2007-06-09T09:57:14Z</time>
      </trkpt>
      <trkpt lat="46.487332005053759" lon="9.344617975875735">
        <ele>1903.0999999999999</ele>
        <time>2007-06-09T09:57:20Z</time>
      </trkpt>
      <trkpt lat="46.487470977008343" lon="9.344149008393288">
        <ele>1903.5</ele>
        <time>2007-06-09T09:57:27Z</time>
      </trkpt>
      <trkpt lat="46.487531997263432" lon="9.344028979539871">
        <ele>1903.5</ele>
        <time>2007-06-09T09:57:29Z</time>
      </trkpt>
      <trkpt lat="46.487668035551906" lon="9.343837033957243">
        <ele>1903.5</ele>
        <time>2007-06-09T09:57:33Z</time>
      </trkpt>
      <trkpt lat="46.487951008602977" lon="9.343460015952587">
        <ele>1904</ele>
        <time>2007-06-09T09:57:41Z</time>
      </trkpt>
      <trkpt lat="46.48830296471715" lon="9.342986019328237">
        <ele>1903.0999999999999</ele>
        <time>2007-06-09T09:57:51Z</time>
      </trkpt>
      <trkpt lat="46.488674031570554" lon="9.342473968863487">
        <ele>1902.5999999999999</ele>
        <time>2007-06-09T09:58:01Z</time>
      </trkpt>
      <trkpt lat="46.489043002948165" lon="9.341954039409757">
        <ele>1903.0999999999999</ele>
        <time>2007-06-09T09:58:11Z</time>
      </trkpt>
      <trkpt lat="46.489392025396228" lon="9.341395972296596">
        <ele>1903.5</ele>
        <time>2007-06-09T09:58:21Z</time>
      </trkpt>
      <trkpt lat="46.489624958485365" lon="9.340850980952382">
        <ele>1904</ele>
        <time>2007-06-09T09:58:30Z</time>
      </trkpt>
      <trkpt lat="46.489820005372167" lon="9.340190989896655">
        <ele>1904</ele>
        <time>2007-06-09T09:58:40Z</time>
      </trkpt>
      <trkpt lat="46.48999996483326" lon="9.339487999677658">
        <ele>1903.5</ele>
        <time>2007-06-09T09:58:51Z</time>
      </trkpt>
      <trkpt lat="46.490013040602207" lon="9.339426979422569">
        <ele>1903.0999999999999</ele>
        <time>2007-06-09T09:58:52Z</time>
      </trkpt>
      <trkpt lat="46.490048998966813" lon="9.339038981124759">
        <ele>1903.0999999999999</ele>
        <time>2007-06-09T09:58:58Z</time>
      </trkpt>
      <trkpt lat="46.490030977874994" lon="9.338776040822268">
        <ele>1903.0999999999999</ele>
        <time>2007-06-09T09:59:02Z</time>
      </trkpt>
      <trkpt lat="46.489966018125415" lon="9.338529026135802">
        <ele>1904</ele>
        <time>2007-06-09T09:59:06Z</time>
      </trkpt>
      <trkpt lat="46.489682961255312" lon="9.338016975671053">
        <ele>1903.5</ele>
        <time>2007-06-09T09:59:16Z</time>
      </trkpt>
      <trkpt lat="46.489452961832285" lon="9.337652027606964">
        <ele>1903.5</ele>
        <time>2007-06-09T09:59:24Z</time>
      </trkpt>
      <trkpt lat="46.489359000697732" lon="9.337333012372255">
        <ele>1903.5</ele>
        <time>2007-06-09T09:59:30Z</time>
      </trkpt>
      <trkpt lat="46.489394959062338" lon="9.337144000455737">
        <ele>1904.5</ele>
        <time>2007-06-09T09:59:34Z</time>
      </trkpt>
      <trkpt lat="46.489498978480697" lon="9.336937973275781">
        <ele>1903.0999999999999</ele>
        <time>2007-06-09T09:59:41Z</time>
      </trkpt>
      <trkpt lat="46.48952404037118" lon="9.336923975497484">
        <ele>1903.5</ele>
        <time>2007-06-09T09:59:46Z</time>
      </trkpt>
      <trkpt lat="46.489522028714418" lon="9.336935039609671">
        <ele>1904</ele>
        <time>2007-06-09T09:59:51Z</time>
      </trkpt>
      <trkpt lat="46.489499984309077" lon="9.336873013526201">
        <ele>1904</ele>
        <time>2007-06-09T10:00:08Z</time>
      </trkpt>
      <trkpt lat="46.489467965438962" lon="9.33676203712821">
        <ele>1905</ele>
        <time>2007-06-09T10:00:15Z</time>
      </trkpt>
      <trkpt lat="46.489369980990887" lon="9.33654997497797">
        <ele>1906</ele>
        <time>2007-06-09T10:02:41Z</time>
      </trkpt>
      <trkpt lat="46.489374004304409" lon="9.336575036868453">
        <ele>1907.4000000000001</ele>
        <time>2007-06-09T10:05:10Z</time>
      </trkpt>
      <trkpt lat="46.489357994869351" lon="9.336504964157939">
        <ele>1908.4000000000001</ele>
        <time>2007-06-09T10:05:42Z</time>
      </trkpt>
      <trkpt lat="46.489380961284041" lon="9.336517034098506">
        <ele>1907.9000000000001</ele>
        <time>2007-06-09T10:05:47Z</time>
      </trkpt>
      <trkpt lat="46.489444999024272" lon="9.336629016324878">
        <ele>1908.4000000000001</ele>
        <time>2007-06-09T10:05:57Z</time>
      </trkpt>
      <trkpt lat="46.489490009844303" lon="9.336689030751586">
        <ele>1909.3</ele>
        <time>2007-06-09T10:06:17Z</time>
      </trkpt>
      <trkpt lat="46.489401999861002" lon="9.336576964706183">
        <ele>1907.9000000000001</ele>
        <time>2007-06-09T10:07:44Z</time>
      </trkpt>
      <trkpt lat="46.4895040076226" lon="9.336759019643068">
        <ele>1907.9000000000001</ele>
        <time>2007-06-09T10:10:09Z</time>
      </trkpt>
      <trkpt lat="46.489492021501064" lon="9.33669799938798">
        <ele>1907.9000000000001</ele>
        <time>2007-06-09T10:10:21Z</time>
      </trkpt>
      <trkpt lat="46.489557987079024" lon="9.336601020768285">
        <ele>1907.9000000000001</ele>
        <time>2007-06-09T10:10:26Z</time>
      </trkpt>
      <trkpt lat="46.48969603702426" lon="9.33635400608182">
        <ele>1908.8</ele>
        <time>2007-06-09T10:10:35Z</time>
      </trkpt>
      <trkpt lat="46.489788992330432" lon="9.33614001609385">
        <ele>1909.3</ele>
        <time>2007-06-09T10:10:43Z</time>
      </trkpt>
      <trkpt lat="46.48984900675714" lon="9.335962990298867">
        <ele>1910.8</ele>
        <time>2007-06-09T10:10:49Z</time>
      </trkpt>
      <trkpt lat="46.489922013133764" lon="9.33581898920238">
        <ele>1912.7</ele>
        <time>2007-06-09T10:10:55Z</time>
      </trkpt>
      <trkpt lat="46.489995019510388" lon="9.335647998377681">
        <ele>1913.5999999999999</ele>
        <time>2007-06-09T10:11:03Z</time>
      </trkpt>
      <trkpt lat="46.490071965381503" lon="9.335443982854486">
        <ele>1915.0999999999999</ele>
        <time>2007-06-09T10:11:12Z</time>
      </trkpt>
      <trkpt lat="46.490136003121734" lon="9.335283972322941">
        <ele>1917</ele>
        <time>2007-06-09T10:11:20Z</time>
      </trkpt>
      <trkpt lat="46.49017296731472" lon="9.335127985104919">
        <ele>1918.4000000000001</ele>
        <time>2007-06-09T10:11:27Z</time>
      </trkpt>
      <trkpt lat="46.490201968699694" lon="9.334945008158684">
        <ele>1919.4000000000001</ele>
        <time>2007-06-09T10:11:35Z</time>
      </trkpt>
      <trkpt lat="46.490252008661628" lon="9.334752978757024">
        <ele>1920.9000000000001</ele>
        <time>2007-06-09T10:11:44Z</time>
      </trkpt>
      <trkpt lat="46.490297019481659" lon="9.334629010409117">
        <ele>1924.2</ele>
        <time>2007-06-09T10:11:50Z</time>
      </trkpt>
      <trkpt lat="46.490359967574477" lon="9.334482997655869">
        <ele>1923.3</ele>
        <time>2007-06-09T10:11:58Z</time>
      </trkpt>
      <trkpt lat="46.490421993657947" lon="9.33440001681447">
        <ele>1923.7</ele>
        <time>2007-06-09T10:12:04Z</time>
      </trkpt>
      <trkpt lat="46.490442026406527" lon="9.334394987672567">
        <ele>1924.2</ele>
        <time>2007-06-09T10:12:05Z</time>
      </trkpt>
      <trkpt lat="46.490487959235907" lon="9.334467994049192">
        <ele>1924.7</ele>
        <time>2007-06-09T10:12:10Z</time>
      </trkpt>
      <trkpt lat="46.490497011691332" lon="9.334716014564037">
        <ele>1926.0999999999999</ele>
        <time>2007-06-09T10:12:21Z</time>
      </trkpt>
      <trkpt lat="46.490503968670964" lon="9.334891028702259">
        <ele>1927.0999999999999</ele>
        <time>2007-06-09T10:12:29Z</time>
      </trkpt>
      <trkpt lat="46.49051402695477" lon="9.335049027577043">
        <ele>1927.5999999999999</ele>
        <time>2007-06-09T10:12:36Z</time>
      </trkpt>
      <trkpt lat="46.490506986156106" lon="9.335199985653162">
        <ele>1928.5</ele>
        <time>2007-06-09T10:12:41Z</time>
      </trkpt>
      <trkpt lat="46.49051402695477" lon="9.33540903031826">
        <ele>1930</ele>
        <time>2007-06-09T10:12:49Z</time>
      </trkpt>
      <trkpt lat="46.49051302112639" lon="9.335435014218092">
        <ele>1930.5</ele>
        <time>2007-06-09T10:12:50Z</time>
      </trkpt>
      <trkpt lat="46.490571023896337" lon="9.335551019757986">
        <ele>1931.4000000000001</ele>
        <time>2007-06-09T10:12:56Z</time>
      </trkpt>
      <trkpt lat="46.490634977817535" lon="9.335514977574348">
        <ele>1931.9000000000001</ele>
        <time>2007-06-09T10:13:00Z</time>
      </trkpt>
      <trkpt lat="46.490657022222877" lon="9.335358990356326">
        <ele>1931.9000000000001</ele>
        <time>2007-06-09T10:13:06Z</time>
      </trkpt>
      <trkpt lat="46.490657022222877" lon="9.335334012284875">
        <ele>1932.4000000000001</ele>
        <time>2007-06-09T10:13:07Z</time>
      </trkpt>
      <trkpt lat="46.490649981424212" lon="9.33508699759841">
        <ele>1933.3</ele>
        <time>2007-06-09T10:13:16Z</time>
      </trkpt>
      <trkpt lat="46.490695998072624" lon="9.334891028702259">
        <ele>1935.3</ele>
        <time>2007-06-09T10:13:25Z</time>
      </trkpt>
      <trkpt lat="46.490778978914022" lon="9.334757002070546">
        <ele>1937.2</ele>
        <time>2007-06-09T10:13:33Z</time>
      </trkpt>
      <trkpt lat="46.490904036909342" lon="9.334576958790422">
        <ele>1939.5999999999999</ele>
        <time>2007-06-09T10:13:44Z</time>
      </trkpt>
      <trkpt lat="46.490985006093979" lon="9.334369003772736">
        <ele>1940.0999999999999</ele>
        <time>2007-06-09T10:13:54Z</time>
      </trkpt>
      <trkpt lat="46.491050971671939" lon="9.334090976044536">
        <ele>1941.5</ele>
        <time>2007-06-09T10:14:05Z</time>
      </trkpt>
      <trkpt lat="46.491104029119015" lon="9.333909004926682">
        <ele>1943.4000000000001</ele>
        <time>2007-06-09T10:14:13Z</time>
      </trkpt>
      <trkpt lat="46.491179969161749" lon="9.333727033808827">
        <ele>1945.4000000000001</ele>
        <time>2007-06-09T10:14:22Z</time>
      </trkpt>
      <trkpt lat="46.491296980530024" lon="9.333524024114013">
        <ele>1946.8</ele>
        <time>2007-06-09T10:14:33Z</time>
      </trkpt>
      <trkpt lat="46.491430001333356" lon="9.333293018862605">
        <ele>1948.2</ele>
        <time>2007-06-09T10:14:45Z</time>
      </trkpt>
      <trkpt lat="46.491538966074586" lon="9.333101995289326">
        <ele>1950.2</ele>
        <time>2007-06-09T10:14:55Z</time>
      </trkpt>
      <trkpt lat="46.491658994928002" lon="9.332890016958118">
        <ele>1951.0999999999999</ele>
        <time>2007-06-09T10:15:06Z</time>
      </trkpt>
      <trkpt lat="46.49178396910429" lon="9.332677032798529">
        <ele>1953.0999999999999</ele>
        <time>2007-06-09T10:15:17Z</time>
      </trkpt>
      <trkpt lat="46.491874996572733" lon="9.332500007003546">
        <ele>1954</ele>
        <time>2007-06-09T10:15:26Z</time>
      </trkpt>
      <trkpt lat="46.491981027647853" lon="9.332334967330098">
        <ele>1955.5</ele>
        <time>2007-06-09T10:15:35Z</time>
      </trkpt>
      <trkpt lat="46.492098039016128" lon="9.332145033404231">
        <ele>1957.4000000000001</ele>
        <time>2007-06-09T10:15:45Z</time>
      </trkpt>
      <trkpt lat="46.492197029292583" lon="9.331973036751151">
        <ele>1958.8</ele>
        <time>2007-06-09T10:15:54Z</time>
      </trkpt>
      <trkpt lat="46.492302976548672" lon="9.331802967935801">
        <ele>1960.7</ele>
        <time>2007-06-09T10:16:03Z</time>
      </trkpt>
      <trkpt lat="46.492413030937314" lon="9.331791987642646">
        <ele>1962.7</ele>
        <time>2007-06-09T10:16:10Z</time>
      </trkpt>
      <trkpt lat="46.492483019828796" lon="9.331919979304075">
        <ele>1963.5999999999999</ele>
        <time>2007-06-09T10:16:17Z</time>
      </trkpt>
      <trkpt lat="46.492472039535642" lon="9.332089964300394">
        <ele>1964.5999999999999</ele>
        <time>2007-06-09T10:16:24Z</time>
      </trkpt>
      <trkpt lat="46.492462987080216" lon="9.332265984266996">
        <ele>1966</ele>
        <time>2007-06-09T10:16:31Z</time>
      </trkpt>
      <trkpt lat="46.492499029263854" lon="9.332329016178846">
        <ele>1966.5</ele>
        <time>2007-06-09T10:16:34Z</time>
      </trkpt>
      <trkpt lat="46.492585027590394" lon="9.332304960116744">
        <ele>1967</ele>
        <time>2007-06-09T10:16:39Z</time>
      </trkpt>
      <trkpt lat="46.492661973461509" lon="9.332109997048974">
        <ele>1967</ele>
        <time>2007-06-09T10:16:48Z</time>
      </trkpt>
      <trkpt lat="46.492735985666513" lon="9.331892989575863">
        <ele>1969.4000000000001</ele>
        <time>2007-06-09T10:16:58Z</time>
      </trkpt>
      <trkpt lat="46.492845034226775" lon="9.331605993211269">
        <ele>1971.3</ele>
        <time>2007-06-09T10:17:11Z</time>
      </trkpt>
      <trkpt lat="46.492913011461496" lon="9.331461992114782">
        <ele>1972.8</ele>
        <time>2007-06-09T10:17:18Z</time>
      </trkpt>
      <trkpt lat="46.493045026436448" lon="9.331301981583238">
        <ele>1975.5999999999999</ele>
        <time>2007-06-09T10:17:28Z</time>
      </trkpt>
      <trkpt lat="46.493194978684187" lon="9.331170972436667">
        <ele>1976.0999999999999</ele>
        <time>2007-06-09T10:17:38Z</time>
      </trkpt>
      <trkpt lat="46.493355995044112" lon="9.331034012138844">
        <ele>1979.5</ele>
        <time>2007-06-09T10:17:49Z</time>
      </trkpt>
      <trkpt lat="46.493533020839095" lon="9.330905014649034">
        <ele>1980.9000000000001</ele>
        <time>2007-06-09T10:18:01Z</time>
      </trkpt>
      <trkpt lat="46.493665035814047" lon="9.330815998837352">
        <ele>1981.4000000000001</ele>
        <time>2007-06-09T10:18:10Z</time>
      </trkpt>
      <trkpt lat="46.49382202886045" lon="9.330737963318825">
        <ele>1983.3</ele>
        <time>2007-06-09T10:18:21Z</time>
      </trkpt>
      <trkpt lat="46.493996037170291" lon="9.330691024661064">
        <ele>1984.3</ele>
        <time>2007-06-09T10:18:32Z</time>
      </trkpt>
      <trkpt lat="46.494144983589649" lon="9.330654982477427">
        <ele>1986.2</ele>
        <time>2007-06-09T10:18:41Z</time>
      </trkpt>
      <trkpt lat="46.494264006614685" lon="9.330651964992285">
        <ele>1988.0999999999999</ele>
        <time>2007-06-09T10:18:49Z</time>
      </trkpt>
      <trkpt lat="46.494272975251079" lon="9.330667974427342">
        <ele>1988.5999999999999</ele>
        <time>2007-06-09T10:18:50Z</time>
      </trkpt>
      <trkpt lat="46.494276998564601" lon="9.330712985247374">
        <ele>1989.5999999999999</ele>
        <time>2007-06-09T10:18:52Z</time>
      </trkpt>
      <trkpt lat="46.494240034371614" lon="9.330802001059055">
        <ele>1990.0999999999999</ele>
        <time>2007-06-09T10:18:56Z</time>
      </trkpt>
      <trkpt lat="46.49412302300334" lon="9.331024037674069">
        <ele>1991.5</ele>
        <time>2007-06-09T10:19:07Z</time>
      </trkpt>
      <trkpt lat="46.49403803050518" lon="9.33119704015553">
        <ele>1991.5</ele>
        <time>2007-06-09T10:19:15Z</time>
      </trkpt>
      <trkpt lat="46.493970975279808" lon="9.331340035423636">
        <ele>1993</ele>
        <time>2007-06-09T10:19:22Z</time>
      </trkpt>
      <trkpt lat="46.49386896751821" lon="9.331512032076716">
        <ele>1994.4000000000001</ele>
        <time>2007-06-09T10:19:31Z</time>
      </trkpt>
      <trkpt lat="46.493735024705529" lon="9.331695009022951">
        <ele>1995.4000000000001</ele>
        <time>2007-06-09T10:19:42Z</time>
      </trkpt>
      <trkpt lat="46.493728989735246" lon="9.331716969609261">
        <ele>1995.4000000000001</ele>
        <time>2007-06-09T10:19:43Z</time>
      </trkpt>
      <trkpt lat="46.493765031918883" lon="9.331786036491394">
        <ele>1995.8</ele>
        <time>2007-06-09T10:19:48Z</time>
      </trkpt>
      <trkpt lat="46.493852036073804" lon="9.331734990701079">
        <ele>1995.8</ele>
        <time>2007-06-09T10:19:53Z</time>
      </trkpt>
      <trkpt lat="46.49404096417129" lon="9.331550002098084">
        <ele>1996.8</ele>
        <time>2007-06-09T10:20:04Z</time>
      </trkpt>
      <trkpt lat="46.494213966652751" lon="9.331441037356854">
        <ele>1998.2</ele>
        <time>2007-06-09T10:20:13Z</time>
      </trkpt>
      <trkpt lat="46.494432985782623" lon="9.331400971859694">
        <ele>1999.2</ele>
        <time>2007-06-09T10:20:23Z</time>
      </trkpt>
      <trkpt lat="46.494687963277102" lon="9.331379011273384">
        <ele>2001.0999999999999</ele>
        <time>2007-06-09T10:20:34Z</time>
      </trkpt>
      <trkpt lat="46.494944030418992" lon="9.331355961039662">
        <ele>2003</ele>
        <time>2007-06-09T10:20:45Z</time>
      </trkpt>
      <trkpt lat="46.495118038728833" lon="9.331345986574888">
        <ele>2004</ele>
        <time>2007-06-09T10:20:53Z</time>
      </trkpt>
      <trkpt lat="46.495195990428329" lon="9.331340035423636">
        <ele>2005</ele>
        <time>2007-06-09T10:20:57Z</time>
      </trkpt>
      <trkpt lat="46.495356000959873" lon="9.331326959654689">
        <ele>2005.4000000000001</ele>
        <time>2007-06-09T10:21:05Z</time>
      </trkpt>
      <trkpt lat="46.495576025918126" lon="9.331310028210282">
        <ele>2007.4000000000001</ele>
        <time>2007-06-09T10:21:16Z</time>
      </trkpt>
      <trkpt lat="46.495775012299418" lon="9.331261999905109">
        <ele>2009.3</ele>
        <time>2007-06-09T10:21:26Z</time>
      </trkpt>
      <trkpt lat="46.495890012010932" lon="9.331205002963543">
        <ele>2010.3</ele>
        <time>2007-06-09T10:21:32Z</time>
      </trkpt>
      <trkpt lat="46.496029989793897" lon="9.331087991595268">
        <ele>2012.2</ele>
        <time>2007-06-09T10:21:41Z</time>
      </trkpt>
      <trkpt lat="46.496183965355158" lon="9.33094197884202">
        <ele>2014.0999999999999</ele>
        <time>2007-06-09T10:21:52Z</time>
      </trkpt>
      <trkpt lat="46.496209027245641" lon="9.330915994942188">
        <ele>2014.5999999999999</ele>
        <time>2007-06-09T10:21:54Z</time>
      </trkpt>
      <trkpt lat="46.496365014463663" lon="9.33076998218894">
        <ele>2016</ele>
        <time>2007-06-09T10:22:05Z</time>
      </trkpt>
      <trkpt lat="46.496499963104725" lon="9.330636039376259">
        <ele>2017</ele>
        <time>2007-06-09T10:22:14Z</time>
      </trkpt>
      <trkpt lat="46.49653198197484" lon="9.330613994970918">
        <ele>2017.5</ele>
        <time>2007-06-09T10:22:16Z</time>
      </trkpt>
      <trkpt lat="46.496572969481349" lon="9.330681972205639">
        <ele>2018.4000000000001</ele>
        <time>2007-06-09T10:22:21Z</time>
      </trkpt>
      <trkpt lat="46.496540028601885" lon="9.330740980803967">
        <ele>2018.9000000000001</ele>
        <time>2007-06-09T10:22:24Z</time>
      </trkpt>
      <trkpt lat="46.496392004191875" lon="9.330985983833671">
        <ele>2020.3</ele>
        <time>2007-06-09T10:22:36Z</time>
      </trkpt>
      <trkpt lat="46.496301982551813" lon="9.331140965223312">
        <ele>2021.3</ele>
        <time>2007-06-09T10:22:44Z</time>
      </trkpt>
      <trkpt lat="46.49620701558888" lon="9.331274991855025">
        <ele>2022.8</ele>
        <time>2007-06-09T10:22:52Z</time>
      </trkpt>
      <trkpt lat="46.496097967028618" lon="9.331419998779893">
        <ele>2025.2</ele>
        <time>2007-06-09T10:23:01Z</time>
      </trkpt>
      <trkpt lat="46.496156975626945" lon="9.331508008763194">
        <ele>2025.2</ele>
        <time>2007-06-09T10:23:07Z</time>
      </trkpt>
      <trkpt lat="46.496173990890384" lon="9.331505997106433">
        <ele>2025.2</ele>
        <time>2007-06-09T10:23:08Z</time>
      </trkpt>
      <trkpt lat="46.49633601307869" lon="9.331411030143499">
        <ele>2026.0999999999999</ele>
        <time>2007-06-09T10:23:18Z</time>
      </trkpt>
      <trkpt lat="46.496440032497048" lon="9.331284966319799">
        <ele>2028</ele>
        <time>2007-06-09T10:23:26Z</time>
      </trkpt>
      <trkpt lat="46.496588978916407" lon="9.331127973273397">
        <ele>2030</ele>
        <time>2007-06-09T10:23:37Z</time>
      </trkpt>
      <trkpt lat="46.49665703997016" lon="9.331054966896772">
        <ele>2031.4000000000001</ele>
        <time>2007-06-09T10:23:43Z</time>
      </trkpt>
      <trkpt lat="46.496747983619571" lon="9.330968968570232">
        <ele>2031.9000000000001</ele>
        <time>2007-06-09T10:23:50Z</time>
      </trkpt>
      <trkpt lat="46.496891984716058" lon="9.330822033807635">
        <ele>2035.2</ele>
        <time>2007-06-09T10:24:01Z</time>
      </trkpt>
      <trkpt lat="46.497059036046267" lon="9.330654982477427">
        <ele>2037.2</ele>
        <time>2007-06-09T10:24:13Z</time>
      </trkpt>
      <trkpt lat="46.497155008837581" lon="9.330564960837364">
        <ele>2038.0999999999999</ele>
        <time>2007-06-09T10:24:20Z</time>
      </trkpt>
      <trkpt lat="46.497277971357107" lon="9.330453984439373">
        <ele>2040.5</ele>
        <time>2007-06-09T10:24:29Z</time>
      </trkpt>
      <trkpt lat="46.497433036565781" lon="9.330364968627691">
        <ele>2042.5</ele>
        <time>2007-06-09T10:24:39Z</time>
      </trkpt>
      <trkpt lat="46.497554993256927" lon="9.33031601831317">
        <ele>2043.9000000000001</ele>
        <time>2007-06-09T10:24:47Z</time>
      </trkpt>
      <trkpt lat="46.497704023495317" lon="9.330258015543222">
        <ele>2044.4000000000001</ele>
        <time>2007-06-09T10:24:56Z</time>
      </trkpt>
      <trkpt lat="46.497864034026861" lon="9.330186014994979">
        <ele>2046.8</ele>
        <time>2007-06-09T10:25:06Z</time>
      </trkpt>
      <trkpt lat="46.497990014031529" lon="9.330132035538554">
        <ele>2048.6999999999998</ele>
        <time>2007-06-09T10:25:14Z</time>
      </trkpt>
      <trkpt lat="46.498006023466587" lon="9.330133041366935">
        <ele>2048.6999999999998</ele>
        <time>2007-06-09T10:25:15Z</time>
      </trkpt>
      <trkpt lat="46.498011974617839" lon="9.330208981409669">
        <ele>2049.6999999999998</ele>
        <time>2007-06-09T10:25:20Z</time>
      </trkpt>
      <trkpt lat="46.497966963797808" lon="9.330233037471771">
        <ele>2050.0999999999999</ele>
        <time>2007-06-09T10:25:23Z</time>
      </trkpt>
      <trkpt lat="46.497808964923024" lon="9.330373015254736">
        <ele>2050.5999999999999</ele>
        <time>2007-06-09T10:25:34Z</time>
      </trkpt>
      <trkpt lat="46.497673010453582" lon="9.330495977774262">
        <ele>2052.0999999999999</ele>
        <time>2007-06-09T10:25:43Z</time>
      </trkpt>
      <trkpt lat="46.497625987976789" lon="9.330604020506144">
        <ele>2054</ele>
        <time>2007-06-09T10:25:48Z</time>
      </trkpt>
      <trkpt lat="46.497707040980458" lon="9.330669986084104">
        <ele>2053.5</ele>
        <time>2007-06-09T10:25:54Z</time>
      </trkpt>
      <trkpt lat="46.497725984081626" lon="9.33066001161933">
        <ele>2054</ele>
        <time>2007-06-09T10:25:55Z</time>
      </trkpt>
      <trkpt lat="46.497879959642887" lon="9.330567978322506">
        <ele>2055</ele>
        <time>2007-06-09T10:26:03Z</time>
      </trkpt>
      <trkpt lat="46.498132003471255" lon="9.330452978610992">
        <ele>2055.9000000000001</ele>
        <time>2007-06-09T10:26:15Z</time>
      </trkpt>
      <trkpt lat="46.498379018157721" lon="9.330364968627691">
        <ele>2057.4000000000001</ele>
        <time>2007-06-09T10:26:26Z</time>
      </trkpt>
      <trkpt lat="46.498654028400779" lon="9.330259021371603">
        <ele>2058.8000000000002</ele>
        <time>2007-06-09T10:26:37Z</time>
      </trkpt>
      <trkpt lat="46.498955022543669" lon="9.330149972811341">
        <ele>2061.1999999999998</ele>
        <time>2007-06-09T10:26:49Z</time>
      </trkpt>
      <trkpt lat="46.499198013916612" lon="9.330076966434717">
        <ele>2062.5999999999999</ele>
        <time>2007-06-09T10:26:59Z</time>
      </trkpt>
      <trkpt lat="46.499447040259838" lon="9.330024998635054">
        <ele>2063.0999999999999</ele>
        <time>2007-06-09T10:27:09Z</time>
      </trkpt>
      <trkpt lat="46.499662036076188" lon="9.329978981986642">
        <ele>2063.5999999999999</ele>
        <time>2007-06-09T10:27:18Z</time>
      </trkpt>
      <trkpt lat="46.499920031055808" lon="9.329926008358598">
        <ele>2065</ele>
        <time>2007-06-09T10:27:28Z</time>
      </trkpt>
      <trkpt lat="46.500190012156963" lon="9.329863982275128">
        <ele>2066.5</ele>
        <time>2007-06-09T10:27:39Z</time>
      </trkpt>
      <trkpt lat="46.500357985496521" lon="9.329797010868788">
        <ele>2068.4000000000001</ele>
        <time>2007-06-09T10:27:46Z</time>
      </trkpt>
      <trkpt lat="46.500572981312871" lon="9.329687040299177">
        <ele>2069.4000000000001</ele>
        <time>2007-06-09T10:27:55Z</time>
      </trkpt>
      <trkpt lat="46.500789988785982" lon="9.329573968425393">
        <ele>2069.9000000000001</ele>
        <time>2007-06-09T10:28:04Z</time>
      </trkpt>
      <trkpt lat="46.501076985150576" lon="9.329428039491177">
        <ele>2072.3000000000002</ele>
        <time>2007-06-09T10:28:16Z</time>
      </trkpt>
      <trkpt lat="46.501317964866757" lon="9.32930700480938">
        <ele>2072.6999999999998</ele>
        <time>2007-06-09T10:28:26Z</time>
      </trkpt>
      <trkpt lat="46.501456014811993" lon="9.32924103923142">
        <ele>2073.6999999999998</ele>
        <time>2007-06-09T10:28:31Z</time>
      </trkpt>
      <trkpt lat="46.501538995653391" lon="9.329186975955963">
        <ele>2073.6999999999998</ele>
        <time>2007-06-09T10:28:36Z</time>
      </trkpt>
      <trkpt lat="46.50164301507175" lon="9.3291350081563">
        <ele>2074.1999999999998</ele>
        <time>2007-06-09T10:28:41Z</time>
      </trkpt>
      <trkpt lat="46.501809982582927" lon="9.329055966809392">
        <ele>2074.1999999999998</ele>
        <time>2007-06-09T10:28:49Z</time>
      </trkpt>
      <trkpt lat="46.501991031691432" lon="9.329046998172998">
        <ele>2075.5999999999999</ele>
        <time>2007-06-09T10:28:57Z</time>
      </trkpt>
      <trkpt lat="46.502089016139507" lon="9.329182030633092">
        <ele>2077.0999999999999</ele>
        <time>2007-06-09T10:29:04Z</time>
      </trkpt>
      <trkpt lat="46.502152970060706" lon="9.329389985650778">
        <ele>2079</ele>
        <time>2007-06-09T10:29:12Z</time>
      </trkpt>
      <trkpt lat="46.502247015014291" lon="9.329670025035739">
        <ele>2082.4000000000001</ele>
        <time>2007-06-09T10:29:23Z</time>
      </trkpt>
      <trkpt lat="46.50235396809876" lon="9.329906981438398">
        <ele>2082.8000000000002</ele>
        <time>2007-06-09T10:29:33Z</time>
      </trkpt>
      <trkpt lat="46.502495035529137" lon="9.330003038048744">
        <ele>2084.8000000000002</ele>
        <time>2007-06-09T10:29:41Z</time>
      </trkpt>
      <trkpt lat="46.502613974735141" lon="9.330004965886474">
        <ele>2085.1999999999998</ele>
        <time>2007-06-09T10:29:48Z</time>
      </trkpt>
      <trkpt lat="46.502646999433637" lon="9.329989040270448">
        <ele>2086.1999999999998</ele>
        <time>2007-06-09T10:29:50Z</time>
      </trkpt>
      <trkpt lat="46.502743978053331" lon="9.329880997538567">
        <ele>2087.5999999999999</ele>
        <time>2007-06-09T10:29:58Z</time>
      </trkpt>
      <trkpt lat="46.50278496555984" lon="9.32980002835393">
        <ele>2087.5999999999999</ele>
        <time>2007-06-09T10:30:03Z</time>
      </trkpt>
      <trkpt lat="46.502908011898398" lon="9.329740013927221">
        <ele>2090</ele>
        <time>2007-06-09T10:30:11Z</time>
      </trkpt>
      <trkpt lat="46.502940030768514" lon="9.329747976735234">
        <ele>2091.5</ele>
        <time>2007-06-09T10:30:13Z</time>
      </trkpt>
      <trkpt lat="46.503074979409575" lon="9.329863982275128">
        <ele>2092.4000000000001</ele>
        <time>2007-06-09T10:30:22Z</time>
      </trkpt>
      <trkpt lat="46.503199031576514" lon="9.33001896366477">
        <ele>2093.9000000000001</ele>
        <time>2007-06-09T10:30:32Z</time>
      </trkpt>
      <trkpt lat="46.503306990489364" lon="9.330193977802992">
        <ele>2095.3000000000002</ele>
        <time>2007-06-09T10:30:42Z</time>
      </trkpt>
      <trkpt lat="46.503385026007891" lon="9.330313000828028">
        <ele>2095.8000000000002</ele>
        <time>2007-06-09T10:30:49Z</time>
      </trkpt>
      <trkpt lat="46.503508994355798" lon="9.330463958904147">
        <ele>2097.3000000000002</ele>
        <time>2007-06-09T10:30:59Z</time>
      </trkpt>
      <trkpt lat="46.50362198241055" lon="9.330601003021002">
        <ele>2099.6999999999998</ele>
        <time>2007-06-09T10:31:08Z</time>
      </trkpt>
      <trkpt lat="46.503743017092347" lon="9.33072597719729">
        <ele>2101.5999999999999</ele>
        <time>2007-06-09T10:31:17Z</time>
      </trkpt>
      <trkpt lat="46.503886012360454" lon="9.330789009109139">
        <ele>2103.5</ele>
        <time>2007-06-09T10:31:26Z</time>
      </trkpt>
      <trkpt lat="46.504044011235237" lon="9.330794038251042">
        <ele>2104.5</ele>
        <time>2007-06-09T10:31:35Z</time>
      </trkpt>
      <trkpt lat="46.504238974303007" lon="9.330713991075754">
        <ele>2106.9000000000001</ele>
        <time>2007-06-09T10:31:46Z</time>
      </trkpt>
      <trkpt lat="46.504426980391145" lon="9.330622041597962">
        <ele>2107.3000000000002</ele>
        <time>2007-06-09T10:31:57Z</time>
      </trkpt>
      <trkpt lat="46.504584979265928" lon="9.330538976937532">
        <ele>2107.8000000000002</ele>
        <time>2007-06-09T10:32:06Z</time>
      </trkpt>
      <trkpt lat="46.504733003675938" lon="9.330479968339205">
        <ele>2109.8000000000002</ele>
        <time>2007-06-09T10:32:15Z</time>
      </trkpt>
      <trkpt lat="46.504897959530354" lon="9.330486003309488">
        <ele>2109.8000000000002</ele>
        <time>2007-06-09T10:32:25Z</time>
      </trkpt>
      <trkpt lat="46.505051013082266" lon="9.330498995259404">
        <ele>2110.6999999999998</ele>
        <time>2007-06-09T10:32:34Z</time>
      </trkpt>
      <trkpt lat="46.505054030567408" lon="9.330497989431024">
        <ele>2111.1999999999998</ele>
        <time>2007-06-09T10:32:40Z</time>
      </trkpt>
      <trkpt lat="46.505041960626841" lon="9.330497989431024">
        <ele>2111.1999999999998</ele>
        <time>2007-06-09T10:32:51Z</time>
      </trkpt>
      <trkpt lat="46.50503802113235" lon="9.330492038279772">
        <ele>2112.1999999999998</ele>
        <time>2007-06-09T10:33:00Z</time>
      </trkpt>
      <trkpt lat="46.505042966455221" lon="9.330492960289121">
        <ele>2111.6999999999998</ele>
        <time>2007-06-09T10:33:13Z</time>
      </trkpt>
      <trkpt lat="46.505056964233518" lon="9.330469993874431">
        <ele>2112.5999999999999</ele>
        <time>2007-06-09T10:34:11Z</time>
      </trkpt>
      <trkpt lat="46.505064005032182" lon="9.330469993874431">
        <ele>2112.1999999999998</ele>
        <time>2007-06-09T10:34:32Z</time>
      </trkpt>
      <trkpt lat="46.50506098754704" lon="9.330462031066418">
        <ele>2111.6999999999998</ele>
        <time>2007-06-09T10:34:48Z</time>
      </trkpt>
      <trkpt lat="46.505054030567408" lon="9.330443004146218">
        <ele>2112.1999999999998</ele>
        <time>2007-06-09T10:35:54Z</time>
      </trkpt>
      <trkpt lat="46.505055958405137" lon="9.33046798221767">
        <ele>2112.5999999999999</ele>
        <time>2007-06-09T10:37:05Z</time>
      </trkpt>
      <trkpt lat="46.505054030567408" lon="9.330466976389289">
        <ele>2112.1999999999998</ele>
        <time>2007-06-09T10:37:24Z</time>
      </trkpt>
      <trkpt lat="46.50503802113235" lon="9.330484997481108">
        <ele>2111.6999999999998</ele>
        <time>2007-06-09T10:37:51Z</time>
      </trkpt>
      <trkpt lat="46.505013965070248" lon="9.330465970560908">
        <ele>2111.1999999999998</ele>
        <time>2007-06-09T10:39:52Z</time>
      </trkpt>
      <trkpt lat="46.505041038617492" lon="9.330430012196302">
        <ele>2114.0999999999999</ele>
        <time>2007-06-09T10:41:24Z</time>
      </trkpt>
      <trkpt lat="46.505036009475589" lon="9.330461025238037">
        <ele>2115.5</ele>
        <time>2007-06-09T10:44:32Z</time>
      </trkpt>
      <trkpt lat="46.505031986162066" lon="9.330449961125851">
        <ele>2116</ele>
        <time>2007-06-09T10:44:48Z</time>
      </trkpt>
      <trkpt lat="46.505041960626841" lon="9.330469993874431">
        <ele>2115</ele>
        <time>2007-06-09T10:45:25Z</time>
      </trkpt>
      <trkpt lat="46.505028968676925" lon="9.330484997481108">
        <ele>2113.5999999999999</ele>
        <time>2007-06-09T10:46:07Z</time>
      </trkpt>
      <trkpt lat="46.505022011697292" lon="9.330452978610992">
        <ele>2114.0999999999999</ele>
        <time>2007-06-09T10:46:09Z</time>
      </trkpt>
      <trkpt lat="46.505070040002465" lon="9.330431018024683">
        <ele>2114.0999999999999</ele>
        <time>2007-06-09T10:46:13Z</time>
      </trkpt>
      <trkpt lat="46.505122007802129" lon="9.330429006367922">
        <ele>2114.0999999999999</ele>
        <time>2007-06-09T10:46:16Z</time>
      </trkpt>
      <trkpt lat="46.505222003906965" lon="9.330419031903148">
        <ele>2115</ele>
        <time>2007-06-09T10:46:23Z</time>
      </trkpt>
      <trkpt lat="46.505316970869899" lon="9.330419031903148">
        <ele>2115.5</ele>
        <time>2007-06-09T10:46:30Z</time>
      </trkpt>
      <trkpt lat="46.50546801276505" lon="9.330428000539541">
        <ele>2116.5</ele>
        <time>2007-06-09T10:46:38Z</time>
      </trkpt>
      <trkpt lat="46.505627017468214" lon="9.330419031903148">
        <ele>2116.5</ele>
        <time>2007-06-09T10:46:46Z</time>
      </trkpt>
      <trkpt lat="46.505676973611116" lon="9.330407967790961">
        <ele>2116</ele>
        <time>2007-06-09T10:46:50Z</time>
      </trkpt>
      <trkpt lat="46.505679991096258" lon="9.330406039953232">
        <ele>2116.5</ele>
        <time>2007-06-09T10:46:56Z</time>
      </trkpt>
      <trkpt lat="46.505743023008108" lon="9.330454990267754">
        <ele>2116.5</ele>
        <time>2007-06-09T10:47:01Z</time>
      </trkpt>
      <trkpt lat="46.505761966109276" lon="9.33048801496625">
        <ele>2116</ele>
        <time>2007-06-09T10:47:05Z</time>
      </trkpt>
      <trkpt lat="46.505832960829139" lon="9.330579964444041">
        <ele>2117</ele>
        <time>2007-06-09T10:47:12Z</time>
      </trkpt>
      <trkpt lat="46.505864979699254" lon="9.330678032711148">
        <ele>2118.4000000000001</ele>
        <time>2007-06-09T10:47:18Z</time>
      </trkpt>
      <trkpt lat="46.505908984690905" lon="9.330751039087772">
        <ele>2119.4000000000001</ele>
        <time>2007-06-09T10:47:22Z</time>
      </trkpt>
      <trkpt lat="46.505924994125962" lon="9.330882970243692">
        <ele>2119.8000000000002</ele>
        <time>2007-06-09T10:47:30Z</time>
      </trkpt>
      <trkpt lat="46.505908984690905" lon="9.331001993268728">
        <ele>2121.3000000000002</ele>
        <time>2007-06-09T10:47:37Z</time>
      </trkpt>
      <trkpt lat="46.505892975255847" lon="9.331109030172229">
        <ele>2122.1999999999998</ele>
        <time>2007-06-09T10:47:44Z</time>
      </trkpt>
      <trkpt lat="46.505852993577719" lon="9.331211959943175">
        <ele>2122.1999999999998</ele>
        <time>2007-06-09T10:47:51Z</time>
      </trkpt>
      <trkpt lat="46.505814017727971" lon="9.331313967704773">
        <ele>2121.3000000000002</ele>
        <time>2007-06-09T10:47:56Z</time>
      </trkpt>
      <trkpt lat="46.50579197332263" lon="9.331501973792911">
        <ele>2121.8000000000002</ele>
        <time>2007-06-09T10:48:03Z</time>
      </trkpt>
      <trkpt lat="46.505768001079559" lon="9.33156399987638">
        <ele>2121.8000000000002</ele>
        <time>2007-06-09T10:48:06Z</time>
      </trkpt>
      <trkpt lat="46.505717039108276" lon="9.331583026796579">
        <ele>2120.8000000000002</ele>
        <time>2007-06-09T10:48:10Z</time>
      </trkpt>
      <trkpt lat="46.505646966397762" lon="9.331588977947831">
        <ele>2120.8000000000002</ele>
        <time>2007-06-09T10:48:15Z</time>
      </trkpt>
      <trkpt lat="46.505529033020139" lon="9.331630971282721">
        <ele>2121.3000000000002</ele>
        <time>2007-06-09T10:48:23Z</time>
      </trkpt>
      <trkpt lat="46.505413027480245" lon="9.331687968224287">
        <ele>2120.8000000000002</ele>
        <time>2007-06-09T10:48:30Z</time>
      </trkpt>
      <trkpt lat="46.505308002233505" lon="9.331685034558177">
        <ele>2120.8000000000002</ele>
        <time>2007-06-09T10:48:36Z</time>
      </trkpt>
      <trkpt lat="46.50521001778543" lon="9.33162996545434">
        <ele>2120.8000000000002</ele>
        <time>2007-06-09T10:48:43Z</time>
      </trkpt>
      <trkpt lat="46.505188979208469" lon="9.33162703178823">
        <ele>2121.8000000000002</ele>
        <time>2007-06-09T10:48:45Z</time>
      </trkpt>
      <trkpt lat="46.505137011408806" lon="9.331622002646327">
        <ele>2120.8000000000002</ele>
        <time>2007-06-09T10:48:52Z</time>
      </trkpt>
      <trkpt lat="46.505137011408806" lon="9.331608004868031">
        <ele>2120.8000000000002</ele>
        <time>2007-06-09T10:49:02Z</time>
      </trkpt>
      <trkpt lat="46.505148997530341" lon="9.331593001261354">
        <ele>2121.3000000000002</ele>
        <time>2007-06-09T10:49:10Z</time>
      </trkpt>
      <trkpt lat="46.505154026672244" lon="9.331587972119451">
        <ele>2120.8000000000002</ele>
        <time>2007-06-09T10:49:33Z</time>
      </trkpt>
      <trkpt lat="46.505154026672244" lon="9.331590989604592">
        <ele>2121.3000000000002</ele>
        <time>2007-06-09T10:49:44Z</time>
      </trkpt>
      <trkpt lat="46.505148997530341" lon="9.331595012918115">
        <ele>2120.8000000000002</ele>
        <time>2007-06-09T10:49:59Z</time>
      </trkpt>
      <trkpt lat="46.505148997530341" lon="9.331595012918115">
        <ele>2121.8000000000002</ele>
        <time>2007-06-09T10:50:15Z</time>
      </trkpt>
      <trkpt lat="46.505148997530341" lon="9.331593001261354">
        <ele>2121.3000000000002</ele>
        <time>2007-06-09T10:51:04Z</time>
      </trkpt>
      <trkpt lat="46.505153020843863" lon="9.331594007089734">
        <ele>2121.8000000000002</ele>
        <time>2007-06-09T10:51:14Z</time>
      </trkpt>
      <trkpt lat="46.505157966166735" lon="9.331588977947831">
        <ele>2122.1999999999998</ele>
        <time>2007-06-09T10:51:27Z</time>
      </trkpt>
      <trkpt lat="46.505134999752045" lon="9.331603981554508">
        <ele>2121.3000000000002</ele>
        <time>2007-06-09T10:52:38Z</time>
      </trkpt>
      <trkpt lat="46.505043972283602" lon="9.331669025123119">
        <ele>2121.3000000000002</ele>
        <time>2007-06-09T10:52:43Z</time>
      </trkpt>
      <trkpt lat="46.504781031981111" lon="9.33175602927804">
        <ele>2117</ele>
        <time>2007-06-09T10:52:48Z</time>
      </trkpt>
      <trkpt lat="46.504652034491301" lon="9.331846972927451">
        <ele>2115.5</ele>
        <time>2007-06-09T10:52:50Z</time>
      </trkpt>
      <trkpt lat="46.50443603284657" lon="9.331947974860668">
        <ele>2112.5999999999999</ele>
        <time>2007-06-09T10:52:53Z</time>
      </trkpt>
      <trkpt lat="46.504355985671282" lon="9.331956021487713">
        <ele>2112.1999999999998</ele>
        <time>2007-06-09T10:52:54Z</time>
      </trkpt>
      <trkpt lat="46.504205027595162" lon="9.331988962367177">
        <ele>2110.6999999999998</ele>
        <time>2007-06-09T10:52:56Z</time>
      </trkpt>
      <trkpt lat="46.504131015390158" lon="9.332000026479363">
        <ele>2110.6999999999998</ele>
        <time>2007-06-09T10:52:57Z</time>
      </trkpt>
      <trkpt lat="46.503803031519055" lon="9.33188502676785">
        <ele>2106.9000000000001</ele>
        <time>2007-06-09T10:53:02Z</time>
      </trkpt>
      <trkpt lat="46.503478987142444" lon="9.331776984035969">
        <ele>2102.5</ele>
        <time>2007-06-09T10:53:07Z</time>
      </trkpt>
      <trkpt lat="46.503346972167492" lon="9.331770027056336">
        <ele>2101.5999999999999</ele>
        <time>2007-06-09T10:53:09Z</time>
      </trkpt>
      <trkpt lat="46.503053018823266" lon="9.331748988479376">
        <ele>2098.1999999999998</ele>
        <time>2007-06-09T10:53:14Z</time>
      </trkpt>
      <trkpt lat="46.50299996137619" lon="9.331742031499744">
        <ele>2095.8000000000002</ele>
        <time>2007-06-09T10:53:15Z</time>
      </trkpt>
      <trkpt lat="46.502744983881712" lon="9.331742031499744">
        <ele>2090.5</ele>
        <time>2007-06-09T10:53:19Z</time>
      </trkpt>
      <trkpt lat="46.50261296890676" lon="9.331729039549828">
        <ele>2088.5999999999999</ele>
        <time>2007-06-09T10:53:23Z</time>
      </trkpt>
      <trkpt lat="46.502563012763858" lon="9.331712024286389">
        <ele>2088.5999999999999</ele>
        <time>2007-06-09T10:53:26Z</time>
      </trkpt>
      <trkpt lat="46.502470979467034" lon="9.331684028729796">
        <ele>2087.1999999999998</ele>
        <time>2007-06-09T10:53:32Z</time>
      </trkpt>
      <trkpt lat="46.502422029152513" lon="9.331677993759513">
        <ele>2086.6999999999998</ele>
        <time>2007-06-09T10:53:36Z</time>
      </trkpt>
      <trkpt lat="46.502298982813954" lon="9.331594007089734">
        <ele>2085.6999999999998</ele>
        <time>2007-06-09T10:53:40Z</time>
      </trkpt>
      <trkpt lat="46.502152970060706" lon="9.331517983227968">
        <ele>2082.4000000000001</ele>
        <time>2007-06-09T10:53:44Z</time>
      </trkpt>
      <trkpt lat="46.502067977562547" lon="9.331471966579557">
        <ele>2081.9000000000001</ele>
        <time>2007-06-09T10:53:46Z</time>
      </trkpt>
      <trkpt lat="46.501925988122821" lon="9.331384040415287">
        <ele>2080.9000000000001</ele>
        <time>2007-06-09T10:53:49Z</time>
      </trkpt>
      <trkpt lat="46.501783998683095" lon="9.331310028210282">
        <ele>2079.5</ele>
        <time>2007-06-09T10:53:52Z</time>
      </trkpt>
      <trkpt lat="46.50147101841867" lon="9.331047004088759">
        <ele>2075.0999999999999</ele>
        <time>2007-06-09T10:53:58Z</time>
      </trkpt>
      <trkpt lat="46.50138602592051" lon="9.330963017418981">
        <ele>2073.6999999999998</ele>
        <time>2007-06-09T10:54:02Z</time>
      </trkpt>
      <trkpt lat="46.50127999484539" lon="9.330891016870737">
        <ele>2072.3000000000002</ele>
        <time>2007-06-09T10:54:08Z</time>
      </trkpt>
      <trkpt lat="46.501156026497483" lon="9.33081197552383">
        <ele>2071.3000000000002</ele>
        <time>2007-06-09T10:54:13Z</time>
      </trkpt>
      <trkpt lat="46.501147979870439" lon="9.330803006887436">
        <ele>2070.8000000000002</ele>
        <time>2007-06-09T10:54:16Z</time>
      </trkpt>
      <trkpt lat="46.501125013455749" lon="9.330779034644365">
        <ele>2070.3000000000002</ele>
        <time>2007-06-09T10:54:22Z</time>
      </trkpt>
      <trkpt lat="46.50106499902904" lon="9.330754978582263">
        <ele>2070.3000000000002</ele>
        <time>2007-06-09T10:54:28Z</time>
      </trkpt>
      <trkpt lat="46.501010013744235" lon="9.330738969147205">
        <ele>2070.8000000000002</ele>
        <time>2007-06-09T10:54:34Z</time>
      </trkpt>
      <trkpt lat="46.5009980276227" lon="9.330727988854051">
        <ele>2070.3000000000002</ele>
        <time>2007-06-09T10:54:36Z</time>
      </trkpt>
      <trkpt lat="46.500908005982637" lon="9.330703010782599">
        <ele>2071.3000000000002</ele>
        <time>2007-06-09T10:54:43Z</time>
      </trkpt>
      <trkpt lat="46.500822007656097" lon="9.330708039924502">
        <ele>2071.3000000000002</ele>
        <time>2007-06-09T10:54:51Z</time>
      </trkpt>
      <trkpt lat="46.500795017927885" lon="9.330689013004303">
        <ele>2071.8000000000002</ele>
        <time>2007-06-09T10:54:56Z</time>
      </trkpt>
      <trkpt lat="46.500771967694163" lon="9.330638973042369">
        <ele>2071.8000000000002</ele>
        <time>2007-06-09T10:55:03Z</time>
      </trkpt>
      <trkpt lat="46.500737015157938" lon="9.330582981929183">
        <ele>2070.8000000000002</ele>
        <time>2007-06-09T10:55:09Z</time>
      </trkpt>
      <trkpt lat="46.500675994902849" lon="9.330550041049719">
        <ele>2072.3000000000002</ele>
        <time>2007-06-09T10:55:15Z</time>
      </trkpt>
      <trkpt lat="46.500669959932566" lon="9.330552974715829">
        <ele>2072.3000000000002</ele>
        <time>2007-06-09T10:55:22Z</time>
      </trkpt>
      <trkpt lat="46.500660991296172" lon="9.330578036606312">
        <ele>2073.1999999999998</ele>
        <time>2007-06-09T10:56:19Z</time>
      </trkpt>
      <trkpt lat="46.50065797381103" lon="9.330578958615661">
        <ele>2073.6999999999998</ele>
        <time>2007-06-09T10:56:40Z</time>
      </trkpt>
      <trkpt lat="46.500655962154269" lon="9.330589016899467">
        <ele>2071.8000000000002</ele>
        <time>2007-06-09T10:56:48Z</time>
      </trkpt>
      <trkpt lat="46.500698961317539" lon="9.330560015514493">
        <ele>2074.6999999999998</ele>
        <time>2007-06-09T10:58:20Z</time>
      </trkpt>
      <trkpt lat="46.500679012387991" lon="9.330535037443042">
        <ele>2073.6999999999998</ele>
        <time>2007-06-09T11:00:44Z</time>
      </trkpt>
      <trkpt lat="46.500671971589327" lon="9.330522967502475">
        <ele>2073.1999999999998</ele>
        <time>2007-06-09T11:01:05Z</time>
      </trkpt>
      <trkpt lat="46.500665014609694" lon="9.33051198720932">
        <ele>2073.6999999999998</ele>
        <time>2007-06-09T11:01:07Z</time>
      </trkpt>
      <trkpt lat="46.500555966049433" lon="9.330414002761245">
        <ele>2073.1999999999998</ele>
        <time>2007-06-09T11:01:14Z</time>
      </trkpt>
      <trkpt lat="46.50043903850019" lon="9.330363962799311">
        <ele>2074.1999999999998</ele>
        <time>2007-06-09T11:01:20Z</time>
      </trkpt>
      <trkpt lat="46.500304006040096" lon="9.330305038020015">
        <ele>2074.6999999999998</ele>
        <time>2007-06-09T11:01:26Z</time>
      </trkpt>
      <trkpt lat="46.500135026872158" lon="9.330293973907828">
        <ele>2075.0999999999999</ele>
        <time>2007-06-09T11:01:33Z</time>
      </trkpt>
      <trkpt lat="46.499950960278511" lon="9.330291040241718">
        <ele>2074.1999999999998</ele>
        <time>2007-06-09T11:01:40Z</time>
      </trkpt>
      <trkpt lat="46.499777035787702" lon="9.330276036635041">
        <ele>2073.6999999999998</ele>
        <time>2007-06-09T11:01:47Z</time>
      </trkpt>
      <trkpt lat="46.49960202164948" lon="9.330263966694474">
        <ele>2073.1999999999998</ele>
        <time>2007-06-09T11:01:55Z</time>
      </trkpt>
      <trkpt lat="46.499578971415758" lon="9.330248041078448">
        <ele>2073.1999999999998</ele>
        <time>2007-06-09T11:02:00Z</time>
      </trkpt>
      <trkpt lat="46.499588023871183" lon="9.33025298640132">
        <ele>2072.6999999999998</ele>
        <time>2007-06-09T11:02:12Z</time>
      </trkpt>
      <trkpt lat="46.499504959210753" lon="9.330236976966262">
        <ele>2072.6999999999998</ele>
        <time>2007-06-09T11:02:17Z</time>
      </trkpt>
      <trkpt lat="46.499331034719944" lon="9.330224990844727">
        <ele>2072.6999999999998</ele>
        <time>2007-06-09T11:02:24Z</time>
      </trkpt>
      <trkpt lat="46.499244030565023" lon="9.330194983631373">
        <ele>2071.3000000000002</ele>
        <time>2007-06-09T11:02:28Z</time>
      </trkpt>
      <trkpt lat="46.499223997816443" lon="9.330159025266767">
        <ele>2071.8000000000002</ele>
        <time>2007-06-09T11:02:32Z</time>
      </trkpt>
      <trkpt lat="46.499223997816443" lon="9.330160031095147">
        <ele>2071.8000000000002</ele>
        <time>2007-06-09T11:02:33Z</time>
      </trkpt>
      <trkpt lat="46.499210000038147" lon="9.33023001998663">
        <ele>2072.6999999999998</ele>
        <time>2007-06-09T11:02:39Z</time>
      </trkpt>
      <trkpt lat="46.499235983937979" lon="9.33023102581501">
        <ele>2072.6999999999998</ele>
        <time>2007-06-09T11:02:43Z</time>
      </trkpt>
      <trkpt lat="46.49921603500843" lon="9.330202024430037">
        <ele>2071.3000000000002</ele>
        <time>2007-06-09T11:02:45Z</time>
      </trkpt>
      <trkpt lat="46.499201031401753" lon="9.330131029710174">
        <ele>2070.8000000000002</ele>
        <time>2007-06-09T11:02:48Z</time>
      </trkpt>
      <trkpt lat="46.499202037230134" lon="9.330012006685138">
        <ele>2069.9000000000001</ele>
        <time>2007-06-09T11:02:52Z</time>
      </trkpt>
      <trkpt lat="46.499268002808094" lon="9.329862976446748">
        <ele>2070.3000000000002</ele>
        <time>2007-06-09T11:02:57Z</time>
      </trkpt>
      <trkpt lat="46.499262973666191" lon="9.32971796952188">
        <ele>2070.8000000000002</ele>
        <time>2007-06-09T11:03:03Z</time>
      </trkpt>
      <trkpt lat="46.499236989766359" lon="9.329623002558947">
        <ele>2071.3000000000002</ele>
        <time>2007-06-09T11:03:09Z</time>
      </trkpt>
      <trkpt lat="46.49923799559474" lon="9.329633982852101">
        <ele>2071.3000000000002</ele>
        <time>2007-06-09T11:03:31Z</time>
      </trkpt>
      <trkpt lat="46.499240007251501" lon="9.329624008387327">
        <ele>2071.8000000000002</ele>
        <time>2007-06-09T11:03:45Z</time>
      </trkpt>
      <trkpt lat="46.499249981716275" lon="9.32960799895227">
        <ele>2071.3000000000002</ele>
        <time>2007-06-09T11:03:48Z</time>
      </trkpt>
      <trkpt lat="46.499275965616107" lon="9.329498028382659">
        <ele>2070.3000000000002</ele>
        <time>2007-06-09T11:03:54Z</time>
      </trkpt>
      <trkpt lat="46.4992590341717" lon="9.329353021457791">
        <ele>2069.9000000000001</ele>
        <time>2007-06-09T11:04:00Z</time>
      </trkpt>
      <trkpt lat="46.499229026958346" lon="9.329245984554291">
        <ele>2068.9000000000001</ele>
        <time>2007-06-09T11:04:05Z</time>
      </trkpt>
      <trkpt lat="46.49921603500843" lon="9.329129979014397">
        <ele>2067.9000000000001</ele>
        <time>2007-06-09T11:04:09Z</time>
      </trkpt>
      <trkpt lat="46.499221986159682" lon="9.329039035364986">
        <ele>2067.9000000000001</ele>
        <time>2007-06-09T11:04:13Z</time>
      </trkpt>
      <trkpt lat="46.499240007251501" lon="9.328897967934609">
        <ele>2066.5</ele>
        <time>2007-06-09T11:04:17Z</time>
      </trkpt>
      <trkpt lat="46.499266996979713" lon="9.328726977109909">
        <ele>2066</ele>
        <time>2007-06-09T11:04:23Z</time>
      </trkpt>
      <trkpt lat="46.499287029728293" lon="9.328694036230445">
        <ele>2067</ele>
        <time>2007-06-09T11:04:26Z</time>
      </trkpt>
      <trkpt lat="46.499266996979713" lon="9.328667968511581">
        <ele>2066.5</ele>
        <time>2007-06-09T11:04:31Z</time>
      </trkpt>
      <trkpt lat="46.499260040000081" lon="9.328650031238794">
        <ele>2066</ele>
        <time>2007-06-09T11:04:36Z</time>
      </trkpt>
      <trkpt lat="46.499257022514939" lon="9.328645002096891">
        <ele>2065.5</ele>
        <time>2007-06-09T11:04:41Z</time>
      </trkpt>
      <trkpt lat="46.499273031949997" lon="9.328625975176692">
        <ele>2067.9000000000001</ele>
        <time>2007-06-09T11:11:46Z</time>
      </trkpt>
      <trkpt lat="46.499248975887895" lon="9.328607032075524">
        <ele>2069.4000000000001</ele>
        <time>2007-06-09T11:15:18Z</time>
      </trkpt>
      <trkpt lat="46.499304967001081" lon="9.328604014590383">
        <ele>2068.4000000000001</ele>
        <time>2007-06-09T11:19:34Z</time>
      </trkpt>
      <trkpt lat="46.499294992536306" lon="9.328637039288878">
        <ele>2068.9000000000001</ele>
        <time>2007-06-09T11:19:50Z</time>
      </trkpt>
      <trkpt lat="46.499286023899913" lon="9.328666040673852">
        <ele>2068.4000000000001</ele>
        <time>2007-06-09T11:19:55Z</time>
      </trkpt>
      <trkpt lat="46.499256016686559" lon="9.328677020967007">
        <ele>2069.4000000000001</ele>
        <time>2007-06-09T11:20:00Z</time>
      </trkpt>
      <trkpt lat="46.49923799559474" lon="9.328680960461497">
        <ele>2069.9000000000001</ele>
        <time>2007-06-09T11:20:10Z</time>
      </trkpt>
      <trkpt lat="46.499241013079882" lon="9.328698981553316">
        <ele>2069.4000000000001</ele>
        <time>2007-06-09T11:20:30Z</time>
      </trkpt>
      <trkpt lat="46.499214023351669" lon="9.328683977946639">
        <ele>2068.9000000000001</ele>
        <time>2007-06-09T11:20:38Z</time>
      </trkpt>
      <trkpt lat="46.499205976724625" lon="9.328686995431781">
        <ele>2068.9000000000001</ele>
        <time>2007-06-09T11:20:44Z</time>
      </trkpt>
      <trkpt lat="46.499159038066864" lon="9.328725971281529">
        <ele>2069.4000000000001</ele>
        <time>2007-06-09T11:20:52Z</time>
      </trkpt>
      <trkpt lat="46.499153003096581" lon="9.32872798293829">
        <ele>2069.4000000000001</ele>
        <time>2007-06-09T11:20:53Z</time>
      </trkpt>
      <trkpt lat="46.499076979234815" lon="9.328760001808405">
        <ele>2067.9000000000001</ele>
        <time>2007-06-09T11:20:59Z</time>
      </trkpt>
      <trkpt lat="46.499059963971376" lon="9.328763019293547">
        <ele>2067.9000000000001</ele>
        <time>2007-06-09T11:21:00Z</time>
      </trkpt>
      <trkpt lat="46.498943036422133" lon="9.328761007636786">
        <ele>2068.4000000000001</ele>
        <time>2007-06-09T11:21:06Z</time>
      </trkpt>
      <trkpt lat="46.498877992853522" lon="9.32879202067852">
        <ele>2067.9000000000001</ele>
        <time>2007-06-09T11:21:09Z</time>
      </trkpt>
      <trkpt lat="46.498803980648518" lon="9.328907020390034">
        <ele>2066</ele>
        <time>2007-06-09T11:21:13Z</time>
      </trkpt>
      <trkpt lat="46.498641958460212" lon="9.329066025093198">
        <ele>2065.5</ele>
        <time>2007-06-09T11:21:20Z</time>
      </trkpt>
      <trkpt lat="46.498528970405459" lon="9.329144982621074">
        <ele>2066</ele>
        <time>2007-06-09T11:21:25Z</time>
      </trkpt>
      <trkpt lat="46.498426962643862" lon="9.329207008704543">
        <ele>2065.5</ele>
        <time>2007-06-09T11:21:30Z</time>
      </trkpt>
      <trkpt lat="46.498399972915649" lon="9.329220000654459">
        <ele>2065.5</ele>
        <time>2007-06-09T11:21:34Z</time>
      </trkpt>
      <trkpt lat="46.498336018994451" lon="9.329282026737928">
        <ele>2064.5999999999999</ele>
        <time>2007-06-09T11:21:38Z</time>
      </trkpt>
      <trkpt lat="46.498181959614158" lon="9.329353021457791">
        <ele>2063.0999999999999</ele>
        <time>2007-06-09T11:21:43Z</time>
      </trkpt>
      <trkpt lat="46.498104007914662" lon="9.329348998144269">
        <ele>2061.6999999999998</ele>
        <time>2007-06-09T11:21:45Z</time>
      </trkpt>
      <trkpt lat="46.497887000441551" lon="9.329374982044101">
        <ele>2060.6999999999998</ele>
        <time>2007-06-09T11:21:51Z</time>
      </trkpt>
      <trkpt lat="46.497746016830206" lon="9.329260988160968">
        <ele>2058.8000000000002</ele>
        <time>2007-06-09T11:21:56Z</time>
      </trkpt>
      <trkpt lat="46.497588017955422" lon="9.329242967069149">
        <ele>2056.9000000000001</ele>
        <time>2007-06-09T11:22:00Z</time>
      </trkpt>
      <trkpt lat="46.4974320307374" lon="9.329285966232419">
        <ele>2054.5</ele>
        <time>2007-06-09T11:22:04Z</time>
      </trkpt>
      <trkpt lat="46.497388025745749" lon="9.329281020909548">
        <ele>2053.5</ele>
        <time>2007-06-09T11:22:08Z</time>
      </trkpt>
      <trkpt lat="46.49736899882555" lon="9.329269034788013">
        <ele>2052.5999999999999</ele>
        <time>2007-06-09T11:22:13Z</time>
      </trkpt>
      <trkpt lat="46.497334968298674" lon="9.329247996211052">
        <ele>2052.0999999999999</ele>
        <time>2007-06-09T11:22:18Z</time>
      </trkpt>
      <trkpt lat="46.497314013540745" lon="9.329240033403039">
        <ele>2052.0999999999999</ele>
        <time>2007-06-09T11:22:23Z</time>
      </trkpt>
      <trkpt lat="46.497233966365457" lon="9.329255959019065">
        <ele>2050.0999999999999</ele>
        <time>2007-06-09T11:22:29Z</time>
      </trkpt>
      <trkpt lat="46.497163977473974" lon="9.329270040616393">
        <ele>2049.1999999999998</ele>
        <time>2007-06-09T11:22:34Z</time>
      </trkpt>
      <trkpt lat="46.497108992189169" lon="9.329252019524574">
        <ele>2048.6999999999998</ele>
        <time>2007-06-09T11:22:39Z</time>
      </trkpt>
      <trkpt lat="46.497072027996182" lon="9.32924497872591">
        <ele>2048.1999999999998</ele>
        <time>2007-06-09T11:22:41Z</time>
      </trkpt>
      <trkpt lat="46.496953004971147" lon="9.329255959019065">
        <ele>2045.8</ele>
        <time>2007-06-09T11:22:45Z</time>
      </trkpt>
      <trkpt lat="46.496843034401536" lon="9.329245984554291">
        <ele>2044.4000000000001</ele>
        <time>2007-06-09T11:22:48Z</time>
      </trkpt>
      <trkpt lat="46.496690986678004" lon="9.329232992604375">
        <ele>2040.5</ele>
        <time>2007-06-09T11:22:52Z</time>
      </trkpt>
      <trkpt lat="46.49661798030138" lon="9.329236010089517">
        <ele>2039.5999999999999</ele>
        <time>2007-06-09T11:22:54Z</time>
      </trkpt>
      <trkpt lat="46.496408013626933" lon="9.32926400564611">
        <ele>2036.7</ele>
        <time>2007-06-09T11:22:59Z</time>
      </trkpt>
      <trkpt lat="46.496322015300393" lon="9.329247996211052">
        <ele>2035.2</ele>
        <time>2007-06-09T11:23:01Z</time>
      </trkpt>
      <trkpt lat="46.496268035843968" lon="9.329239027574658">
        <ele>2035.2</ele>
        <time>2007-06-09T11:23:03Z</time>
      </trkpt>
      <trkpt lat="46.496088998392224" lon="9.32920097373426">
        <ele>2033.8</ele>
        <time>2007-06-09T11:23:09Z</time>
      </trkpt>
      <trkpt lat="46.495960000902414" lon="9.329213965684176">
        <ele>2030.9000000000001</ele>
        <time>2007-06-09T11:23:14Z</time>
      </trkpt>
      <trkpt lat="46.495851036161184" lon="9.32924397289753">
        <ele>2030</ele>
        <time>2007-06-09T11:23:19Z</time>
      </trkpt>
      <trkpt lat="46.495845001190901" lon="9.329245984554291">
        <ele>2029</ele>
        <time>2007-06-09T11:23:23Z</time>
      </trkpt>
      <trkpt lat="46.495824968442321" lon="9.329255037009716">
        <ele>2028.5</ele>
        <time>2007-06-09T11:23:30Z</time>
      </trkpt>
      <trkpt lat="46.495831003412604" lon="9.329256964847446">
        <ele>2028.5</ele>
        <time>2007-06-09T11:23:36Z</time>
      </trkpt>
      <trkpt lat="46.495836032554507" lon="9.329254031181335">
        <ele>2028.5</ele>
        <time>2007-06-09T11:23:42Z</time>
      </trkpt>
      <trkpt lat="46.49586302228272" lon="9.329255959019065">
        <ele>2030</ele>
        <time>2007-06-09T11:23:45Z</time>
      </trkpt>
      <trkpt lat="46.495878025889397" lon="9.32926501147449">
        <ele>2030</ele>
        <time>2007-06-09T11:23:49Z</time>
      </trkpt>
      <trkpt lat="46.495862016454339" lon="9.329332988709211">
        <ele>2027.5999999999999</ele>
        <time>2007-06-09T11:23:54Z</time>
      </trkpt>
      <trkpt lat="46.495822034776211" lon="9.32933097705245">
        <ele>2026.0999999999999</ele>
        <time>2007-06-09T11:23:56Z</time>
      </trkpt>
      <trkpt lat="46.495792027562857" lon="9.329327959567308">
        <ele>2026.0999999999999</ele>
        <time>2007-06-09T11:23:59Z</time>
      </trkpt>
      <trkpt lat="46.495689013972878" lon="9.329259982332587">
        <ele>2022.3</ele>
        <time>2007-06-09T11:24:05Z</time>
      </trkpt>
      <trkpt lat="46.495622964575887" lon="9.329253025352955">
        <ele>2020.3</ele>
        <time>2007-06-09T11:24:08Z</time>
      </trkpt>
      <trkpt lat="46.495544007048011" lon="9.329250007867813">
        <ele>2018.4000000000001</ele>
        <time>2007-06-09T11:24:12Z</time>
      </trkpt>
      <trkpt lat="46.495515005663037" lon="9.329197034239769">
        <ele>2017.5</ele>
        <time>2007-06-09T11:24:16Z</time>
      </trkpt>
      <trkpt lat="46.495496984571218" lon="9.329192005097866">
        <ele>2017</ele>
        <time>2007-06-09T11:24:21Z</time>
      </trkpt>
      <trkpt lat="46.495460020378232" lon="9.329198962077498">
        <ele>2016.5</ele>
        <time>2007-06-09T11:24:27Z</time>
      </trkpt>
      <trkpt lat="46.495423978194594" lon="9.329195022583008">
        <ele>2016.5</ele>
        <time>2007-06-09T11:24:34Z</time>
      </trkpt>
      <trkpt lat="46.495400005951524" lon="9.329208014532924">
        <ele>2016.5</ele>
        <time>2007-06-09T11:24:38Z</time>
      </trkpt>
      <trkpt lat="46.495365975424647" lon="9.329254031181335">
        <ele>2016</ele>
        <time>2007-06-09T11:24:44Z</time>
      </trkpt>
      <trkpt lat="46.495334040373564" lon="9.329285966232419">
        <ele>2015.5</ele>
        <time>2007-06-09T11:24:49Z</time>
      </trkpt>
      <trkpt lat="46.495236977934837" lon="9.329313039779663">
        <ele>2016</ele>
        <time>2007-06-09T11:24:54Z</time>
      </trkpt>
      <trkpt lat="46.495095994323492" lon="9.329303987324238">
        <ele>2015.5</ele>
        <time>2007-06-09T11:25:01Z</time>
      </trkpt>
      <trkpt lat="46.494990969076753" lon="9.329266017302871">
        <ele>2014.0999999999999</ele>
        <time>2007-06-09T11:25:07Z</time>
      </trkpt>
      <trkpt lat="46.494862977415323" lon="9.329246990382671">
        <ele>2013.0999999999999</ele>
        <time>2007-06-09T11:25:13Z</time>
      </trkpt>
      <trkpt lat="46.494744038209319" lon="9.329227041453123">
        <ele>2012.7</ele>
        <time>2007-06-09T11:25:18Z</time>
      </trkpt>
      <trkpt lat="46.494615040719509" lon="9.329249002039433">
        <ele>2012.2</ele>
        <time>2007-06-09T11:25:23Z</time>
      </trkpt>
      <trkpt lat="46.494514960795641" lon="9.329276997596026">
        <ele>2011.2</ele>
        <time>2007-06-09T11:25:26Z</time>
      </trkpt>
      <trkpt lat="46.494328966364264" lon="9.329353021457791">
        <ele>2009.8</ele>
        <time>2007-06-09T11:25:31Z</time>
      </trkpt>
      <trkpt lat="46.494269035756588" lon="9.329360984265804">
        <ele>2010.3</ele>
        <time>2007-06-09T11:25:33Z</time>
      </trkpt>
      <trkpt lat="46.494193011894822" lon="9.329345980659127">
        <ele>2008.8</ele>
        <time>2007-06-09T11:25:36Z</time>
      </trkpt>
      <trkpt lat="46.49408396333456" lon="9.329448994249106">
        <ele>2008.8</ele>
        <time>2007-06-09T11:25:42Z</time>
      </trkpt>
      <trkpt lat="46.493998970836401" lon="9.329409012570977">
        <ele>2007.9000000000001</ele>
        <time>2007-06-09T11:25:46Z</time>
      </trkpt>
      <trkpt lat="46.493982039391994" lon="9.32937003672123">
        <ele>2007.4000000000001</ele>
        <time>2007-06-09T11:25:47Z</time>
      </trkpt>
      <trkpt lat="46.493862010538578" lon="9.329172978177667">
        <ele>2006.4000000000001</ele>
        <time>2007-06-09T11:25:52Z</time>
      </trkpt>
      <trkpt lat="46.493771988898516" lon="9.32909301482141">
        <ele>2005.4000000000001</ele>
        <time>2007-06-09T11:25:56Z</time>
      </trkpt>
      <trkpt lat="46.493636034429073" lon="9.3291350081563">
        <ele>2004</ele>
        <time>2007-06-09T11:26:01Z</time>
      </trkpt>
      <trkpt lat="46.493489015847445" lon="9.329137019813061">
        <ele>2003</ele>
        <time>2007-06-09T11:26:06Z</time>
      </trkpt>
      <trkpt lat="46.493460014462471" lon="9.329132996499538">
        <ele>2003</ele>
        <time>2007-06-09T11:26:07Z</time>
      </trkpt>
      <trkpt lat="46.493323976173997" lon="9.32907197624445">
        <ele>2002.5999999999999</ele>
        <time>2007-06-09T11:26:12Z</time>
      </trkpt>
      <trkpt lat="46.493237977847457" lon="9.329083040356636">
        <ele>2002.0999999999999</ele>
        <time>2007-06-09T11:26:16Z</time>
      </trkpt>
      <trkpt lat="46.493194978684187" lon="9.329082034528256">
        <ele>2002.5999999999999</ele>
        <time>2007-06-09T11:26:18Z</time>
      </trkpt>
      <trkpt lat="46.493108980357647" lon="9.329153029248118">
        <ele>2001.5999999999999</ele>
        <time>2007-06-09T11:26:22Z</time>
      </trkpt>
      <trkpt lat="46.493091965094209" lon="9.329371964558959">
        <ele>2000.5999999999999</ele>
        <time>2007-06-09T11:26:28Z</time>
      </trkpt>
      <trkpt lat="46.493074027821422" lon="9.32947900146246">
        <ele>1998.7</ele>
        <time>2007-06-09T11:26:30Z</time>
      </trkpt>
      <trkpt lat="46.493076039478183" lon="9.329739008098841">
        <ele>1996.8</ele>
        <time>2007-06-09T11:26:34Z</time>
      </trkpt>
      <trkpt lat="46.493107974529266" lon="9.3299949914217">
        <ele>1994.9000000000001</ele>
        <time>2007-06-09T11:26:39Z</time>
      </trkpt>
      <trkpt lat="46.493108980357647" lon="9.32999599725008">
        <ele>1995.4000000000001</ele>
        <time>2007-06-09T11:26:42Z</time>
      </trkpt>
      <trkpt lat="46.49305198341608" lon="9.330089036375284">
        <ele>1992</ele>
        <time>2007-06-09T11:26:46Z</time>
      </trkpt>
      <trkpt lat="46.492866994813085" lon="9.330134969204664">
        <ele>1990.0999999999999</ele>
        <time>2007-06-09T11:26:51Z</time>
      </trkpt>
      <trkpt lat="46.492798011749983" lon="9.330098005011678">
        <ele>1987.7</ele>
        <time>2007-06-09T11:26:53Z</time>
      </trkpt>
      <trkpt lat="46.492614028975368" lon="9.3299759645015">
        <ele>1983.8</ele>
        <time>2007-06-09T11:26:58Z</time>
      </trkpt>
      <trkpt lat="46.492586033418775" lon="9.329981999471784">
        <ele>1984.3</ele>
        <time>2007-06-09T11:26:59Z</time>
      </trkpt>
      <trkpt lat="46.492523001506925" lon="9.330045031383634">
        <ele>1982.9000000000001</ele>
        <time>2007-06-09T11:27:02Z</time>
      </trkpt>
      <trkpt lat="46.492386041209102" lon="9.330223985016346">
        <ele>1980.9000000000001</ele>
        <time>2007-06-09T11:27:08Z</time>
      </trkpt>
      <trkpt lat="46.492264000698924" lon="9.330282993614674">
        <ele>1978.5</ele>
        <time>2007-06-09T11:27:12Z</time>
      </trkpt>
      <trkpt lat="46.492208009585738" lon="9.33027695864439">
        <ele>1977.5999999999999</ele>
        <time>2007-06-09T11:27:14Z</time>
      </trkpt>
      <trkpt lat="46.492143971845508" lon="9.330233037471771">
        <ele>1976.0999999999999</ele>
        <time>2007-06-09T11:27:16Z</time>
      </trkpt>
      <trkpt lat="46.492054034024477" lon="9.330266984179616">
        <ele>1974.2</ele>
        <time>2007-06-09T11:27:19Z</time>
      </trkpt>
      <trkpt lat="46.492017991840839" lon="9.330303026363254">
        <ele>1973.7</ele>
        <time>2007-06-09T11:27:21Z</time>
      </trkpt>
      <trkpt lat="46.49184700101614" lon="9.330396987497807">
        <ele>1972.3</ele>
        <time>2007-06-09T11:27:27Z</time>
      </trkpt>
      <trkpt lat="46.491729989647865" lon="9.330516010522842">
        <ele>1971.3</ele>
        <time>2007-06-09T11:27:32Z</time>
      </trkpt>
      <trkpt lat="46.491680033504963" lon="9.330756990239024">
        <ele>1968.9000000000001</ele>
        <time>2007-06-09T11:27:39Z</time>
      </trkpt>
      <trkpt lat="46.491600992158055" lon="9.330954970791936">
        <ele>1968.9000000000001</ele>
        <time>2007-06-09T11:27:44Z</time>
      </trkpt>
      <trkpt lat="46.491531003266573" lon="9.331053961068392">
        <ele>1968.9000000000001</ele>
        <time>2007-06-09T11:27:48Z</time>
      </trkpt>
      <trkpt lat="46.491504013538361" lon="9.331090003252029">
        <ele>1968.4000000000001</ele>
        <time>2007-06-09T11:27:52Z</time>
      </trkpt>
      <trkpt lat="46.491475012153387" lon="9.331147000193596">
        <ele>1968.9000000000001</ele>
        <time>2007-06-09T11:29:35Z</time>
      </trkpt>
      <trkpt lat="46.491446010768414" lon="9.331209026277065">
        <ele>1968.4000000000001</ele>
        <time>2007-06-09T11:30:39Z</time>
      </trkpt>
      <trkpt lat="46.491428995504975" lon="9.331254037097096">
        <ele>1967.5</ele>
        <time>2007-06-09T11:30:45Z</time>
      </trkpt>
      <trkpt lat="46.491414997726679" lon="9.331303993239999">
        <ele>1966.5</ele>
        <time>2007-06-09T11:30:47Z</time>
      </trkpt>
      <trkpt lat="46.491336962208152" lon="9.331397032365203">
        <ele>1966</ele>
        <time>2007-06-09T11:30:52Z</time>
      </trkpt>
      <trkpt lat="46.491323970258236" lon="9.331456962972879">
        <ele>1966</ele>
        <time>2007-06-09T11:30:54Z</time>
      </trkpt>
      <trkpt lat="46.491278037428856" lon="9.331740019842982">
        <ele>1965.5999999999999</ele>
        <time>2007-06-09T11:31:01Z</time>
      </trkpt>
      <trkpt lat="46.491264039650559" lon="9.331786036491394">
        <ele>1964.5999999999999</ele>
        <time>2007-06-09T11:31:02Z</time>
      </trkpt>
      <trkpt lat="46.491187009960413" lon="9.331947974860668">
        <ele>1963.0999999999999</ele>
        <time>2007-06-09T11:31:05Z</time>
      </trkpt>
      <trkpt lat="46.491029011085629" lon="9.332138998433948">
        <ele>1960.7</ele>
        <time>2007-06-09T11:31:10Z</time>
      </trkpt>
      <trkpt lat="46.490932032465935" lon="9.332273025065661">
        <ele>1959.8</ele>
        <time>2007-06-09T11:31:14Z</time>
      </trkpt>
      <trkpt lat="46.490903031080961" lon="9.332312000915408">
        <ele>1958.3</ele>
        <time>2007-06-09T11:31:15Z</time>
      </trkpt>
      <trkpt lat="46.490752995014191" lon="9.332502018660307">
        <ele>1957.4000000000001</ele>
        <time>2007-06-09T11:31:20Z</time>
      </trkpt>
      <trkpt lat="46.490705972537398" lon="9.332575025036931">
        <ele>1955.9000000000001</ele>
        <time>2007-06-09T11:31:22Z</time>
      </trkpt>
      <trkpt lat="46.490588961169124" lon="9.332762025296688">
        <ele>1955.5</ele>
        <time>2007-06-09T11:31:28Z</time>
      </trkpt>
      <trkpt lat="46.490488965064287" lon="9.332909965887666">
        <ele>1954</ele>
        <time>2007-06-09T11:31:32Z</time>
      </trkpt>
      <trkpt lat="46.49038502946496" lon="9.333008034154773">
        <ele>1952.5999999999999</ele>
        <time>2007-06-09T11:31:35Z</time>
      </trkpt>
      <trkpt lat="46.490311017259955" lon="9.333049021661282">
        <ele>1952.0999999999999</ele>
        <time>2007-06-09T11:31:37Z</time>
      </trkpt>
      <trkpt lat="46.490211021155119" lon="9.333194028586149">
        <ele>1949.2</ele>
        <time>2007-06-09T11:31:40Z</time>
      </trkpt>
      <trkpt lat="46.4900859631598" lon="9.333510026335716">
        <ele>1945.4000000000001</ele>
        <time>2007-06-09T11:31:44Z</time>
      </trkpt>
      <trkpt lat="46.489996025338769" lon="9.33377698995173">
        <ele>1941.5</ele>
        <time>2007-06-09T11:31:47Z</time>
      </trkpt>
      <trkpt lat="46.489927964285016" lon="9.334187032654882">
        <ele>1937.7</ele>
        <time>2007-06-09T11:31:52Z</time>
      </trkpt>
      <trkpt lat="46.489898962900043" lon="9.334390964359045">
        <ele>1936.7</ele>
        <time>2007-06-09T11:31:57Z</time>
      </trkpt>
      <trkpt lat="46.489888988435268" lon="9.334499007090926">
        <ele>1935.8</ele>
        <time>2007-06-09T11:32:03Z</time>
      </trkpt>
      <trkpt lat="46.489855963736773" lon="9.33459104038775">
        <ele>1935.3</ele>
        <time>2007-06-09T11:33:20Z</time>
      </trkpt>
      <trkpt lat="46.489844983443618" lon="9.33474401012063">
        <ele>1931.9000000000001</ele>
        <time>2007-06-09T11:33:23Z</time>
      </trkpt>
      <trkpt lat="46.489839032292366" lon="9.335026983171701">
        <ele>1927.5999999999999</ele>
        <time>2007-06-09T11:33:29Z</time>
      </trkpt>
      <trkpt lat="46.489840960130095" lon="9.335182970389724">
        <ele>1924.7</ele>
        <time>2007-06-09T11:33:32Z</time>
      </trkpt>
      <trkpt lat="46.489831991493702" lon="9.335343986749649">
        <ele>1921.3</ele>
        <time>2007-06-09T11:33:35Z</time>
      </trkpt>
      <trkpt lat="46.489859987050295" lon="9.335450017824769">
        <ele>1921.3</ele>
        <time>2007-06-09T11:33:39Z</time>
      </trkpt>
      <trkpt lat="46.489920001477003" lon="9.335553031414747">
        <ele>1921.3</ele>
        <time>2007-06-09T11:33:45Z</time>
      </trkpt>
      <trkpt lat="46.489927964285016" lon="9.335679011419416">
        <ele>1921.8</ele>
        <time>2007-06-09T11:33:52Z</time>
      </trkpt>
      <trkpt lat="46.489921007305384" lon="9.335716981440783">
        <ele>1921.3</ele>
        <time>2007-06-09T11:33:54Z</time>
      </trkpt>
      <trkpt lat="46.489852024242282" lon="9.33586198836565">
        <ele>1919.9000000000001</ele>
        <time>2007-06-09T11:34:01Z</time>
      </trkpt>
      <trkpt lat="46.489791003987193" lon="9.336051000282168">
        <ele>1918.4000000000001</ele>
        <time>2007-06-09T11:34:09Z</time>
      </trkpt>
      <trkpt lat="46.489748004823923" lon="9.336230959743261">
        <ele>1917.5</ele>
        <time>2007-06-09T11:34:16Z</time>
      </trkpt>
      <trkpt lat="46.489648008719087" lon="9.336447967216373">
        <ele>1916</ele>
        <time>2007-06-09T11:34:23Z</time>
      </trkpt>
      <trkpt lat="46.489550024271011" lon="9.336587022989988">
        <ele>1915.5999999999999</ele>
        <time>2007-06-09T11:34:29Z</time>
      </trkpt>
      <trkpt lat="46.489550024271011" lon="9.336586017161608">
        <ele>1916</ele>
        <time>2007-06-09T11:34:34Z</time>
      </trkpt>
      <trkpt lat="46.489549018442631" lon="9.336578976362944">
        <ele>1915.0999999999999</ele>
        <time>2007-06-09T11:34:44Z</time>
      </trkpt>
      <trkpt lat="46.489542983472347" lon="9.336574031040072">
        <ele>1915.0999999999999</ele>
        <time>2007-06-09T11:34:57Z</time>
      </trkpt>
      <trkpt lat="46.489529991522431" lon="9.336572019383311">
        <ele>1915.0999999999999</ele>
        <time>2007-06-09T11:35:15Z</time>
      </trkpt>
      <trkpt lat="46.489538038149476" lon="9.33657000772655">
        <ele>1915.0999999999999</ele>
        <time>2007-06-09T11:35:49Z</time>
      </trkpt>
      <trkpt lat="46.489538038149476" lon="9.336595991626382">
        <ele>1914.5999999999999</ele>
        <time>2007-06-09T11:36:13Z</time>
      </trkpt>
      <trkpt lat="46.489495038986206" lon="9.336688024923205">
        <ele>1915.0999999999999</ele>
        <time>2007-06-09T11:36:18Z</time>
      </trkpt>
      <trkpt lat="46.489385990425944" lon="9.336949959397316">
        <ele>1915.0999999999999</ele>
        <time>2007-06-09T11:36:26Z</time>
      </trkpt>
      <trkpt lat="46.489310972392559" lon="9.337194040417671">
        <ele>1916</ele>
        <time>2007-06-09T11:36:33Z</time>
      </trkpt>
      <trkpt lat="46.489306027069688" lon="9.337461004033685">
        <ele>1915.5999999999999</ele>
        <time>2007-06-09T11:36:40Z</time>
      </trkpt>
      <trkpt lat="46.489400994032621" lon="9.337710030376911">
        <ele>1915.5999999999999</ele>
        <time>2007-06-09T11:36:46Z</time>
      </trkpt>
      <trkpt lat="46.489630993455648" lon="9.338062992319465">
        <ele>1915.5999999999999</ele>
        <time>2007-06-09T11:36:55Z</time>
      </trkpt>
      <trkpt lat="46.489843977615237" lon="9.33843900449574">
        <ele>1915.5999999999999</ele>
        <time>2007-06-09T11:37:04Z</time>
      </trkpt>
      <trkpt lat="46.489937016740441" lon="9.338790038600564">
        <ele>1914.5999999999999</ele>
        <time>2007-06-09T11:37:11Z</time>
      </trkpt>
      <trkpt lat="46.489943973720074" lon="9.339248025789857">
        <ele>1914.5999999999999</ele>
        <time>2007-06-09T11:37:19Z</time>
      </trkpt>
      <trkpt lat="46.489853030070662" lon="9.339681034907699">
        <ele>1914.0999999999999</ele>
        <time>2007-06-09T11:37:26Z</time>
      </trkpt>
      <trkpt lat="46.489696959033608" lon="9.340281011536717">
        <ele>1914.0999999999999</ele>
        <time>2007-06-09T11:37:36Z</time>
      </trkpt>
      <trkpt lat="46.48954700678587" lon="9.340745033696294">
        <ele>1914.0999999999999</ele>
        <time>2007-06-09T11:37:44Z</time>
      </trkpt>
      <trkpt lat="46.48933201096952" lon="9.341261023655534">
        <ele>1913.5999999999999</ele>
        <time>2007-06-09T11:37:53Z</time>
      </trkpt>
      <trkpt lat="46.489000003784895" lon="9.341828981414437">
        <ele>1913.5999999999999</ele>
        <time>2007-06-09T11:38:04Z</time>
      </trkpt>
      <trkpt lat="46.488587027415633" lon="9.342416971921921">
        <ele>1914.0999999999999</ele>
        <time>2007-06-09T11:38:16Z</time>
      </trkpt>
      <trkpt lat="46.488166004419327" lon="9.343008985742927">
        <ele>1914.0999999999999</ele>
        <time>2007-06-09T11:38:28Z</time>
      </trkpt>
      <trkpt lat="46.487814970314503" lon="9.343508966267109">
        <ele>1912.7</ele>
        <time>2007-06-09T11:38:38Z</time>
      </trkpt>
      <trkpt lat="46.48746301420033" lon="9.344023028388619">
        <ele>1913.2</ele>
        <time>2007-06-09T11:38:48Z</time>
      </trkpt>
      <trkpt lat="46.487311972305179" lon="9.344385964795947">
        <ele>1913.2</ele>
        <time>2007-06-09T11:38:54Z</time>
      </trkpt>
      <trkpt lat="46.48724902421236" lon="9.344805981963873">
        <ele>1913.2</ele>
        <time>2007-06-09T11:39:00Z</time>
      </trkpt>
      <trkpt lat="46.48724902421236" lon="9.344955012202263">
        <ele>1913.2</ele>
        <time>2007-06-09T11:39:02Z</time>
      </trkpt>
      <trkpt lat="46.487340973690152" lon="9.345539985224605">
        <ele>1913.5999999999999</ele>
        <time>2007-06-09T11:39:10Z</time>
      </trkpt>
      <trkpt lat="46.487393025308847" lon="9.345734026283026">
        <ele>1913.5999999999999</ele>
        <time>2007-06-09T11:39:13Z</time>
      </trkpt>
      <trkpt lat="46.487498972564936" lon="9.346233000978828">
        <ele>1913.5999999999999</ele>
        <time>2007-06-09T11:39:21Z</time>
      </trkpt>
      <trkpt lat="46.487547000870109" lon="9.346589986234903">
        <ele>1913.2</ele>
        <time>2007-06-09T11:39:27Z</time>
      </trkpt>
      <trkpt lat="46.487558986991644" lon="9.346803976222873">
        <ele>1912.7</ele>
        <time>2007-06-09T11:39:32Z</time>
      </trkpt>
      <trkpt lat="46.487596035003662" lon="9.346815040335059">
        <ele>1913.2</ele>
        <time>2007-06-09T11:39:36Z</time>
      </trkpt>
      <trkpt lat="46.487584970891476" lon="9.346673972904682">
        <ele>1913.2</ele>
        <time>2007-06-09T11:39:41Z</time>
      </trkpt>
      <trkpt lat="46.487570973113179" lon="9.346500970423222">
        <ele>1912.2</ele>
        <time>2007-06-09T11:39:48Z</time>
      </trkpt>
      <trkpt lat="46.487559992820024" lon="9.34634699486196">
        <ele>1911.2</ele>
        <time>2007-06-09T11:39:55Z</time>
      </trkpt>
      <trkpt lat="46.487562004476786" lon="9.346327967941761">
        <ele>1912.2</ele>
        <time>2007-06-09T11:39:56Z</time>
      </trkpt>
      <trkpt lat="46.487560998648405" lon="9.346293015405536">
        <ele>1912.7</ele>
        <time>2007-06-09T11:40:02Z</time>
      </trkpt>
      <trkpt lat="46.487577008083463" lon="9.346253033727408">
        <ele>1913.5999999999999</ele>
        <time>2007-06-09T11:40:41Z</time>
      </trkpt>
      <trkpt lat="46.487573990598321" lon="9.346297960728407">
        <ele>1913.5999999999999</ele>
        <time>2007-06-09T11:41:35Z</time>
      </trkpt>
      <trkpt lat="46.487586982548237" lon="9.346285974606872">
        <ele>1913.5999999999999</ele>
        <time>2007-06-09T11:41:55Z</time>
      </trkpt>
      <trkpt lat="46.487586982548237" lon="9.34628396295011">
        <ele>1914.0999999999999</ele>
        <time>2007-06-09T11:41:57Z</time>
      </trkpt>
      <trkpt lat="46.487570973113179" lon="9.346283040940762">
        <ele>1913.5999999999999</ele>
        <time>2007-06-09T11:41:59Z</time>
      </trkpt>
      <trkpt lat="46.487573990598321" lon="9.34647498652339">
        <ele>1914.0999999999999</ele>
        <time>2007-06-09T11:42:05Z</time>
      </trkpt>
      <trkpt lat="46.487597962841392" lon="9.34684001840651">
        <ele>1914.0999999999999</ele>
        <time>2007-06-09T11:42:12Z</time>
      </trkpt>
      <trkpt lat="46.487557981163263" lon="9.347364977002144">
        <ele>1913.5999999999999</ele>
        <time>2007-06-09T11:42:20Z</time>
      </trkpt>
      <trkpt lat="46.487444993108511" lon="9.3478490319103">
        <ele>1914.5999999999999</ele>
        <time>2007-06-09T11:42:28Z</time>
      </trkpt>
      <trkpt lat="46.487231003120542" lon="9.348436016589403">
        <ele>1914.5999999999999</ele>
        <time>2007-06-09T11:42:38Z</time>
      </trkpt>
      <trkpt lat="46.486972002312541" lon="9.349110005423427">
        <ele>1914.5999999999999</ele>
        <time>2007-06-09T11:42:49Z</time>
      </trkpt>
      <trkpt lat="46.486724987626076" lon="9.349721968173981">
        <ele>1913.5999999999999</ele>
        <time>2007-06-09T11:42:59Z</time>
      </trkpt>
      <trkpt lat="46.486524995416403" lon="9.350133016705513">
        <ele>1914.5999999999999</ele>
        <time>2007-06-09T11:43:06Z</time>
      </trkpt>
      <trkpt lat="46.486220983788371" lon="9.350672978907824">
        <ele>1914.5999999999999</ele>
        <time>2007-06-09T11:43:15Z</time>
      </trkpt>
      <trkpt lat="46.485844971612096" lon="9.351230962201953">
        <ele>1914.0999999999999</ele>
        <time>2007-06-09T11:43:25Z</time>
      </trkpt>
      <trkpt lat="46.485463008284569" lon="9.35175902210176">
        <ele>1914.0999999999999</ele>
        <time>2007-06-09T11:43:34Z</time>
      </trkpt>
      <trkpt lat="46.485117003321648" lon="9.352240981534123">
        <ele>1914.5999999999999</ele>
        <time>2007-06-09T11:43:42Z</time>
      </trkpt>
      <trkpt lat="46.484732022508979" lon="9.352782033383846">
        <ele>1913.5999999999999</ele>
        <time>2007-06-09T11:43:51Z</time>
      </trkpt>
      <trkpt lat="46.484223995357752" lon="9.353448981419206">
        <ele>1914.0999999999999</ele>
        <time>2007-06-09T11:44:02Z</time>
      </trkpt>
      <trkpt lat="46.483757961541414" lon="9.353993972763419">
        <ele>1913.5999999999999</ele>
        <time>2007-06-09T11:44:12Z</time>
      </trkpt>
      <trkpt lat="46.483287988230586" lon="9.354541981592774">
        <ele>1913.5999999999999</ele>
        <time>2007-06-09T11:44:22Z</time>
      </trkpt>
      <trkpt lat="46.482883980497718" lon="9.355018995702267">
        <ele>1914.5999999999999</ele>
        <time>2007-06-09T11:44:31Z</time>
      </trkpt>
      <trkpt lat="46.482590027153492" lon="9.355361983180046">
        <ele>1914.5999999999999</ele>
        <time>2007-06-09T11:44:38Z</time>
      </trkpt>
      <trkpt lat="46.482302024960518" lon="9.355596005916596">
        <ele>1914.0999999999999</ele>
        <time>2007-06-09T11:44:44Z</time>
      </trkpt>
      <trkpt lat="46.482195993885398" lon="9.355635987594724">
        <ele>1914.0999999999999</ele>
        <time>2007-06-09T11:44:46Z</time>
      </trkpt>
      <trkpt lat="46.481844037771225" lon="9.355620983988047">
        <ele>1914.0999999999999</ele>
        <time>2007-06-09T11:44:52Z</time>
      </trkpt>
      <trkpt lat="46.481440030038357" lon="9.355429038405418">
        <ele>1914.0999999999999</ele>
        <time>2007-06-09T11:44:59Z</time>
      </trkpt>
      <trkpt lat="46.48112403228879" lon="9.355148999020457">
        <ele>1914.0999999999999</ele>
        <time>2007-06-09T11:45:05Z</time>
      </trkpt>
      <trkpt lat="46.481028981506824" lon="9.355049002915621">
        <ele>1914.0999999999999</ele>
        <time>2007-06-09T11:45:07Z</time>
      </trkpt>
      <trkpt lat="46.480774004012346" lon="9.35459797270596">
        <ele>1915.0999999999999</ele>
        <time>2007-06-09T11:45:14Z</time>
      </trkpt>
      <trkpt lat="46.480579962953925" lon="9.35429597273469">
        <ele>1913.2</ele>
        <time>2007-06-09T11:45:19Z</time>
      </trkpt>
      <trkpt lat="46.480227001011372" lon="9.353989027440548">
        <ele>1913.2</ele>
        <time>2007-06-09T11:45:26Z</time>
      </trkpt>
      <trkpt lat="46.479873033240438" lon="9.353855000808835">
        <ele>1913.2</ele>
        <time>2007-06-09T11:45:32Z</time>
      </trkpt>
      <trkpt lat="46.479327036067843" lon="9.353742012754083">
        <ele>1912.7</ele>
        <time>2007-06-09T11:45:41Z</time>
      </trkpt>
      <trkpt lat="46.478937026113272" lon="9.3535459600389">
        <ele>1912.7</ele>
        <time>2007-06-09T11:45:48Z</time>
      </trkpt>
      <trkpt lat="46.478767963126302" lon="9.353454010561109">
        <ele>1912.7</ele>
        <time>2007-06-09T11:45:51Z</time>
      </trkpt>
      <trkpt lat="46.478274017572403" lon="9.353097025305033">
        <ele>1911.7</ele>
        <time>2007-06-09T11:46:00Z</time>
      </trkpt>
      <trkpt lat="46.477992972359061" lon="9.352774992585182">
        <ele>1912.2</ele>
        <time>2007-06-09T11:46:06Z</time>
      </trkpt>
      <trkpt lat="46.477671023458242" lon="9.352446002885699">
        <ele>1911.7</ele>
        <time>2007-06-09T11:46:13Z</time>
      </trkpt>
      <trkpt lat="46.477329041808844" lon="9.352319017052651">
        <ele>1912.2</ele>
        <time>2007-06-09T11:46:19Z</time>
      </trkpt>
      <trkpt lat="46.476761000230908" lon="9.352180967107415">
        <ele>1912.7</ele>
        <time>2007-06-09T11:46:29Z</time>
      </trkpt>
      <trkpt lat="46.476491019129753" lon="9.352032020688057">
        <ele>1912.7</ele>
        <time>2007-06-09T11:46:34Z</time>
      </trkpt>
      <trkpt lat="46.476335031911731" lon="9.351917020976543">
        <ele>1912.7</ele>
        <time>2007-06-09T11:46:37Z</time>
      </trkpt>
      <trkpt lat="46.475877966731787" lon="9.35178198851645">
        <ele>1913.5999999999999</ele>
        <time>2007-06-09T11:46:45Z</time>
      </trkpt>
      <trkpt lat="46.475225016474724" lon="9.351680986583233">
        <ele>1913.5999999999999</ele>
        <time>2007-06-09T11:46:56Z</time>
      </trkpt>
      <trkpt lat="46.47455396130681" lon="9.351650979369879">
        <ele>1913.5999999999999</ele>
        <time>2007-06-09T11:47:07Z</time>
      </trkpt>
      <trkpt lat="46.474199993535876" lon="9.351720968261361">
        <ele>1913.5999999999999</ele>
        <time>2007-06-09T11:47:13Z</time>
      </trkpt>
      <trkpt lat="46.473805038258433" lon="9.351773019880056">
        <ele>1913.2</ele>
        <time>2007-06-09T11:47:19Z</time>
      </trkpt>
      <trkpt lat="46.473362976685166" lon="9.351676041260362">
        <ele>1913.2</ele>
        <time>2007-06-09T11:47:26Z</time>
      </trkpt>
      <trkpt lat="46.472801975905895" lon="9.351559029892087">
        <ele>1911.7</ele>
        <time>2007-06-09T11:47:35Z</time>
      </trkpt>
      <trkpt lat="46.472237035632133" lon="9.351518964394927">
        <ele>1912.7</ele>
        <time>2007-06-09T11:47:44Z</time>
      </trkpt>
      <trkpt lat="46.471695983782411" lon="9.351574033498764">
        <ele>1912.7</ele>
        <time>2007-06-09T11:47:53Z</time>
      </trkpt>
      <trkpt lat="46.471164990216494" lon="9.351617032662034">
        <ele>1912.2</ele>
        <time>2007-06-09T11:48:02Z</time>
      </trkpt>
      <trkpt lat="46.471091983839869" lon="9.351516030728817">
        <ele>1912.2</ele>
        <time>2007-06-09T11:48:05Z</time>
      </trkpt>
      <trkpt lat="46.471091983839869" lon="9.351398013532162">
        <ele>1912.7</ele>
        <time>2007-06-09T11:48:07Z</time>
      </trkpt>
      <trkpt lat="46.471085026860237" lon="9.351225011050701">
        <ele>1912.7</ele>
        <time>2007-06-09T11:48:10Z</time>
      </trkpt>
      <trkpt lat="46.471079997718334" lon="9.350833995267749">
        <ele>1912.2</ele>
        <time>2007-06-09T11:48:17Z</time>
      </trkpt>
      <trkpt lat="46.471064994111657" lon="9.350490001961589">
        <ele>1914.0999999999999</ele>
        <time>2007-06-09T11:48:25Z</time>
      </trkpt>
      <trkpt lat="46.471041021868587" lon="9.350205017253757">
        <ele>1912.2</ele>
        <time>2007-06-09T11:48:32Z</time>
      </trkpt>
      <trkpt lat="46.471023000776768" lon="9.349844008684158">
        <ele>1912.2</ele>
        <time>2007-06-09T11:48:38Z</time>
      </trkpt>
      <trkpt lat="46.471010008826852" lon="9.349561035633087">
        <ele>1912.7</ele>
        <time>2007-06-09T11:48:44Z</time>
      </trkpt>
      <trkpt lat="46.471004979684949" lon="9.349421979859471">
        <ele>1912.7</ele>
        <time>2007-06-09T11:48:49Z</time>
      </trkpt>
      <trkpt lat="46.470989976078272" lon="9.349167002364993">
        <ele>1913.2</ele>
        <time>2007-06-09T11:48:54Z</time>
      </trkpt>
      <trkpt lat="46.470972038805485" lon="9.34896600432694">
        <ele>1914.0999999999999</ele>
        <time>2007-06-09T11:48:58Z</time>
      </trkpt>
      <trkpt lat="46.470968015491962" lon="9.348635002970696">
        <ele>1911.7</ele>
        <time>2007-06-09T11:49:05Z</time>
      </trkpt>
      <trkpt lat="46.471087960526347" lon="9.348575994372368">
        <ele>1912.2</ele>
        <time>2007-06-09T11:49:09Z</time>
      </trkpt>
      <trkpt lat="46.471274960786104" lon="9.348563002422452">
        <ele>1912.7</ele>
        <time>2007-06-09T11:49:15Z</time>
      </trkpt>
      <trkpt lat="46.471550976857543" lon="9.348508017137647">
        <ele>1912.7</ele>
        <time>2007-06-09T11:49:23Z</time>
      </trkpt>
      <trkpt lat="46.471832022070885" lon="9.348421012982726">
        <ele>1912.2</ele>
        <time>2007-06-09T11:49:31Z</time>
      </trkpt>
      <trkpt lat="46.471988009288907" lon="9.34827801771462">
        <ele>1911.7</ele>
        <time>2007-06-09T11:49:36Z</time>
      </trkpt>
      <trkpt lat="46.472132010385394" lon="9.348089005798101">
        <ele>1911.7</ele>
        <time>2007-06-09T11:49:41Z</time>
      </trkpt>
      <trkpt lat="46.472286991775036" lon="9.34767896309495">
        <ele>1912.2</ele>
        <time>2007-06-09T11:49:49Z</time>
      </trkpt>
      <trkpt lat="46.472483966499567" lon="9.347349973395467">
        <ele>1912.7</ele>
        <time>2007-06-09T11:49:56Z</time>
      </trkpt>
      <trkpt lat="46.472568958997726" lon="9.347027018666267">
        <ele>1912.2</ele>
        <time>2007-06-09T11:50:02Z</time>
      </trkpt>
      <trkpt lat="46.472559990361333" lon="9.346971027553082">
        <ele>1911.7</ele>
        <time>2007-06-09T11:50:03Z</time>
      </trkpt>
      <trkpt lat="46.472457982599735" lon="9.346632985398173">
        <ele>1912.7</ele>
        <time>2007-06-09T11:50:10Z</time>
      </trkpt>
      <trkpt lat="46.472407020628452" lon="9.346483033150435">
        <ele>1912.2</ele>
        <time>2007-06-09T11:50:13Z</time>
      </trkpt>
      <trkpt lat="46.472221026197076" lon="9.346257979050279">
        <ele>1913.2</ele>
        <time>2007-06-09T11:50:19Z</time>
      </trkpt>
      <trkpt lat="46.472141984850168" lon="9.346192013472319">
        <ele>1911.7</ele>
        <time>2007-06-09T11:50:23Z</time>
      </trkpt>
      <trkpt lat="46.472137961536646" lon="9.346202993765473">
        <ele>1911.2</ele>
        <time>2007-06-09T11:50:35Z</time>
      </trkpt>
      <trkpt lat="46.472137961536646" lon="9.346210034564138">
        <ele>1909.8</ele>
        <time>2007-06-09T11:51:06Z</time>
      </trkpt>
      <trkpt lat="46.472138967365026" lon="9.346210034564138">
        <ele>1910.3</ele>
        <time>2007-06-09T11:51:20Z</time>
      </trkpt>
      <trkpt lat="46.472108960151672" lon="9.34619695879519">
        <ele>1910.3</ele>
        <time>2007-06-09T11:51:23Z</time>
      </trkpt>
      <trkpt lat="46.471936963498592" lon="9.346068967133761">
        <ele>1908.8</ele>
        <time>2007-06-09T11:51:29Z</time>
      </trkpt>
      <trkpt lat="46.471767984330654" lon="9.345934018492699">
        <ele>1906.9000000000001</ele>
        <time>2007-06-09T11:51:32Z</time>
      </trkpt>
      <trkpt lat="46.471567992120981" lon="9.345822036266327">
        <ele>1904</ele>
        <time>2007-06-09T11:51:35Z</time>
      </trkpt>
      <trkpt lat="46.471507977694273" lon="9.345746012404561">
        <ele>1903.5</ele>
        <time>2007-06-09T11:51:37Z</time>
      </trkpt>
      <trkpt lat="46.471564974635839" lon="9.345714999362826">
        <ele>1901.5999999999999</ele>
        <time>2007-06-09T11:51:39Z</time>
      </trkpt>
      <trkpt lat="46.471643010154366" lon="9.345777025446296">
        <ele>1900.7</ele>
        <time>2007-06-09T11:51:41Z</time>
      </trkpt>
      <trkpt lat="46.471677962690592" lon="9.345791023224592">
        <ele>1899.7</ele>
        <time>2007-06-09T11:51:42Z</time>
      </trkpt>
      <trkpt lat="46.471732025966048" lon="9.345803009346128">
        <ele>1899.2</ele>
        <time>2007-06-09T11:51:44Z</time>
      </trkpt>
      <trkpt lat="46.471718028187752" lon="9.345718016847968">
        <ele>1897.8</ele>
        <time>2007-06-09T11:51:48Z</time>
      </trkpt>
      <trkpt lat="46.47169497795403" lon="9.34568096883595">
        <ele>1897.8</ele>
        <time>2007-06-09T11:51:49Z</time>
      </trkpt>
      <trkpt lat="46.471541002392769" lon="9.345415011048317">
        <ele>1893.9000000000001</ele>
        <time>2007-06-09T11:51:55Z</time>
      </trkpt>
      <trkpt lat="46.471427008509636" lon="9.345152992755175">
        <ele>1894.9000000000001</ele>
        <time>2007-06-09T11:52:00Z</time>
      </trkpt>
      <trkpt lat="46.471360959112644" lon="9.345098007470369">
        <ele>1895.4000000000001</ele>
        <time>2007-06-09T11:52:03Z</time>
      </trkpt>
      <trkpt lat="46.471245959401131" lon="9.345043022185564">
        <ele>1896.3</ele>
        <time>2007-06-09T11:52:09Z</time>
      </trkpt>
      <trkpt lat="46.471228022128344" lon="9.345029024407268">
        <ele>1896.3</ele>
        <time>2007-06-09T11:52:10Z</time>
      </trkpt>
      <trkpt lat="46.471103969961405" lon="9.344916958361864">
        <ele>1895.4000000000001</ele>
        <time>2007-06-09T11:52:15Z</time>
      </trkpt>
      <trkpt lat="46.47100699134171" lon="9.344860967248678">
        <ele>1893</ele>
        <time>2007-06-09T11:52:17Z</time>
      </trkpt>
      <trkpt lat="46.470961980521679" lon="9.344842024147511">
        <ele>1892.5</ele>
        <time>2007-06-09T11:52:18Z</time>
      </trkpt>
      <trkpt lat="46.470777997747064" lon="9.344658041372895">
        <ele>1887.7</ele>
        <time>2007-06-09T11:52:22Z</time>
      </trkpt>
      <trkpt lat="46.470716977491975" lon="9.344619987532497">
        <ele>1887.7</ele>
        <time>2007-06-09T11:52:23Z</time>
      </trkpt>
      <trkpt lat="46.470657968893647" lon="9.344585034996271">
        <ele>1886.7</ele>
        <time>2007-06-09T11:52:24Z</time>
      </trkpt>
      <trkpt lat="46.47046803496778" lon="9.344529965892434">
        <ele>1883.4000000000001</ele>
        <time>2007-06-09T11:52:28Z</time>
      </trkpt>
      <trkpt lat="46.470387987792492" lon="9.344534995034337">
        <ele>1882.4000000000001</ele>
        <time>2007-06-09T11:52:30Z</time>
      </trkpt>
      <trkpt lat="46.47021297365427" lon="9.344523008912802">
        <ele>1879</ele>
        <time>2007-06-09T11:52:35Z</time>
      </trkpt>
      <trkpt lat="46.470141978934407" lon="9.344532983377576">
        <ele>1875.2</ele>
        <time>2007-06-09T11:52:37Z</time>
      </trkpt>
      <trkpt lat="46.470024967566133" lon="9.344624010846019">
        <ele>1872.8</ele>
        <time>2007-06-09T11:52:41Z</time>
      </trkpt>
      <trkpt lat="46.469988003373146" lon="9.344649994745851">
        <ele>1871.8</ele>
        <time>2007-06-09T11:52:42Z</time>
      </trkpt>
      <trkpt lat="46.469793040305376" lon="9.344811011105776">
        <ele>1868</ele>
        <time>2007-06-09T11:52:48Z</time>
      </trkpt>
      <trkpt lat="46.46976001560688" lon="9.344831965863705">
        <ele>1867.5</ele>
        <time>2007-06-09T11:52:49Z</time>
      </trkpt>
      <trkpt lat="46.469687009230256" lon="9.344834983348846">
        <ele>1866.0999999999999</ele>
        <time>2007-06-09T11:52:51Z</time>
      </trkpt>
      <trkpt lat="46.469629006460309" lon="9.344922993332148">
        <ele>1864.0999999999999</ele>
        <time>2007-06-09T11:52:55Z</time>
      </trkpt>
      <trkpt lat="46.469615008682013" lon="9.34494998306036">
        <ele>1863.7</ele>
        <time>2007-06-09T11:53:01Z</time>
      </trkpt>
      <trkpt lat="46.469606962054968" lon="9.344948977231979">
        <ele>1863.2</ele>
        <time>2007-06-09T11:53:07Z</time>
      </trkpt>
      <trkpt lat="46.469580978155136" lon="9.344953000545502">
        <ele>1863.2</ele>
        <time>2007-06-09T11:53:15Z</time>
      </trkpt>
      <trkpt lat="46.469571003690362" lon="9.344974039122462">
        <ele>1862.7</ele>
        <time>2007-06-09T11:53:21Z</time>
      </trkpt>
      <trkpt lat="46.469550970941782" lon="9.344999017193914">
        <ele>1861.2</ele>
        <time>2007-06-09T11:53:29Z</time>
      </trkpt>
      <trkpt lat="46.469520041719079" lon="9.345019971951842">
        <ele>1860.8</ele>
        <time>2007-06-09T11:53:35Z</time>
      </trkpt>
      <trkpt lat="46.469448041170835" lon="9.345061965286732">
        <ele>1857.9000000000001</ele>
        <time>2007-06-09T11:53:38Z</time>
      </trkpt>
      <trkpt lat="46.469337986782193" lon="9.345129020512104">
        <ele>1855.5</ele>
        <time>2007-06-09T11:53:42Z</time>
      </trkpt>
      <trkpt lat="46.469264980405569" lon="9.345129020512104">
        <ele>1854</ele>
        <time>2007-06-09T11:53:46Z</time>
      </trkpt>
      <trkpt lat="46.469280989840627" lon="9.345159027725458">
        <ele>1853.5999999999999</ele>
        <time>2007-06-09T11:53:56Z</time>
      </trkpt>
      <trkpt lat="46.469271015375853" lon="9.345143018290401">
        <ele>1853.0999999999999</ele>
        <time>2007-06-09T11:54:49Z</time>
      </trkpt>
      <trkpt lat="46.469292975962162" lon="9.345109993591905">
        <ele>1853.0999999999999</ele>
        <time>2007-06-09T11:54:56Z</time>
      </trkpt>
      <trkpt lat="46.469299010932446" lon="9.345064982771874">
        <ele>1851.2</ele>
        <time>2007-06-09T11:55:03Z</time>
      </trkpt>
      <trkpt lat="46.469310997053981" lon="9.345022989436984">
        <ele>1848.8</ele>
        <time>2007-06-09T11:55:10Z</time>
      </trkpt>
      <trkpt lat="46.46928702481091" lon="9.345002034679055">
        <ele>1848.3</ele>
        <time>2007-06-09T11:55:15Z</time>
      </trkpt>
      <trkpt lat="46.469280989840627" lon="9.344988958910108">
        <ele>1847.8</ele>
        <time>2007-06-09T11:55:21Z</time>
      </trkpt>
      <trkpt lat="46.469304040074348" lon="9.344963980838656">
        <ele>1845.9000000000001</ele>
        <time>2007-06-09T11:55:27Z</time>
      </trkpt>
      <trkpt lat="46.469288030639291" lon="9.344955012202263">
        <ele>1844.4000000000001</ele>
        <time>2007-06-09T11:55:32Z</time>
      </trkpt>
      <trkpt lat="46.469283001497388" lon="9.344959035515785">
        <ele>1844.4000000000001</ele>
        <time>2007-06-09T11:55:33Z</time>
      </trkpt>
      <trkpt lat="46.469275960698724" lon="9.344959035515785">
        <ele>1843.9000000000001</ele>
        <time>2007-06-09T11:55:40Z</time>
      </trkpt>
      <trkpt lat="46.469305967912078" lon="9.344915030524135">
        <ele>1842.5</ele>
        <time>2007-06-09T11:55:48Z</time>
      </trkpt>
      <trkpt lat="46.469313008710742" lon="9.344880999997258">
        <ele>1841.0999999999999</ele>
        <time>2007-06-09T11:55:54Z</time>
      </trkpt>
      <trkpt lat="46.469307979568839" lon="9.344847975298762">
        <ele>1839.0999999999999</ele>
        <time>2007-06-09T11:56:00Z</time>
      </trkpt>
      <trkpt lat="46.469327006489038" lon="9.344833977520466">
        <ele>1839.0999999999999</ele>
        <time>2007-06-09T11:56:06Z</time>
      </trkpt>
      <trkpt lat="46.469332035630941" lon="9.344831965863705">
        <ele>1838.7</ele>
        <time>2007-06-09T11:56:07Z</time>
      </trkpt>
      <trkpt lat="46.469356007874012" lon="9.344797013327479">
        <ele>1837.7</ele>
        <time>2007-06-09T11:56:14Z</time>
      </trkpt>
      <trkpt lat="46.469361037015915" lon="9.344787038862705">
        <ele>1837.2</ele>
        <time>2007-06-09T11:56:15Z</time>
      </trkpt>
      <trkpt lat="46.469424990937114" lon="9.344730963930488">
        <ele>1837.2</ele>
        <time>2007-06-09T11:56:20Z</time>
      </trkpt>
      <trkpt lat="46.46943898871541" lon="9.344702968373895">
        <ele>1836.7</ele>
        <time>2007-06-09T11:56:28Z</time>
      </trkpt>
      <trkpt lat="46.469462960958481" lon="9.344659969210625">
        <ele>1836.3</ele>
        <time>2007-06-09T11:56:35Z</time>
      </trkpt>
      <trkpt lat="46.469476958736777" lon="9.344634991139174">
        <ele>1833.9000000000001</ele>
        <time>2007-06-09T11:56:42Z</time>
      </trkpt>
      <trkpt lat="46.469515012577176" lon="9.344606995582581">
        <ele>1832.9000000000001</ele>
        <time>2007-06-09T11:56:49Z</time>
      </trkpt>
      <trkpt lat="46.469612997025251" lon="9.344477998092771">
        <ele>1830</ele>
        <time>2007-06-09T11:56:54Z</time>
      </trkpt>
      <trkpt lat="46.469625988975167" lon="9.344448996707797">
        <ele>1829.5</ele>
        <time>2007-06-09T11:56:55Z</time>
      </trkpt>
      <trkpt lat="46.469618026167154" lon="9.344416977837682">
        <ele>1827.5999999999999</ele>
        <time>2007-06-09T11:57:00Z</time>
      </trkpt>
      <trkpt lat="46.469612997025251" lon="9.344418989494443">
        <ele>1827.5999999999999</ele>
        <time>2007-06-09T11:57:01Z</time>
      </trkpt>
      <trkpt lat="46.469482993707061" lon="9.3444540258497">
        <ele>1824.2</ele>
        <time>2007-06-09T11:57:06Z</time>
      </trkpt>
      <trkpt lat="46.469460027292371" lon="9.344460982829332">
        <ele>1824.2</ele>
        <time>2007-06-09T11:57:07Z</time>
      </trkpt>
      <trkpt lat="46.46941501647234" lon="9.344481015577912">
        <ele>1822.8</ele>
        <time>2007-06-09T11:57:12Z</time>
      </trkpt>
      <trkpt lat="46.469380985945463" lon="9.344481015577912">
        <ele>1820.9000000000001</ele>
        <time>2007-06-09T11:57:18Z</time>
      </trkpt>
      <trkpt lat="46.469346033409238" lon="9.34447699226439">
        <ele>1820.9000000000001</ele>
        <time>2007-06-09T11:57:23Z</time>
      </trkpt>
      <trkpt lat="46.469342010095716" lon="9.344464000314474">
        <ele>1820.4000000000001</ele>
        <time>2007-06-09T11:57:29Z</time>
      </trkpt>
      <trkpt lat="46.469304040074348" lon="9.344443967565894">
        <ele>1819.4000000000001</ele>
        <time>2007-06-09T11:57:34Z</time>
      </trkpt>
      <trkpt lat="46.469257017597556" lon="9.344419995322824">
        <ele>1817</ele>
        <time>2007-06-09T11:57:38Z</time>
      </trkpt>
      <trkpt lat="46.469175964593887" lon="9.344338020309806">
        <ele>1816.0999999999999</ele>
        <time>2007-06-09T11:57:42Z</time>
      </trkpt>
      <trkpt lat="46.469164984300733" lon="9.344323016703129">
        <ele>1816.0999999999999</ele>
        <time>2007-06-09T11:57:46Z</time>
      </trkpt>
      <trkpt lat="46.469116033986211" lon="9.344236012548208">
        <ele>1814.5999999999999</ele>
        <time>2007-06-09T11:57:58Z</time>
      </trkpt>
      <trkpt lat="46.469075968489051" lon="9.344098968431354">
        <ele>1810.3</ele>
        <time>2007-06-09T11:58:01Z</time>
      </trkpt>
      <trkpt lat="46.469024000689387" lon="9.344008024781942">
        <ele>1807.4000000000001</ele>
        <time>2007-06-09T11:58:03Z</time>
      </trkpt>
      <trkpt lat="46.468970021232963" lon="9.343926971778274">
        <ele>1806</ele>
        <time>2007-06-09T11:58:05Z</time>
      </trkpt>
      <trkpt lat="46.46883599460125" lon="9.343741983175278">
        <ele>1802.5999999999999</ele>
        <time>2007-06-09T11:58:09Z</time>
      </trkpt>
      <trkpt lat="46.468780003488064" lon="9.343478037044406">
        <ele>1800.7</ele>
        <time>2007-06-09T11:58:14Z</time>
      </trkpt>
      <trkpt lat="46.468762988224626" lon="9.343454986810684">
        <ele>1800.7</ele>
        <time>2007-06-09T11:58:17Z</time>
      </trkpt>
      <trkpt lat="46.46877103485167" lon="9.343535033985972">
        <ele>1800.7</ele>
        <time>2007-06-09T11:58:29Z</time>
      </trkpt>
      <trkpt lat="46.46877396851778" lon="9.343540985137224">
        <ele>1800.2</ele>
        <time>2007-06-09T11:58:48Z</time>
      </trkpt>
      <trkpt lat="46.468748990446329" lon="9.343518018722534">
        <ele>1800.2</ele>
        <time>2007-06-09T11:58:53Z</time>
      </trkpt>
      <trkpt lat="46.468701967969537" lon="9.343436965718865">
        <ele>1800.2</ele>
        <time>2007-06-09T11:59:10Z</time>
      </trkpt>
      <trkpt lat="46.468613035976887" lon="9.343430008739233">
        <ele>1797.8</ele>
        <time>2007-06-09T11:59:15Z</time>
      </trkpt>
      <trkpt lat="46.468531982973218" lon="9.343383992090821">
        <ele>1796.4000000000001</ele>
        <time>2007-06-09T11:59:34Z</time>
      </trkpt>
      <trkpt lat="46.468446990475059" lon="9.343349961563945">
        <ele>1795.4000000000001</ele>
        <time>2007-06-09T11:59:39Z</time>
      </trkpt>
      <trkpt lat="46.46842997521162" lon="9.343330012634397">
        <ele>1794.4000000000001</ele>
        <time>2007-06-09T11:59:43Z</time>
      </trkpt>
      <trkpt lat="46.468432992696762" lon="9.343330012634397">
        <ele>1794</ele>
        <time>2007-06-09T11:59:45Z</time>
      </trkpt>
      <trkpt lat="46.468402985483408" lon="9.343182994052768">
        <ele>1791.0999999999999</ele>
        <time>2007-06-09T11:59:50Z</time>
      </trkpt>
      <trkpt lat="46.46836400963366" lon="9.343137983232737">
        <ele>1789.2</ele>
        <time>2007-06-09T11:59:55Z</time>
      </trkpt>
      <trkpt lat="46.468353029340506" lon="9.343132032081485">
        <ele>1788.7</ele>
        <time>2007-06-09T11:59:56Z</time>
      </trkpt>
      <trkpt lat="46.468312041833997" lon="9.343033963814378">
        <ele>1788.2</ele>
        <time>2007-06-09T11:59:59Z</time>
      </trkpt>
      <trkpt lat="46.468303995206952" lon="9.342852998524904">
        <ele>1784.8</ele>
        <time>2007-06-09T12:00:03Z</time>
      </trkpt>
      <trkpt lat="46.468297960236669" lon="9.34280002489686">
        <ele>1784.8</ele>
        <time>2007-06-09T12:00:04Z</time>
      </trkpt>
      <trkpt lat="46.46829703822732" lon="9.342631967738271">
        <ele>1781.5</ele>
        <time>2007-06-09T12:00:08Z</time>
      </trkpt>
      <trkpt lat="46.468284968286753" lon="9.342616964131594">
        <ele>1781.5</ele>
        <time>2007-06-09T12:00:09Z</time>
      </trkpt>
      <trkpt lat="46.468258984386921" lon="9.342610007151961">
        <ele>1781</ele>
        <time>2007-06-09T12:00:14Z</time>
      </trkpt>
      <trkpt lat="46.468221014365554" lon="9.342578994110227">
        <ele>1779.5</ele>
        <time>2007-06-09T12:00:21Z</time>
      </trkpt>
      <trkpt lat="46.468225037679076" lon="9.342484027147293">
        <ele>1777.0999999999999</ele>
        <time>2007-06-09T12:00:28Z</time>
      </trkpt>
      <trkpt lat="46.46823501214385" lon="9.34239299967885">
        <ele>1776.7</ele>
        <time>2007-06-09T12:00:32Z</time>
      </trkpt>
      <trkpt lat="46.468220008537173" lon="9.342398028820753">
        <ele>1776.7</ele>
        <time>2007-06-09T12:00:36Z</time>
      </trkpt>
      <trkpt lat="46.46816804073751" lon="9.342414038255811">
        <ele>1777.0999999999999</ele>
        <time>2007-06-09T12:01:24Z</time>
      </trkpt>
      <trkpt lat="46.468038959428668" lon="9.342400040477514">
        <ele>1775.2</ele>
        <time>2007-06-09T12:01:30Z</time>
      </trkpt>
      <trkpt lat="46.468000989407301" lon="9.342437004670501">
        <ele>1773.8</ele>
        <time>2007-06-09T12:01:32Z</time>
      </trkpt>
      <trkpt lat="46.467975005507469" lon="9.342442033812404">
        <ele>1772.8</ele>
        <time>2007-06-09T12:01:36Z</time>
      </trkpt>
      <trkpt lat="46.467963019385934" lon="9.34241496026516">
        <ele>1772.8</ele>
        <time>2007-06-09T12:01:38Z</time>
      </trkpt>
      <trkpt lat="46.467957990244031" lon="9.342298032715917">
        <ele>1772.8</ele>
        <time>2007-06-09T12:01:43Z</time>
      </trkpt>
      <trkpt lat="46.468021022155881" lon="9.342143973335624">
        <ele>1772.8</ele>
        <time>2007-06-09T12:01:49Z</time>
      </trkpt>
      <trkpt lat="46.468051029369235" lon="9.341995026916266">
        <ele>1772.8</ele>
        <time>2007-06-09T12:01:54Z</time>
      </trkpt>
      <trkpt lat="46.468037031590939" lon="9.341915985569358">
        <ele>1772.3</ele>
        <time>2007-06-09T12:01:57Z</time>
      </trkpt>
      <trkpt lat="46.467967964708805" lon="9.34176997281611">
        <ele>1771.4000000000001</ele>
        <time>2007-06-09T12:02:05Z</time>
      </trkpt>
      <trkpt lat="46.467961007729173" lon="9.341588001698256">
        <ele>1771.8</ele>
        <time>2007-06-09T12:02:09Z</time>
      </trkpt>
      <trkpt lat="46.46776202134788" lon="9.341556988656521">
        <ele>1770.9000000000001</ele>
        <time>2007-06-09T12:02:14Z</time>
      </trkpt>
      <trkpt lat="46.467725979164243" lon="9.341454980894923">
        <ele>1770.9000000000001</ele>
        <time>2007-06-09T12:02:17Z</time>
      </trkpt>
      <trkpt lat="46.467668982222676" lon="9.341186005622149">
        <ele>1769</ele>
        <time>2007-06-09T12:02:23Z</time>
      </trkpt>
      <trkpt lat="46.46771902218461" lon="9.341099001467228">
        <ele>1768</ele>
        <time>2007-06-09T12:02:27Z</time>
      </trkpt>
      <trkpt lat="46.467708963900805" lon="9.341001017019153">
        <ele>1765.5999999999999</ele>
        <time>2007-06-09T12:02:32Z</time>
      </trkpt>
      <trkpt lat="46.467691026628017" lon="9.340879982337356">
        <ele>1763.7</ele>
        <time>2007-06-09T12:02:37Z</time>
      </trkpt>
      <trkpt lat="46.467609973624349" lon="9.340729024261236">
        <ele>1760.3</ele>
        <time>2007-06-09T12:02:41Z</time>
      </trkpt>
      <trkpt lat="46.467506038025022" lon="9.34063296765089">
        <ele>1757.9000000000001</ele>
        <time>2007-06-09T12:02:45Z</time>
      </trkpt>
      <trkpt lat="46.467458009719849" lon="9.340562978759408">
        <ele>1756.5</ele>
        <time>2007-06-09T12:02:47Z</time>
      </trkpt>
      <trkpt lat="46.467366982251406" lon="9.340418977662921">
        <ele>1753.0999999999999</ele>
        <time>2007-06-09T12:02:52Z</time>
      </trkpt>
      <trkpt lat="46.467327000573277" lon="9.34037103317678">
        <ele>1752.5999999999999</ele>
        <time>2007-06-09T12:02:54Z</time>
      </trkpt>
      <trkpt lat="46.467280983924866" lon="9.340273970738053">
        <ele>1750.7</ele>
        <time>2007-06-09T12:02:57Z</time>
      </trkpt>
      <trkpt lat="46.46726799197495" lon="9.34020197018981">
        <ele>1749.3</ele>
        <time>2007-06-09T12:03:01Z</time>
      </trkpt>
      <trkpt lat="46.467250976711512" lon="9.34011697769165">
        <ele>1748.8</ele>
        <time>2007-06-09T12:03:05Z</time>
      </trkpt>
      <trkpt lat="46.467165984213352" lon="9.339972976595163">
        <ele>1745.4000000000001</ele>
        <time>2007-06-09T12:03:09Z</time>
      </trkpt>
      <trkpt lat="46.467061964794993" lon="9.339930983260274">
        <ele>1741.5999999999999</ele>
        <time>2007-06-09T12:03:13Z</time>
      </trkpt>
      <trkpt lat="46.467040004208684" lon="9.339915979653597">
        <ele>1740.5999999999999</ele>
        <time>2007-06-09T12:03:15Z</time>
      </trkpt>
      <trkpt lat="46.46703002974391" lon="9.339883960783482">
        <ele>1741.0999999999999</ele>
        <time>2007-06-09T12:03:18Z</time>
      </trkpt>
      <trkpt lat="46.467018965631723" lon="9.339855965226889">
        <ele>1741.5999999999999</ele>
        <time>2007-06-09T12:03:20Z</time>
      </trkpt>
      <trkpt lat="46.466899020597339" lon="9.339785976335406">
        <ele>1738.7</ele>
        <time>2007-06-09T12:03:25Z</time>
      </trkpt>
      <trkpt lat="46.466827020049095" lon="9.339652033522725">
        <ele>1737.2</ele>
        <time>2007-06-09T12:03:28Z</time>
      </trkpt>
      <trkpt lat="46.466661980375648" lon="9.339390015229583">
        <ele>1736.3</ele>
        <time>2007-06-09T12:03:34Z</time>
      </trkpt>
      <trkpt lat="46.466626022011042" lon="9.339336035773158">
        <ele>1735.3</ele>
        <time>2007-06-09T12:03:38Z</time>
      </trkpt>
      <trkpt lat="46.466642031446099" lon="9.339332012459636">
        <ele>1735.3</ele>
        <time>2007-06-09T12:03:46Z</time>
      </trkpt>
      <trkpt lat="46.466589979827404" lon="9.339285995811224">
        <ele>1734.4000000000001</ele>
        <time>2007-06-09T12:03:53Z</time>
      </trkpt>
      <trkpt lat="46.466511022299528" lon="9.339183988049626">
        <ele>1733.4000000000001</ele>
        <time>2007-06-09T12:03:59Z</time>
      </trkpt>
      <trkpt lat="46.466461988165975" lon="9.339145012199879">
        <ele>1730.5</ele>
        <time>2007-06-09T12:04:02Z</time>
      </trkpt>
      <trkpt lat="46.466350005939603" lon="9.33906395919621">
        <ele>1728.0999999999999</ele>
        <time>2007-06-09T12:04:07Z</time>
      </trkpt>
      <trkpt lat="46.466259984299541" lon="9.338985001668334">
        <ele>1724.3</ele>
        <time>2007-06-09T12:04:10Z</time>
      </trkpt>
      <trkpt lat="46.466212961822748" lon="9.338948959484696">
        <ele>1723.3</ele>
        <time>2007-06-09T12:04:12Z</time>
      </trkpt>
      <trkpt lat="46.466095028445125" lon="9.338888023048639">
        <ele>1720.4000000000001</ele>
        <time>2007-06-09T12:04:17Z</time>
      </trkpt>
      <trkpt lat="46.46606401540339" lon="9.338880982249975">
        <ele>1719.5</ele>
        <time>2007-06-09T12:04:21Z</time>
      </trkpt>
      <trkpt lat="46.466047000139952" lon="9.338890034705401">
        <ele>1718.5</ele>
        <time>2007-06-09T12:04:25Z</time>
      </trkpt>
      <trkpt lat="46.466026967391372" lon="9.338893974199891">
        <ele>1718.5</ele>
        <time>2007-06-09T12:04:29Z</time>
      </trkpt>
      <trkpt lat="46.465973993763328" lon="9.338885005563498">
        <ele>1717.5</ele>
        <time>2007-06-09T12:04:32Z</time>
      </trkpt>
      <trkpt lat="46.465939041227102" lon="9.338861033320427">
        <ele>1715.5999999999999</ele>
        <time>2007-06-09T12:04:36Z</time>
      </trkpt>
      <trkpt lat="46.465899981558323" lon="9.338817028328776">
        <ele>1714.5999999999999</ele>
        <time>2007-06-09T12:04:41Z</time>
      </trkpt>
      <trkpt lat="46.465866034850478" lon="9.338776040822268">
        <ele>1714.5999999999999</ele>
        <time>2007-06-09T12:04:46Z</time>
      </trkpt>
      <trkpt lat="46.465840972959995" lon="9.338685013353825">
        <ele>1713.2</ele>
        <time>2007-06-09T12:04:53Z</time>
      </trkpt>
      <trkpt lat="46.465766960754991" lon="9.338622987270355">
        <ele>1710.8</ele>
        <time>2007-06-09T12:04:59Z</time>
      </trkpt>
      <trkpt lat="46.465676017105579" lon="9.338587028905749">
        <ele>1708.4000000000001</ele>
        <time>2007-06-09T12:05:03Z</time>
      </trkpt>
      <trkpt lat="46.465643998235464" lon="9.338574036955833">
        <ele>1707.9000000000001</ele>
        <time>2007-06-09T12:05:05Z</time>
      </trkpt>
      <trkpt lat="46.465546013787389" lon="9.338520979508758">
        <ele>1705.5</ele>
        <time>2007-06-09T12:05:10Z</time>
      </trkpt>
      <trkpt lat="46.465485999360681" lon="9.338456019759178">
        <ele>1704.0999999999999</ele>
        <time>2007-06-09T12:05:14Z</time>
      </trkpt>
      <trkpt lat="46.465418022125959" lon="9.338301960378885">
        <ele>1700.2</ele>
        <time>2007-06-09T12:05:17Z</time>
      </trkpt>
      <trkpt lat="46.465409975498915" lon="9.338256027549505">
        <ele>1699.7</ele>
        <time>2007-06-09T12:05:18Z</time>
      </trkpt>
      <trkpt lat="46.465378040447831" lon="9.338088976219297">
        <ele>1697.3</ele>
        <time>2007-06-09T12:05:23Z</time>
      </trkpt>
      <trkpt lat="46.4653330296278" lon="9.338030973449349">
        <ele>1696.4000000000001</ele>
        <time>2007-06-09T12:05:25Z</time>
      </trkpt>
      <trkpt lat="46.465230016037822" lon="9.337955033406615">
        <ele>1695.4000000000001</ele>
        <time>2007-06-09T12:05:29Z</time>
      </trkpt>
      <trkpt lat="46.465187016874552" lon="9.337951010093093">
        <ele>1694.9000000000001</ele>
        <time>2007-06-09T12:05:31Z</time>
      </trkpt>
      <trkpt lat="46.465134965255857" lon="9.337911028414965">
        <ele>1691.0999999999999</ele>
        <time>2007-06-09T12:05:35Z</time>
      </trkpt>
      <trkpt lat="46.465182993561029" lon="9.337828969582915">
        <ele>1688.7</ele>
        <time>2007-06-09T12:05:39Z</time>
      </trkpt>
      <trkpt lat="46.465239990502596" lon="9.337796028703451">
        <ele>1686.8</ele>
        <time>2007-06-09T12:05:44Z</time>
      </trkpt>
      <trkpt lat="46.46524703130126" lon="9.337811032310128">
        <ele>1686.3</ele>
        <time>2007-06-09T12:06:03Z</time>
      </trkpt>
      <trkpt lat="46.465266980230808" lon="9.337770966812968">
        <ele>1685.3</ele>
        <time>2007-06-09T12:06:06Z</time>
      </trkpt>
      <trkpt lat="46.465222975239158" lon="9.337698966264725">
        <ele>1683.4000000000001</ele>
        <time>2007-06-09T12:06:10Z</time>
      </trkpt>
      <trkpt lat="46.465134965255857" lon="9.337624032050371">
        <ele>1680.5</ele>
        <time>2007-06-09T12:06:15Z</time>
      </trkpt>
      <trkpt lat="46.465150974690914" lon="9.337552031502128">
        <ele>1678.0999999999999</ele>
        <time>2007-06-09T12:06:18Z</time>
      </trkpt>
      <trkpt lat="46.465156003832817" lon="9.337533004581928">
        <ele>1677.5999999999999</ele>
        <time>2007-06-09T12:06:19Z</time>
      </trkpt>
      <trkpt lat="46.465180981904268" lon="9.337498974055052">
        <ele>1676.7</ele>
        <time>2007-06-09T12:06:21Z</time>
      </trkpt>
      <trkpt lat="46.465209983289242" lon="9.33742898516357">
        <ele>1674.8</ele>
        <time>2007-06-09T12:06:25Z</time>
      </trkpt>
      <trkpt lat="46.465150974690914" lon="9.337350027635694">
        <ele>1671.9000000000001</ele>
        <time>2007-06-09T12:06:29Z</time>
      </trkpt>
      <trkpt lat="46.465152986347675" lon="9.337236033752561">
        <ele>1668</ele>
        <time>2007-06-09T12:06:32Z</time>
      </trkpt>
      <trkpt lat="46.465153992176056" lon="9.337196974083781">
        <ele>1668</ele>
        <time>2007-06-09T12:06:33Z</time>
      </trkpt>
      <trkpt lat="46.465149968862534" lon="9.337152969092131">
        <ele>1665.5999999999999</ele>
        <time>2007-06-09T12:06:34Z</time>
      </trkpt>
      <trkpt lat="46.465105963870883" lon="9.336982984095812">
        <ele>1661.8</ele>
        <time>2007-06-09T12:06:38Z</time>
      </trkpt>
      <trkpt lat="46.465095989406109" lon="9.336938979104161">
        <ele>1660.8</ele>
        <time>2007-06-09T12:06:39Z</time>
      </trkpt>
      <trkpt lat="46.465101018548012" lon="9.33680696412921">
        <ele>1657.9000000000001</ele>
        <time>2007-06-09T12:06:44Z</time>
      </trkpt>
      <trkpt lat="46.465076962485909" lon="9.336777040734887">
        <ele>1657.9000000000001</ele>
        <time>2007-06-09T12:06:48Z</time>
      </trkpt>
      <trkpt lat="46.465045027434826" lon="9.336711997166276">
        <ele>1657</ele>
        <time>2007-06-09T12:07:01Z</time>
      </trkpt>
      <trkpt lat="46.465047961100936" lon="9.336700011044741">
        <ele>1657.5</ele>
        <time>2007-06-09T12:07:10Z</time>
      </trkpt>
      <trkpt lat="46.46503496915102" lon="9.336716020479798">
        <ele>1656.5</ele>
        <time>2007-06-09T12:07:17Z</time>
      </trkpt>
      <trkpt lat="46.465037986636162" lon="9.336734963580966">
        <ele>1656.5</ele>
        <time>2007-06-09T12:07:23Z</time>
      </trkpt>
      <trkpt lat="46.465026000514627" lon="9.336750973016024">
        <ele>1655.5</ele>
        <time>2007-06-09T12:07:26Z</time>
      </trkpt>
      <trkpt lat="46.465018959715962" lon="9.336733035743237">
        <ele>1654.5999999999999</ele>
        <time>2007-06-09T12:07:32Z</time>
      </trkpt>
      <trkpt lat="46.465027006343007" lon="9.336696993559599">
        <ele>1653.0999999999999</ele>
        <time>2007-06-09T12:07:38Z</time>
      </trkpt>
      <trkpt lat="46.465033041313291" lon="9.336692970246077">
        <ele>1653.0999999999999</ele>
        <time>2007-06-09T12:07:42Z</time>
      </trkpt>
      <trkpt lat="46.465091966092587" lon="9.336595991626382">
        <ele>1649.8</ele>
        <time>2007-06-09T12:07:47Z</time>
      </trkpt>
      <trkpt lat="46.465104036033154" lon="9.336585011333227">
        <ele>1649.8</ele>
        <time>2007-06-09T12:07:48Z</time>
      </trkpt>
      <trkpt lat="46.465113004669547" lon="9.336557015776634">
        <ele>1648.3</ele>
        <time>2007-06-09T12:07:50Z</time>
      </trkpt>
      <trkpt lat="46.465105041861534" lon="9.336550980806351">
        <ele>1646.9000000000001</ele>
        <time>2007-06-09T12:07:53Z</time>
      </trkpt>
      <trkpt lat="46.465091966092587" lon="9.336488032713532">
        <ele>1647.4000000000001</ele>
        <time>2007-06-09T12:07:58Z</time>
      </trkpt>
      <trkpt lat="46.465060031041503" lon="9.336512004956603">
        <ele>1647.8</ele>
        <time>2007-06-09T12:08:09Z</time>
      </trkpt>
      <trkpt lat="46.465041004121304" lon="9.336519967764616">
        <ele>1647.8</ele>
        <time>2007-06-09T12:08:15Z</time>
      </trkpt>
      <trkpt lat="46.465031029656529" lon="9.336497001349926">
        <ele>1646.4000000000001</ele>
        <time>2007-06-09T12:08:21Z</time>
      </trkpt>
      <trkpt lat="46.465047039091587" lon="9.336469005793333">
        <ele>1645.9000000000001</ele>
        <time>2007-06-09T12:08:26Z</time>
      </trkpt>
      <trkpt lat="46.465033041313291" lon="9.336452996358275">
        <ele>1645</ele>
        <time>2007-06-09T12:08:30Z</time>
      </trkpt>
      <trkpt lat="46.46499196998775" lon="9.336385019123554">
        <ele>1643.5</ele>
        <time>2007-06-09T12:08:34Z</time>
      </trkpt>
      <trkpt lat="46.465006973594427" lon="9.336300026625395">
        <ele>1641.0999999999999</ele>
        <time>2007-06-09T12:08:38Z</time>
      </trkpt>
      <trkpt lat="46.464980989694595" lon="9.336258033290505">
        <ele>1639.7</ele>
        <time>2007-06-09T12:08:40Z</time>
      </trkpt>
      <trkpt lat="46.464894991368055" lon="9.336131969466806">
        <ele>1634.9000000000001</ele>
        <time>2007-06-09T12:08:46Z</time>
      </trkpt>
      <trkpt lat="46.464898008853197" lon="9.336128029972315">
        <ele>1634.4000000000001</ele>
        <time>2007-06-09T12:08:47Z</time>
      </trkpt>
      <trkpt lat="46.464951988309622" lon="9.336061980575323">
        <ele>1632.9000000000001</ele>
        <time>2007-06-09T12:08:51Z</time>
      </trkpt>
      <trkpt lat="46.464953999966383" lon="9.335971958935261">
        <ele>1631</ele>
        <time>2007-06-09T12:08:54Z</time>
      </trkpt>
      <trkpt lat="46.464945031329989" lon="9.335894007235766">
        <ele>1629.5999999999999</ele>
        <time>2007-06-09T12:08:56Z</time>
      </trkpt>
      <trkpt lat="46.46494603715837" lon="9.335788981989026">
        <ele>1626.7</ele>
        <time>2007-06-09T12:08:59Z</time>
      </trkpt>
      <trkpt lat="46.464933967217803" lon="9.335756963118911">
        <ele>1626.2</ele>
        <time>2007-06-09T12:09:00Z</time>
      </trkpt>
      <trkpt lat="46.464920975267887" lon="9.335726033896208">
        <ele>1624.8</ele>
        <time>2007-06-09T12:09:01Z</time>
      </trkpt>
      <trkpt lat="46.464919969439507" lon="9.335665013641119">
        <ele>1623.8</ele>
        <time>2007-06-09T12:09:03Z</time>
      </trkpt>
      <trkpt lat="46.464966991916299" lon="9.335670964792371">
        <ele>1622.4000000000001</ele>
        <time>2007-06-09T12:09:06Z</time>
      </trkpt>
      <trkpt lat="46.465039998292923" lon="9.335729973390698">
        <ele>1621.4000000000001</ele>
        <time>2007-06-09T12:09:13Z</time>
      </trkpt>
      <trkpt lat="46.465063970535994" lon="9.33570901863277">
        <ele>1621.4000000000001</ele>
        <time>2007-06-09T12:09:21Z</time>
      </trkpt>
      <trkpt lat="46.4650550018996" lon="9.335654033347964">
        <ele>1618</ele>
        <time>2007-06-09T12:09:24Z</time>
      </trkpt>
      <trkpt lat="46.465031029656529" lon="9.335570968687534">
        <ele>1617.5999999999999</ele>
        <time>2007-06-09T12:09:30Z</time>
      </trkpt>
      <trkpt lat="46.465020971372724" lon="9.335528975352645">
        <ele>1616.0999999999999</ele>
        <time>2007-06-09T12:09:38Z</time>
      </trkpt>
      <trkpt lat="46.465016026049852" lon="9.335509026423097">
        <ele>1615.2</ele>
        <time>2007-06-09T12:09:40Z</time>
      </trkpt>
      <trkpt lat="46.464978978037834" lon="9.335465021431446">
        <ele>1613.7</ele>
        <time>2007-06-09T12:09:45Z</time>
      </trkpt>
      <trkpt lat="46.46494897082448" lon="9.335417998954654">
        <ele>1611.8</ele>
        <time>2007-06-09T12:09:48Z</time>
      </trkpt>
      <trkpt lat="46.464923992753029" lon="9.335396960377693">
        <ele>1610.8</ele>
        <time>2007-06-09T12:09:52Z</time>
      </trkpt>
      <trkpt lat="46.464920975267887" lon="9.335339963436127">
        <ele>1609.9000000000001</ele>
        <time>2007-06-09T12:09:59Z</time>
      </trkpt>
      <trkpt lat="46.46492600440979" lon="9.335310040041804">
        <ele>1608.9000000000001</ele>
        <time>2007-06-09T12:10:06Z</time>
      </trkpt>
      <trkpt lat="46.464940002188087" lon="9.335265029221773">
        <ele>1609.4000000000001</ele>
        <time>2007-06-09T12:10:11Z</time>
      </trkpt>
      <trkpt lat="46.464941008016467" lon="9.335254970937967">
        <ele>1608.9000000000001</ele>
        <time>2007-06-09T12:10:12Z</time>
      </trkpt>
      <trkpt lat="46.46492600440979" lon="9.335207026451826">
        <ele>1608.9000000000001</ele>
        <time>2007-06-09T12:10:18Z</time>
      </trkpt>
      <trkpt lat="46.464899014681578" lon="9.335146006196737">
        <ele>1608.9000000000001</ele>
        <time>2007-06-09T12:10:23Z</time>
      </trkpt>
      <trkpt lat="46.464847968891263" lon="9.335030000656843">
        <ele>1606</ele>
        <time>2007-06-09T12:10:28Z</time>
      </trkpt>
      <trkpt lat="46.464783009141684" lon="9.334860015660524">
        <ele>1602.7</ele>
        <time>2007-06-09T12:10:34Z</time>
      </trkpt>
      <trkpt lat="46.464736992493272" lon="9.334686007350683">
        <ele>1601.7</ele>
        <time>2007-06-09T12:10:39Z</time>
      </trkpt>
      <trkpt lat="46.464794995263219" lon="9.334611995145679">
        <ele>1600.3</ele>
        <time>2007-06-09T12:10:43Z</time>
      </trkpt>
      <trkpt lat="46.46484000608325" lon="9.334605960175395">
        <ele>1599.3</ele>
        <time>2007-06-09T12:10:48Z</time>
      </trkpt>
      <trkpt lat="46.464877976104617" lon="9.334585005417466">
        <ele>1600.3</ele>
        <time>2007-06-09T12:10:54Z</time>
      </trkpt>
      <trkpt lat="46.464900020509958" lon="9.334541000425816">
        <ele>1601.2</ele>
        <time>2007-06-09T12:10:59Z</time>
      </trkpt>
      <trkpt lat="46.464890968054533" lon="9.334516022354364">
        <ele>1601.2</ele>
        <time>2007-06-09T12:11:09Z</time>
      </trkpt>
      <trkpt lat="46.464914018288255" lon="9.334461037069559">
        <ele>1601.7</ele>
        <time>2007-06-09T12:11:15Z</time>
      </trkpt>
      <trkpt lat="46.465021977201104" lon="9.334389958530664">
        <ele>1601.7</ele>
        <time>2007-06-09T12:11:30Z</time>
      </trkpt>
      <trkpt lat="46.465019965544343" lon="9.334375038743019">
        <ele>1602.7</ele>
        <time>2007-06-09T12:11:55Z</time>
      </trkpt>
      <trkpt lat="46.464961962774396" lon="9.334414014592767">
        <ele>1602.7</ele>
        <time>2007-06-09T12:12:03Z</time>
      </trkpt>
      <trkpt lat="46.464942013844848" lon="9.334404040127993">
        <ele>1602.7</ele>
        <time>2007-06-09T12:12:09Z</time>
      </trkpt>
      <trkpt lat="46.464931033551693" lon="9.334364980459213">
        <ele>1602.7</ele>
        <time>2007-06-09T12:12:16Z</time>
      </trkpt>
      <trkpt lat="46.464860960841179" lon="9.334276970475912">
        <ele>1603.0999999999999</ele>
        <time>2007-06-09T12:12:23Z</time>
      </trkpt>
      <trkpt lat="46.46486003883183" lon="9.334179991856217">
        <ele>1603.0999999999999</ele>
        <time>2007-06-09T12:12:28Z</time>
      </trkpt>
      <trkpt lat="46.464782003313303" lon="9.33412198908627">
        <ele>1603.5999999999999</ele>
        <time>2007-06-09T12:12:33Z</time>
      </trkpt>
      <trkpt lat="46.464706985279918" lon="9.333987040445209">
        <ele>1603.5999999999999</ele>
        <time>2007-06-09T12:12:41Z</time>
      </trkpt>
      <trkpt lat="46.464718971401453" lon="9.333944041281939">
        <ele>1603.5999999999999</ele>
        <time>2007-06-09T12:12:45Z</time>
      </trkpt>
      <trkpt lat="46.464716959744692" lon="9.333934988826513">
        <ele>1603.5999999999999</ele>
        <time>2007-06-09T12:12:48Z</time>
      </trkpt>
      <trkpt lat="46.46466800943017" lon="9.333763998001814">
        <ele>1603.5999999999999</ele>
        <time>2007-06-09T12:12:54Z</time>
      </trkpt>
      <trkpt lat="46.464639008045197" lon="9.333551013842225">
        <ele>1603.5999999999999</ele>
        <time>2007-06-09T12:13:00Z</time>
      </trkpt>
      <trkpt lat="46.464600032195449" lon="9.333417993038893">
        <ele>1603.0999999999999</ele>
        <time>2007-06-09T12:13:05Z</time>
      </trkpt>
      <trkpt lat="46.464572036638856" lon="9.333315985277295">
        <ele>1601.7</ele>
        <time>2007-06-09T12:13:08Z</time>
      </trkpt>
      <trkpt lat="46.464501963928342" lon="9.333033012226224">
        <ele>1600.7</ele>
        <time>2007-06-09T12:13:14Z</time>
      </trkpt>
      <trkpt lat="46.464500036090612" lon="9.332980960607529">
        <ele>1600.3</ele>
        <time>2007-06-09T12:13:17Z</time>
      </trkpt>
      <trkpt lat="46.464460976421833" lon="9.332818016409874">
        <ele>1598.8</ele>
        <time>2007-06-09T12:13:22Z</time>
      </trkpt>
      <trkpt lat="46.464448990300298" lon="9.332751967012882">
        <ele>1598.3</ele>
        <time>2007-06-09T12:13:23Z</time>
      </trkpt>
      <trkpt lat="46.464399034157395" lon="9.332490032538772">
        <ele>1597.4000000000001</ele>
        <time>2007-06-09T12:13:28Z</time>
      </trkpt>
      <trkpt lat="46.464414037764072" lon="9.332373021170497">
        <ele>1595.4000000000001</ele>
        <time>2007-06-09T12:13:31Z</time>
      </trkpt>
      <trkpt lat="46.464379001408815" lon="9.332197001203895">
        <ele>1592.0999999999999</ele>
        <time>2007-06-09T12:13:36Z</time>
      </trkpt>
      <trkpt lat="46.464370032772422" lon="9.332151990383863">
        <ele>1591.5999999999999</ele>
        <time>2007-06-09T12:13:37Z</time>
      </trkpt>
      <trkpt lat="46.464309012517333" lon="9.331929031759501">
        <ele>1587.3</ele>
        <time>2007-06-09T12:13:40Z</time>
      </trkpt>
      <trkpt lat="46.46426098421216" lon="9.331752005964518">
        <ele>1585.8</ele>
        <time>2007-06-09T12:13:43Z</time>
      </trkpt>
      <trkpt lat="46.464227037504315" lon="9.331594007089734">
        <ele>1584.4000000000001</ele>
        <time>2007-06-09T12:13:47Z</time>
      </trkpt>
      <trkpt lat="46.464198958128691" lon="9.331443971022964">
        <ele>1583.4000000000001</ele>
        <time>2007-06-09T12:13:51Z</time>
      </trkpt>
      <trkpt lat="46.464128969237208" lon="9.331282032653689">
        <ele>1582</ele>
        <time>2007-06-09T12:13:55Z</time>
      </trkpt>
      <trkpt lat="46.464097034186125" lon="9.331143982708454">
        <ele>1581</ele>
        <time>2007-06-09T12:13:58Z</time>
      </trkpt>
      <trkpt lat="46.463997960090637" lon="9.330894034355879">
        <ele>1580.0999999999999</ele>
        <time>2007-06-09T12:14:04Z</time>
      </trkpt>
      <trkpt lat="46.463982034474611" lon="9.330845000222325">
        <ele>1579.5999999999999</ele>
        <time>2007-06-09T12:14:05Z</time>
      </trkpt>
      <trkpt lat="46.463933000341058" lon="9.330677026882768">
        <ele>1575.7</ele>
        <time>2007-06-09T12:14:09Z</time>
      </trkpt>
      <trkpt lat="46.463885977864265" lon="9.330520033836365">
        <ele>1576.2</ele>
        <time>2007-06-09T12:14:14Z</time>
      </trkpt>
      <trkpt lat="46.46387399174273" lon="9.330466976389289">
        <ele>1576.2</ele>
        <time>2007-06-09T12:14:18Z</time>
      </trkpt>
      <trkpt lat="46.463877009227872" lon="9.330422971397638">
        <ele>1577.7</ele>
        <time>2007-06-09T12:14:22Z</time>
      </trkpt>
      <trkpt lat="46.463900981470942" lon="9.330363962799311">
        <ele>1579.0999999999999</ele>
        <time>2007-06-09T12:14:28Z</time>
      </trkpt>
      <trkpt lat="46.463924031704664" lon="9.330297997221351">
        <ele>1578.0999999999999</ele>
        <time>2007-06-09T12:14:39Z</time>
      </trkpt>
      <trkpt lat="46.463930988684297" lon="9.330225996673107">
        <ele>1579.0999999999999</ele>
        <time>2007-06-09T12:14:45Z</time>
      </trkpt>
      <trkpt lat="46.463940963149071" lon="9.330219961702824">
        <ele>1579.0999999999999</ele>
        <time>2007-06-09T12:14:54Z</time>
      </trkpt>
      <trkpt lat="46.463939035311341" lon="9.330229014158249">
        <ele>1579.0999999999999</ele>
        <time>2007-06-09T12:15:04Z</time>
      </trkpt>
      <trkpt lat="46.463948003947735" lon="9.330219039693475">
        <ele>1579.0999999999999</ele>
        <time>2007-06-09T12:15:13Z</time>
      </trkpt>
      <trkpt lat="46.463967030867934" lon="9.330194983631373">
        <ele>1578.0999999999999</ele>
        <time>2007-06-09T12:15:57Z</time>
      </trkpt>
      <trkpt lat="46.463963007554412" lon="9.33020998723805">
        <ele>1576.2</ele>
        <time>2007-06-09T12:16:19Z</time>
      </trkpt>
      <trkpt lat="46.46395898424089" lon="9.330215016379952">
        <ele>1575.7</ele>
        <time>2007-06-09T12:16:53Z</time>
      </trkpt>
      <trkpt lat="46.463954960927367" lon="9.330219961702824">
        <ele>1575.7</ele>
        <time>2007-06-09T12:17:10Z</time>
      </trkpt>
      <trkpt lat="46.463968036696315" lon="9.330203030258417">
        <ele>1576.7</ele>
        <time>2007-06-09T12:17:24Z</time>
      </trkpt>
      <trkpt lat="46.463954038918018" lon="9.330241000279784">
        <ele>1576.7</ele>
        <time>2007-06-09T12:18:09Z</time>
      </trkpt>
      <trkpt lat="46.463957978412509" lon="9.330233037471771">
        <ele>1577.2</ele>
        <time>2007-06-09T12:18:10Z</time>
      </trkpt>
      <trkpt lat="46.463978011161089" lon="9.330109991133213">
        <ele>1577.2</ele>
        <time>2007-06-09T12:18:17Z</time>
      </trkpt>
      <trkpt lat="46.46398002281785" lon="9.330086018890142">
        <ele>1578.5999999999999</ele>
        <time>2007-06-09T12:18:19Z</time>
      </trkpt>
      <trkpt lat="46.463992008939385" lon="9.330062968656421">
        <ele>1578.0999999999999</ele>
        <time>2007-06-09T12:18:25Z</time>
      </trkpt>
      <trkpt lat="46.464008018374443" lon="9.330017035827041">
        <ele>1577.7</ele>
        <time>2007-06-09T12:18:32Z</time>
      </trkpt>
      <trkpt lat="46.464017992839217" lon="9.329875968396664">
        <ele>1576.7</ele>
        <time>2007-06-09T12:18:37Z</time>
      </trkpt>
      <trkpt lat="46.464050011709332" lon="9.329742025583983">
        <ele>1574.8</ele>
        <time>2007-06-09T12:18:42Z</time>
      </trkpt>
      <trkpt lat="46.464094016700983" lon="9.329642029479146">
        <ele>1573.8</ele>
        <time>2007-06-09T12:18:46Z</time>
      </trkpt>
      <trkpt lat="46.464112037792802" lon="9.32956600561738">
        <ele>1573.8</ele>
        <time>2007-06-09T12:18:49Z</time>
      </trkpt>
      <trkpt lat="46.464127963408828" lon="9.329512026160955">
        <ele>1573.3</ele>
        <time>2007-06-09T12:18:51Z</time>
      </trkpt>
      <trkpt lat="46.464121006429195" lon="9.329332988709211">
        <ele>1572.9000000000001</ele>
        <time>2007-06-09T12:18:56Z</time>
      </trkpt>
      <trkpt lat="46.464124023914337" lon="9.329150011762977">
        <ele>1570.9000000000001</ele>
        <time>2007-06-09T12:19:01Z</time>
      </trkpt>
      <trkpt lat="46.464117988944054" lon="9.329056972637773">
        <ele>1570</ele>
        <time>2007-06-09T12:19:03Z</time>
      </trkpt>
      <trkpt lat="46.464111031964421" lon="9.328911965712905">
        <ele>1568.5</ele>
        <time>2007-06-09T12:19:08Z</time>
      </trkpt>
      <trkpt lat="46.464079013094306" lon="9.328865027055144">
        <ele>1566.5999999999999</ele>
        <time>2007-06-09T12:19:16Z</time>
      </trkpt>
      <trkpt lat="46.464070966467261" lon="9.328843988478184">
        <ele>1566.5999999999999</ele>
        <time>2007-06-09T12:19:17Z</time>
      </trkpt>
      <trkpt lat="46.464039031416178" lon="9.328736029565334">
        <ele>1564.7</ele>
        <time>2007-06-09T12:19:23Z</time>
      </trkpt>
      <trkpt lat="46.464036013931036" lon="9.328678026795387">
        <ele>1563.2</ele>
        <time>2007-06-09T12:19:26Z</time>
      </trkpt>
      <trkpt lat="46.464020004495978" lon="9.328670985996723">
        <ele>1562.8</ele>
        <time>2007-06-09T12:19:28Z</time>
      </trkpt>
      <trkpt lat="46.464012963697314" lon="9.328653970733285">
        <ele>1562.3</ele>
        <time>2007-06-09T12:19:31Z</time>
      </trkpt>
      <trkpt lat="46.463999971747398" lon="9.328501001000404">
        <ele>1561.3</ele>
        <time>2007-06-09T12:19:37Z</time>
      </trkpt>
      <trkpt lat="46.463999971747398" lon="9.328453978523612">
        <ele>1560.8</ele>
        <time>2007-06-09T12:19:38Z</time>
      </trkpt>
      <trkpt lat="46.464060992002487" lon="9.32831902988255">
        <ele>1557.5</ele>
        <time>2007-06-09T12:19:42Z</time>
      </trkpt>
      <trkpt lat="46.464098040014505" lon="9.32821299880743">
        <ele>1557</ele>
        <time>2007-06-09T12:19:47Z</time>
      </trkpt>
      <trkpt lat="46.464153025299311" lon="9.328086012974381">
        <ele>1556.5</ele>
        <time>2007-06-09T12:19:52Z</time>
      </trkpt>
      <trkpt lat="46.46423701196909" lon="9.327978976070881">
        <ele>1557</ele>
        <time>2007-06-09T12:19:57Z</time>
      </trkpt>
      <trkpt lat="46.464270036667585" lon="9.32793203741312">
        <ele>1557.5</ele>
        <time>2007-06-09T12:20:02Z</time>
      </trkpt>
      <trkpt lat="46.464286968111992" lon="9.32791200466454">
        <ele>1557</ele>
        <time>2007-06-09T12:20:06Z</time>
      </trkpt>
      <trkpt lat="46.464340025559068" lon="9.327787030488253">
        <ele>1556.5</ele>
        <time>2007-06-09T12:20:12Z</time>
      </trkpt>
      <trkpt lat="46.464390987530351" lon="9.327670019119978">
        <ele>1555.5999999999999</ele>
        <time>2007-06-09T12:20:16Z</time>
      </trkpt>
      <trkpt lat="46.464402973651886" lon="9.32763297110796">
        <ele>1556.5</ele>
        <time>2007-06-09T12:20:18Z</time>
      </trkpt>
      <trkpt lat="46.464406996965408" lon="9.327585026621819">
        <ele>1556</ele>
        <time>2007-06-09T12:20:23Z</time>
      </trkpt>
      <trkpt lat="46.464420994743705" lon="9.327485030516982">
        <ele>1556</ele>
        <time>2007-06-09T12:20:35Z</time>
      </trkpt>
      <trkpt lat="46.464437004178762" lon="9.327421998605132">
        <ele>1556.5</ele>
        <time>2007-06-09T12:20:40Z</time>
      </trkpt>
      <trkpt lat="46.464455025270581" lon="9.327316973358393">
        <ele>1557</ele>
        <time>2007-06-09T12:20:44Z</time>
      </trkpt>
      <trkpt lat="46.464420994743705" lon="9.327209014445543">
        <ele>1555.5999999999999</ele>
        <time>2007-06-09T12:20:49Z</time>
      </trkpt>
      <trkpt lat="46.464397022500634" lon="9.327133996412158">
        <ele>1554.5999999999999</ele>
        <time>2007-06-09T12:20:54Z</time>
      </trkpt>
      <trkpt lat="46.464395010843873" lon="9.327082028612495">
        <ele>1554.0999999999999</ele>
        <time>2007-06-09T12:20:57Z</time>
      </trkpt>
      <trkpt lat="46.464371038600802" lon="9.326972980052233">
        <ele>1554.0999999999999</ele>
        <time>2007-06-09T12:21:02Z</time>
      </trkpt>
      <trkpt lat="46.464361986145377" lon="9.32679696008563">
        <ele>1553.0999999999999</ele>
        <time>2007-06-09T12:21:07Z</time>
      </trkpt>
      <trkpt lat="46.46436701528728" lon="9.3267070222646">
        <ele>1553.0999999999999</ele>
        <time>2007-06-09T12:21:09Z</time>
      </trkpt>
      <trkpt lat="46.46438897587359" lon="9.326568972319365">
        <ele>1553.0999999999999</ele>
        <time>2007-06-09T12:21:14Z</time>
      </trkpt>
      <trkpt lat="46.464403979480267" lon="9.32653502561152">
        <ele>1551.7</ele>
        <time>2007-06-09T12:21:16Z</time>
      </trkpt>
      <trkpt lat="46.464414959773421" lon="9.326345007866621">
        <ele>1549.8</ele>
        <time>2007-06-09T12:21:21Z</time>
      </trkpt>
      <trkpt lat="46.464423006400466" lon="9.32629999704659">
        <ele>1549.3</ele>
        <time>2007-06-09T12:21:24Z</time>
      </trkpt>
      <trkpt lat="46.464420994743705" lon="9.326216010376811">
        <ele>1549.3</ele>
        <time>2007-06-09T12:21:28Z</time>
      </trkpt>
      <trkpt lat="46.464443039149046" lon="9.326067985966802">
        <ele>1548.8</ele>
        <time>2007-06-09T12:21:33Z</time>
      </trkpt>
      <trkpt lat="46.464460976421833" lon="9.325914010405541">
        <ele>1548.8</ele>
        <time>2007-06-09T12:21:38Z</time>
      </trkpt>
      <trkpt lat="46.464461982250214" lon="9.325891966000199">
        <ele>1549.3</ele>
        <time>2007-06-09T12:21:41Z</time>
      </trkpt>
      <trkpt lat="46.464470028877258" lon="9.325830023735762">
        <ele>1549.3</ele>
        <time>2007-06-09T12:21:46Z</time>
      </trkpt>
      <trkpt lat="46.464487966150045" lon="9.325791969895363">
        <ele>1549.8</ele>
        <time>2007-06-09T12:21:49Z</time>
      </trkpt>
      <trkpt lat="46.464485032483935" lon="9.325636988505721">
        <ele>1549.3</ele>
        <time>2007-06-09T12:21:58Z</time>
      </trkpt>
      <trkpt lat="46.464484026655555" lon="9.325563982129097">
        <ele>1549.3</ele>
        <time>2007-06-09T12:22:03Z</time>
      </trkpt>
      <trkpt lat="46.464460976421833" lon="9.325518971309066">
        <ele>1548.8</ele>
        <time>2007-06-09T12:22:07Z</time>
      </trkpt>
      <trkpt lat="46.464415965601802" lon="9.32533398270607">
        <ele>1549.3</ele>
        <time>2007-06-09T12:22:15Z</time>
      </trkpt>
      <trkpt lat="46.464412026107311" lon="9.325165003538132">
        <ele>1550.7</ele>
        <time>2007-06-09T12:22:21Z</time>
      </trkpt>
      <trkpt lat="46.464437004178762" lon="9.325070036575198">
        <ele>1551.2</ele>
        <time>2007-06-09T12:22:25Z</time>
      </trkpt>
      <trkpt lat="46.464473968371749" lon="9.324936009943485">
        <ele>1550.7</ele>
        <time>2007-06-09T12:22:30Z</time>
      </trkpt>
      <trkpt lat="46.464443039149046" lon="9.324898039922118">
        <ele>1550.3</ele>
        <time>2007-06-09T12:22:34Z</time>
      </trkpt>
      <trkpt lat="46.464442033320665" lon="9.324908014386892">
        <ele>1550.7</ele>
        <time>2007-06-09T12:23:08Z</time>
      </trkpt>
      <trkpt lat="46.464445972815156" lon="9.324912959709764">
        <ele>1551.2</ele>
        <time>2007-06-09T12:24:12Z</time>
      </trkpt>
      <trkpt lat="46.464446978643537" lon="9.324912959709764">
        <ele>1549.3</ele>
        <time>2007-06-09T12:24:57Z</time>
      </trkpt>
      <trkpt lat="46.464411020278931" lon="9.324904996901751">
        <ele>1548.3</ele>
        <time>2007-06-09T12:25:34Z</time>
      </trkpt>
      <trkpt lat="46.464406996965408" lon="9.324904996901751">
        <ele>1548.3</ele>
        <time>2007-06-09T12:25:35Z</time>
      </trkpt>
      <trkpt lat="46.464359974488616" lon="9.324899967759848">
        <ele>1547.9000000000001</ele>
        <time>2007-06-09T12:25:40Z</time>
      </trkpt>
      <trkpt lat="46.464330973103642" lon="9.324863003566861">
        <ele>1547.9000000000001</ele>
        <time>2007-06-09T12:25:45Z</time>
      </trkpt>
      <trkpt lat="46.464293003082275" lon="9.324883036315441">
        <ele>1546.9000000000001</ele>
        <time>2007-06-09T12:25:51Z</time>
      </trkpt>
      <trkpt lat="46.464286968111992" lon="9.324888987466693">
        <ele>1547.4000000000001</ele>
        <time>2007-06-09T12:25:55Z</time>
      </trkpt>
      <trkpt lat="46.46421798504889" lon="9.324942966923118">
        <ele>1545.5</ele>
        <time>2007-06-09T12:26:01Z</time>
      </trkpt>
      <trkpt lat="46.464098962023854" lon="9.324954031035304">
        <ele>1544.5</ele>
        <time>2007-06-09T12:26:06Z</time>
      </trkpt>
      <trkpt lat="46.464040037244558" lon="9.324947996065021">
        <ele>1544.5</ele>
        <time>2007-06-09T12:26:11Z</time>
      </trkpt>
      <trkpt lat="46.464009024202824" lon="9.324952019378543">
        <ele>1545</ele>
        <time>2007-06-09T12:26:13Z</time>
      </trkpt>
      <trkpt lat="46.463914979249239" lon="9.324941039085388">
        <ele>1544.5</ele>
        <time>2007-06-09T12:26:19Z</time>
      </trkpt>
      <trkpt lat="46.46389301866293" lon="9.324944978579879">
        <ele>1544.5</ele>
        <time>2007-06-09T12:26:21Z</time>
      </trkpt>
      <trkpt lat="46.463866028934717" lon="9.324920000508428">
        <ele>1545.5</ele>
        <time>2007-06-09T12:26:25Z</time>
      </trkpt>
      <trkpt lat="46.463823029771447" lon="9.324916983023286">
        <ele>1545.9000000000001</ele>
        <time>2007-06-09T12:26:29Z</time>
      </trkpt>
      <trkpt lat="46.463733008131385" lon="9.324898039922118">
        <ele>1546.4000000000001</ele>
        <time>2007-06-09T12:26:37Z</time>
      </trkpt>
      <trkpt lat="46.46372102200985" lon="9.324896028265357">
        <ele>1546.9000000000001</ele>
        <time>2007-06-09T12:26:43Z</time>
      </trkpt>
      <trkpt lat="46.46367902867496" lon="9.324875995516777">
        <ele>1545.5</ele>
        <time>2007-06-09T12:26:48Z</time>
      </trkpt>
      <trkpt lat="46.463619014248252" lon="9.324792008846998">
        <ele>1545</ele>
        <time>2007-06-09T12:26:52Z</time>
      </trkpt>
      <trkpt lat="46.463518012315035" lon="9.32477499358356">
        <ele>1543.5</ele>
        <time>2007-06-09T12:26:58Z</time>
      </trkpt>
      <trkpt lat="46.46338096819818" lon="9.324690001085401">
        <ele>1543.5</ele>
        <time>2007-06-09T12:27:03Z</time>
      </trkpt>
      <trkpt lat="46.463296981528401" lon="9.324644990265369">
        <ele>1545</ele>
        <time>2007-06-09T12:27:08Z</time>
      </trkpt>
      <trkpt lat="46.463166978210211" lon="9.324610959738493">
        <ele>1544</ele>
        <time>2007-06-09T12:27:15Z</time>
      </trkpt>
      <trkpt lat="46.463087014853954" lon="9.324606014415622">
        <ele>1543.0999999999999</ele>
        <time>2007-06-09T12:27:19Z</time>
      </trkpt>
      <trkpt lat="46.462967991828918" lon="9.324711039662361">
        <ele>1540.2</ele>
        <time>2007-06-09T12:27:24Z</time>
      </trkpt>
      <trkpt lat="46.462857015430927" lon="9.324773987755179">
        <ele>1538.7</ele>
        <time>2007-06-09T12:27:27Z</time>
      </trkpt>
      <trkpt lat="46.462743021547794" lon="9.324832996353507">
        <ele>1538.2</ele>
        <time>2007-06-09T12:27:31Z</time>
      </trkpt>
      <trkpt lat="46.462636990472674" lon="9.324875995516777">
        <ele>1536.3</ele>
        <time>2007-06-09T12:27:34Z</time>
      </trkpt>
      <trkpt lat="46.462501036003232" lon="9.324909020215273">
        <ele>1536.3</ele>
        <time>2007-06-09T12:27:38Z</time>
      </trkpt>
      <trkpt lat="46.462443033233285" lon="9.32492402382195">
        <ele>1535.4000000000001</ele>
        <time>2007-06-09T12:27:40Z</time>
      </trkpt>
      <trkpt lat="46.46232602186501" lon="9.324901979416609">
        <ele>1534.4000000000001</ele>
        <time>2007-06-09T12:27:45Z</time>
      </trkpt>
      <trkpt lat="46.462268019095063" lon="9.324927963316441">
        <ele>1533</ele>
        <time>2007-06-09T12:27:47Z</time>
      </trkpt>
      <trkpt lat="46.462170034646988" lon="9.324939027428627">
        <ele>1531</ele>
        <time>2007-06-09T12:27:51Z</time>
      </trkpt>
      <trkpt lat="46.462084958329797" lon="9.324986971914768">
        <ele>1528.2</ele>
        <time>2007-06-09T12:27:55Z</time>
      </trkpt>
      <trkpt lat="46.462033996358514" lon="9.325024019926786">
        <ele>1526.7</ele>
        <time>2007-06-09T12:27:57Z</time>
      </trkpt>
      <trkpt lat="46.461838027462363" lon="9.325076993554831">
        <ele>1522.9000000000001</ele>
        <time>2007-06-09T12:28:03Z</time>
      </trkpt>
      <trkpt lat="46.46168002858758" lon="9.325110018253326">
        <ele>1520.5</ele>
        <time>2007-06-09T12:28:08Z</time>
      </trkpt>
      <trkpt lat="46.46155203692615" lon="9.325085962191224">
        <ele>1517.5999999999999</ele>
        <time>2007-06-09T12:28:12Z</time>
      </trkpt>
      <trkpt lat="46.461443994194269" lon="9.325080011039972">
        <ele>1517.0999999999999</ele>
        <time>2007-06-09T12:28:16Z</time>
      </trkpt>
      <trkpt lat="46.461361013352871" lon="9.325054027140141">
        <ele>1519</ele>
        <time>2007-06-09T12:28:22Z</time>
      </trkpt>
      <trkpt lat="46.46131600253284" lon="9.325013961642981">
        <ele>1517.5999999999999</ele>
        <time>2007-06-09T12:28:43Z</time>
      </trkpt>
      <trkpt lat="46.461184993386269" lon="9.324969034641981">
        <ele>1516.5999999999999</ele>
        <time>2007-06-09T12:28:49Z</time>
      </trkpt>
      <trkpt lat="46.461065970361233" lon="9.324937015771866">
        <ele>1515.2</ele>
        <time>2007-06-09T12:28:54Z</time>
      </trkpt>
      <trkpt lat="46.460958011448383" lon="9.324947996065021">
        <ele>1513.7</ele>
        <time>2007-06-09T12:28:59Z</time>
      </trkpt>
      <trkpt lat="46.460847035050392" lon="9.324906002730131">
        <ele>1512.8</ele>
        <time>2007-06-09T12:29:04Z</time>
      </trkpt>
      <trkpt lat="46.460778973996639" lon="9.324811035767198">
        <ele>1511.8</ele>
        <time>2007-06-09T12:29:09Z</time>
      </trkpt>
      <trkpt lat="46.460718959569931" lon="9.324748003855348">
        <ele>1511.3</ele>
        <time>2007-06-09T12:29:13Z</time>
      </trkpt>
      <trkpt lat="46.460588034242392" lon="9.324647001922131">
        <ele>1510.4000000000001</ele>
        <time>2007-06-09T12:29:18Z</time>
      </trkpt>
      <trkpt lat="46.460530031472445" lon="9.324610959738493">
        <ele>1510.4000000000001</ele>
        <time>2007-06-09T12:29:23Z</time>
      </trkpt>
      <trkpt lat="46.460503041744232" lon="9.324601991102099">
        <ele>1509.4000000000001</ele>
        <time>2007-06-09T12:29:27Z</time>
      </trkpt>
      <trkpt lat="46.460396004840732" lon="9.324535019695759">
        <ele>1509.9000000000001</ele>
        <time>2007-06-09T12:29:34Z</time>
      </trkpt>
      <trkpt lat="46.460234988480806" lon="9.324479028582573">
        <ele>1509.9000000000001</ele>
        <time>2007-06-09T12:29:43Z</time>
      </trkpt>
      <trkpt lat="46.46006902679801" lon="9.324372997507453">
        <ele>1509.9000000000001</ele>
        <time>2007-06-09T12:29:50Z</time>
      </trkpt>
      <trkpt lat="46.459972970187664" lon="9.324320023879409">
        <ele>1509.4000000000001</ele>
        <time>2007-06-09T12:29:54Z</time>
      </trkpt>
      <trkpt lat="46.459815977141261" lon="9.324197983369231">
        <ele>1509.9000000000001</ele>
        <time>2007-06-09T12:30:01Z</time>
      </trkpt>
      <trkpt lat="46.459777001291513" lon="9.324156995862722">
        <ele>1509.4000000000001</ele>
        <time>2007-06-09T12:30:05Z</time>
      </trkpt>
      <trkpt lat="46.459764009341598" lon="9.324177028611302">
        <ele>1509.4000000000001</ele>
        <time>2007-06-09T12:30:10Z</time>
      </trkpt>
      <trkpt lat="46.459688991308212" lon="9.324231008067727">
        <ele>1508.9000000000001</ele>
        <time>2007-06-09T12:30:15Z</time>
      </trkpt>
      <trkpt lat="46.459615984931588" lon="9.324240982532501">
        <ele>1509.4000000000001</ele>
        <time>2007-06-09T12:30:19Z</time>
      </trkpt>
      <trkpt lat="46.459473995491862" lon="9.324309965595603">
        <ele>1509.4000000000001</ele>
        <time>2007-06-09T12:30:26Z</time>
      </trkpt>
      <trkpt lat="46.459456980228424" lon="9.324329998344183">
        <ele>1509.9000000000001</ele>
        <time>2007-06-09T12:30:27Z</time>
      </trkpt>
      <trkpt lat="46.459351032972336" lon="9.32441096752882">
        <ele>1508.9000000000001</ele>
        <time>2007-06-09T12:30:33Z</time>
      </trkpt>
      <trkpt lat="46.459311973303556" lon="9.324466958642006">
        <ele>1508.9000000000001</ele>
        <time>2007-06-09T12:30:35Z</time>
      </trkpt>
      <trkpt lat="46.459222035482526" lon="9.324659993872047">
        <ele>1508.9000000000001</ele>
        <time>2007-06-09T12:30:40Z</time>
      </trkpt>
      <trkpt lat="46.459128996357322" lon="9.324746998026967">
        <ele>1508.9000000000001</ele>
        <time>2007-06-09T12:30:45Z</time>
      </trkpt>
      <trkpt lat="46.459036963060498" lon="9.324845988303423">
        <ele>1510.8</ele>
        <time>2007-06-09T12:30:50Z</time>
      </trkpt>
      <trkpt lat="46.459021959453821" lon="9.324854034930468">
        <ele>1510.8</ele>
        <time>2007-06-09T12:30:51Z</time>
      </trkpt>
      <trkpt lat="46.459007039666176" lon="9.324864009395242">
        <ele>1510.8</ele>
        <time>2007-06-09T12:30:52Z</time>
      </trkpt>
      <trkpt lat="46.458887010812759" lon="9.324928969144821">
        <ele>1510.8</ele>
        <time>2007-06-09T12:31:00Z</time>
      </trkpt>
      <trkpt lat="46.458765976130962" lon="9.324970040470362">
        <ele>1511.3</ele>
        <time>2007-06-09T12:31:06Z</time>
      </trkpt>
      <trkpt lat="46.458689030259848" lon="9.324992001056671">
        <ele>1510.8</ele>
        <time>2007-06-09T12:31:10Z</time>
      </trkpt>
      <trkpt lat="46.458598002791405" lon="9.324999041855335">
        <ele>1511.3</ele>
        <time>2007-06-09T12:31:15Z</time>
      </trkpt>
      <trkpt lat="46.458578975871205" lon="9.325009016320109">
        <ele>1511.8</ele>
        <time>2007-06-09T12:31:19Z</time>
      </trkpt>
      <trkpt lat="46.458564978092909" lon="9.325015973299742">
        <ele>1512.3</ele>
        <time>2007-06-09T12:31:29Z</time>
      </trkpt>
      <trkpt lat="46.458532959222794" lon="9.324993006885052">
        <ele>1512.3</ele>
        <time>2007-06-09T12:31:35Z</time>
      </trkpt>
      <trkpt lat="46.458518961444497" lon="9.324999963864684">
        <ele>1511.8</ele>
        <time>2007-06-09T12:32:24Z</time>
      </trkpt>
      <trkpt lat="46.458429023623466" lon="9.325021002441645">
        <ele>1511.8</ele>
        <time>2007-06-09T12:32:30Z</time>
      </trkpt>
      <trkpt lat="46.458316035568714" lon="9.325060984119773">
        <ele>1510.8</ele>
        <time>2007-06-09T12:32:38Z</time>
      </trkpt>
      <trkpt lat="46.458245040848851" lon="9.325114041566849">
        <ele>1510.8</ele>
        <time>2007-06-09T12:32:42Z</time>
      </trkpt>
      <trkpt lat="46.458234982565045" lon="9.325132984668016">
        <ele>1510.8</ele>
        <time>2007-06-09T12:32:47Z</time>
      </trkpt>
      <trkpt lat="46.458214027807117" lon="9.325146982446313">
        <ele>1509.9000000000001</ele>
        <time>2007-06-09T12:33:25Z</time>
      </trkpt>
      <trkpt lat="46.45820003002882" lon="9.325185958296061">
        <ele>1509.9000000000001</ele>
        <time>2007-06-09T12:33:31Z</time>
      </trkpt>
      <trkpt lat="46.45820003002882" lon="9.325194004923105">
        <ele>1509.4000000000001</ele>
        <time>2007-06-09T12:33:47Z</time>
      </trkpt>
      <trkpt lat="46.458190977573395" lon="9.325187969952822">
        <ele>1510.4000000000001</ele>
        <time>2007-06-09T12:34:10Z</time>
      </trkpt>
      <trkpt lat="46.458272030577064" lon="9.32505302131176">
        <ele>1507</ele>
        <time>2007-06-09T12:39:25Z</time>
      </trkpt>
      <trkpt lat="46.458244035020471" lon="9.325069030746818">
        <ele>1505.5999999999999</ele>
        <time>2007-06-09T12:40:56Z</time>
      </trkpt>
      <trkpt lat="46.458248980343342" lon="9.325070958584547">
        <ele>1505.5999999999999</ele>
        <time>2007-06-09T12:41:10Z</time>
      </trkpt>
      <trkpt lat="46.458244035020471" lon="9.325079005211592">
        <ele>1504.5999999999999</ele>
        <time>2007-06-09T12:41:41Z</time>
      </trkpt>
      <trkpt lat="46.458210004493594" lon="9.325115969404578">
        <ele>1504.5999999999999</ele>
        <time>2007-06-09T12:42:16Z</time>
      </trkpt>
      <trkpt lat="46.458207992836833" lon="9.325133990496397">
        <ele>1505.0999999999999</ele>
        <time>2007-06-09T12:42:32Z</time>
      </trkpt>
      <trkpt lat="46.458206987008452" lon="9.325140025466681">
        <ele>1505.5999999999999</ele>
        <time>2007-06-09T12:42:41Z</time>
      </trkpt>
      <trkpt lat="46.458130963146687" lon="9.325200961902738">
        <ele>1504.5999999999999</ele>
        <time>2007-06-09T12:42:48Z</time>
      </trkpt>
      <trkpt lat="46.458043958991766" lon="9.325338006019592">
        <ele>1501.2</ele>
        <time>2007-06-09T12:42:52Z</time>
      </trkpt>
      <trkpt lat="46.457931976765394" lon="9.325387040153146">
        <ele>1501.2</ele>
        <time>2007-06-09T12:42:56Z</time>
      </trkpt>
      <trkpt lat="46.457871040329337" lon="9.325395002961159">
        <ele>1500.8</ele>
        <time>2007-06-09T12:43:01Z</time>
      </trkpt>
      <trkpt lat="46.45785897038877" lon="9.325387962162495">
        <ele>1501.2</ele>
        <time>2007-06-09T12:43:07Z</time>
      </trkpt>
      <trkpt lat="46.45779199898243" lon="9.32544001378119">
        <ele>1500.8</ele>
        <time>2007-06-09T12:43:18Z</time>
      </trkpt>
      <trkpt lat="46.457693008705974" lon="9.325502961874008">
        <ele>1498.8</ele>
        <time>2007-06-09T12:43:21Z</time>
      </trkpt>
      <trkpt lat="46.457582032307982" lon="9.325616033747792">
        <ele>1496.9000000000001</ele>
        <time>2007-06-09T12:43:24Z</time>
      </trkpt>
      <trkpt lat="46.457457980141044" lon="9.325629025697708">
        <ele>1495</ele>
        <time>2007-06-09T12:43:28Z</time>
      </trkpt>
      <trkpt lat="46.457402994856238" lon="9.325597006827593">
        <ele>1493.5</ele>
        <time>2007-06-09T12:43:30Z</time>
      </trkpt>
      <trkpt lat="46.457189004868269" lon="9.325560964643955">
        <ele>1487.3</ele>
        <time>2007-06-09T12:43:35Z</time>
      </trkpt>
      <trkpt lat="46.457086997106671" lon="9.325562976300716">
        <ele>1485.4000000000001</ele>
        <time>2007-06-09T12:43:37Z</time>
      </trkpt>
      <trkpt lat="46.456927992403507" lon="9.325599018484354">
        <ele>1483</ele>
        <time>2007-06-09T12:43:41Z</time>
      </trkpt>
      <trkpt lat="46.456898991018534" lon="9.325596000999212">
        <ele>1483</ele>
        <time>2007-06-09T12:43:42Z</time>
      </trkpt>
      <trkpt lat="46.456741997972131" lon="9.325632965192199">
        <ele>1482</ele>
        <time>2007-06-09T12:43:46Z</time>
      </trkpt>
      <trkpt lat="46.456628004088998" lon="9.325652997940779">
        <ele>1480.5999999999999</ele>
        <time>2007-06-09T12:43:50Z</time>
      </trkpt>
      <trkpt lat="46.456572012975812" lon="9.325676970183849">
        <ele>1477.7</ele>
        <time>2007-06-09T12:43:52Z</time>
      </trkpt>
      <trkpt lat="46.456447960808873" lon="9.325660038739443">
        <ele>1473.4000000000001</ele>
        <time>2007-06-09T12:43:56Z</time>
      </trkpt>
      <trkpt lat="46.456424994394183" lon="9.325656015425921">
        <ele>1473.8</ele>
        <time>2007-06-09T12:43:57Z</time>
      </trkpt>
      <trkpt lat="46.456334972754121" lon="9.325627014040947">
        <ele>1472.4000000000001</ele>
        <time>2007-06-09T12:44:02Z</time>
      </trkpt>
      <trkpt lat="46.45620203576982" lon="9.325583009049296">
        <ele>1469.5</ele>
        <time>2007-06-09T12:44:07Z</time>
      </trkpt>
      <trkpt lat="46.456045964732766" lon="9.325565993785858">
        <ele>1465.7</ele>
        <time>2007-06-09T12:44:12Z</time>
      </trkpt>
      <trkpt lat="46.455913027748466" lon="9.325586026534438">
        <ele>1461.8</ele>
        <time>2007-06-09T12:44:15Z</time>
      </trkpt>
      <trkpt lat="46.455872040241957" lon="9.325592983514071">
        <ele>1460.9000000000001</ele>
        <time>2007-06-09T12:44:16Z</time>
      </trkpt>
      <trkpt lat="46.455791993066669" lon="9.325596000999212">
        <ele>1457</ele>
        <time>2007-06-09T12:44:18Z</time>
      </trkpt>
      <trkpt lat="46.455593006685376" lon="9.325598012655973">
        <ele>1454.0999999999999</ele>
        <time>2007-06-09T12:44:22Z</time>
      </trkpt>
      <trkpt lat="46.455477001145482" lon="9.325625002384186">
        <ele>1450.8</ele>
        <time>2007-06-09T12:44:26Z</time>
      </trkpt>
      <trkpt lat="46.455378010869026" lon="9.325656015425921">
        <ele>1447.9000000000001</ele>
        <time>2007-06-09T12:44:29Z</time>
      </trkpt>
      <trkpt lat="46.455313973128796" lon="9.325687028467655">
        <ele>1445</ele>
        <time>2007-06-09T12:44:31Z</time>
      </trkpt>
      <trkpt lat="46.455280026420951" lon="9.325706977397203">
        <ele>1443.5999999999999</ele>
        <time>2007-06-09T12:44:32Z</time>
      </trkpt>
      <trkpt lat="46.455103000625968" lon="9.325807979330421">
        <ele>1439.7</ele>
        <time>2007-06-09T12:44:37Z</time>
      </trkpt>
      <trkpt lat="46.455022031441331" lon="9.325876962393522">
        <ele>1438.8</ele>
        <time>2007-06-09T12:44:39Z</time>
      </trkpt>
      <trkpt lat="46.454885993152857" lon="9.325909987092018">
        <ele>1436.8</ele>
        <time>2007-06-09T12:44:43Z</time>
      </trkpt>
      <trkpt lat="46.454811980947852" lon="9.325957009568811">
        <ele>1434.9000000000001</ele>
        <time>2007-06-09T12:44:45Z</time>
      </trkpt>
      <trkpt lat="46.454729000106454" lon="9.326024986803532">
        <ele>1434.4000000000001</ele>
        <time>2007-06-09T12:44:47Z</time>
      </trkpt>
      <trkpt lat="46.45450696349144" lon="9.326087012887001">
        <ele>1430.5999999999999</ele>
        <time>2007-06-09T12:44:51Z</time>
      </trkpt>
      <trkpt lat="46.45439799875021" lon="9.326097993180156">
        <ele>1427.7</ele>
        <time>2007-06-09T12:44:53Z</time>
      </trkpt>
      <trkpt lat="46.454132962971926" lon="9.326210981234908">
        <ele>1421</ele>
        <time>2007-06-09T12:44:58Z</time>
      </trkpt>
      <trkpt lat="46.454002037644386" lon="9.326245011761785">
        <ele>1417.0999999999999</ele>
        <time>2007-06-09T12:45:01Z</time>
      </trkpt>
      <trkpt lat="46.453838003799319" lon="9.326219027861953">
        <ele>1412.8</ele>
        <time>2007-06-09T12:45:05Z</time>
      </trkpt>
      <trkpt lat="46.453767009079456" lon="9.326211987063289">
        <ele>1411.8</ele>
        <time>2007-06-09T12:45:07Z</time>
      </trkpt>
      <trkpt lat="46.453758040443063" lon="9.326206035912037">
        <ele>1410.9000000000001</ele>
        <time>2007-06-09T12:45:10Z</time>
      </trkpt>
      <trkpt lat="46.453697020187974" lon="9.326220033690333">
        <ele>1409.4000000000001</ele>
        <time>2007-06-09T12:45:14Z</time>
      </trkpt>
      <trkpt lat="46.453653015196323" lon="9.326226990669966">
        <ele>1408</ele>
        <time>2007-06-09T12:45:16Z</time>
      </trkpt>
      <trkpt lat="46.453633988276124" lon="9.326218022033572">
        <ele>1407.5</ele>
        <time>2007-06-09T12:45:17Z</time>
      </trkpt>
      <trkpt lat="46.453551007434726" lon="9.326222967356443">
        <ele>1402.7</ele>
        <time>2007-06-09T12:45:20Z</time>
      </trkpt>
      <trkpt lat="46.453485041856766" lon="9.326227996498346">
        <ele>1401.7</ele>
        <time>2007-06-09T12:45:23Z</time>
      </trkpt>
      <trkpt lat="46.4533899910748" lon="9.326244005933404">
        <ele>1397.4000000000001</ele>
        <time>2007-06-09T12:45:26Z</time>
      </trkpt>
      <trkpt lat="46.453356966376305" lon="9.326255992054939">
        <ele>1396.5</ele>
        <time>2007-06-09T12:45:27Z</time>
      </trkpt>
      <trkpt lat="46.453229980543256" lon="9.326274013146758">
        <ele>1393.0999999999999</ele>
        <time>2007-06-09T12:45:30Z</time>
      </trkpt>
      <trkpt lat="46.453188993036747" lon="9.326263032853603">
        <ele>1393.0999999999999</ele>
        <time>2007-06-09T12:45:31Z</time>
      </trkpt>
      <trkpt lat="46.453069970011711" lon="9.326223973184824">
        <ele>1389.7</ele>
        <time>2007-06-09T12:45:34Z</time>
      </trkpt>
      <trkpt lat="46.453024037182331" lon="9.326219027861953">
        <ele>1389.7</ele>
        <time>2007-06-09T12:45:35Z</time>
      </trkpt>
      <trkpt lat="46.452840976417065" lon="9.326273007318378">
        <ele>1384.4000000000001</ele>
        <time>2007-06-09T12:45:39Z</time>
      </trkpt>
      <trkpt lat="46.452704016119242" lon="9.326351964846253">
        <ele>1383</ele>
        <time>2007-06-09T12:45:43Z</time>
      </trkpt>
      <trkpt lat="46.452638972550631" lon="9.326390018686652">
        <ele>1380.5999999999999</ele>
        <time>2007-06-09T12:45:46Z</time>
      </trkpt>
      <trkpt lat="46.452550962567329" lon="9.326334027573466">
        <ele>1376.3</ele>
        <time>2007-06-09T12:45:50Z</time>
      </trkpt>
      <trkpt lat="46.452526990324259" lon="9.326288010925055">
        <ele>1376.3</ele>
        <time>2007-06-09T12:45:52Z</time>
      </trkpt>
      <trkpt lat="46.452477034181356" lon="9.326217016205192">
        <ele>1374.8</ele>
        <time>2007-06-09T12:45:58Z</time>
      </trkpt>
      <trkpt lat="46.452457001432776" lon="9.326186003163457">
        <ele>1375.3</ele>
        <time>2007-06-09T12:46:05Z</time>
      </trkpt>
      <trkpt lat="46.452419031411409" lon="9.326176028698683">
        <ele>1372.9000000000001</ele>
        <time>2007-06-09T12:46:11Z</time>
      </trkpt>
      <trkpt lat="46.452394975349307" lon="9.326181979849935">
        <ele>1372.9000000000001</ele>
        <time>2007-06-09T12:46:14Z</time>
      </trkpt>
      <trkpt lat="46.452317023649812" lon="9.326176028698683">
        <ele>1371</ele>
        <time>2007-06-09T12:46:21Z</time>
      </trkpt>
      <trkpt lat="46.452310988679528" lon="9.326179968193173">
        <ele>1370.5</ele>
        <time>2007-06-09T12:46:22Z</time>
      </trkpt>
      <trkpt lat="46.452244017273188" lon="9.326239982619882">
        <ele>1370</ele>
        <time>2007-06-09T12:46:28Z</time>
      </trkpt>
      <trkpt lat="46.452223984524608" lon="9.326328998431563">
        <ele>1369.5</ele>
        <time>2007-06-09T12:46:32Z</time>
      </trkpt>
      <trkpt lat="46.452209986746311" lon="9.326355988159776">
        <ele>1369.5</ele>
        <time>2007-06-09T12:46:33Z</time>
      </trkpt>
      <trkpt lat="46.452105967327952" lon="9.32653896510601">
        <ele>1369.0999999999999</ele>
        <time>2007-06-09T12:46:39Z</time>
      </trkpt>
      <trkpt lat="46.452032038941979" lon="9.326652958989143">
        <ele>1370</ele>
        <time>2007-06-09T12:46:45Z</time>
      </trkpt>
      <trkpt lat="46.452009994536638" lon="9.326673997566104">
        <ele>1369.5</ele>
        <time>2007-06-09T12:46:56Z</time>
      </trkpt>
      <trkpt lat="46.451909998431802" lon="9.326696963980794">
        <ele>1369.0999999999999</ele>
        <time>2007-06-09T12:47:00Z</time>
      </trkpt>
      <trkpt lat="46.451801033690572" lon="9.326667040586472">
        <ele>1368.0999999999999</ele>
        <time>2007-06-09T12:47:04Z</time>
      </trkpt>
      <trkpt lat="46.451633982360363" lon="9.326639967039228">
        <ele>1366.2</ele>
        <time>2007-06-09T12:47:08Z</time>
      </trkpt>
      <trkpt lat="46.451538009569049" lon="9.326806012541056">
        <ele>1365.2</ele>
        <time>2007-06-09T12:47:11Z</time>
      </trkpt>
      <trkpt lat="46.451455028727651" lon="9.326885975897312">
        <ele>1364.7</ele>
        <time>2007-06-09T12:47:13Z</time>
      </trkpt>
      <trkpt lat="46.451230980455875" lon="9.32709401473403">
        <ele>1364.2</ele>
        <time>2007-06-09T12:47:19Z</time>
      </trkpt>
      <trkpt lat="46.451116986572742" lon="9.327145982533693">
        <ele>1365.2</ele>
        <time>2007-06-09T12:47:24Z</time>
      </trkpt>
      <trkpt lat="46.45111002959311" lon="9.327161991968751">
        <ele>1364.7</ele>
        <time>2007-06-09T12:47:29Z</time>
      </trkpt>
      <trkpt lat="46.451099971309304" lon="9.327156962826848">
        <ele>1365.2</ele>
        <time>2007-06-09T12:48:08Z</time>
      </trkpt>
      <trkpt lat="46.451057977974415" lon="9.327258970588446">
        <ele>1363.3</ele>
        <time>2007-06-09T12:48:13Z</time>
      </trkpt>
      <trkpt lat="46.451040962710977" lon="9.327268023043871">
        <ele>1363.3</ele>
        <time>2007-06-09T12:48:16Z</time>
      </trkpt>
      <trkpt lat="46.450979020446539" lon="9.3273960147053">
        <ele>1362.8</ele>
        <time>2007-06-09T12:48:23Z</time>
      </trkpt>
      <trkpt lat="46.450970973819494" lon="9.327408000826836">
        <ele>1362.8</ele>
        <time>2007-06-09T12:48:27Z</time>
      </trkpt>
      <trkpt lat="46.450971979647875" lon="9.327411018311977">
        <ele>1362.8</ele>
        <time>2007-06-09T12:48:42Z</time>
      </trkpt>
      <trkpt lat="46.450963011011481" lon="9.327428033575416">
        <ele>1362.8</ele>
        <time>2007-06-09T12:48:50Z</time>
      </trkpt>
      <trkpt lat="46.450927974656224" lon="9.327459968626499">
        <ele>1361.8</ele>
        <time>2007-06-09T12:48:56Z</time>
      </trkpt>
      <trkpt lat="46.450877012684941" lon="9.32750497944653">
        <ele>1362.3</ele>
        <time>2007-06-09T12:49:01Z</time>
      </trkpt>
      <trkpt lat="46.450751032680273" lon="9.327543033286929">
        <ele>1361.4000000000001</ele>
        <time>2007-06-09T12:49:07Z</time>
      </trkpt>
      <trkpt lat="46.450685989111662" lon="9.327656021341682">
        <ele>1360.4000000000001</ele>
        <time>2007-06-09T12:49:11Z</time>
      </trkpt>
      <trkpt lat="46.450676014646888" lon="9.327679993584752">
        <ele>1359.9000000000001</ele>
        <time>2007-06-09T12:49:12Z</time>
      </trkpt>
      <trkpt lat="46.450571995228529" lon="9.327741013839841">
        <ele>1359.4000000000001</ele>
        <time>2007-06-09T12:49:19Z</time>
      </trkpt>
      <trkpt lat="46.450519021600485" lon="9.327727016061544">
        <ele>1359</ele>
        <time>2007-06-09T12:49:22Z</time>
      </trkpt>
      <trkpt lat="46.450427994132042" lon="9.327700026333332">
        <ele>1359.4000000000001</ele>
        <time>2007-06-09T12:49:27Z</time>
      </trkpt>
      <trkpt lat="46.450243005529046" lon="9.327770015224814">
        <ele>1357.5</ele>
        <time>2007-06-09T12:49:33Z</time>
      </trkpt>
      <trkpt lat="46.450115013867617" lon="9.327858025208116">
        <ele>1356.5999999999999</ele>
        <time>2007-06-09T12:49:36Z</time>
      </trkpt>
      <trkpt lat="46.449879985302687" lon="9.328070003539324">
        <ele>1353.2</ele>
        <time>2007-06-09T12:49:41Z</time>
      </trkpt>
      <trkpt lat="46.449770014733076" lon="9.328134963288903">
        <ele>1352.2</ele>
        <time>2007-06-09T12:49:43Z</time>
      </trkpt>
      <trkpt lat="46.449716035276651" lon="9.328165976330638">
        <ele>1352.2</ele>
        <time>2007-06-09T12:49:44Z</time>
      </trkpt>
      <trkpt lat="46.449559964239597" lon="9.328242000192404">
        <ele>1349.8</ele>
        <time>2007-06-09T12:49:48Z</time>
      </trkpt>
      <trkpt lat="46.449545966461301" lon="9.328253986313939">
        <ele>1349.3</ele>
        <time>2007-06-09T12:49:49Z</time>
      </trkpt>
      <trkpt lat="46.449538003653288" lon="9.32827795855701">
        <ele>1349.3</ele>
        <time>2007-06-09T12:49:55Z</time>
      </trkpt>
      <trkpt lat="46.449519982561469" lon="9.328268989920616">
        <ele>1349.8</ele>
        <time>2007-06-09T12:50:02Z</time>
      </trkpt>
      <trkpt lat="46.449438007548451" lon="9.328284999355674">
        <ele>1348.9000000000001</ele>
        <time>2007-06-09T12:50:06Z</time>
      </trkpt>
      <trkpt lat="46.449315967038274" lon="9.328349959105253">
        <ele>1347.4000000000001</ele>
        <time>2007-06-09T12:50:09Z</time>
      </trkpt>
      <trkpt lat="46.449103988707066" lon="9.328519022092223">
        <ele>1343.5999999999999</ele>
        <time>2007-06-09T12:50:14Z</time>
      </trkpt>
      <trkpt lat="46.449055038392544" lon="9.32855699211359">
        <ele>1344.0999999999999</ele>
        <time>2007-06-09T12:50:15Z</time>
      </trkpt>
      <trkpt lat="46.449002986773849" lon="9.328594040125608">
        <ele>1342.5999999999999</ele>
        <time>2007-06-09T12:50:16Z</time>
      </trkpt>
      <trkpt lat="46.448794025927782" lon="9.328655982390046">
        <ele>1340.7</ele>
        <time>2007-06-09T12:50:20Z</time>
      </trkpt>
      <trkpt lat="46.448651030659676" lon="9.328710967674851">
        <ele>1338.8</ele>
        <time>2007-06-09T12:50:23Z</time>
      </trkpt>
      <trkpt lat="46.448562014847994" lon="9.328782968223095">
        <ele>1338.8</ele>
        <time>2007-06-09T12:50:25Z</time>
      </trkpt>
      <trkpt lat="46.448480961844325" lon="9.328873995691538">
        <ele>1338.3</ele>
        <time>2007-06-09T12:50:27Z</time>
      </trkpt>
      <trkpt lat="46.448381971567869" lon="9.329094020649791">
        <ele>1336.4000000000001</ele>
        <time>2007-06-09T12:50:31Z</time>
      </trkpt>
      <trkpt lat="46.448350958526134" lon="9.329220000654459">
        <ele>1335.4000000000001</ele>
        <time>2007-06-09T12:50:33Z</time>
      </trkpt>
      <trkpt lat="46.448226990178227" lon="9.329427033662796">
        <ele>1332.5</ele>
        <time>2007-06-09T12:50:37Z</time>
      </trkpt>
      <trkpt lat="46.448089024052024" lon="9.329572962597013">
        <ele>1329.2</ele>
        <time>2007-06-09T12:50:40Z</time>
      </trkpt>
      <trkpt lat="46.447991961613297" lon="9.329666001722217">
        <ele>1328.2</ele>
        <time>2007-06-09T12:50:42Z</time>
      </trkpt>
      <trkpt lat="46.447779983282089" lon="9.32975996285677">
        <ele>1324.4000000000001</ele>
        <time>2007-06-09T12:50:46Z</time>
      </trkpt>
      <trkpt lat="46.44767202436924" lon="9.329788964241743">
        <ele>1323.4000000000001</ele>
        <time>2007-06-09T12:50:48Z</time>
      </trkpt>
      <trkpt lat="46.447507990524173" lon="9.329845039173961">
        <ele>1320</ele>
        <time>2007-06-09T12:50:51Z</time>
      </trkpt>
      <trkpt lat="46.447404976934195" lon="9.329874040558934">
        <ele>1318.5999999999999</ele>
        <time>2007-06-09T12:50:53Z</time>
      </trkpt>
      <trkpt lat="46.44720196723938" lon="9.329915028065443">
        <ele>1315.2</ele>
        <time>2007-06-09T12:50:57Z</time>
      </trkpt>
      <trkpt lat="46.447088979184628" lon="9.32993195950985">
        <ele>1313.8</ele>
        <time>2007-06-09T12:51:00Z</time>
      </trkpt>
      <trkpt lat="46.447002980858088" lon="9.329939000308514">
        <ele>1312.3</ele>
        <time>2007-06-09T12:51:03Z</time>
      </trkpt>
      <trkpt lat="46.446890998631716" lon="9.329984011128545">
        <ele>1310.9000000000001</ele>
        <time>2007-06-09T12:51:10Z</time>
      </trkpt>
      <trkpt lat="46.446866020560265" lon="9.32999599725008">
        <ele>1309.9000000000001</ele>
        <time>2007-06-09T12:51:16Z</time>
      </trkpt>
      <trkpt lat="46.446871971711516" lon="9.329977976158261">
        <ele>1309.9000000000001</ele>
        <time>2007-06-09T12:51:27Z</time>
      </trkpt>
      <trkpt lat="46.446800976991653" lon="9.329985016956925">
        <ele>1309.5</ele>
        <time>2007-06-09T12:51:32Z</time>
      </trkpt>
      <trkpt lat="46.446744985878468" lon="9.330005971714854">
        <ele>1308.5</ele>
        <time>2007-06-09T12:51:36Z</time>
      </trkpt>
      <trkpt lat="46.446653958410025" lon="9.330033967271447">
        <ele>1307.5</ele>
        <time>2007-06-09T12:51:40Z</time>
      </trkpt>
      <trkpt lat="46.446558991447091" lon="9.330062968656421">
        <ele>1306.5999999999999</ele>
        <time>2007-06-09T12:51:42Z</time>
      </trkpt>
      <trkpt lat="46.446199994534254" lon="9.330262960866094">
        <ele>1302.7</ele>
        <time>2007-06-09T12:51:48Z</time>
      </trkpt>
      <trkpt lat="46.446002013981342" lon="9.330395981669426">
        <ele>1300.8</ele>
        <time>2007-06-09T12:51:51Z</time>
      </trkpt>
      <trkpt lat="46.445874022319913" lon="9.33046798221767">
        <ele>1299.4000000000001</ele>
        <time>2007-06-09T12:51:54Z</time>
      </trkpt>
      <trkpt lat="46.445847032591701" lon="9.330505030229688">
        <ele>1299.4000000000001</ele>
        <time>2007-06-09T12:51:57Z</time>
      </trkpt>
      <trkpt lat="46.44582599401474" lon="9.330509975552559">
        <ele>1299.4000000000001</ele>
        <time>2007-06-09T12:52:05Z</time>
      </trkpt>
      <trkpt lat="46.445737984031439" lon="9.330563032999635">
        <ele>1299.4000000000001</ele>
        <time>2007-06-09T12:52:11Z</time>
      </trkpt>
      <trkpt lat="46.445644022896886" lon="9.330594968050718">
        <ele>1299.4000000000001</ele>
        <time>2007-06-09T12:52:15Z</time>
      </trkpt>
      <trkpt lat="46.445583002641797" lon="9.330648025497794">
        <ele>1299.4000000000001</ele>
        <time>2007-06-09T12:52:19Z</time>
      </trkpt>
      <trkpt lat="46.445429027080536" lon="9.330705022439361">
        <ele>1299.4000000000001</ele>
        <time>2007-06-09T12:52:28Z</time>
      </trkpt>
      <trkpt lat="46.445370018482208" lon="9.330710973590612">
        <ele>1299.8</ele>
        <time>2007-06-09T12:52:33Z</time>
      </trkpt>
      <trkpt lat="46.445262981578708" lon="9.330735029652715">
        <ele>1298.9000000000001</ele>
        <time>2007-06-09T12:52:38Z</time>
      </trkpt>
      <trkpt lat="46.445131972432137" lon="9.330705022439361">
        <ele>1297</ele>
        <time>2007-06-09T12:52:44Z</time>
      </trkpt>
      <trkpt lat="46.445046979933977" lon="9.330582981929183">
        <ele>1296.5</ele>
        <time>2007-06-09T12:52:49Z</time>
      </trkpt>
      <trkpt lat="46.444993000477552" lon="9.330435963347554">
        <ele>1294.5999999999999</ele>
        <time>2007-06-09T12:52:54Z</time>
      </trkpt>
      <trkpt lat="46.444870037958026" lon="9.330422971397638">
        <ele>1295</ele>
        <time>2007-06-09T12:52:59Z</time>
      </trkpt>
      <trkpt lat="46.444712039083242" lon="9.330665962770581">
        <ele>1292.5999999999999</ele>
        <time>2007-06-09T12:53:07Z</time>
      </trkpt>
      <trkpt lat="46.444646995514631" lon="9.331007022410631">
        <ele>1290.7</ele>
        <time>2007-06-09T12:53:12Z</time>
      </trkpt>
      <trkpt lat="46.444605002179742" lon="9.331194022670388">
        <ele>1287.8</ele>
        <time>2007-06-09T12:53:14Z</time>
      </trkpt>
      <trkpt lat="46.444523027166724" lon="9.331570034846664">
        <ele>1284.5</ele>
        <time>2007-06-09T12:53:17Z</time>
      </trkpt>
      <trkpt lat="46.444458989426494" lon="9.331874968484044">
        <ele>1281.0999999999999</ele>
        <time>2007-06-09T12:53:19Z</time>
      </trkpt>
      <trkpt lat="46.444400986656547" lon="9.332405962049961">
        <ele>1275.8</ele>
        <time>2007-06-09T12:53:22Z</time>
      </trkpt>
      <trkpt lat="46.444358993321657" lon="9.332994958385825">
        <ele>1271</ele>
        <time>2007-06-09T12:53:25Z</time>
      </trkpt>
      <trkpt lat="46.444347007200122" lon="9.333768021315336">
        <ele>1267.5999999999999</ele>
        <time>2007-06-09T12:53:29Z</time>
      </trkpt>
      <trkpt lat="46.444332003593445" lon="9.334139004349709">
        <ele>1264.3</ele>
        <time>2007-06-09T12:53:32Z</time>
      </trkpt>
      <trkpt lat="46.444350024685264" lon="9.334338996559382">
        <ele>1263.8</ele>
        <time>2007-06-09T12:53:34Z</time>
      </trkpt>
      <trkpt lat="46.444420013576746" lon="9.334496995434165">
        <ele>1263.3</ele>
        <time>2007-06-09T12:53:36Z</time>
      </trkpt>
      <trkpt lat="46.444419007748365" lon="9.334773011505604">
        <ele>1262.8</ele>
        <time>2007-06-09T12:53:40Z</time>
      </trkpt>
      <trkpt lat="46.444295039400458" lon="9.334908965975046">
        <ele>1262.8</ele>
        <time>2007-06-09T12:53:43Z</time>
      </trkpt>
      <trkpt lat="46.444182973355055" lon="9.335051961243153">
        <ele>1262.3</ele>
        <time>2007-06-09T12:53:46Z</time>
      </trkpt>
      <trkpt lat="46.443958003073931" lon="9.33534499257803">
        <ele>1262.8</ele>
        <time>2007-06-09T12:53:52Z</time>
      </trkpt>
      <trkpt lat="46.443874016404152" lon="9.335416993126273">
        <ele>1262.3</ele>
        <time>2007-06-09T12:53:54Z</time>
      </trkpt>
      <trkpt lat="46.443708976730704" lon="9.335544984787703">
        <ele>1262.8</ele>
        <time>2007-06-09T12:53:58Z</time>
      </trkpt>
      <trkpt lat="46.443444024771452" lon="9.335828041657805">
        <ele>1262.8</ele>
        <time>2007-06-09T12:54:06Z</time>
      </trkpt>
      <trkpt lat="46.443401025608182" lon="9.335889983922243">
        <ele>1263.3</ele>
        <time>2007-06-09T12:54:08Z</time>
      </trkpt>
      <trkpt lat="46.443280996754766" lon="9.335909010842443">
        <ele>1263.3</ele>
        <time>2007-06-09T12:54:13Z</time>
      </trkpt>
      <trkpt lat="46.443044040352106" lon="9.336025016382337">
        <ele>1263.8</ele>
        <time>2007-06-09T12:54:21Z</time>
      </trkpt>
      <trkpt lat="46.442859973758459" lon="9.33624504134059">
        <ele>1265.2</ele>
        <time>2007-06-09T12:54:29Z</time>
      </trkpt>
      <trkpt lat="46.442676996812224" lon="9.336437992751598">
        <ele>1266.7</ele>
        <time>2007-06-09T12:54:36Z</time>
      </trkpt>
      <trkpt lat="46.442506005987525" lon="9.33661200106144">
        <ele>1267.5999999999999</ele>
        <time>2007-06-09T12:54:42Z</time>
      </trkpt>
      <trkpt lat="46.442483961582184" lon="9.336638990789652">
        <ele>1268.0999999999999</ele>
        <time>2007-06-09T12:54:43Z</time>
      </trkpt>
      <trkpt lat="46.442457977682352" lon="9.336746027693152">
        <ele>1268.5999999999999</ele>
        <time>2007-06-09T12:54:46Z</time>
      </trkpt>
      <trkpt lat="46.44243098795414" lon="9.336886005476117">
        <ele>1268.5999999999999</ele>
        <time>2007-06-09T12:54:50Z</time>
      </trkpt>
      <trkpt lat="46.44240802153945" lon="9.336903020739555">
        <ele>1268.5999999999999</ele>
        <time>2007-06-09T12:54:51Z</time>
      </trkpt>
      <trkpt lat="46.442198976874352" lon="9.336996981874108">
        <ele>1266.2</ele>
        <time>2007-06-09T12:54:58Z</time>
      </trkpt>
      <trkpt lat="46.441903011873364" lon="9.33710896410048">
        <ele>1263.8</ele>
        <time>2007-06-09T12:55:03Z</time>
      </trkpt>
      <trkpt lat="46.441697990521789" lon="9.337179036810994">
        <ele>1263.3</ele>
        <time>2007-06-09T12:55:06Z</time>
      </trkpt>
      <trkpt lat="46.441346034407616" lon="9.337467961013317">
        <ele>1262.3</ele>
        <time>2007-06-09T12:55:12Z</time>
      </trkpt>
      <trkpt lat="46.441289037466049" lon="9.337509032338858">
        <ele>1262.3</ele>
        <time>2007-06-09T12:55:13Z</time>
      </trkpt>
      <trkpt lat="46.441017966717482" lon="9.337571980431676">
        <ele>1262.3</ele>
        <time>2007-06-09T12:55:18Z</time>
      </trkpt>
      <trkpt lat="46.440654024481773" lon="9.337523030117154">
        <ele>1261.9000000000001</ele>
        <time>2007-06-09T12:55:25Z</time>
      </trkpt>
      <trkpt lat="46.440375996753573" lon="9.337556976824999">
        <ele>1262.3</ele>
        <time>2007-06-09T12:55:31Z</time>
      </trkpt>
      <trkpt lat="46.440227972343564" lon="9.337664013728499">
        <ele>1263.8</ele>
        <time>2007-06-09T12:55:36Z</time>
      </trkpt>
      <trkpt lat="46.440137028694153" lon="9.337715981528163">
        <ele>1265.2</ele>
        <time>2007-06-09T12:55:39Z</time>
      </trkpt>
      <trkpt lat="46.440029991790652" lon="9.337860988453031">
        <ele>1266.2</ele>
        <time>2007-06-09T12:55:44Z</time>
      </trkpt>
      <trkpt lat="46.439989004284143" lon="9.337996020913124">
        <ele>1268.0999999999999</ele>
        <time>2007-06-09T12:55:49Z</time>
      </trkpt>
      <trkpt lat="46.439978023990989" lon="9.338118983432651">
        <ele>1269.0999999999999</ele>
        <time>2007-06-09T12:55:53Z</time>
      </trkpt>
      <trkpt lat="46.439940975978971" lon="9.338285028934479">
        <ele>1270.5</ele>
        <time>2007-06-09T12:55:57Z</time>
      </trkpt>
      <trkpt lat="46.439871992915869" lon="9.338427018374205">
        <ele>1270.5</ele>
        <time>2007-06-09T12:56:02Z</time>
      </trkpt>
      <trkpt lat="46.439779037609696" lon="9.338530031964183">
        <ele>1271.5</ele>
        <time>2007-06-09T12:56:08Z</time>
      </trkpt>
      <trkpt lat="46.439664037898183" lon="9.338516034185886">
        <ele>1271.5</ele>
        <time>2007-06-09T12:56:14Z</time>
      </trkpt>
      <trkpt lat="46.439553983509541" lon="9.338397011160851">
        <ele>1271.5</ele>
        <time>2007-06-09T12:56:20Z</time>
      </trkpt>
      <trkpt lat="46.43953001126647" lon="9.338394999504089">
        <ele>1272</ele>
        <time>2007-06-09T12:56:21Z</time>
      </trkpt>
      <trkpt lat="46.439392967149615" lon="9.338412014767528">
        <ele>1272</ele>
        <time>2007-06-09T12:56:27Z</time>
      </trkpt>
      <trkpt lat="46.439223987981677" lon="9.338498013094068">
        <ele>1272</ele>
        <time>2007-06-09T12:56:32Z</time>
      </trkpt>
      <trkpt lat="46.439021984115243" lon="9.338537994772196">
        <ele>1271.5</ele>
        <time>2007-06-09T12:56:37Z</time>
      </trkpt>
      <trkpt lat="46.438932968303561" lon="9.338522991165519">
        <ele>1271</ele>
        <time>2007-06-09T12:56:39Z</time>
      </trkpt>
      <trkpt lat="46.43858402967453" lon="9.338360968977213">
        <ele>1269.5999999999999</ele>
        <time>2007-06-09T12:56:46Z</time>
      </trkpt>
      <trkpt lat="46.438319999724627" lon="9.338394999504089">
        <ele>1268.0999999999999</ele>
        <time>2007-06-09T12:56:51Z</time>
      </trkpt>
      <trkpt lat="46.438209023326635" lon="9.338428024202585">
        <ele>1267.5999999999999</ele>
        <time>2007-06-09T12:56:53Z</time>
      </trkpt>
      <trkpt lat="46.438012970611453" lon="9.338536988943815">
        <ele>1267.2</ele>
        <time>2007-06-09T12:56:57Z</time>
      </trkpt>
      <trkpt lat="46.43781297840178" lon="9.338563978672028">
        <ele>1266.2</ele>
        <time>2007-06-09T12:57:01Z</time>
      </trkpt>
      <trkpt lat="46.437651040032506" lon="9.338618963956833">
        <ele>1266.2</ele>
        <time>2007-06-09T12:57:04Z</time>
      </trkpt>
      <trkpt lat="46.437542997300625" lon="9.338662968948484">
        <ele>1266.2</ele>
        <time>2007-06-09T12:57:06Z</time>
      </trkpt>
      <trkpt lat="46.437401007860899" lon="9.338798001408577">
        <ele>1265.7</ele>
        <time>2007-06-09T12:57:09Z</time>
      </trkpt>
      <trkpt lat="46.437178971245885" lon="9.338767994195223">
        <ele>1264.3</ele>
        <time>2007-06-09T12:57:13Z</time>
      </trkpt>
      <trkpt lat="46.436917958781123" lon="9.338500024750829">
        <ele>1263.3</ele>
        <time>2007-06-09T12:57:18Z</time>
      </trkpt>
      <trkpt lat="46.436639009043574" lon="9.338349988684058">
        <ele>1262.3</ele>
        <time>2007-06-09T12:57:23Z</time>
      </trkpt>
      <trkpt lat="46.436428036540747" lon="9.338316963985562">
        <ele>1261.9000000000001</ele>
        <time>2007-06-09T12:57:28Z</time>
      </trkpt>
      <trkpt lat="46.43641596660018" lon="9.338313024491072">
        <ele>1262.3</ele>
        <time>2007-06-09T12:57:31Z</time>
      </trkpt>
      <trkpt lat="46.436365004628897" lon="9.338288968428969">
        <ele>1265.7</ele>
        <time>2007-06-09T12:57:56Z</time>
      </trkpt>
      <trkpt lat="46.436346983537078" lon="9.338303972035646">
        <ele>1267.5999999999999</ele>
        <time>2007-06-09T12:58:02Z</time>
      </trkpt>
      <trkpt lat="46.436322005465627" lon="9.338279999792576">
        <ele>1270</ele>
        <time>2007-06-09T12:58:08Z</time>
      </trkpt>
      <trkpt lat="46.436305996030569" lon="9.338240018114448">
        <ele>1269.5999999999999</ele>
        <time>2007-06-09T12:58:14Z</time>
      </trkpt>
      <trkpt lat="46.436302978545427" lon="9.338238006457686">
        <ele>1270</ele>
        <time>2007-06-09T12:58:17Z</time>
      </trkpt>
      <trkpt lat="46.436215974390507" lon="9.338142033666372">
        <ele>1270</ele>
        <time>2007-06-09T12:58:24Z</time>
      </trkpt>
      <trkpt lat="46.436171969398856" lon="9.338116971775889">
        <ele>1270</ele>
        <time>2007-06-09T12:58:30Z</time>
      </trkpt>
      <trkpt lat="46.436096029356122" lon="9.338051006197929">
        <ele>1270.5</ele>
        <time>2007-06-09T12:59:04Z</time>
      </trkpt>
      <trkpt lat="46.436083959415555" lon="9.338063998147845">
        <ele>1270.5</ele>
        <time>2007-06-09T12:59:06Z</time>
      </trkpt>
      <trkpt lat="46.436068033799529" lon="9.338109008967876">
        <ele>1271</ele>
        <time>2007-06-09T12:59:09Z</time>
      </trkpt>
      <trkpt lat="46.435989998281002" lon="9.338242029771209">
        <ele>1269.0999999999999</ele>
        <time>2007-06-09T12:59:15Z</time>
      </trkpt>
      <trkpt lat="46.435931995511055" lon="9.338192995637655">
        <ele>1269.0999999999999</ele>
        <time>2007-06-09T12:59:20Z</time>
      </trkpt>
      <trkpt lat="46.435882039368153" lon="9.338045977056027">
        <ele>1269.5999999999999</ele>
        <time>2007-06-09T12:59:26Z</time>
      </trkpt>
      <trkpt lat="46.43585798330605" lon="9.338033990934491">
        <ele>1269.0999999999999</ele>
        <time>2007-06-09T12:59:27Z</time>
      </trkpt>
      <trkpt lat="46.435752036049962" lon="9.338008007034659">
        <ele>1267.2</ele>
        <time>2007-06-09T12:59:31Z</time>
      </trkpt>
      <trkpt lat="46.435695961117744" lon="9.338004989549518">
        <ele>1265.2</ele>
        <time>2007-06-09T12:59:37Z</time>
      </trkpt>
      <trkpt lat="46.435696966946125" lon="9.338075984269381">
        <ele>1265.2</ele>
        <time>2007-06-09T12:59:43Z</time>
      </trkpt>
      <trkpt lat="46.435581967234612" lon="9.338100962340832">
        <ele>1264.8</ele>
        <time>2007-06-09T12:59:52Z</time>
      </trkpt>
      <trkpt lat="46.435485994443297" lon="9.338235994800925">
        <ele>1263.8</ele>
        <time>2007-06-09T13:00:00Z</time>
      </trkpt>
      <trkpt lat="46.435488006100059" lon="9.338226020336151">
        <ele>1263.3</ele>
        <time>2007-06-09T13:00:03Z</time>
      </trkpt>
      <trkpt lat="46.435494963079691" lon="9.338172962889075">
        <ele>1264.8</ele>
        <time>2007-06-09T13:00:09Z</time>
      </trkpt>
      <trkpt lat="46.435393039137125" lon="9.338085036724806">
        <ele>1266.2</ele>
        <time>2007-06-09T13:00:23Z</time>
      </trkpt>
      <trkpt lat="46.435379041358829" lon="9.338042959570885">
        <ele>1265.2</ele>
        <time>2007-06-09T13:00:27Z</time>
      </trkpt>
      <trkpt lat="46.435290025547147" lon="9.337980011478066">
        <ele>1264.8</ele>
        <time>2007-06-09T13:00:34Z</time>
      </trkpt>
      <trkpt lat="46.435067988932133" lon="9.338187966495752">
        <ele>1260.9000000000001</ele>
        <time>2007-06-09T13:01:31Z</time>
      </trkpt>
      <trkpt lat="46.435030018910766" lon="9.338172962889075">
        <ele>1260.4000000000001</ele>
        <time>2007-06-09T13:01:32Z</time>
      </trkpt>
      <trkpt lat="46.434851987287402" lon="9.338042959570885">
        <ele>1258</ele>
        <time>2007-06-09T13:01:37Z</time>
      </trkpt>
      <trkpt lat="46.434800019487739" lon="9.338087970390916">
        <ele>1259.9000000000001</ele>
        <time>2007-06-09T13:01:44Z</time>
      </trkpt>
      <trkpt lat="46.434720978140831" lon="9.337996020913124">
        <ele>1257.0999999999999</ele>
        <time>2007-06-09T13:01:59Z</time>
      </trkpt>
      <trkpt lat="46.43482600338757" lon="9.338044971227646">
        <ele>1255.0999999999999</ele>
        <time>2007-06-09T13:02:16Z</time>
      </trkpt>
      <trkpt lat="46.434850981459022" lon="9.337985962629318">
        <ele>1253.7</ele>
        <time>2007-06-09T13:02:22Z</time>
      </trkpt>
      <trkpt lat="46.434859028086066" lon="9.337983028963208">
        <ele>1250.3</ele>
        <time>2007-06-09T13:02:38Z</time>
      </trkpt>
      <trkpt lat="46.434797002002597" lon="9.337895018979907">
        <ele>1247.4000000000001</ele>
        <time>2007-06-09T13:02:47Z</time>
      </trkpt>
      <trkpt lat="46.434732964262366" lon="9.33790298178792">
        <ele>1245.5</ele>
        <time>2007-06-09T13:02:53Z</time>
      </trkpt>
      <trkpt lat="46.43476196564734" lon="9.337884960696101">
        <ele>1243.5999999999999</ele>
        <time>2007-06-09T13:02:59Z</time>
      </trkpt>
      <trkpt lat="46.43484896980226" lon="9.337855037301779">
        <ele>1241.2</ele>
        <time>2007-06-09T13:03:04Z</time>
      </trkpt>
      <trkpt lat="46.434857016429305" lon="9.337824024260044">
        <ele>1240.7</ele>
        <time>2007-06-09T13:03:09Z</time>
      </trkpt>
      <trkpt lat="46.434814017266035" lon="9.337784964591265">
        <ele>1239.3</ele>
        <time>2007-06-09T13:03:13Z</time>
      </trkpt>
      <trkpt lat="46.434823991730809" lon="9.337765015661717">
        <ele>1239.3</ele>
        <time>2007-06-09T13:03:17Z</time>
      </trkpt>
      <trkpt lat="46.434769006446004" lon="9.337663007900119">
        <ele>1236.4000000000001</ele>
        <time>2007-06-09T13:03:37Z</time>
      </trkpt>
      <trkpt lat="46.434777975082397" lon="9.337686980143189">
        <ele>1236.4000000000001</ele>
        <time>2007-06-09T13:03:41Z</time>
      </trkpt>
      <trkpt lat="46.434745034202933" lon="9.337673988193274">
        <ele>1233</ele>
        <time>2007-06-09T13:04:14Z</time>
      </trkpt>
      <trkpt lat="46.434706980362535" lon="9.337689997628331">
        <ele>1231.5999999999999</ele>
        <time>2007-06-09T13:04:20Z</time>
      </trkpt>
      <trkpt lat="46.434627017006278" lon="9.337688991799951">
        <ele>1228.7</ele>
        <time>2007-06-09T13:04:24Z</time>
      </trkpt>
      <trkpt lat="46.43459097482264" lon="9.337707012891769">
        <ele>1228.2</ele>
        <time>2007-06-09T13:04:25Z</time>
      </trkpt>
      <trkpt lat="46.434483015909791" lon="9.337849002331495">
        <ele>1227.7</ele>
        <time>2007-06-09T13:04:32Z</time>
      </trkpt>
      <trkpt lat="46.434384025633335" lon="9.337950004264712">
        <ele>1227.3</ele>
        <time>2007-06-09T13:04:36Z</time>
      </trkpt>
      <trkpt lat="46.43431001342833" lon="9.337972970679402">
        <ele>1227.3</ele>
        <time>2007-06-09T13:04:41Z</time>
      </trkpt>
      <trkpt lat="46.43422300927341" lon="9.33798898011446">
        <ele>1226.3</ele>
        <time>2007-06-09T13:04:51Z</time>
      </trkpt>
      <trkpt lat="46.434082025662065" lon="9.337960984557867">
        <ele>1223.9000000000001</ele>
        <time>2007-06-09T13:04:57Z</time>
      </trkpt>
      <trkpt lat="46.434012958779931" lon="9.337980011478066">
        <ele>1222.9000000000001</ele>
        <time>2007-06-09T13:04:59Z</time>
      </trkpt>
      <trkpt lat="46.433864012360573" lon="9.338081013411284">
        <ele>1220.5</ele>
        <time>2007-06-09T13:05:04Z</time>
      </trkpt>
      <trkpt lat="46.433770973235369" lon="9.338065003976226">
        <ele>1218.0999999999999</ele>
        <time>2007-06-09T13:05:06Z</time>
      </trkpt>
      <trkpt lat="46.433693021535873" lon="9.337984034791589">
        <ele>1217.2</ele>
        <time>2007-06-09T13:05:08Z</time>
      </trkpt>
      <trkpt lat="46.433564024046063" lon="9.337943969294429">
        <ele>1215.2</ele>
        <time>2007-06-09T13:05:10Z</time>
      </trkpt>
      <trkpt lat="46.433457992970943" lon="9.337985962629318">
        <ele>1214.3</ele>
        <time>2007-06-09T13:05:12Z</time>
      </trkpt>
      <trkpt lat="46.433362020179629" lon="9.33805201202631">
        <ele>1213.3</ele>
        <time>2007-06-09T13:05:15Z</time>
      </trkpt>
      <trkpt lat="46.433264035731554" lon="9.338071960955858">
        <ele>1211.9000000000001</ele>
        <time>2007-06-09T13:05:20Z</time>
      </trkpt>
      <trkpt lat="46.433209972456098" lon="9.338087970390916">
        <ele>1210</ele>
        <time>2007-06-09T13:05:25Z</time>
      </trkpt>
      <trkpt lat="46.433215001598001" lon="9.338135998696089">
        <ele>1209.5</ele>
        <time>2007-06-09T13:05:26Z</time>
      </trkpt>
      <trkpt lat="46.433076029643416" lon="9.337983028963208">
        <ele>1208.5</ele>
        <time>2007-06-09T13:05:30Z</time>
      </trkpt>
      <trkpt lat="46.433045016601682" lon="9.337976993992925">
        <ele>1208</ele>
        <time>2007-06-09T13:05:31Z</time>
      </trkpt>
      <trkpt lat="46.432990031316876" lon="9.337943969294429">
        <ele>1208</ele>
        <time>2007-06-09T13:05:34Z</time>
      </trkpt>
      <trkpt lat="46.432799007743597" lon="9.33794598095119">
        <ele>1208</ele>
        <time>2007-06-09T13:05:48Z</time>
      </trkpt>
      <trkpt lat="46.432690965011716" lon="9.337917985394597">
        <ele>1208</ele>
        <time>2007-06-09T13:05:52Z</time>
      </trkpt>
      <trkpt lat="46.432614019140601" lon="9.337947992607951">
        <ele>1208</ele>
        <time>2007-06-09T13:05:54Z</time>
      </trkpt>
      <trkpt lat="46.432484015822411" lon="9.338101968169212">
        <ele>1206.0999999999999</ele>
        <time>2007-06-09T13:05:59Z</time>
      </trkpt>
      <trkpt lat="46.432418972253799" lon="9.33816097676754">
        <ele>1206.0999999999999</ele>
        <time>2007-06-09T13:06:03Z</time>
      </trkpt>
      <trkpt lat="46.432410003617406" lon="9.338234988972545">
        <ele>1205.5999999999999</ele>
        <time>2007-06-09T13:06:10Z</time>
      </trkpt>
      <trkpt lat="46.43233397975564" lon="9.338215962052345">
        <ele>1204.2</ele>
        <time>2007-06-09T13:06:15Z</time>
      </trkpt>
      <trkpt lat="46.432316964492202" lon="9.338213028386235">
        <ele>1204.7</ele>
        <time>2007-06-09T13:06:16Z</time>
      </trkpt>
      <trkpt lat="46.432269020006061" lon="9.33824404142797">
        <ele>1202.7</ele>
        <time>2007-06-09T13:06:19Z</time>
      </trkpt>
      <trkpt lat="46.432157959789038" lon="9.338319981470704">
        <ele>1202.3</ele>
        <time>2007-06-09T13:06:23Z</time>
      </trkpt>
      <trkpt lat="46.432138010859489" lon="9.338359041139484">
        <ele>1202.3</ele>
        <time>2007-06-09T13:06:27Z</time>
      </trkpt>
      <trkpt lat="46.432071961462498" lon="9.338436992838979">
        <ele>1200.3</ele>
        <time>2007-06-09T13:06:37Z</time>
      </trkpt>
      <trkpt lat="46.432043965905905" lon="9.338475968688726">
        <ele>1199.9000000000001</ele>
        <time>2007-06-09T13:06:41Z</time>
      </trkpt>
      <trkpt lat="46.431911028921604" lon="9.338546041399241">
        <ele>1197</ele>
        <time>2007-06-09T13:06:47Z</time>
      </trkpt>
      <trkpt lat="46.431870041415095" lon="9.33852500282228">
        <ele>1195.0999999999999</ele>
        <time>2007-06-09T13:06:50Z</time>
      </trkpt>
      <trkpt lat="46.431852020323277" lon="9.338542018085718">
        <ele>1194.5999999999999</ele>
        <time>2007-06-09T13:06:55Z</time>
      </trkpt>
      <trkpt lat="46.431845985352993" lon="9.338549980893731">
        <ele>1194.5999999999999</ele>
        <time>2007-06-09T13:06:56Z</time>
      </trkpt>
      <trkpt lat="46.431826036423445" lon="9.338570013642311">
        <ele>1194.0999999999999</ele>
        <time>2007-06-09T13:07:02Z</time>
      </trkpt>
      <trkpt lat="46.431783959269524" lon="9.338589962571859">
        <ele>1195.5</ele>
        <time>2007-06-09T13:07:10Z</time>
      </trkpt>
      <trkpt lat="46.431728973984718" lon="9.338608989492059">
        <ele>1195.5</ele>
        <time>2007-06-09T13:07:25Z</time>
      </trkpt>
      <trkpt lat="46.431687986478209" lon="9.338586023077369">
        <ele>1194.5999999999999</ele>
        <time>2007-06-09T13:07:30Z</time>
      </trkpt>
      <trkpt lat="46.431639036163688" lon="9.338572025299072">
        <ele>1194.5999999999999</ele>
        <time>2007-06-09T13:07:35Z</time>
      </trkpt>
      <trkpt lat="46.431606011465192" lon="9.338570013642311">
        <ele>1194.0999999999999</ele>
        <time>2007-06-09T13:07:40Z</time>
      </trkpt>
      <trkpt lat="46.431507021188736" lon="9.338603960350156">
        <ele>1194.5999999999999</ele>
        <time>2007-06-09T13:07:50Z</time>
      </trkpt>
      <trkpt lat="46.431486988440156" lon="9.338602032512426">
        <ele>1194.5999999999999</ele>
        <time>2007-06-09T13:07:52Z</time>
      </trkpt>
      <trkpt lat="46.431405013427138" lon="9.338583005592227">
        <ele>1194.0999999999999</ele>
        <time>2007-06-09T13:07:57Z</time>
      </trkpt>
      <trkpt lat="46.431320020928979" lon="9.338615024462342">
        <ele>1191.2</ele>
        <time>2007-06-09T13:08:02Z</time>
      </trkpt>
      <trkpt lat="46.431269980967045" lon="9.338642014190555">
        <ele>1189.8</ele>
        <time>2007-06-09T13:08:04Z</time>
      </trkpt>
      <trkpt lat="46.431025983765721" lon="9.338679984211922">
        <ele>1188.3</ele>
        <time>2007-06-09T13:08:10Z</time>
      </trkpt>
      <trkpt lat="46.430897992104292" lon="9.338689958676696">
        <ele>1187.4000000000001</ele>
        <time>2007-06-09T13:08:15Z</time>
      </trkpt>
      <trkpt lat="46.430838983505964" lon="9.338680990040302">
        <ele>1187.8</ele>
        <time>2007-06-09T13:08:20Z</time>
      </trkpt>
      <trkpt lat="46.430752985179424" lon="9.338650982826948">
        <ele>1185.9000000000001</ele>
        <time>2007-06-09T13:08:29Z</time>
      </trkpt>
      <trkpt lat="46.43072297796607" lon="9.338655006140471">
        <ele>1185.9000000000001</ele>
        <time>2007-06-09T13:08:32Z</time>
      </trkpt>
      <trkpt lat="46.43061300739646" lon="9.338728012517095">
        <ele>1185.4000000000001</ele>
        <time>2007-06-09T13:08:40Z</time>
      </trkpt>
      <trkpt lat="46.43059398047626" lon="9.338720971718431">
        <ele>1185.4000000000001</ele>
        <time>2007-06-09T13:08:41Z</time>
      </trkpt>
      <trkpt lat="46.430581994354725" lon="9.338732035830617">
        <ele>1185.9000000000001</ele>
        <time>2007-06-09T13:08:47Z</time>
      </trkpt>
      <trkpt lat="46.430471017956734" lon="9.338761959224939">
        <ele>1187.4000000000001</ele>
        <time>2007-06-09T13:09:22Z</time>
      </trkpt>
      <trkpt lat="46.43046397715807" lon="9.338801018893719">
        <ele>1188.8</ele>
        <time>2007-06-09T13:09:25Z</time>
      </trkpt>
      <trkpt lat="46.430422989651561" lon="9.338827002793551">
        <ele>1190.2</ele>
        <time>2007-06-09T13:09:30Z</time>
      </trkpt>
      <trkpt lat="46.43039801158011" lon="9.338827002793551">
        <ele>1191.7</ele>
        <time>2007-06-09T13:09:34Z</time>
      </trkpt>
      <trkpt lat="46.430333973839879" lon="9.338830020278692">
        <ele>1191.7</ele>
        <time>2007-06-09T13:09:39Z</time>
      </trkpt>
      <trkpt lat="46.430260967463255" lon="9.338845023885369">
        <ele>1191.2</ele>
        <time>2007-06-09T13:09:45Z</time>
      </trkpt>
      <trkpt lat="46.430201036855578" lon="9.338904032483697">
        <ele>1191.2</ele>
        <time>2007-06-09T13:09:49Z</time>
      </trkpt>
      <trkpt lat="46.429989980533719" lon="9.338995981961489">
        <ele>1189.8</ele>
        <time>2007-06-09T13:09:55Z</time>
      </trkpt>
      <trkpt lat="46.42992602661252" lon="9.339072005823255">
        <ele>1191.2</ele>
        <time>2007-06-09T13:09:58Z</time>
      </trkpt>
      <trkpt lat="46.429758975282311" lon="9.33914802968502">
        <ele>1190.7</ele>
        <time>2007-06-09T13:10:00Z</time>
      </trkpt>
      <trkpt lat="46.429650010541081" lon="9.339210977777839">
        <ele>1188.3</ele>
        <time>2007-06-09T13:10:03Z</time>
      </trkpt>
      <trkpt lat="46.429503997787833" lon="9.339426979422569">
        <ele>1186.9000000000001</ele>
        <time>2007-06-09T13:10:09Z</time>
      </trkpt>
      <trkpt lat="46.4293900039047" lon="9.339562011882663">
        <ele>1186.4000000000001</ele>
        <time>2007-06-09T13:10:14Z</time>
      </trkpt>
      <trkpt lat="46.429332001134753" lon="9.339667959138751">
        <ele>1187.4000000000001</ele>
        <time>2007-06-09T13:10:18Z</time>
      </trkpt>
      <trkpt lat="46.429241979494691" lon="9.339808020740748">
        <ele>1186.9000000000001</ele>
        <time>2007-06-09T13:10:23Z</time>
      </trkpt>
      <trkpt lat="46.429158998653293" lon="9.339868035167456">
        <ele>1185.4000000000001</ele>
        <time>2007-06-09T13:10:26Z</time>
      </trkpt>
      <trkpt lat="46.429038969799876" lon="9.339925032109022">
        <ele>1185</ele>
        <time>2007-06-09T13:10:30Z</time>
      </trkpt>
      <trkpt lat="46.428965963423252" lon="9.339912962168455">
        <ele>1181.5999999999999</ele>
        <time>2007-06-09T13:10:34Z</time>
      </trkpt>
      <trkpt lat="46.428913995623589" lon="9.339927965775132">
        <ele>1178.7</ele>
        <time>2007-06-09T13:10:38Z</time>
      </trkpt>
      <trkpt lat="46.42883000895381" lon="9.339951016008854">
        <ele>1176.3</ele>
        <time>2007-06-09T13:10:42Z</time>
      </trkpt>
      <trkpt lat="46.428782986477017" lon="9.339935006573796">
        <ele>1174.9000000000001</ele>
        <time>2007-06-09T13:10:44Z</time>
      </trkpt>
      <trkpt lat="46.428492972627282" lon="9.33983601629734">
        <ele>1172.9000000000001</ele>
        <time>2007-06-09T13:11:03Z</time>
      </trkpt>
      <trkpt lat="46.428327010944486" lon="9.339826041832566">
        <ele>1170.5</ele>
        <time>2007-06-09T13:11:08Z</time>
      </trkpt>
      <trkpt lat="46.428126012906432" lon="9.33985797688365">
        <ele>1169.0999999999999</ele>
        <time>2007-06-09T13:11:13Z</time>
      </trkpt>
      <trkpt lat="46.428018976002932" lon="9.339969959110022">
        <ele>1167.2</ele>
        <time>2007-06-09T13:11:17Z</time>
      </trkpt>
      <trkpt lat="46.42792702652514" lon="9.340114966034889">
        <ele>1167.2</ele>
        <time>2007-06-09T13:11:20Z</time>
      </trkpt>
      <trkpt lat="46.427768021821976" lon="9.340195013210177">
        <ele>1166.7</ele>
        <time>2007-06-09T13:11:24Z</time>
      </trkpt>
      <trkpt lat="46.427452024072409" lon="9.340268019586802">
        <ele>1164.8</ele>
        <time>2007-06-09T13:11:30Z</time>
      </trkpt>
      <trkpt lat="46.427282961085439" lon="9.340295009315014">
        <ele>1165.3</ele>
        <time>2007-06-09T13:11:34Z</time>
      </trkpt>
      <trkpt lat="46.427097972482443" lon="9.340314036235213">
        <ele>1163.3</ele>
        <time>2007-06-09T13:11:38Z</time>
      </trkpt>
      <trkpt lat="46.427028989419341" lon="9.340294003486633">
        <ele>1163.8</ele>
        <time>2007-06-09T13:11:41Z</time>
      </trkpt>
      <trkpt lat="46.426870990544558" lon="9.340409003198147">
        <ele>1167.2</ele>
        <time>2007-06-09T13:11:56Z</time>
      </trkpt>
      <trkpt lat="46.426861016079783" lon="9.34041503816843">
        <ele>1167.2</ele>
        <time>2007-06-09T13:11:57Z</time>
      </trkpt>
      <trkpt lat="46.426807036623359" lon="9.340412020683289">
        <ele>1167.7</ele>
        <time>2007-06-09T13:12:05Z</time>
      </trkpt>
      <trkpt lat="46.426708968356252" lon="9.340405985713005">
        <ele>1166.2</ele>
        <time>2007-06-09T13:12:10Z</time>
      </trkpt>
      <trkpt lat="46.426650965586305" lon="9.340344965457916">
        <ele>1164.8</ele>
        <time>2007-06-09T13:12:13Z</time>
      </trkpt>
      <trkpt lat="46.426575025543571" lon="9.340335996821523">
        <ele>1163.8</ele>
        <time>2007-06-09T13:12:18Z</time>
      </trkpt>
      <trkpt lat="46.426528003066778" lon="9.340306995436549">
        <ele>1164.3</ele>
        <time>2007-06-09T13:12:22Z</time>
      </trkpt>
      <trkpt lat="46.426423983648419" lon="9.340165005996823">
        <ele>1161.4000000000001</ele>
        <time>2007-06-09T13:12:29Z</time>
      </trkpt>
      <trkpt lat="46.426410991698503" lon="9.340166011825204">
        <ele>1160.9000000000001</ele>
        <time>2007-06-09T13:12:30Z</time>
      </trkpt>
      <trkpt lat="46.426335973665118" lon="9.340150002390146">
        <ele>1159.5</ele>
        <time>2007-06-09T13:12:32Z</time>
      </trkpt>
      <trkpt lat="46.426224997267127" lon="9.340190989896655">
        <ele>1159</ele>
        <time>2007-06-09T13:12:37Z</time>
      </trkpt>
      <trkpt lat="46.426085019484162" lon="9.340140027925372">
        <ele>1157.5999999999999</ele>
        <time>2007-06-09T13:12:41Z</time>
      </trkpt>
      <trkpt lat="46.425925008952618" lon="9.340038020163775">
        <ele>1156.0999999999999</ele>
        <time>2007-06-09T13:12:45Z</time>
      </trkpt>
      <trkpt lat="46.425842028111219" lon="9.340038020163775">
        <ele>1156.0999999999999</ele>
        <time>2007-06-09T13:12:48Z</time>
      </trkpt>
      <trkpt lat="46.425699032843113" lon="9.340089987963438">
        <ele>1155.2</ele>
        <time>2007-06-09T13:12:51Z</time>
      </trkpt>
      <trkpt lat="46.425550002604723" lon="9.34009300544858">
        <ele>1154.7</ele>
        <time>2007-06-09T13:12:54Z</time>
      </trkpt>
      <trkpt lat="46.425332995131612" lon="9.34011303819716">
        <ele>1153.2</ele>
        <time>2007-06-09T13:12:58Z</time>
      </trkpt>
      <trkpt lat="46.425117999315262" lon="9.340156959369779">
        <ele>1151.8</ele>
        <time>2007-06-09T13:13:04Z</time>
      </trkpt>
      <trkpt lat="46.425079023465514" lon="9.34022300876677">
        <ele>1151.3</ele>
        <time>2007-06-09T13:13:06Z</time>
      </trkpt>
      <trkpt lat="46.424999982118607" lon="9.340314036235213">
        <ele>1151.8</ele>
        <time>2007-06-09T13:13:11Z</time>
      </trkpt>
      <trkpt lat="46.424918007105589" lon="9.340319987386465">
        <ele>1151.3</ele>
        <time>2007-06-09T13:13:15Z</time>
      </trkpt>
      <trkpt lat="46.424721032381058" lon="9.340425012633205">
        <ele>1151.3</ele>
        <time>2007-06-09T13:13:21Z</time>
      </trkpt>
      <trkpt lat="46.424445016309619" lon="9.34056700207293">
        <ele>1150.4000000000001</ele>
        <time>2007-06-09T13:13:26Z</time>
      </trkpt>
      <trkpt lat="46.424241000786424" lon="9.340779986232519">
        <ele>1150.4000000000001</ele>
        <time>2007-06-09T13:13:33Z</time>
      </trkpt>
      <trkpt lat="46.424121977761388" lon="9.340958017855883">
        <ele>1147</ele>
        <time>2007-06-09T13:13:37Z</time>
      </trkpt>
      <trkpt lat="46.424089036881924" lon="9.341008979827166">
        <ele>1142.7</ele>
        <time>2007-06-09T13:13:39Z</time>
      </trkpt>
      <trkpt lat="46.424045031890273" lon="9.341076035052538">
        <ele>1143.5999999999999</ele>
        <time>2007-06-09T13:13:40Z</time>
      </trkpt>
      <trkpt lat="46.423955010250211" lon="9.341122973710299">
        <ele>1142.7</ele>
        <time>2007-06-09T13:13:44Z</time>
      </trkpt>
      <trkpt lat="46.423878986388445" lon="9.341118028387427">
        <ele>1141.2</ele>
        <time>2007-06-09T13:13:49Z</time>
      </trkpt>
      <trkpt lat="46.423797011375427" lon="9.341133031994104">
        <ele>1139.8</ele>
        <time>2007-06-09T13:13:52Z</time>
      </trkpt>
      <trkpt lat="46.423711013048887" lon="9.341262029483914">
        <ele>1138.8</ele>
        <time>2007-06-09T13:13:56Z</time>
      </trkpt>
      <trkpt lat="46.423699026927352" lon="9.341292036697269">
        <ele>1138.8</ele>
        <time>2007-06-09T13:13:57Z</time>
      </trkpt>
      <trkpt lat="46.423677988350391" lon="9.341307962313294">
        <ele>1138.3</ele>
        <time>2007-06-09T13:14:01Z</time>
      </trkpt>
      <trkpt lat="46.423673965036869" lon="9.341307040303946">
        <ele>1138.3</ele>
        <time>2007-06-09T13:14:05Z</time>
      </trkpt>
      <trkpt lat="46.423601964488626" lon="9.341233028098941">
        <ele>1138.8</ele>
        <time>2007-06-09T13:14:11Z</time>
      </trkpt>
      <trkpt lat="46.423559971153736" lon="9.341227998957038">
        <ele>1138.3</ele>
        <time>2007-06-09T13:14:16Z</time>
      </trkpt>
      <trkpt lat="46.423556031659245" lon="9.341305028647184">
        <ele>1138.3</ele>
        <time>2007-06-09T13:14:23Z</time>
      </trkpt>
      <trkpt lat="46.423504985868931" lon="9.341341992840171">
        <ele>1138.3</ele>
        <time>2007-06-09T13:14:29Z</time>
      </trkpt>
      <trkpt lat="46.423418987542391" lon="9.341413993388414">
        <ele>1139.8</ele>
        <time>2007-06-09T13:14:34Z</time>
      </trkpt>
      <trkpt lat="46.423413036391139" lon="9.341432014480233">
        <ele>1138.3</ele>
        <time>2007-06-09T13:14:35Z</time>
      </trkpt>
      <trkpt lat="46.423355033621192" lon="9.341514995321631">
        <ele>1136.9000000000001</ele>
        <time>2007-06-09T13:14:39Z</time>
      </trkpt>
      <trkpt lat="46.423284960910678" lon="9.341565035283566">
        <ele>1135.9000000000001</ele>
        <time>2007-06-09T13:14:44Z</time>
      </trkpt>
      <trkpt lat="46.4231370203197" lon="9.34155598282814">
        <ele>1135</ele>
        <time>2007-06-09T13:14:50Z</time>
      </trkpt>
      <trkpt lat="46.423089997842908" lon="9.341580960899591">
        <ele>1136.4000000000001</ele>
        <time>2007-06-09T13:14:55Z</time>
      </trkpt>
      <trkpt lat="46.422984972596169" lon="9.341553971171379">
        <ele>1136.4000000000001</ele>
        <time>2007-06-09T13:15:16Z</time>
      </trkpt>
      <trkpt lat="46.42292101867497" lon="9.34151197783649">
        <ele>1136.9000000000001</ele>
        <time>2007-06-09T13:15:19Z</time>
      </trkpt>
      <trkpt lat="46.422791015356779" lon="9.341437965631485">
        <ele>1137.4000000000001</ele>
        <time>2007-06-09T13:15:23Z</time>
      </trkpt>
      <trkpt lat="46.422565961256623" lon="9.341397983953357">
        <ele>1139.3</ele>
        <time>2007-06-09T13:15:30Z</time>
      </trkpt>
      <trkpt lat="46.422484992071986" lon="9.341397983953357">
        <ele>1141.2</ele>
        <time>2007-06-09T13:15:34Z</time>
      </trkpt>
      <trkpt lat="46.422360017895699" lon="9.341282984241843">
        <ele>1142.2</ele>
        <time>2007-06-09T13:15:42Z</time>
      </trkpt>
      <trkpt lat="46.42223596572876" lon="9.341140994802117">
        <ele>1141.7</ele>
        <time>2007-06-09T13:15:48Z</time>
      </trkpt>
      <trkpt lat="46.422096993774176" lon="9.340963969007134">
        <ele>1141.7</ele>
        <time>2007-06-09T13:15:52Z</time>
      </trkpt>
      <trkpt lat="46.421958021819592" lon="9.340859027579427">
        <ele>1141.7</ele>
        <time>2007-06-09T13:15:55Z</time>
      </trkpt>
      <trkpt lat="46.421598019078374" lon="9.340797001495957">
        <ele>1140.7</ele>
        <time>2007-06-09T13:15:59Z</time>
      </trkpt>
      <trkpt lat="46.421555019915104" lon="9.340812005102634">
        <ele>1141.7</ele>
        <time>2007-06-09T13:16:04Z</time>
      </trkpt>
      <trkpt lat="46.421521995216608" lon="9.340797001495957">
        <ele>1141.7</ele>
        <time>2007-06-09T13:16:07Z</time>
      </trkpt>
      <trkpt lat="46.421351004391909" lon="9.340756013989449">
        <ele>1142.2</ele>
        <time>2007-06-09T13:16:14Z</time>
      </trkpt>
      <trkpt lat="46.421400038525462" lon="9.340731035917997">
        <ele>1142.7</ele>
        <time>2007-06-09T13:16:18Z</time>
      </trkpt>
      <trkpt lat="46.421469021588564" lon="9.34071603231132">
        <ele>1142.7</ele>
        <time>2007-06-09T13:16:25Z</time>
      </trkpt>
      <trkpt lat="46.421472039073706" lon="9.340703962370753">
        <ele>1141.7</ele>
        <time>2007-06-09T13:16:33Z</time>
      </trkpt>
      <trkpt lat="46.421444965526462" lon="9.340752996504307">
        <ele>1140.3</ele>
        <time>2007-06-09T13:19:02Z</time>
      </trkpt>
      <trkpt lat="46.42152501270175" lon="9.340762970969081">
        <ele>1140.3</ele>
        <time>2007-06-09T13:19:07Z</time>
      </trkpt>
      <trkpt lat="46.421678988263011" lon="9.340760037302971">
        <ele>1140.7</ele>
        <time>2007-06-09T13:19:14Z</time>
      </trkpt>
      <trkpt lat="46.421700026839972" lon="9.340757019817829">
        <ele>1140.7</ele>
        <time>2007-06-09T13:19:15Z</time>
      </trkpt>
      <trkpt lat="46.421690974384546" lon="9.340655012056232">
        <ele>1139.3</ele>
        <time>2007-06-09T13:19:19Z</time>
      </trkpt>
      <trkpt lat="46.421653004363179" lon="9.340628022328019">
        <ele>1139.3</ele>
        <time>2007-06-09T13:19:20Z</time>
      </trkpt>
      <trkpt lat="46.421435996890068" lon="9.340425012633205">
        <ele>1136.9000000000001</ele>
        <time>2007-06-09T13:19:25Z</time>
      </trkpt>
      <trkpt lat="46.421299036592245" lon="9.34037497267127">
        <ele>1136.9000000000001</ele>
        <time>2007-06-09T13:19:29Z</time>
      </trkpt>
      <trkpt lat="46.42118101939559" lon="9.340333985164762">
        <ele>1135</ele>
        <time>2007-06-09T13:19:33Z</time>
      </trkpt>
      <trkpt lat="46.421082029119134" lon="9.340327028185129">
        <ele>1134.5</ele>
        <time>2007-06-09T13:19:35Z</time>
      </trkpt>
      <trkpt lat="46.420956971123815" lon="9.340272964909673">
        <ele>1135.5</ele>
        <time>2007-06-09T13:19:40Z</time>
      </trkpt>
      <trkpt lat="46.420941967517138" lon="9.340267013758421">
        <ele>1135</ele>
        <time>2007-06-09T13:19:41Z</time>
      </trkpt>
      <trkpt lat="46.420914977788925" lon="9.340226026251912">
        <ele>1135</ele>
        <time>2007-06-09T13:19:46Z</time>
      </trkpt>
      <trkpt lat="46.42090299166739" lon="9.340200964361429">
        <ele>1135</ele>
        <time>2007-06-09T13:19:51Z</time>
      </trkpt>
      <trkpt lat="46.420874996110797" lon="9.340165005996823">
        <ele>1136.4000000000001</ele>
        <time>2007-06-09T13:19:56Z</time>
      </trkpt>
      <trkpt lat="46.420841971412301" lon="9.340170035138726">
        <ele>1135.5</ele>
        <time>2007-06-09T13:20:04Z</time>
      </trkpt>
      <trkpt lat="46.420836020261049" lon="9.34015603736043">
        <ele>1134</ele>
        <time>2007-06-09T13:20:09Z</time>
      </trkpt>
      <trkpt lat="46.420787991955876" lon="9.34015603736043">
        <ele>1133.5</ele>
        <time>2007-06-09T13:20:17Z</time>
      </trkpt>
      <trkpt lat="46.420769970864058" lon="9.340160982683301">
        <ele>1133.0999999999999</ele>
        <time>2007-06-09T13:20:19Z</time>
      </trkpt>
      <trkpt lat="46.420686990022659" lon="9.340185960754752">
        <ele>1132.0999999999999</ele>
        <time>2007-06-09T13:20:25Z</time>
      </trkpt>
      <trkpt lat="46.420606020838022" lon="9.340177997946739">
        <ele>1131.5999999999999</ele>
        <time>2007-06-09T13:20:31Z</time>
      </trkpt>
      <trkpt lat="46.420518010854721" lon="9.340191995725036">
        <ele>1131.0999999999999</ele>
        <time>2007-06-09T13:20:36Z</time>
      </trkpt>
      <trkpt lat="46.420488003641367" lon="9.340181015431881">
        <ele>1130.5999999999999</ele>
        <time>2007-06-09T13:20:41Z</time>
      </trkpt>
      <trkpt lat="46.42045296728611" lon="9.340174980461597">
        <ele>1131.0999999999999</ele>
        <time>2007-06-09T13:20:48Z</time>
      </trkpt>
      <trkpt lat="46.420395970344543" lon="9.340175986289978">
        <ele>1130.5999999999999</ele>
        <time>2007-06-09T13:20:52Z</time>
      </trkpt>
      <trkpt lat="46.420311983674765" lon="9.340170035138726">
        <ele>1130.5999999999999</ele>
        <time>2007-06-09T13:20:57Z</time>
      </trkpt>
      <trkpt lat="46.42027803696692" lon="9.340151008218527">
        <ele>1131.0999999999999</ele>
        <time>2007-06-09T13:20:59Z</time>
      </trkpt>
      <trkpt lat="46.420189021155238" lon="9.340130975469947">
        <ele>1131.5999999999999</ele>
        <time>2007-06-09T13:21:05Z</time>
      </trkpt>
      <trkpt lat="46.420162031427026" lon="9.340125024318695">
        <ele>1131.5999999999999</ele>
        <time>2007-06-09T13:21:09Z</time>
      </trkpt>
      <trkpt lat="46.420138981193304" lon="9.340138016268611">
        <ele>1131.5999999999999</ele>
        <time>2007-06-09T13:21:11Z</time>
      </trkpt>
      <trkpt lat="46.420059017837048" lon="9.340175986289978">
        <ele>1131.0999999999999</ele>
        <time>2007-06-09T13:21:16Z</time>
      </trkpt>
      <trkpt lat="46.420045020058751" lon="9.340205993503332">
        <ele>1129.7</ele>
        <time>2007-06-09T13:21:20Z</time>
      </trkpt>
      <trkpt lat="46.419930020347238" lon="9.340263996273279">
        <ele>1129.7</ele>
        <time>2007-06-09T13:21:26Z</time>
      </trkpt>
      <trkpt lat="46.419810997322202" lon="9.34041696600616">
        <ele>1128.2</ele>
        <time>2007-06-09T13:21:31Z</time>
      </trkpt>
      <trkpt lat="46.419665990397334" lon="9.340483015403152">
        <ele>1128.7</ele>
        <time>2007-06-09T13:21:37Z</time>
      </trkpt>
      <trkpt lat="46.41952701844275" lon="9.3405029643327">
        <ele>1128.2</ele>
        <time>2007-06-09T13:21:42Z</time>
      </trkpt>
      <trkpt lat="46.419388968497515" lon="9.340550992637873">
        <ele>1128.2</ele>
        <time>2007-06-09T13:21:47Z</time>
      </trkpt>
      <trkpt lat="46.419261982664466" lon="9.340636990964413">
        <ele>1127.8</ele>
        <time>2007-06-09T13:21:52Z</time>
      </trkpt>
      <trkpt lat="46.419125022366643" lon="9.340688036754727">
        <ele>1127.3</ele>
        <time>2007-06-09T13:21:57Z</time>
      </trkpt>
      <trkpt lat="46.418993007391691" lon="9.340795995667577">
        <ele>1126.8</ele>
        <time>2007-06-09T13:22:02Z</time>
      </trkpt>
      <trkpt lat="46.418830985203385" lon="9.340957012027502">
        <ele>1126.3</ele>
        <time>2007-06-09T13:22:07Z</time>
      </trkpt>
      <trkpt lat="46.418785974383354" lon="9.340997999534011">
        <ele>1126.3</ele>
        <time>2007-06-09T13:22:08Z</time>
      </trkpt>
      <trkpt lat="46.418663011863828" lon="9.341031024232507">
        <ele>1126.3</ele>
        <time>2007-06-09T13:22:12Z</time>
      </trkpt>
      <trkpt lat="46.418491015210748" lon="9.341136971488595">
        <ele>1126.8</ele>
        <time>2007-06-09T13:22:18Z</time>
      </trkpt>
      <trkpt lat="46.418337961658835" lon="9.341172007843852">
        <ele>1126.3</ele>
        <time>2007-06-09T13:22:24Z</time>
      </trkpt>
      <trkpt lat="46.418225979432464" lon="9.34112498536706">
        <ele>1126.8</ele>
        <time>2007-06-09T13:22:29Z</time>
      </trkpt>
      <trkpt lat="46.418158002197742" lon="9.341120040044189">
        <ele>1126.3</ele>
        <time>2007-06-09T13:22:32Z</time>
      </trkpt>
      <trkpt lat="46.418105028569698" lon="9.341115010902286">
        <ele>1125.8</ele>
        <time>2007-06-09T13:22:37Z</time>
      </trkpt>
      <trkpt lat="46.417993968352675" lon="9.341097995638847">
        <ele>1125.4000000000001</ele>
        <time>2007-06-09T13:22:42Z</time>
      </trkpt>
      <trkpt lat="46.417756006121635" lon="9.341011997312307">
        <ele>1125.4000000000001</ele>
        <time>2007-06-09T13:22:50Z</time>
      </trkpt>
      <trkpt lat="46.417547967284918" lon="9.341032030060887">
        <ele>1123.9000000000001</ele>
        <time>2007-06-09T13:22:57Z</time>
      </trkpt>
      <trkpt lat="46.417376976460218" lon="9.34101602062583">
        <ele>1123.4000000000001</ele>
        <time>2007-06-09T13:23:02Z</time>
      </trkpt>
      <trkpt lat="46.417286032810807" lon="9.34101602062583">
        <ele>1123</ele>
        <time>2007-06-09T13:23:06Z</time>
      </trkpt>
      <trkpt lat="46.417216965928674" lon="9.340957012027502">
        <ele>1124.4000000000001</ele>
        <time>2007-06-09T13:23:11Z</time>
      </trkpt>
      <trkpt lat="46.417173966765404" lon="9.340939996764064">
        <ele>1124.9000000000001</ele>
        <time>2007-06-09T13:23:15Z</time>
      </trkpt>
      <trkpt lat="46.417046980932355" lon="9.340904038399458">
        <ele>1124.4000000000001</ele>
        <time>2007-06-09T13:23:20Z</time>
      </trkpt>
      <trkpt lat="46.416971040889621" lon="9.340885011479259">
        <ele>1123.4000000000001</ele>
        <time>2007-06-09T13:23:22Z</time>
      </trkpt>
      <trkpt lat="46.416824022307992" lon="9.340898003429174">
        <ele>1123</ele>
        <time>2007-06-09T13:23:25Z</time>
      </trkpt>
      <trkpt lat="46.416504001244903" lon="9.340908983722329">
        <ele>1122</ele>
        <time>2007-06-09T13:23:33Z</time>
      </trkpt>
      <trkpt lat="46.416334016248584" lon="9.340957012027502">
        <ele>1122</ele>
        <time>2007-06-09T13:23:39Z</time>
      </trkpt>
      <trkpt lat="46.416164031252265" lon="9.341036975383759">
        <ele>1121.5</ele>
        <time>2007-06-09T13:23:45Z</time>
      </trkpt>
      <trkpt lat="46.415977030992508" lon="9.341094978153706">
        <ele>1122</ele>
        <time>2007-06-09T13:23:50Z</time>
      </trkpt>
      <trkpt lat="46.415837975218892" lon="9.341143006458879">
        <ele>1121</ele>
        <time>2007-06-09T13:23:55Z</time>
      </trkpt>
      <trkpt lat="46.415840992704034" lon="9.341140994802117">
        <ele>1121</ele>
        <time>2007-06-09T13:23:56Z</time>
      </trkpt>
      <trkpt lat="46.415774021297693" lon="9.341206960380077">
        <ele>1121.5</ele>
        <time>2007-06-09T13:24:02Z</time>
      </trkpt>
      <trkpt lat="46.415719036012888" lon="9.341250965371728">
        <ele>1122</ele>
        <time>2007-06-09T13:24:07Z</time>
      </trkpt>
      <trkpt lat="46.415679976344109" lon="9.341279966756702">
        <ele>1123</ele>
        <time>2007-06-09T13:24:10Z</time>
      </trkpt>
      <trkpt lat="46.415622979402542" lon="9.341304022818804">
        <ele>1123.4000000000001</ele>
        <time>2007-06-09T13:24:15Z</time>
      </trkpt>
      <trkpt lat="46.415605964139104" lon="9.341307962313294">
        <ele>1123.9000000000001</ele>
        <time>2007-06-09T13:24:17Z</time>
      </trkpt>
      <trkpt lat="46.415547961369157" lon="9.341327995061874">
        <ele>1124.4000000000001</ele>
        <time>2007-06-09T13:24:20Z</time>
      </trkpt>
      <trkpt lat="46.41551099717617" lon="9.341321038082242">
        <ele>1124.4000000000001</ele>
        <time>2007-06-09T13:24:22Z</time>
      </trkpt>
      <trkpt lat="46.41546699218452" lon="9.341286001726985">
        <ele>1124.9000000000001</ele>
        <time>2007-06-09T13:24:27Z</time>
      </trkpt>
      <trkpt lat="46.415458023548126" lon="9.34131701476872">
        <ele>1124.4000000000001</ele>
        <time>2007-06-09T13:24:32Z</time>
      </trkpt>
      <trkpt lat="46.415407983586192" lon="9.341331012547016">
        <ele>1123.9000000000001</ele>
        <time>2007-06-09T13:24:40Z</time>
      </trkpt>
      <trkpt lat="46.415356015786529" lon="9.341268986463547">
        <ele>1123</ele>
        <time>2007-06-09T13:24:46Z</time>
      </trkpt>
      <trkpt lat="46.41531796194613" lon="9.341258006170392">
        <ele>1121.5</ele>
        <time>2007-06-09T13:24:51Z</time>
      </trkpt>
      <trkpt lat="46.4153160341084" lon="9.341393960639834">
        <ele>1121.5</ele>
        <time>2007-06-09T13:24:56Z</time>
      </trkpt>
      <trkpt lat="46.415326008573174" lon="9.341407036408782">
        <ele>1122</ele>
        <time>2007-06-09T13:25:01Z</time>
      </trkpt>
      <trkpt lat="46.415330031886697" lon="9.341436959803104">
        <ele>1121</ele>
        <time>2007-06-09T13:25:10Z</time>
      </trkpt>
      <trkpt lat="46.415256019681692" lon="9.341540979221463">
        <ele>1123</ele>
        <time>2007-06-09T13:25:26Z</time>
      </trkpt>
      <trkpt lat="46.415259037166834" lon="9.341569980606437">
        <ele>1121.5</ele>
        <time>2007-06-09T13:26:16Z</time>
      </trkpt>
      <trkpt lat="46.415224000811577" lon="9.341571992263198">
        <ele>1121.5</ele>
        <time>2007-06-09T13:26:18Z</time>
      </trkpt>
      <trkpt lat="46.415129033848643" lon="9.341632006689906">
        <ele>1120.5999999999999</ele>
        <time>2007-06-09T13:26:23Z</time>
      </trkpt>
      <trkpt lat="46.415054015815258" lon="9.341621026396751">
        <ele>1120.5999999999999</ele>
        <time>2007-06-09T13:26:27Z</time>
      </trkpt>
      <trkpt lat="46.415002970024943" lon="9.341647010296583">
        <ele>1120.5999999999999</ele>
        <time>2007-06-09T13:26:43Z</time>
      </trkpt>
      <trkpt lat="46.414955025538802" lon="9.341676011681557">
        <ele>1121</ele>
        <time>2007-06-09T13:26:48Z</time>
      </trkpt>
      <trkpt lat="46.414884030818939" lon="9.341711970046163">
        <ele>1121</ele>
        <time>2007-06-09T13:26:52Z</time>
      </trkpt>
      <trkpt lat="46.414833990857005" lon="9.341838033869863">
        <ele>1120.5999999999999</ele>
        <time>2007-06-09T13:26:57Z</time>
      </trkpt>
      <trkpt lat="46.414788980036974" lon="9.342038026079536">
        <ele>1118.5999999999999</ele>
        <time>2007-06-09T13:27:01Z</time>
      </trkpt>
      <trkpt lat="46.414681021124125" lon="9.34230599552393">
        <ele>1118.5999999999999</ele>
        <time>2007-06-09T13:27:07Z</time>
      </trkpt>
      <trkpt lat="46.414583036676049" lon="9.342331979423761">
        <ele>1118.5999999999999</ele>
        <time>2007-06-09T13:27:13Z</time>
      </trkpt>
      <trkpt lat="46.414498966187239" lon="9.342353018000722">
        <ele>1118.2</ele>
        <time>2007-06-09T13:27:16Z</time>
      </trkpt>
      <trkpt lat="46.414366029202938" lon="9.342367015779018">
        <ele>1118.2</ele>
        <time>2007-06-09T13:27:20Z</time>
      </trkpt>
      <trkpt lat="46.414191015064716" lon="9.342368021607399">
        <ele>1117.7</ele>
        <time>2007-06-09T13:27:25Z</time>
      </trkpt>
      <trkpt lat="46.413924973458052" lon="9.342382019385696">
        <ele>1116.7</ele>
        <time>2007-06-09T13:27:31Z</time>
      </trkpt>
      <trkpt lat="46.413710983470082" lon="9.34237196110189">
        <ele>1115.7</ele>
        <time>2007-06-09T13:27:35Z</time>
      </trkpt>
      <trkpt lat="46.413398003205657" lon="9.342419989407063">
        <ele>1115.3</ele>
        <time>2007-06-09T13:27:41Z</time>
      </trkpt>
      <trkpt lat="46.412965999916196" lon="9.342552004382014">
        <ele>1113.3</ele>
        <time>2007-06-09T13:27:49Z</time>
      </trkpt>
      <trkpt lat="46.412697024643421" lon="9.342613024637103">
        <ele>1112.9000000000001</ele>
        <time>2007-06-09T13:27:54Z</time>
      </trkpt>
      <trkpt lat="46.412475993856788" lon="9.342746967449784">
        <ele>1112.4000000000001</ele>
        <time>2007-06-09T13:27:59Z</time>
      </trkpt>
      <trkpt lat="46.412231996655464" lon="9.342894991859794">
        <ele>1112.4000000000001</ele>
        <time>2007-06-09T13:28:05Z</time>
      </trkpt>
      <trkpt lat="46.412119008600712" lon="9.342945031821728">
        <ele>1112.4000000000001</ele>
        <time>2007-06-09T13:28:07Z</time>
      </trkpt>
      <trkpt lat="46.411765040829778" lon="9.343120967969298">
        <ele>1111.4000000000001</ele>
        <time>2007-06-09T13:28:14Z</time>
      </trkpt>
      <trkpt lat="46.411632020026445" lon="9.343206966295838">
        <ele>1111.4000000000001</ele>
        <time>2007-06-09T13:28:17Z</time>
      </trkpt>
      <trkpt lat="46.411400008946657" lon="9.343403019011021">
        <ele>1111.9000000000001</ele>
        <time>2007-06-09T13:28:23Z</time>
      </trkpt>
      <trkpt lat="46.411347035318613" lon="9.343446018174291">
        <ele>1112.9000000000001</ele>
        <time>2007-06-09T13:28:25Z</time>
      </trkpt>
      <trkpt lat="46.411243015900254" lon="9.343576021492481">
        <ele>1111.9000000000001</ele>
        <time>2007-06-09T13:28:29Z</time>
      </trkpt>
      <trkpt lat="46.411167997866869" lon="9.343800991773605">
        <ele>1110.5</ele>
        <time>2007-06-09T13:28:33Z</time>
      </trkpt>
      <trkpt lat="46.411154000088573" lon="9.343934012576938">
        <ele>1111.4000000000001</ele>
        <time>2007-06-09T13:28:35Z</time>
      </trkpt>
      <trkpt lat="46.411137990653515" lon="9.344341037794948">
        <ele>1110.5</ele>
        <time>2007-06-09T13:28:42Z</time>
      </trkpt>
      <trkpt lat="46.411118963733315" lon="9.344758959487081">
        <ele>1111.9000000000001</ele>
        <time>2007-06-09T13:28:51Z</time>
      </trkpt>
      <trkpt lat="46.411114018410444" lon="9.345009997487068">
        <ele>1113.3</ele>
        <time>2007-06-09T13:28:56Z</time>
      </trkpt>
      <trkpt lat="46.411158023402095" lon="9.345392966642976">
        <ele>1115.3</ele>
        <time>2007-06-09T13:29:03Z</time>
      </trkpt>
      <trkpt lat="46.411244021728635" lon="9.345802003517747">
        <ele>1115.3</ele>
        <time>2007-06-09T13:29:12Z</time>
      </trkpt>
      <trkpt lat="46.411221977323294" lon="9.3460030015558">
        <ele>1114.8</ele>
        <time>2007-06-09T13:29:16Z</time>
      </trkpt>
      <trkpt lat="46.411000024527311" lon="9.346371972933412">
        <ele>1112.4000000000001</ele>
        <time>2007-06-09T13:29:23Z</time>
      </trkpt>
      <trkpt lat="46.410642033442855" lon="9.346952000632882">
        <ele>1109.5</ele>
        <time>2007-06-09T13:29:32Z</time>
      </trkpt>
      <trkpt lat="46.410270966589451" lon="9.347487017512322">
        <ele>1108.0999999999999</ele>
        <time>2007-06-09T13:29:40Z</time>
      </trkpt>
      <trkpt lat="46.410036021843553" lon="9.347781976684928">
        <ele>1107.5999999999999</ele>
        <time>2007-06-09T13:29:45Z</time>
      </trkpt>
      <trkpt lat="46.409936025738716" lon="9.34789203107357">
        <ele>1107.5999999999999</ele>
        <time>2007-06-09T13:29:47Z</time>
      </trkpt>
      <trkpt lat="46.409635031595826" lon="9.348259996622801">
        <ele>1107.0999999999999</ele>
        <time>2007-06-09T13:29:54Z</time>
      </trkpt>
      <trkpt lat="46.40936303883791" lon="9.34858001768589">
        <ele>1106.5999999999999</ele>
        <time>2007-06-09T13:30:00Z</time>
      </trkpt>
      <trkpt lat="46.409276034682989" lon="9.34868797659874">
        <ele>1106.0999999999999</ele>
        <time>2007-06-09T13:30:02Z</time>
      </trkpt>
      <trkpt lat="46.409137984737754" lon="9.348853016272187">
        <ele>1106.0999999999999</ele>
        <time>2007-06-09T13:30:05Z</time>
      </trkpt>
      <trkpt lat="46.409051986411214" lon="9.348978996276856">
        <ele>1106.0999999999999</ele>
        <time>2007-06-09T13:30:07Z</time>
      </trkpt>
      <trkpt lat="46.408949978649616" lon="9.349356014281511">
        <ele>1107.5999999999999</ele>
        <time>2007-06-09T13:30:12Z</time>
      </trkpt>
      <trkpt lat="46.409003036096692" lon="9.349595988169313">
        <ele>1108.5</ele>
        <time>2007-06-09T13:30:16Z</time>
      </trkpt>
      <trkpt lat="46.409139996394515" lon="9.349925983697176">
        <ele>1110.9000000000001</ele>
        <time>2007-06-09T13:30:22Z</time>
      </trkpt>
      <trkpt lat="46.409157011657953" lon="9.349979041144252">
        <ele>1110.9000000000001</ele>
        <time>2007-06-09T13:30:23Z</time>
      </trkpt>
      <trkpt lat="46.409205039963126" lon="9.350297972559929">
        <ele>1114.8</ele>
        <time>2007-06-09T13:30:28Z</time>
      </trkpt>
      <trkpt lat="46.409196993336082" lon="9.350649006664753">
        <ele>1115.7</ele>
        <time>2007-06-09T13:30:34Z</time>
      </trkpt>
      <trkpt lat="46.409204034134746" lon="9.350751014426351">
        <ele>1116.7</ele>
        <time>2007-06-09T13:30:36Z</time>
      </trkpt>
      <trkpt lat="46.409149970859289" lon="9.350958969444037">
        <ele>1117.2</ele>
        <time>2007-06-09T13:30:40Z</time>
      </trkpt>
      <trkpt lat="46.409012004733086" lon="9.351019989699125">
        <ele>1116.2</ele>
        <time>2007-06-09T13:30:44Z</time>
      </trkpt>
      <trkpt lat="46.408907985314727" lon="9.351037004962564">
        <ele>1116.2</ele>
        <time>2007-06-09T13:30:46Z</time>
      </trkpt>
      <trkpt lat="46.408525016158819" lon="9.351103976368904">
        <ele>1114.8</ele>
        <time>2007-06-09T13:30:53Z</time>
      </trkpt>
      <trkpt lat="46.408437006175518" lon="9.351090984418988">
        <ele>1114.8</ele>
        <time>2007-06-09T13:30:57Z</time>
      </trkpt>
      <trkpt lat="46.408434994518757" lon="9.351089978590608">
        <ele>1114.3</ele>
        <time>2007-06-09T13:30:58Z</time>
      </trkpt>
      <trkpt lat="46.408434994518757" lon="9.351089978590608">
        <ele>1114.3</ele>
        <time>2007-06-09T13:30:59Z</time>
      </trkpt>
    </trkseg>
  </trk>

</gpx>
